<?xml version='1.0' encoding='UTF-8'?><gpx version="1.1" creator="JPX - https://github.com/jenetics/jpx" xmlns="http://www.topografix.com/GPX/1/1"><trk><trkseg><trkpt lat="42.42085312423831" lon="-8.088162869385526"><ele>412.99999999999994</ele><time>2026-04-01T13:39:12.999Z</time></trkpt><trkpt lat="42.42078386639841" lon="-8.088230744509472"><ele>413.0</ele><time>2026-04-01T13:39:13.999Z</time></trkpt><trkpt lat="42.42072243370342" lon="-8.088298973649527"><ele>413.0</ele><time>2026-04-01T13:39:14.999Z</time></trkpt><trkpt lat="42.420658246635526" lon="-8.088366960802182"><ele>413.0</ele><time>2026-04-01T13:39:15.999Z</time></trkpt><trkpt lat="42.4205841161715" lon="-8.088442938151639"><ele>412.99999999999994</ele><time>2026-04-01T13:39:16.999Z</time></trkpt><trkpt lat="42.420506938612746" lon="-8.088526215003878"><ele>413.0</ele><time>2026-04-01T13:39:17.999Z</time></trkpt><trkpt lat="42.42042975613029" lon="-8.088607307368713"><ele>412.4</ele><time>2026-04-01T13:39:18.999Z</time></trkpt><trkpt lat="42.420353781910855" lon="-8.088686504794522"><ele>411.79999999999995</ele><time>2026-04-01T13:39:19.999Z</time></trkpt><trkpt lat="42.42027888144613" lon="-8.088782175852655"><ele>411.2</ele><time>2026-04-01T13:39:20.999Z</time></trkpt><trkpt lat="42.420178572867655" lon="-8.088866166181466"><ele>410.6</ele><time>2026-04-01T13:39:21.999Z</time></trkpt><trkpt lat="42.42009886211468" lon="-8.088952296109964"><ele>410.0</ele><time>2026-04-01T13:39:22.999Z</time></trkpt><trkpt lat="42.420013180340426" lon="-8.089049010719062"><ele>409.6</ele><time>2026-04-01T13:39:23.999Z</time></trkpt><trkpt lat="42.41992698378062" lon="-8.089138038536715"><ele>409.2</ele><time>2026-04-01T13:39:24.999Z</time></trkpt><trkpt lat="42.41984306717332" lon="-8.08922301714243"><ele>408.79999999999995</ele><time>2026-04-01T13:39:25.999Z</time></trkpt><trkpt lat="42.41975402754959" lon="-8.089315590187148"><ele>408.4</ele><time>2026-04-01T13:39:26.999Z</time></trkpt><trkpt lat="42.419671592964995" lon="-8.089402461121578"><ele>408.0</ele><time>2026-04-01T13:39:27.999Z</time></trkpt><trkpt lat="42.419592763808446" lon="-8.089495458037014"><ele>408.0</ele><time>2026-04-01T13:39:28.999Z</time></trkpt><trkpt lat="42.41949851960036" lon="-8.08957528585967"><ele>408.0</ele><time>2026-04-01T13:39:29.999Z</time></trkpt><trkpt lat="42.419413087837334" lon="-8.08965039982054"><ele>408.0</ele><time>2026-04-01T13:39:30.999Z</time></trkpt><trkpt lat="42.41931775145922" lon="-8.089728575743445"><ele>408.0</ele><time>2026-04-01T13:39:31.999Z</time></trkpt><trkpt lat="42.41922308831328" lon="-8.089809367113922"><ele>408.0</ele><time>2026-04-01T13:39:32.999Z</time></trkpt><trkpt lat="42.4191375793593" lon="-8.089908470629503"><ele>407.59999999999997</ele><time>2026-04-01T13:39:33.999Z</time></trkpt><trkpt lat="42.419041691468806" lon="-8.089979560617392"><ele>407.2</ele><time>2026-04-01T13:39:34.999Z</time></trkpt><trkpt lat="42.41894757772821" lon="-8.090064873871574"><ele>406.8</ele><time>2026-04-01T13:39:35.999Z</time></trkpt><trkpt lat="42.41885291094308" lon="-8.090144818484609"><ele>406.4</ele><time>2026-04-01T13:39:36.999Z</time></trkpt><trkpt lat="42.418762287303366" lon="-8.090233380262664"><ele>406.0</ele><time>2026-04-01T13:39:37.999Z</time></trkpt><trkpt lat="42.418684730421994" lon="-8.090324670103612"><ele>407.20000000000005</ele><time>2026-04-01T13:39:38.999Z</time></trkpt><trkpt lat="42.41859714318144" lon="-8.090389488967112"><ele>408.40000000000003</ele><time>2026-04-01T13:39:39.999Z</time></trkpt><trkpt lat="42.41850291871454" lon="-8.090478533053663"><ele>409.6</ele><time>2026-04-01T13:39:40.999Z</time></trkpt><trkpt lat="42.41842199713658" lon="-8.09056150714134"><ele>410.8</ele><time>2026-04-01T13:39:41.999Z</time></trkpt><trkpt lat="42.41832862559664" lon="-8.090644796286735"><ele>412.0</ele><time>2026-04-01T13:39:42.999Z</time></trkpt><trkpt lat="42.41823920663477" lon="-8.090720470598592"><ele>412.0</ele><time>2026-04-01T13:39:43.999Z</time></trkpt><trkpt lat="42.41814195775816" lon="-8.0907964209901"><ele>412.0</ele><time>2026-04-01T13:39:44.999Z</time></trkpt><trkpt lat="42.41805776115736" lon="-8.09086571472118"><ele>412.0</ele><time>2026-04-01T13:39:45.999Z</time></trkpt><trkpt lat="42.4179673355573" lon="-8.090936408154054"><ele>412.0</ele><time>2026-04-01T13:39:46.999Z</time></trkpt><trkpt lat="42.41787626658304" lon="-8.091006612015141"><ele>412.0</ele><time>2026-04-01T13:39:47.999Z</time></trkpt><trkpt lat="42.417801316635725" lon="-8.091064776209004"><ele>412.50000000000006</ele><time>2026-04-01T13:39:48.999Z</time></trkpt><trkpt lat="42.41773139341918" lon="-8.091121227225678"><ele>413.0</ele><time>2026-04-01T13:39:49.999Z</time></trkpt><trkpt lat="42.41766110272866" lon="-8.09119420898033"><ele>413.5</ele><time>2026-04-01T13:39:50.999Z</time></trkpt><trkpt lat="42.41758392813062" lon="-8.09124481549141"><ele>414.0</ele><time>2026-04-01T13:39:51.999Z</time></trkpt><trkpt lat="42.41752227081393" lon="-8.091284714436577"><ele>414.50000000000006</ele><time>2026-04-01T13:39:52.999Z</time></trkpt><trkpt lat="42.41743176197639" lon="-8.091359581899592"><ele>415.0</ele><time>2026-04-01T13:39:54.999Z</time></trkpt><trkpt lat="42.41739626247506" lon="-8.091445029649408"><ele>415.00000000000006</ele><time>2026-04-01T13:39:56.999Z</time></trkpt><trkpt lat="42.41741172059244" lon="-8.091561526432924"><ele>415.0</ele><time>2026-04-01T13:39:59.999Z</time></trkpt><trkpt lat="42.41736744367283" lon="-8.091667284708278"><ele>415.0</ele><time>2026-04-01T13:40:00.999Z</time></trkpt><trkpt lat="42.41732209342977" lon="-8.091813745267574"><ele>415.0</ele><time>2026-04-01T13:40:02.999Z</time></trkpt><trkpt lat="42.41727719454915" lon="-8.091879066651387"><ele>415.00000000000006</ele><time>2026-04-01T13:40:03.999Z</time></trkpt><trkpt lat="42.41722332103556" lon="-8.091944873456091"><ele>415.0</ele><time>2026-04-01T13:40:04.999Z</time></trkpt><trkpt lat="42.41718520533108" lon="-8.092034291444367"><ele>415.00000000000006</ele><time>2026-04-01T13:40:05.999Z</time></trkpt><trkpt lat="42.417173267421504" lon="-8.092122519655181"><ele>415.0</ele><time>2026-04-01T13:40:06.999Z</time></trkpt><trkpt lat="42.417154357630885" lon="-8.09220716131853"><ele>415.0</ele><time>2026-04-01T13:40:07.999Z</time></trkpt><trkpt lat="42.41710850543398" lon="-8.09230510477774"><ele>415.0</ele><time>2026-04-01T13:40:09.999Z</time></trkpt><trkpt lat="42.417072271811584" lon="-8.092414586944534"><ele>415.00000000000006</ele><time>2026-04-01T13:40:11.999Z</time></trkpt><trkpt lat="42.41707274901106" lon="-8.0925141464905"><ele>415.0</ele><time>2026-04-01T13:40:13.999Z</time></trkpt><trkpt lat="42.41705635676779" lon="-8.092614514388034"><ele>414.8</ele><time>2026-04-01T13:40:15.999Z</time></trkpt><trkpt lat="42.417035596099495" lon="-8.092707551620336"><ele>414.6</ele><time>2026-04-01T13:40:17.999Z</time></trkpt><trkpt lat="42.417017477624405" lon="-8.092796783587055"><ele>414.4</ele><time>2026-04-01T13:40:19.999Z</time></trkpt><trkpt lat="42.41700461805221" lon="-8.092880925551137"><ele>414.2</ele><time>2026-04-01T13:40:21.999Z</time></trkpt><trkpt lat="42.41716206817439" lon="-8.092960829290195"><ele>414.0</ele><time>2026-04-01T13:40:26.999Z</time></trkpt><trkpt lat="42.417248878356006" lon="-8.092969891535613"><ele>414.00000000000006</ele><time>2026-04-01T13:40:38.998Z</time></trkpt><trkpt lat="42.41732917710802" lon="-8.092969820877705"><ele>414.0</ele><time>2026-04-01T13:40:40.998Z</time></trkpt><trkpt lat="42.417393823848116" lon="-8.09301698702465"><ele>414.0</ele><time>2026-04-01T13:40:43.998Z</time></trkpt><trkpt lat="42.417425748561186" lon="-8.093105656869865"><ele>414.0</ele><time>2026-04-01T13:40:45.999Z</time></trkpt><trkpt lat="42.41745531710136" lon="-8.09318578353389"><ele>414.0</ele><time>2026-04-01T13:40:47.999Z</time></trkpt><trkpt lat="42.41748631020031" lon="-8.093260411547112"><ele>414.00000000000006</ele><time>2026-04-01T13:40:49.999Z</time></trkpt><trkpt lat="42.41751115400565" lon="-8.09334476807941"><ele>414.0</ele><time>2026-04-01T13:40:51.999Z</time></trkpt><trkpt lat="42.41753435436967" lon="-8.093428559391112"><ele>413.0</ele><time>2026-04-01T13:40:55.999Z</time></trkpt><trkpt lat="42.41762441396062" lon="-8.09344012233899"><ele>412.0</ele><time>2026-04-01T13:40:58.999Z</time></trkpt><trkpt lat="42.41769567342213" lon="-8.093398801887387"><ele>411.0</ele><time>2026-04-01T13:40:59.999Z</time></trkpt><trkpt lat="42.41778712279917" lon="-8.093425808269082"><ele>410.0</ele><time>2026-04-01T13:41:01.999Z</time></trkpt><trkpt lat="42.417823688878904" lon="-8.093555778189792"><ele>409.0</ele><time>2026-04-01T13:41:03.999Z</time></trkpt><trkpt lat="42.417821437246644" lon="-8.093659820116358"><ele>408.0</ele><time>2026-04-01T13:41:05.999Z</time></trkpt><trkpt lat="42.417793535828864" lon="-8.093785278148689"><ele>408.0</ele><time>2026-04-01T13:41:07.999Z</time></trkpt><trkpt lat="42.41776126241926" lon="-8.093919139590104"><ele>408.0</ele><time>2026-04-01T13:41:09.999Z</time></trkpt><trkpt lat="42.41772702959986" lon="-8.094035011993453"><ele>408.0</ele><time>2026-04-01T13:41:11.999Z</time></trkpt><trkpt lat="42.417670731050094" lon="-8.094144646647003"><ele>408.0</ele><time>2026-04-01T13:41:13.999Z</time></trkpt><trkpt lat="42.41762707039714" lon="-8.094256604880197"><ele>408.0</ele><time>2026-04-01T13:41:15.999Z</time></trkpt><trkpt lat="42.41757466118683" lon="-8.094356026239051"><ele>407.2</ele><time>2026-04-01T13:41:18.999Z</time></trkpt><trkpt lat="42.41753970869368" lon="-8.09444759738873"><ele>406.4</ele><time>2026-04-01T13:41:22.999Z</time></trkpt><trkpt lat="42.417607661339616" lon="-8.09455064502481"><ele>405.59999999999997</ele><time>2026-04-01T13:41:24.999Z</time></trkpt><trkpt lat="42.41765406029852" lon="-8.094672451963396"><ele>404.79999999999995</ele><time>2026-04-01T13:41:26.999Z</time></trkpt><trkpt lat="42.41764568453717" lon="-8.0948124530654"><ele>404.0</ele><time>2026-04-01T13:41:28.999Z</time></trkpt><trkpt lat="42.41763219162248" lon="-8.09490481157716"><ele>403.66666666666663</ele><time>2026-04-01T13:41:31.999Z</time></trkpt><trkpt lat="42.41762927513614" lon="-8.095003013881847"><ele>403.3333333333333</ele><time>2026-04-01T13:41:34.999Z</time></trkpt><trkpt lat="42.41761880021005" lon="-8.095160778452902"><ele>403.0</ele><time>2026-04-01T13:41:36.999Z</time></trkpt><trkpt lat="42.41758083938221" lon="-8.095268140304954"><ele>402.66666666666663</ele><time>2026-04-01T13:41:37.999Z</time></trkpt><trkpt lat="42.417549645385485" lon="-8.09538135518577"><ele>402.3333333333333</ele><time>2026-04-01T13:41:38.999Z</time></trkpt><trkpt lat="42.41752222897589" lon="-8.095480381386798"><ele>402.0</ele><time>2026-04-01T13:41:39.999Z</time></trkpt><trkpt lat="42.41748743275878" lon="-8.095582897546892"><ele>402.0</ele><time>2026-04-01T13:41:40.999Z</time></trkpt><trkpt lat="42.41744914849256" lon="-8.095671964906003"><ele>402.0</ele><time>2026-04-01T13:41:41.999Z</time></trkpt><trkpt lat="42.41740370892051" lon="-8.095755307171647"><ele>402.0</ele><time>2026-04-01T13:41:42.999Z</time></trkpt><trkpt lat="42.41736755422158" lon="-8.095830840675973"><ele>402.0</ele><time>2026-04-01T13:41:43.999Z</time></trkpt><trkpt lat="42.41731883563522" lon="-8.095943833595623"><ele>402.0</ele><time>2026-04-01T13:41:45.999Z</time></trkpt><trkpt lat="42.41726376407442" lon="-8.096038916278161"><ele>402.0</ele><time>2026-04-01T13:41:47.999Z</time></trkpt><trkpt lat="42.41722317394061" lon="-8.096117844995"><ele>402.1666666666667</ele><time>2026-04-01T13:41:49.999Z</time></trkpt><trkpt lat="42.41720982916899" lon="-8.096251017737602"><ele>402.33333333333337</ele><time>2026-04-01T13:41:51.999Z</time></trkpt><trkpt lat="42.4171734948244" lon="-8.096320856502325"><ele>402.5</ele><time>2026-04-01T13:41:52.999Z</time></trkpt><trkpt lat="42.41714303991352" lon="-8.09640741472022"><ele>402.6666666666667</ele><time>2026-04-01T13:41:53.999Z</time></trkpt><trkpt lat="42.41711594615684" lon="-8.096501026050664"><ele>402.83333333333337</ele><time>2026-04-01T13:41:54.999Z</time></trkpt><trkpt lat="42.417089103871454" lon="-8.096593172998286"><ele>403.0</ele><time>2026-04-01T13:41:55.999Z</time></trkpt><trkpt lat="42.41705988660928" lon="-8.096695870031446"><ele>403.50000000000006</ele><time>2026-04-01T13:41:56.999Z</time></trkpt><trkpt lat="42.417034038488175" lon="-8.096789396910879"><ele>404.0</ele><time>2026-04-01T13:41:57.999Z</time></trkpt><trkpt lat="42.41701274310905" lon="-8.096872178008859"><ele>404.5</ele><time>2026-04-01T13:41:58.999Z</time></trkpt><trkpt lat="42.416995529190984" lon="-8.09695571276968"><ele>405.0</ele><time>2026-04-01T13:41:59.999Z</time></trkpt><trkpt lat="42.41697393385468" lon="-8.097126760515659"><ele>405.50000000000006</ele><time>2026-04-01T13:42:01.999Z</time></trkpt><trkpt lat="42.41696463234729" lon="-8.097215945619903"><ele>406.0</ele><time>2026-04-01T13:42:02.999Z</time></trkpt><trkpt lat="42.416968337463416" lon="-8.097327873507792"><ele>406.00000000000006</ele><time>2026-04-01T13:42:03.999Z</time></trkpt><trkpt lat="42.41696298199302" lon="-8.097439103563785"><ele>406.0</ele><time>2026-04-01T13:42:04.999Z</time></trkpt><trkpt lat="42.416948605237394" lon="-8.097548758656611"><ele>406.0</ele><time>2026-04-01T13:42:05.999Z</time></trkpt><trkpt lat="42.416946390136644" lon="-8.097656882824781"><ele>406.0</ele><time>2026-04-01T13:42:06.999Z</time></trkpt><trkpt lat="42.41694099129746" lon="-8.097764846400109"><ele>406.00000000000006</ele><time>2026-04-01T13:42:07.999Z</time></trkpt><trkpt lat="42.41694766637326" lon="-8.097868770885547"><ele>406.0</ele><time>2026-04-01T13:42:08.999Z</time></trkpt><trkpt lat="42.416946741596" lon="-8.097981330237847"><ele>406.00000000000006</ele><time>2026-04-01T13:42:09.999Z</time></trkpt><trkpt lat="42.416952998498154" lon="-8.098086329057958"><ele>406.0</ele><time>2026-04-01T13:42:10.999Z</time></trkpt><trkpt lat="42.41695954899892" lon="-8.098196929295716"><ele>406.0</ele><time>2026-04-01T13:42:11.999Z</time></trkpt><trkpt lat="42.416965004981535" lon="-8.098310852597647"><ele>406.0</ele><time>2026-04-01T13:42:12.999Z</time></trkpt><trkpt lat="42.41696647232528" lon="-8.098428243954961"><ele>406.00000000000006</ele><time>2026-04-01T13:42:13.999Z</time></trkpt><trkpt lat="42.416964748888155" lon="-8.098548826808553"><ele>406.0</ele><time>2026-04-01T13:42:14.999Z</time></trkpt><trkpt lat="42.416968857628326" lon="-8.098673242707216"><ele>406.0</ele><time>2026-04-01T13:42:15.999Z</time></trkpt><trkpt lat="42.41697154637306" lon="-8.09878713443528"><ele>406.0</ele><time>2026-04-01T13:42:16.999Z</time></trkpt><trkpt lat="42.416972738793085" lon="-8.098919148441881"><ele>406.0</ele><time>2026-04-01T13:42:17.999Z</time></trkpt><trkpt lat="42.4169762661792" lon="-8.099041931600505"><ele>406.0</ele><time>2026-04-01T13:42:18.999Z</time></trkpt><trkpt lat="42.41697011574195" lon="-8.09917366091402"><ele>406.0</ele><time>2026-04-01T13:42:19.999Z</time></trkpt><trkpt lat="42.41695828736104" lon="-8.09929536571866"><ele>406.20000000000005</ele><time>2026-04-01T13:42:20.999Z</time></trkpt><trkpt lat="42.41696838003867" lon="-8.09941412541038"><ele>406.40000000000003</ele><time>2026-04-01T13:42:21.999Z</time></trkpt><trkpt lat="42.41698721801728" lon="-8.099565804852"><ele>406.6</ele><time>2026-04-01T13:42:22.999Z</time></trkpt><trkpt lat="42.41701052413818" lon="-8.099707840266992"><ele>406.8</ele><time>2026-04-01T13:42:23.999Z</time></trkpt><trkpt lat="42.41703781885716" lon="-8.09984994907494"><ele>407.0</ele><time>2026-04-01T13:42:24.999Z</time></trkpt><trkpt lat="42.417067250997235" lon="-8.09999558171035"><ele>407.20000000000005</ele><time>2026-04-01T13:42:25.999Z</time></trkpt><trkpt lat="42.417096450964934" lon="-8.1001334347268"><ele>407.4</ele><time>2026-04-01T13:42:26.999Z</time></trkpt><trkpt lat="42.417124533701745" lon="-8.100270336189773"><ele>407.6</ele><time>2026-04-01T13:42:27.999Z</time></trkpt><trkpt lat="42.41714272508001" lon="-8.100420112806065"><ele>407.79999999999995</ele><time>2026-04-01T13:42:28.999Z</time></trkpt><trkpt lat="42.41715590024977" lon="-8.100563096493111"><ele>408.0</ele><time>2026-04-01T13:42:29.999Z</time></trkpt><trkpt lat="42.41718555072317" lon="-8.100715087070212"><ele>406.25</ele><time>2026-04-01T13:42:30.999Z</time></trkpt><trkpt lat="42.417206745787354" lon="-8.100870202406645"><ele>404.5</ele><time>2026-04-01T13:42:31.999Z</time></trkpt><trkpt lat="42.41721149882911" lon="-8.101021986872608"><ele>402.75</ele><time>2026-04-01T13:42:32.999Z</time></trkpt><trkpt lat="42.41722625800337" lon="-8.10118146796484"><ele>401.0</ele><time>2026-04-01T13:42:33.999Z</time></trkpt><trkpt lat="42.417248838141475" lon="-8.101330058670964"><ele>401.0</ele><time>2026-04-01T13:42:34.999Z</time></trkpt><trkpt lat="42.417243901062534" lon="-8.101477226400778"><ele>401.0</ele><time>2026-04-01T13:42:35.999Z</time></trkpt><trkpt lat="42.41725355576506" lon="-8.101612672481611"><ele>401.0</ele><time>2026-04-01T13:42:36.999Z</time></trkpt><trkpt lat="42.417235055602546" lon="-8.101764176224963"><ele>401.0</ele><time>2026-04-01T13:42:37.999Z</time></trkpt><trkpt lat="42.41721848855539" lon="-8.101906134291601"><ele>401.0</ele><time>2026-04-01T13:42:38.999Z</time></trkpt><trkpt lat="42.41720372626309" lon="-8.102032906670086"><ele>401.49999999999994</ele><time>2026-04-01T13:42:39.999Z</time></trkpt><trkpt lat="42.417195520215536" lon="-8.102155123813962"><ele>402.0</ele><time>2026-04-01T13:42:40.999Z</time></trkpt><trkpt lat="42.417194203830064" lon="-8.102274584044903"><ele>402.5</ele><time>2026-04-01T13:42:41.999Z</time></trkpt><trkpt lat="42.41719843054419" lon="-8.102390930172202"><ele>403.0</ele><time>2026-04-01T13:42:42.999Z</time></trkpt><trkpt lat="42.41721088143429" lon="-8.102495980716892"><ele>403.49999999999994</ele><time>2026-04-01T13:42:43.998Z</time></trkpt><trkpt lat="42.41721565349295" lon="-8.102593930698843"><ele>404.0</ele><time>2026-04-01T13:42:44.998Z</time></trkpt><trkpt lat="42.41722088877823" lon="-8.102753243793488"><ele>406.0</ele><time>2026-04-01T13:42:46.998Z</time></trkpt><trkpt lat="42.4170501074864" lon="-8.102840219445461"><ele>408.0</ele><time>2026-04-01T13:42:48.998Z</time></trkpt><trkpt lat="42.416939369098706" lon="-8.102844906144908"><ele>410.0</ele><time>2026-04-01T13:42:50.998Z</time></trkpt><trkpt lat="42.41687603530262" lon="-8.102870083544563"><ele>412.0</ele><time>2026-04-01T13:42:53.999Z</time></trkpt><trkpt lat="42.41680789358642" lon="-8.102906801101334"><ele>414.0</ele><time>2026-04-01T13:43:07.999Z</time></trkpt><trkpt lat="42.416802046565536" lon="-8.10304450607853"><ele>414.0</ele><time>2026-04-01T13:43:08.999Z</time></trkpt><trkpt lat="42.41681235145879" lon="-8.103164688884528"><ele>414.0</ele><time>2026-04-01T13:43:10.999Z</time></trkpt><trkpt lat="42.41669301888714" lon="-8.103231655123484"><ele>414.0</ele><time>2026-04-01T13:43:11.999Z</time></trkpt><trkpt lat="42.41661804418013" lon="-8.103274002979427"><ele>414.0</ele><time>2026-04-01T13:43:12.999Z</time></trkpt><trkpt lat="42.41654178083685" lon="-8.103324514830637"><ele>414.0</ele><time>2026-04-01T13:43:13.999Z</time></trkpt><trkpt lat="42.41645716655604" lon="-8.103382005518215"><ele>414.2</ele><time>2026-04-01T13:43:14.999Z</time></trkpt><trkpt lat="42.41636518911042" lon="-8.10342495865677"><ele>414.4</ele><time>2026-04-01T13:43:15.999Z</time></trkpt><trkpt lat="42.41626700766535" lon="-8.103486900235398"><ele>414.6</ele><time>2026-04-01T13:43:16.999Z</time></trkpt><trkpt lat="42.41618499119071" lon="-8.103540002026024"><ele>414.8</ele><time>2026-04-01T13:43:17.999Z</time></trkpt><trkpt lat="42.41609789353059" lon="-8.103593125755516"><ele>415.0</ele><time>2026-04-01T13:43:18.999Z</time></trkpt><trkpt lat="42.416003862698574" lon="-8.103615074846704"><ele>415.50000000000006</ele><time>2026-04-01T13:43:19.999Z</time></trkpt><trkpt lat="42.41593465702294" lon="-8.103644785130486"><ele>416.0</ele><time>2026-04-01T13:43:20.999Z</time></trkpt><trkpt lat="42.4158594590398" lon="-8.103673799095217"><ele>416.5</ele><time>2026-04-01T13:43:21.999Z</time></trkpt><trkpt lat="42.415790201650886" lon="-8.103699415906636"><ele>417.0</ele><time>2026-04-01T13:43:22.999Z</time></trkpt><trkpt lat="42.415726831281795" lon="-8.103723802425812"><ele>417.50000000000006</ele><time>2026-04-01T13:43:23.999Z</time></trkpt><trkpt lat="42.41561932604002" lon="-8.103728804261795"><ele>418.0</ele><time>2026-04-01T13:43:25.999Z</time></trkpt><trkpt lat="42.415559252019484" lon="-8.103592430009908"><ele>418.00000000000006</ele><time>2026-04-01T13:43:27.999Z</time></trkpt><trkpt lat="42.41552985120666" lon="-8.103439285268422"><ele>418.0</ele><time>2026-04-01T13:43:29.999Z</time></trkpt><trkpt lat="42.41552657278405" lon="-8.103339715533089"><ele>418.0</ele><time>2026-04-01T13:43:30.999Z</time></trkpt><trkpt lat="42.4155230054245" lon="-8.103243504885855"><ele>418.0</ele><time>2026-04-01T13:43:31.999Z</time></trkpt><trkpt lat="42.41552154664239" lon="-8.103145603586622"><ele>418.00000000000006</ele><time>2026-04-01T13:43:32.999Z</time></trkpt><trkpt lat="42.41552219965095" lon="-8.103045132844557"><ele>418.0</ele><time>2026-04-01T13:43:33.999Z</time></trkpt><trkpt lat="42.41552378810351" lon="-8.102949177961547"><ele>417.6666666666667</ele><time>2026-04-01T13:43:34.999Z</time></trkpt><trkpt lat="42.41552605828199" lon="-8.10285558980627"><ele>417.33333333333337</ele><time>2026-04-01T13:43:35.999Z</time></trkpt><trkpt lat="42.41553833328777" lon="-8.102674710373089"><ele>417.0</ele><time>2026-04-01T13:43:37.999Z</time></trkpt><trkpt lat="42.415554064113806" lon="-8.10258246142295"><ele>416.66666666666663</ele><time>2026-04-01T13:43:38.999Z</time></trkpt><trkpt lat="42.41557387238158" lon="-8.102493812933659"><ele>416.3333333333333</ele><time>2026-04-01T13:43:39.999Z</time></trkpt><trkpt lat="42.41563714420935" lon="-8.102417643310536"><ele>416.0</ele><time>2026-04-01T13:43:40.999Z</time></trkpt><trkpt lat="42.41570361096677" lon="-8.102272434983217"><ele>415.66666666666663</ele><time>2026-04-01T13:43:42.999Z</time></trkpt><trkpt lat="42.41574715729145" lon="-8.10220354151949"><ele>415.3333333333333</ele><time>2026-04-01T13:43:43.999Z</time></trkpt><trkpt lat="42.41579213500883" lon="-8.102134973554662"><ele>415.0</ele><time>2026-04-01T13:43:44.999Z</time></trkpt><trkpt lat="42.41583094774316" lon="-8.1020607987967"><ele>414.66666666666663</ele><time>2026-04-01T13:43:45.999Z</time></trkpt><trkpt lat="42.415890449209314" lon="-8.101926915380005"><ele>414.3333333333333</ele><time>2026-04-01T13:43:47.999Z</time></trkpt><trkpt lat="42.41591817406703" lon="-8.101810910861133"><ele>414.0</ele><time>2026-04-01T13:43:49.999Z</time></trkpt><trkpt lat="42.41594316485582" lon="-8.101714428582708"><ele>414.0</ele><time>2026-04-01T13:43:50.999Z</time></trkpt><trkpt lat="42.415859584571265" lon="-8.101592884129646"><ele>414.0</ele><time>2026-04-01T13:43:52.999Z</time></trkpt><trkpt lat="42.4158204804033" lon="-8.101493318050554"><ele>414.0</ele><time>2026-04-01T13:43:53.999Z</time></trkpt><trkpt lat="42.41578210769842" lon="-8.101371832398614"><ele>414.0</ele><time>2026-04-01T13:43:54.999Z</time></trkpt><trkpt lat="42.415752910006425" lon="-8.101259894449186"><ele>414.0</ele><time>2026-04-01T13:43:55.999Z</time></trkpt><trkpt lat="42.41572597614092" lon="-8.101148424492555"><ele>413.5</ele><time>2026-04-01T13:43:56.999Z</time></trkpt><trkpt lat="42.415703915424324" lon="-8.101047410967219"><ele>413.0</ele><time>2026-04-01T13:43:57.999Z</time></trkpt><trkpt lat="42.41568550159949" lon="-8.100960156474375"><ele>412.5</ele><time>2026-04-01T13:43:58.999Z</time></trkpt><trkpt lat="42.41566869433549" lon="-8.100844523754471"><ele>412.0</ele><time>2026-04-01T13:44:00.999Z</time></trkpt><trkpt lat="42.415564116871614" lon="-8.10087657123892"><ele>411.5</ele><time>2026-04-01T13:44:03.999Z</time></trkpt><trkpt lat="42.415520263494166" lon="-8.100964901333342"><ele>411.0</ele><time>2026-04-01T13:44:04.999Z</time></trkpt><trkpt lat="42.41546942497242" lon="-8.101063302758758"><ele>409.4</ele><time>2026-04-01T13:44:05.999Z</time></trkpt><trkpt lat="42.415409659744334" lon="-8.101152877422987"><ele>407.8</ele><time>2026-04-01T13:44:06.999Z</time></trkpt><trkpt lat="42.41535525507968" lon="-8.101250091165282"><ele>406.2</ele><time>2026-04-01T13:44:07.999Z</time></trkpt><trkpt lat="42.41529602053595" lon="-8.101350508081905"><ele>404.59999999999997</ele><time>2026-04-01T13:44:08.999Z</time></trkpt><trkpt lat="42.4152351141007" lon="-8.101447234238602"><ele>403.0</ele><time>2026-04-01T13:44:09.999Z</time></trkpt><trkpt lat="42.41516436684197" lon="-8.101551276824704"><ele>404.4</ele><time>2026-04-01T13:44:10.999Z</time></trkpt><trkpt lat="42.41510324436725" lon="-8.101656535292316"><ele>405.79999999999995</ele><time>2026-04-01T13:44:11.999Z</time></trkpt><trkpt lat="42.41503773375183" lon="-8.101782901749123"><ele>407.2</ele><time>2026-04-01T13:44:12.999Z</time></trkpt><trkpt lat="42.414967904241436" lon="-8.101901260545402"><ele>408.6</ele><time>2026-04-01T13:44:13.999Z</time></trkpt><trkpt lat="42.41490837946088" lon="-8.10202275436954"><ele>410.0</ele><time>2026-04-01T13:44:14.999Z</time></trkpt><trkpt lat="42.41483323823968" lon="-8.102131147688494"><ele>410.0</ele><time>2026-04-01T13:44:15.999Z</time></trkpt><trkpt lat="42.41476689983114" lon="-8.102255358564978"><ele>410.0</ele><time>2026-04-01T13:44:16.999Z</time></trkpt><trkpt lat="42.41469863383241" lon="-8.102347233453488"><ele>410.0</ele><time>2026-04-01T13:44:17.999Z</time></trkpt><trkpt lat="42.4146383182602" lon="-8.102454810120959"><ele>410.0</ele><time>2026-04-01T13:44:18.999Z</time></trkpt><trkpt lat="42.4145769316078" lon="-8.102568122640752"><ele>410.0</ele><time>2026-04-01T13:44:19.999Z</time></trkpt><trkpt lat="42.41452082503915" lon="-8.102658613934963"><ele>410.3333333333333</ele><time>2026-04-01T13:44:20.999Z</time></trkpt><trkpt lat="42.41449064733308" lon="-8.102772090797064"><ele>410.66666666666663</ele><time>2026-04-01T13:44:21.999Z</time></trkpt><trkpt lat="42.41444048507952" lon="-8.10286070107435"><ele>411.0</ele><time>2026-04-01T13:44:22.999Z</time></trkpt><trkpt lat="42.414417874193056" lon="-8.102970523514072"><ele>411.33333333333337</ele><time>2026-04-01T13:44:23.999Z</time></trkpt><trkpt lat="42.414398779431416" lon="-8.103087534305772"><ele>411.6666666666667</ele><time>2026-04-01T13:44:24.999Z</time></trkpt><trkpt lat="42.4143702156553" lon="-8.103197904586574"><ele>412.0</ele><time>2026-04-01T13:44:25.999Z</time></trkpt><trkpt lat="42.41434750186887" lon="-8.103313125632393"><ele>412.00000000000006</ele><time>2026-04-01T13:44:26.999Z</time></trkpt><trkpt lat="42.41434504872464" lon="-8.103441264954677"><ele>412.0</ele><time>2026-04-01T13:44:27.999Z</time></trkpt><trkpt lat="42.41431944519722" lon="-8.103544064925984"><ele>412.0</ele><time>2026-04-01T13:44:28.999Z</time></trkpt><trkpt lat="42.41427401101296" lon="-8.103630739955157"><ele>412.0</ele><time>2026-04-01T13:44:29.999Z</time></trkpt><trkpt lat="42.414211622958575" lon="-8.103706280035892"><ele>412.00000000000006</ele><time>2026-04-01T13:44:30.999Z</time></trkpt><trkpt lat="42.41412579779483" lon="-8.103751779290896"><ele>412.0</ele><time>2026-04-01T13:44:31.999Z</time></trkpt><trkpt lat="42.41403182243532" lon="-8.103779084960046"><ele>412.0</ele><time>2026-04-01T13:44:32.999Z</time></trkpt><trkpt lat="42.413932163760045" lon="-8.103798699402418"><ele>412.0</ele><time>2026-04-01T13:44:33.999Z</time></trkpt><trkpt lat="42.413842205308946" lon="-8.103860332137858"><ele>412.0</ele><time>2026-04-01T13:44:34.999Z</time></trkpt><trkpt lat="42.41374741836681" lon="-8.103921064044165"><ele>412.0</ele><time>2026-04-01T13:44:35.999Z</time></trkpt><trkpt lat="42.413648716481426" lon="-8.103994980957497"><ele>412.0</ele><time>2026-04-01T13:44:36.999Z</time></trkpt><trkpt lat="42.41356762344879" lon="-8.104092158520494"><ele>412.0</ele><time>2026-04-01T13:44:37.999Z</time></trkpt><trkpt lat="42.41348257145839" lon="-8.104184812991852"><ele>412.0</ele><time>2026-04-01T13:44:38.999Z</time></trkpt><trkpt lat="42.41338836696657" lon="-8.104264725840313"><ele>412.0</ele><time>2026-04-01T13:44:39.999Z</time></trkpt><trkpt lat="42.41330475979663" lon="-8.104355249466664"><ele>412.0</ele><time>2026-04-01T13:44:40.999Z</time></trkpt><trkpt lat="42.41322536101171" lon="-8.10443840901919"><ele>412.0</ele><time>2026-04-01T13:44:41.999Z</time></trkpt><trkpt lat="42.41317032789084" lon="-8.104504552161039"><ele>412.0</ele><time>2026-04-01T13:44:42.999Z</time></trkpt><trkpt lat="42.41306073004175" lon="-8.104620454198095"><ele>412.0</ele><time>2026-04-01T13:44:43.999Z</time></trkpt><trkpt lat="42.41297751523687" lon="-8.104701909261133"><ele>412.0</ele><time>2026-04-01T13:44:44.999Z</time></trkpt><trkpt lat="42.412878383141326" lon="-8.104772240721983"><ele>412.0</ele><time>2026-04-01T13:44:45.999Z</time></trkpt><trkpt lat="42.41280284320691" lon="-8.104867416022332"><ele>411.40000000000003</ele><time>2026-04-01T13:44:46.999Z</time></trkpt><trkpt lat="42.412720071641004" lon="-8.10496158892078"><ele>410.8</ele><time>2026-04-01T13:44:47.999Z</time></trkpt><trkpt lat="42.412648138995955" lon="-8.105080901209103"><ele>410.2</ele><time>2026-04-01T13:44:48.999Z</time></trkpt><trkpt lat="42.412599453319466" lon="-8.105196286280242"><ele>409.6</ele><time>2026-04-01T13:44:49.999Z</time></trkpt><trkpt lat="42.41254013547037" lon="-8.10532115814578"><ele>409.0</ele><time>2026-04-01T13:44:50.999Z</time></trkpt><trkpt lat="42.41249345223504" lon="-8.105435800964797"><ele>409.0</ele><time>2026-04-01T13:44:51.999Z</time></trkpt><trkpt lat="42.41242134768924" lon="-8.105522298827562"><ele>409.0</ele><time>2026-04-01T13:44:52.999Z</time></trkpt><trkpt lat="42.41236537866846" lon="-8.105614022983696"><ele>409.0</ele><time>2026-04-01T13:44:53.999Z</time></trkpt><trkpt lat="42.41229237690426" lon="-8.105700470119487"><ele>409.0</ele><time>2026-04-01T13:44:54.999Z</time></trkpt><trkpt lat="42.412213107023206" lon="-8.105764580570698"><ele>409.0</ele><time>2026-04-01T13:44:55.999Z</time></trkpt><trkpt lat="42.41213901220397" lon="-8.105831635043323"><ele>408.4</ele><time>2026-04-01T13:44:56.999Z</time></trkpt><trkpt lat="42.41206666908107" lon="-8.10588483598444"><ele>407.79999999999995</ele><time>2026-04-01T13:44:57.999Z</time></trkpt><trkpt lat="42.41200642019593" lon="-8.105942064263642"><ele>407.20000000000005</ele><time>2026-04-01T13:44:58.999Z</time></trkpt><trkpt lat="42.41190936894478" lon="-8.106029260169658"><ele>406.6</ele><time>2026-04-01T13:45:00.999Z</time></trkpt><trkpt lat="42.411816406757694" lon="-8.106083024127294"><ele>406.0</ele><time>2026-04-01T13:45:02.999Z</time></trkpt><trkpt lat="42.41169697848177" lon="-8.105951696497522"><ele>406.00000000000006</ele><time>2026-04-01T13:45:03.999Z</time></trkpt><trkpt lat="42.41161823825161" lon="-8.105894911372856"><ele>406.0</ele><time>2026-04-01T13:45:04.999Z</time></trkpt><trkpt lat="42.411537501897584" lon="-8.105840187910069"><ele>406.0</ele><time>2026-04-01T13:45:05.999Z</time></trkpt><trkpt lat="42.41145589681295" lon="-8.105804669920314"><ele>406.0</ele><time>2026-04-01T13:45:06.999Z</time></trkpt><trkpt lat="42.41137297017015" lon="-8.105779690962718"><ele>406.00000000000006</ele><time>2026-04-01T13:45:07.999Z</time></trkpt><trkpt lat="42.4112925907717" lon="-8.10576558604899"><ele>406.0</ele><time>2026-04-01T13:45:08.999Z</time></trkpt><trkpt lat="42.41118586201448" lon="-8.105754839760555"><ele>404.4</ele><time>2026-04-01T13:45:09.999Z</time></trkpt><trkpt lat="42.41108159699047" lon="-8.105748960489962"><ele>402.8</ele><time>2026-04-01T13:45:10.999Z</time></trkpt><trkpt lat="42.41098623058601" lon="-8.105726031126105"><ele>401.2</ele><time>2026-04-01T13:45:11.999Z</time></trkpt><trkpt lat="42.41088239728907" lon="-8.105742208638606"><ele>399.59999999999997</ele><time>2026-04-01T13:45:12.999Z</time></trkpt><trkpt lat="42.41076745023487" lon="-8.105728137422473"><ele>398.0</ele><time>2026-04-01T13:45:13.999Z</time></trkpt><trkpt lat="42.41065509185037" lon="-8.1057560918437"><ele>396.59999999999997</ele><time>2026-04-01T13:45:14.999Z</time></trkpt><trkpt lat="42.41054906173952" lon="-8.105726784171564"><ele>395.2</ele><time>2026-04-01T13:45:15.999Z</time></trkpt><trkpt lat="42.41044454925289" lon="-8.105705995238194"><ele>393.8</ele><time>2026-04-01T13:45:17Z</time></trkpt><trkpt lat="42.41034063263307" lon="-8.105660267661701"><ele>392.4</ele><time>2026-04-01T13:45:18Z</time></trkpt><trkpt lat="42.41024324104388" lon="-8.105563902587805"><ele>391.0</ele><time>2026-04-01T13:45:19Z</time></trkpt><trkpt lat="42.410153508546614" lon="-8.105457814178335"><ele>389.4</ele><time>2026-04-01T13:45:20Z</time></trkpt><trkpt lat="42.410070825054724" lon="-8.10535596010278"><ele>387.8</ele><time>2026-04-01T13:45:21Z</time></trkpt><trkpt lat="42.410006137139504" lon="-8.10528327578271"><ele>386.2</ele><time>2026-04-01T13:45:22Z</time></trkpt><trkpt lat="42.409931444775616" lon="-8.105205801295352"><ele>384.59999999999997</ele><time>2026-04-01T13:45:23Z</time></trkpt><trkpt lat="42.409849732724616" lon="-8.10511185450847"><ele>383.0</ele><time>2026-04-01T13:45:24Z</time></trkpt><trkpt lat="42.40980020672128" lon="-8.105051657364557"><ele>383.0</ele><time>2026-04-01T13:45:25Z</time></trkpt><trkpt lat="42.40976621510838" lon="-8.104944529753851"><ele>383.0</ele><time>2026-04-01T13:45:26Z</time></trkpt><trkpt lat="42.40974866986401" lon="-8.1048343156636"><ele>383.0</ele><time>2026-04-01T13:45:27Z</time></trkpt><trkpt lat="42.40970754532555" lon="-8.10470759245037"><ele>383.0</ele><time>2026-04-01T13:45:28Z</time></trkpt><trkpt lat="42.40968783515059" lon="-8.104590126320725"><ele>383.0</ele><time>2026-04-01T13:45:29Z</time></trkpt><trkpt lat="42.40968529462563" lon="-8.104451505011598"><ele>381.1666666666667</ele><time>2026-04-01T13:45:30Z</time></trkpt><trkpt lat="42.40968188024588" lon="-8.104343874572065"><ele>379.33333333333337</ele><time>2026-04-01T13:45:31Z</time></trkpt><trkpt lat="42.40968214719768" lon="-8.104250988661981"><ele>377.5</ele><time>2026-04-01T13:45:32Z</time></trkpt><trkpt lat="42.40968757525215" lon="-8.104162207534017"><ele>375.6666666666667</ele><time>2026-04-01T13:45:33Z</time></trkpt><trkpt lat="42.409703259740276" lon="-8.1040648260288"><ele>373.8333333333333</ele><time>2026-04-01T13:45:34Z</time></trkpt><trkpt lat="42.40973767212894" lon="-8.10396293688372"><ele>372.0</ele><time>2026-04-01T13:45:35Z</time></trkpt><trkpt lat="42.409799286065606" lon="-8.103865075595378"><ele>369.0</ele><time>2026-04-01T13:45:36Z</time></trkpt><trkpt lat="42.40987811329256" lon="-8.103763978624881"><ele>366.0</ele><time>2026-04-01T13:45:37Z</time></trkpt><trkpt lat="42.409952402727754" lon="-8.103697476845568"><ele>363.0</ele><time>2026-04-01T13:45:38Z</time></trkpt><trkpt lat="42.410030921812655" lon="-8.103598558806807"><ele>360.0</ele><time>2026-04-01T13:45:39Z</time></trkpt><trkpt lat="42.41011094413824" lon="-8.103488989509556"><ele>357.0</ele><time>2026-04-01T13:45:40Z</time></trkpt><trkpt lat="42.41015972835824" lon="-8.103358363431608"><ele>353.25</ele><time>2026-04-01T13:45:41Z</time></trkpt><trkpt lat="42.410185727334394" lon="-8.103196931197598"><ele>349.5</ele><time>2026-04-01T13:45:42Z</time></trkpt><trkpt lat="42.41021457519505" lon="-8.10304139862383"><ele>345.75</ele><time>2026-04-01T13:45:43Z</time></trkpt><trkpt lat="42.410248695291095" lon="-8.102892962363367"><ele>342.0</ele><time>2026-04-01T13:45:44Z</time></trkpt><trkpt lat="42.41029174585074" lon="-8.10276945277718"><ele>342.0</ele><time>2026-04-01T13:45:45Z</time></trkpt><trkpt lat="42.410340106728036" lon="-8.1026460339925"><ele>342.0</ele><time>2026-04-01T13:45:46Z</time></trkpt><trkpt lat="42.4103925936915" lon="-8.102517275711232"><ele>342.0</ele><time>2026-04-01T13:45:47Z</time></trkpt><trkpt lat="42.41043180447273" lon="-8.102418512407263"><ele>342.0</ele><time>2026-04-01T13:45:48Z</time></trkpt><trkpt lat="42.41047060708833" lon="-8.102317448831142"><ele>342.0</ele><time>2026-04-01T13:45:49Z</time></trkpt><trkpt lat="42.410503615561225" lon="-8.102170403972993"><ele>340.40000000000003</ele><time>2026-04-01T13:45:51Z</time></trkpt><trkpt lat="42.41043682979112" lon="-8.10203393103483"><ele>338.8</ele><time>2026-04-01T13:45:53Z</time></trkpt><trkpt lat="42.4103186574653" lon="-8.101977687363677"><ele>337.2</ele><time>2026-04-01T13:45:55Z</time></trkpt><trkpt lat="42.41025823623532" lon="-8.101924708456155"><ele>335.6</ele><time>2026-04-01T13:45:56Z</time></trkpt><trkpt lat="42.41020674524668" lon="-8.101841510773243"><ele>334.0</ele><time>2026-04-01T13:45:57Z</time></trkpt><trkpt lat="42.41018530977786" lon="-8.101730633835276"><ele>334.0</ele><time>2026-04-01T13:45:58Z</time></trkpt><trkpt lat="42.41022738829752" lon="-8.101600268644388"><ele>334.0</ele><time>2026-04-01T13:45:59Z</time></trkpt><trkpt lat="42.41027306923661" lon="-8.101514054927126"><ele>334.0</ele><time>2026-04-01T13:46:00Z</time></trkpt><trkpt lat="42.410392394137745" lon="-8.10151638494652"><ele>334.0</ele><time>2026-04-01T13:46:01Z</time></trkpt><trkpt lat="42.41045741177715" lon="-8.101479990813182"><ele>334.0</ele><time>2026-04-01T13:46:02Z</time></trkpt><trkpt lat="42.410528701088474" lon="-8.10145494551137"><ele>334.0</ele><time>2026-04-01T13:46:03Z</time></trkpt><trkpt lat="42.410567578290795" lon="-8.101370588356755"><ele>333.0</ele><time>2026-04-01T13:46:04Z</time></trkpt><trkpt lat="42.410558117226266" lon="-8.101263513853267"><ele>332.0</ele><time>2026-04-01T13:46:05Z</time></trkpt><trkpt lat="42.41056956514684" lon="-8.101153213702714"><ele>331.0</ele><time>2026-04-01T13:46:06Z</time></trkpt><trkpt lat="42.41056383437868" lon="-8.101049486355882"><ele>330.0</ele><time>2026-04-01T13:46:07Z</time></trkpt><trkpt lat="42.410544938488954" lon="-8.100960401275787"><ele>329.0</ele><time>2026-04-01T13:46:08Z</time></trkpt><trkpt lat="42.41047531410821" lon="-8.10082869234183"><ele>328.0</ele><time>2026-04-01T13:46:10Z</time></trkpt><trkpt lat="42.41042498862523" lon="-8.100754877647104"><ele>328.2857142857143</ele><time>2026-04-01T13:46:11Z</time></trkpt><trkpt lat="42.410370299768026" lon="-8.100697993258546"><ele>328.57142857142856</ele><time>2026-04-01T13:46:12Z</time></trkpt><trkpt lat="42.410308467447706" lon="-8.100651718309976"><ele>328.8571428571429</ele><time>2026-04-01T13:46:13Z</time></trkpt><trkpt lat="42.41024053663244" lon="-8.100596309001768"><ele>329.1428571428571</ele><time>2026-04-01T13:46:14Z</time></trkpt><trkpt lat="42.410184971920934" lon="-8.100545045652726"><ele>329.42857142857144</ele><time>2026-04-01T13:46:15Z</time></trkpt><trkpt lat="42.41014137304978" lon="-8.100464161486908"><ele>329.7142857142857</ele><time>2026-04-01T13:46:16Z</time></trkpt><trkpt lat="42.41011311706293" lon="-8.100363191704819"><ele>330.0</ele><time>2026-04-01T13:46:17Z</time></trkpt><trkpt lat="42.410080789450895" lon="-8.100271760088788"><ele>330.0</ele><time>2026-04-01T13:46:18Z</time></trkpt><trkpt lat="42.410046087953134" lon="-8.100180907631918"><ele>330.0</ele><time>2026-04-01T13:46:19Z</time></trkpt><trkpt lat="42.409965994754266" lon="-8.10007932512046"><ele>330.0</ele><time>2026-04-01T13:46:21Z</time></trkpt><trkpt lat="42.40989352992212" lon="-8.100060479845327"><ele>330.0</ele><time>2026-04-01T13:46:22Z</time></trkpt><trkpt lat="42.40974903803351" lon="-8.100115102967017"><ele>330.0</ele><time>2026-04-01T13:46:24Z</time></trkpt><trkpt lat="42.40967070029539" lon="-8.100150320898967"><ele>327.0</ele><time>2026-04-01T13:46:25Z</time></trkpt><trkpt lat="42.4095998548874" lon="-8.100166478493533"><ele>324.0</ele><time>2026-04-01T13:46:26Z</time></trkpt><trkpt lat="42.40951430828822" lon="-8.10021887457564"><ele>321.0</ele><time>2026-04-01T13:46:27Z</time></trkpt><trkpt lat="42.40943125918973" lon="-8.100223862476582"><ele>318.0</ele><time>2026-04-01T13:46:28Z</time></trkpt><trkpt lat="42.409366434263724" lon="-8.100253103856497"><ele>315.0</ele><time>2026-04-01T13:46:29Z</time></trkpt><trkpt lat="42.40932161868015" lon="-8.100339431723969"><ele>312.0</ele><time>2026-04-01T13:46:30Z</time></trkpt><trkpt lat="42.4092533081357" lon="-8.100413676650565"><ele>312.0</ele><time>2026-04-01T13:46:31Z</time></trkpt><trkpt lat="42.40919742505838" lon="-8.10046021000577"><ele>312.0</ele><time>2026-04-01T13:46:32Z</time></trkpt><trkpt lat="42.409120139327165" lon="-8.100492480808313"><ele>312.0</ele><time>2026-04-01T13:46:33Z</time></trkpt><trkpt lat="42.40905281770118" lon="-8.100490057532548"><ele>312.0</ele><time>2026-04-01T13:46:34Z</time></trkpt><trkpt lat="42.40898147380805" lon="-8.10045342310751"><ele>312.0</ele><time>2026-04-01T13:46:35Z</time></trkpt><trkpt lat="42.40892132204877" lon="-8.100366077873678"><ele>312.0</ele><time>2026-04-01T13:46:36Z</time></trkpt><trkpt lat="42.40888877528247" lon="-8.100271483215211"><ele>312.0</ele><time>2026-04-01T13:46:37Z</time></trkpt><trkpt lat="42.40884807318086" lon="-8.10019782425202"><ele>312.0</ele><time>2026-04-01T13:46:38Z</time></trkpt><trkpt lat="42.408766837690656" lon="-8.100055209000162"><ele>312.0</ele><time>2026-04-01T13:46:40Z</time></trkpt><trkpt lat="42.408720547375864" lon="-8.099985173960183"><ele>312.0</ele><time>2026-04-01T13:46:41Z</time></trkpt><trkpt lat="42.40861287026389" lon="-8.099893140699603"><ele>312.0</ele><time>2026-04-01T13:46:43Z</time></trkpt><trkpt lat="42.40846980839251" lon="-8.099884092600913"><ele>309.0</ele><time>2026-04-01T13:46:45Z</time></trkpt><trkpt lat="42.40839332962986" lon="-8.099921831518913"><ele>306.0</ele><time>2026-04-01T13:46:46Z</time></trkpt><trkpt lat="42.40830482503483" lon="-8.099964003318775"><ele>303.0</ele><time>2026-04-01T13:46:47Z</time></trkpt><trkpt lat="42.40822638505672" lon="-8.100015057942837"><ele>300.0</ele><time>2026-04-01T13:46:48Z</time></trkpt><trkpt lat="42.4081227190213" lon="-8.100070176710112"><ele>297.0</ele><time>2026-04-01T13:46:49Z</time></trkpt><trkpt lat="42.408036181201304" lon="-8.100103633375998"><ele>293.6666666666667</ele><time>2026-04-01T13:46:50Z</time></trkpt><trkpt lat="42.407963501786256" lon="-8.100166334396052"><ele>290.3333333333333</ele><time>2026-04-01T13:46:51Z</time></trkpt><trkpt lat="42.407909226270505" lon="-8.100245242170566"><ele>287.0</ele><time>2026-04-01T13:46:52Z</time></trkpt><trkpt lat="42.40788354962068" lon="-8.100342486398098"><ele>283.66666666666663</ele><time>2026-04-01T13:46:53Z</time></trkpt><trkpt lat="42.40787377936276" lon="-8.100460535645533"><ele>280.3333333333333</ele><time>2026-04-01T13:46:54Z</time></trkpt><trkpt lat="42.40787615650133" lon="-8.100563804032964"><ele>277.0</ele><time>2026-04-01T13:46:55Z</time></trkpt><trkpt lat="42.4078709450929" lon="-8.100652838813954"><ele>280.2</ele><time>2026-04-01T13:46:56Z</time></trkpt><trkpt lat="42.40787882351775" lon="-8.100760762669296"><ele>283.4</ele><time>2026-04-01T13:46:57Z</time></trkpt><trkpt lat="42.40776122845873" lon="-8.100835578184046"><ele>286.6</ele><time>2026-04-01T13:46:59Z</time></trkpt><trkpt lat="42.40767712896119" lon="-8.1008426736607"><ele>289.8</ele><time>2026-04-01T13:47:00Z</time></trkpt><trkpt lat="42.407590117701126" lon="-8.1008061323034"><ele>293.0</ele><time>2026-04-01T13:47:01Z</time></trkpt><trkpt lat="42.40751029853218" lon="-8.100794785135802"><ele>292.99999999999994</ele><time>2026-04-01T13:47:02Z</time></trkpt><trkpt lat="42.40744281318016" lon="-8.100796707330492"><ele>293.0</ele><time>2026-04-01T13:47:03Z</time></trkpt><trkpt lat="42.407372595406734" lon="-8.100812604843343"><ele>293.0</ele><time>2026-04-01T13:47:04Z</time></trkpt><trkpt lat="42.407312564057946" lon="-8.100852102917568"><ele>293.0</ele><time>2026-04-01T13:47:05Z</time></trkpt><trkpt lat="42.40724688863815" lon="-8.100894952425145"><ele>293.0</ele><time>2026-04-01T13:47:06Z</time></trkpt><trkpt lat="42.40719207345918" lon="-8.10094085105605"><ele>292.99999999999994</ele><time>2026-04-01T13:47:07Z</time></trkpt><trkpt lat="42.40713364078249" lon="-8.101003553281744"><ele>293.0</ele><time>2026-04-01T13:47:08Z</time></trkpt><trkpt lat="42.40707441097355" lon="-8.101048363621155"><ele>292.57142857142856</ele><time>2026-04-01T13:47:09Z</time></trkpt><trkpt lat="42.40702076512272" lon="-8.101108323017385"><ele>292.1428571428571</ele><time>2026-04-01T13:47:10Z</time></trkpt><trkpt lat="42.40696350088337" lon="-8.101175194291987"><ele>291.7142857142857</ele><time>2026-04-01T13:47:11Z</time></trkpt><trkpt lat="42.40690312541458" lon="-8.101235615031321"><ele>291.2857142857143</ele><time>2026-04-01T13:47:12Z</time></trkpt><trkpt lat="42.406851099099505" lon="-8.101318642675457"><ele>290.8571428571429</ele><time>2026-04-01T13:47:13Z</time></trkpt><trkpt lat="42.40680631761836" lon="-8.101402876817545"><ele>290.42857142857144</ele><time>2026-04-01T13:47:14Z</time></trkpt><trkpt lat="42.40676826863045" lon="-8.101473900916373"><ele>290.0</ele><time>2026-04-01T13:47:15Z</time></trkpt><trkpt lat="42.40669558566513" lon="-8.101599025233869"><ele>290.0</ele><time>2026-04-01T13:47:17Z</time></trkpt><trkpt lat="42.40661633608464" lon="-8.101730455814062"><ele>290.0</ele><time>2026-04-01T13:47:19Z</time></trkpt><trkpt lat="42.40653620888077" lon="-8.101748625217828"><ele>290.0</ele><time>2026-04-01T13:47:20Z</time></trkpt><trkpt lat="42.40646863080709" lon="-8.101784327371128"><ele>290.0</ele><time>2026-04-01T13:47:21Z</time></trkpt><trkpt lat="42.40639897415015" lon="-8.101838471238208"><ele>290.0</ele><time>2026-04-01T13:47:22Z</time></trkpt><trkpt lat="42.40632403270602" lon="-8.101891042747079"><ele>290.0</ele><time>2026-04-01T13:47:23Z</time></trkpt><trkpt lat="42.40626310606365" lon="-8.10196854809074"><ele>286.33333333333337</ele><time>2026-04-01T13:47:24Z</time></trkpt><trkpt lat="42.40617603078421" lon="-8.10201737489942"><ele>282.6666666666667</ele><time>2026-04-01T13:47:25Z</time></trkpt><trkpt lat="42.40610566198954" lon="-8.102081999388023"><ele>279.0</ele><time>2026-04-01T13:47:26Z</time></trkpt><trkpt lat="42.4060386629391" lon="-8.102126803201317"><ele>275.3333333333333</ele><time>2026-04-01T13:47:27Z</time></trkpt><trkpt lat="42.40595406025951" lon="-8.102179498667772"><ele>271.66666666666663</ele><time>2026-04-01T13:47:28Z</time></trkpt><trkpt lat="42.40587514899465" lon="-8.102226539500197"><ele>268.0</ele><time>2026-04-01T13:47:29Z</time></trkpt><trkpt lat="42.405797525452435" lon="-8.10225069933421"><ele>268.0</ele><time>2026-04-01T13:47:30Z</time></trkpt><trkpt lat="42.4057320363198" lon="-8.10231066986885"><ele>268.0</ele><time>2026-04-01T13:47:31Z</time></trkpt><trkpt lat="42.405626957959946" lon="-8.10235538919017"><ele>268.0</ele><time>2026-04-01T13:47:33Z</time></trkpt><trkpt lat="42.40556334111232" lon="-8.102346611516046"><ele>268.0</ele><time>2026-04-01T13:47:34Z</time></trkpt><trkpt lat="42.40547631508907" lon="-8.102261975662842"><ele>268.0</ele><time>2026-04-01T13:47:36Z</time></trkpt><trkpt lat="42.40543347393681" lon="-8.10217524978365"><ele>268.0</ele><time>2026-04-01T13:47:38Z</time></trkpt><trkpt lat="42.40540513183956" lon="-8.102092926626758"><ele>268.0</ele><time>2026-04-01T13:47:41Z</time></trkpt><trkpt lat="42.40555005316228" lon="-8.101903999430911"><ele>268.0</ele><time>2026-04-01T13:47:43Z</time></trkpt><trkpt lat="42.40559434448798" lon="-8.101794483948137"><ele>268.0</ele><time>2026-04-01T13:47:46Z</time></trkpt><trkpt lat="42.40564332364026" lon="-8.101727670610302"><ele>268.0</ele><time>2026-04-01T13:47:48Z</time></trkpt><trkpt lat="42.40572523439919" lon="-8.101684224744803"><ele>268.0</ele><time>2026-04-01T13:47:51Z</time></trkpt><trkpt lat="42.40581373570648" lon="-8.101645551473183"><ele>268.0</ele><time>2026-04-01T13:47:54Z</time></trkpt><trkpt lat="42.40589435077702" lon="-8.101615291723327"><ele>268.0</ele><time>2026-04-01T13:47:57Z</time></trkpt><trkpt lat="42.40595570506571" lon="-8.101574194656607"><ele>268.0</ele><time>2026-04-01T13:48:00Z</time></trkpt><trkpt lat="42.405980017582685" lon="-8.10147258072744"><ele>268.0</ele><time>2026-04-01T13:48:03Z</time></trkpt><trkpt lat="42.40593834772991" lon="-8.10139273800712"><ele>268.0</ele><time>2026-04-01T13:48:05Z</time></trkpt><trkpt lat="42.40585674407993" lon="-8.101340606456684"><ele>266.14285714285717</ele><time>2026-04-01T13:48:07Z</time></trkpt><trkpt lat="42.405785463913155" lon="-8.10128507202298"><ele>264.2857142857143</ele><time>2026-04-01T13:48:09Z</time></trkpt><trkpt lat="42.405728806835654" lon="-8.101222384311644"><ele>262.42857142857144</ele><time>2026-04-01T13:48:11Z</time></trkpt><trkpt lat="42.40567747293298" lon="-8.101144491890302"><ele>260.57142857142856</ele><time>2026-04-01T13:48:13Z</time></trkpt><trkpt lat="42.40563018046526" lon="-8.10107790146039"><ele>258.7142857142857</ele><time>2026-04-01T13:48:15Z</time></trkpt><trkpt lat="42.40558356667313" lon="-8.10100079532552"><ele>256.8571428571429</ele><time>2026-04-01T13:48:17Z</time></trkpt><trkpt lat="42.40553567026992" lon="-8.100935857836197"><ele>255.0</ele><time>2026-04-01T13:48:19Z</time></trkpt><trkpt lat="42.40548754565914" lon="-8.100867183864581"><ele>255.0</ele><time>2026-04-01T13:48:21Z</time></trkpt><trkpt lat="42.40545131684626" lon="-8.100775216775729"><ele>255.0</ele><time>2026-04-01T13:48:24Z</time></trkpt><trkpt lat="42.405404803049926" lon="-8.100667987239222"><ele>255.0</ele><time>2026-04-01T13:48:26Z</time></trkpt><trkpt lat="42.40536984729759" lon="-8.100556384476153"><ele>255.0</ele><time>2026-04-01T13:48:30Z</time></trkpt><trkpt lat="42.40544069304055" lon="-8.100514254929216"><ele>255.0</ele><time>2026-04-01T13:48:33Z</time></trkpt><trkpt lat="42.40549027819491" lon="-8.100570900097738"><ele>255.0</ele><time>2026-04-01T13:48:35Z</time></trkpt><trkpt lat="42.40558010674206" lon="-8.10064114543337"><ele>251.14285714285717</ele><time>2026-04-01T13:48:38Z</time></trkpt><trkpt lat="42.405646975310795" lon="-8.10064794863399"><ele>247.2857142857143</ele><time>2026-04-01T13:48:41Z</time></trkpt><trkpt lat="42.40572073745043" lon="-8.100633960186714"><ele>243.42857142857144</ele><time>2026-04-01T13:48:43Z</time></trkpt><trkpt lat="42.40578502111015" lon="-8.100598677765323"><ele>239.57142857142856</ele><time>2026-04-01T13:48:45Z</time></trkpt><trkpt lat="42.40584509675238" lon="-8.100551501907297"><ele>235.7142857142857</ele><time>2026-04-01T13:48:47Z</time></trkpt><trkpt lat="42.40588978177717" lon="-8.100458735649127"><ele>231.85714285714283</ele><time>2026-04-01T13:49:20Z</time></trkpt><trkpt lat="42.40590409017533" lon="-8.100371674787633"><ele>228.0</ele><time>2026-04-01T13:49:23Z</time></trkpt><trkpt lat="42.40593419991322" lon="-8.100260532384938"><ele>228.0</ele><time>2026-04-01T13:49:28Z</time></trkpt><trkpt lat="42.405978762634135" lon="-8.10016735767339"><ele>227.99999999999997</ele><time>2026-04-01T13:49:33Z</time></trkpt><trkpt lat="42.406022597532655" lon="-8.1000954074809"><ele>228.0</ele><time>2026-04-01T13:49:37Z</time></trkpt><trkpt lat="42.406064382949715" lon="-8.100028729276332"><ele>228.0</ele><time>2026-04-01T13:49:41Z</time></trkpt><trkpt lat="42.40603417632286" lon="-8.099933466878563"><ele>227.99999999999997</ele><time>2026-04-01T13:49:47Z</time></trkpt><trkpt lat="42.405975527923665" lon="-8.099898383419168"><ele>228.0</ele><time>2026-04-01T13:49:51Z</time></trkpt><trkpt lat="42.40592477159603" lon="-8.099833573970477"><ele>228.0</ele><time>2026-04-01T13:51:24.001Z</time></trkpt><trkpt lat="42.405930593645344" lon="-8.099723652069637"><ele>227.0</ele><time>2026-04-01T13:51:25.001Z</time></trkpt><trkpt lat="42.405868767396896" lon="-8.09967469086581"><ele>226.0</ele><time>2026-04-01T13:51:40Z</time></trkpt><trkpt lat="42.405769229682804" lon="-8.09963369295837"><ele>225.0</ele><time>2026-04-01T13:51:43Z</time></trkpt><trkpt lat="42.40568741424939" lon="-8.099605234975446"><ele>224.0</ele><time>2026-04-01T13:51:44Z</time></trkpt><trkpt lat="42.405599663918004" lon="-8.09957485510085"><ele>223.0</ele><time>2026-04-01T13:51:45Z</time></trkpt><trkpt lat="42.405507983863785" lon="-8.0995432249459"><ele>222.0</ele><time>2026-04-01T13:51:46Z</time></trkpt><trkpt lat="42.40539789072991" lon="-8.09946984190974"><ele>220.66666666666666</ele><time>2026-04-01T13:51:48Z</time></trkpt><trkpt lat="42.40533771354359" lon="-8.09942170793368"><ele>219.33333333333331</ele><time>2026-04-01T13:51:49Z</time></trkpt><trkpt lat="42.40528220049962" lon="-8.099374445554185"><ele>218.0</ele><time>2026-04-01T13:51:50Z</time></trkpt><trkpt lat="42.40518938568798" lon="-8.09928673015833"><ele>216.66666666666666</ele><time>2026-04-01T13:51:52Z</time></trkpt><trkpt lat="42.40509934699885" lon="-8.099296196382983"><ele>215.33333333333331</ele><time>2026-04-01T13:51:54Z</time></trkpt><trkpt lat="42.40505759136877" lon="-8.09938159557106"><ele>214.0</ele><time>2026-04-01T13:51:55Z</time></trkpt><trkpt lat="42.404968160880046" lon="-8.09941909574638"><ele>214.0</ele><time>2026-04-01T13:51:56Z</time></trkpt><trkpt lat="42.40486213389737" lon="-8.0994361114089"><ele>213.99999999999997</ele><time>2026-04-01T13:51:57Z</time></trkpt><trkpt lat="42.404742200751166" lon="-8.099450511961729"><ele>213.99999999999997</ele><time>2026-04-01T13:51:58Z</time></trkpt><trkpt lat="42.404659015546834" lon="-8.099472833023142"><ele>214.0</ele><time>2026-04-01T13:51:59Z</time></trkpt><trkpt lat="42.404583398878295" lon="-8.09950259214925"><ele>214.0</ele><time>2026-04-01T13:52:00Z</time></trkpt><trkpt lat="42.404510790284704" lon="-8.099535412336186"><ele>214.6</ele><time>2026-04-01T13:52:01Z</time></trkpt><trkpt lat="42.40443396399748" lon="-8.099582778729824"><ele>215.2</ele><time>2026-04-01T13:52:02Z</time></trkpt><trkpt lat="42.40436546848449" lon="-8.099638070087474"><ele>215.79999999999998</ele><time>2026-04-01T13:52:03Z</time></trkpt><trkpt lat="42.404306914626396" lon="-8.099733622756133"><ele>216.39999999999998</ele><time>2026-04-01T13:52:04Z</time></trkpt><trkpt lat="42.4042498667796" lon="-8.099851108722373"><ele>217.0</ele><time>2026-04-01T13:52:05Z</time></trkpt><trkpt lat="42.404212500874145" lon="-8.099997641586787"><ele>220.0</ele><time>2026-04-01T13:52:06Z</time></trkpt><trkpt lat="42.404173762758234" lon="-8.100119517085082"><ele>223.0</ele><time>2026-04-01T13:52:07Z</time></trkpt><trkpt lat="42.4041436502066" lon="-8.100247493222945"><ele>226.0</ele><time>2026-04-01T13:52:08Z</time></trkpt><trkpt lat="42.404121493737996" lon="-8.100380297805332"><ele>229.0</ele><time>2026-04-01T13:52:09Z</time></trkpt><trkpt lat="42.404090228408016" lon="-8.100541168858209"><ele>232.0</ele><time>2026-04-01T13:52:10Z</time></trkpt><trkpt lat="42.404064643931676" lon="-8.100666248315589"><ele>235.0</ele><time>2026-04-01T13:52:11Z</time></trkpt><trkpt lat="42.40403973436617" lon="-8.10080742470253"><ele>238.0</ele><time>2026-04-01T13:52:12Z</time></trkpt><trkpt lat="42.40400497958858" lon="-8.100944503556905"><ele>241.0</ele><time>2026-04-01T13:52:13Z</time></trkpt><trkpt lat="42.40396060444719" lon="-8.101074346265507"><ele>244.0</ele><time>2026-04-01T13:52:14Z</time></trkpt><trkpt lat="42.40389950501301" lon="-8.101185322369195"><ele>247.0</ele><time>2026-04-01T13:52:15Z</time></trkpt><trkpt lat="42.40383713400664" lon="-8.101308798487697"><ele>245.83333333333331</ele><time>2026-04-01T13:52:16Z</time></trkpt><trkpt lat="42.40377997330825" lon="-8.10142081904144"><ele>244.66666666666666</ele><time>2026-04-01T13:52:17Z</time></trkpt><trkpt lat="42.40373613345485" lon="-8.101527631564444"><ele>243.5</ele><time>2026-04-01T13:52:18Z</time></trkpt><trkpt lat="42.40374414324988" lon="-8.101631185731048"><ele>242.33333333333331</ele><time>2026-04-01T13:52:19Z</time></trkpt><trkpt lat="42.40377538201309" lon="-8.101729168626239"><ele>241.16666666666666</ele><time>2026-04-01T13:52:20Z</time></trkpt><trkpt lat="42.40383035191495" lon="-8.101825841875302"><ele>240.0</ele><time>2026-04-01T13:52:21Z</time></trkpt><trkpt lat="42.403886059985325" lon="-8.101916098756135"><ele>244.75</ele><time>2026-04-01T13:52:22Z</time></trkpt><trkpt lat="42.40396632017465" lon="-8.1020146458134"><ele>249.5</ele><time>2026-04-01T13:52:23Z</time></trkpt><trkpt lat="42.40407045661277" lon="-8.102108564897199"><ele>254.25</ele><time>2026-04-01T13:52:24Z</time></trkpt><trkpt lat="42.40416597398972" lon="-8.102195265134037"><ele>259.0</ele><time>2026-04-01T13:52:25Z</time></trkpt><trkpt lat="42.404291967387806" lon="-8.102261978103522"><ele>259.0</ele><time>2026-04-01T13:52:26Z</time></trkpt><trkpt lat="42.40440304588574" lon="-8.102353330329143"><ele>259.0</ele><time>2026-04-01T13:52:27Z</time></trkpt><trkpt lat="42.404500671323085" lon="-8.102417608403494"><ele>259.0</ele><time>2026-04-01T13:52:28Z</time></trkpt><trkpt lat="42.40459644619675" lon="-8.102421874054535"><ele>259.0</ele><time>2026-04-01T13:52:29Z</time></trkpt><trkpt lat="42.404698030578714" lon="-8.102393973065002"><ele>259.0</ele><time>2026-04-01T13:52:30Z</time></trkpt><trkpt lat="42.40478370084196" lon="-8.10231970803234"><ele>260.5</ele><time>2026-04-01T13:52:31Z</time></trkpt><trkpt lat="42.40488295315883" lon="-8.102233273007945"><ele>262.0</ele><time>2026-04-01T13:52:32Z</time></trkpt><trkpt lat="42.40497679572672" lon="-8.102114058422792"><ele>263.5</ele><time>2026-04-01T13:52:33Z</time></trkpt><trkpt lat="42.40508795776208" lon="-8.102028860795754"><ele>265.0</ele><time>2026-04-01T13:52:34Z</time></trkpt><trkpt lat="42.40518160145086" lon="-8.101983978428201"><ele>265.0</ele><time>2026-04-01T13:52:35Z</time></trkpt><trkpt lat="42.4052561959701" lon="-8.101964907283357"><ele>265.0</ele><time>2026-04-01T13:52:36Z</time></trkpt><trkpt lat="42.40534887758126" lon="-8.101976958153289"><ele>265.0</ele><time>2026-04-01T13:52:37Z</time></trkpt><trkpt lat="42.40542005698158" lon="-8.102025903490324"><ele>265.0</ele><time>2026-04-01T13:52:38Z</time></trkpt><trkpt lat="42.40546366571524" lon="-8.102115019424684"><ele>265.0</ele><time>2026-04-01T13:52:39Z</time></trkpt><trkpt lat="42.40551623598396" lon="-8.102223831602611"><ele>265.0</ele><time>2026-04-01T13:52:40Z</time></trkpt><trkpt lat="42.40558054973946" lon="-8.102301501985398"><ele>265.6</ele><time>2026-04-01T13:52:41Z</time></trkpt><trkpt lat="42.405671467776045" lon="-8.10232610461296"><ele>266.2</ele><time>2026-04-01T13:52:42Z</time></trkpt><trkpt lat="42.40575876325928" lon="-8.102250244767674"><ele>266.8</ele><time>2026-04-01T13:52:43Z</time></trkpt><trkpt lat="42.40585849002833" lon="-8.102191611289296"><ele>267.4</ele><time>2026-04-01T13:52:44Z</time></trkpt><trkpt lat="42.40594307436486" lon="-8.102118904767165"><ele>268.0</ele><time>2026-04-01T13:52:45Z</time></trkpt><trkpt lat="42.40605662324302" lon="-8.102060044871257"><ele>268.0</ele><time>2026-04-01T13:52:46Z</time></trkpt><trkpt lat="42.40616043374329" lon="-8.101992936197835"><ele>268.0</ele><time>2026-04-01T13:52:47Z</time></trkpt><trkpt lat="42.406268392550935" lon="-8.101907342966506"><ele>268.0</ele><time>2026-04-01T13:52:48Z</time></trkpt><trkpt lat="42.40637833507788" lon="-8.101812436699829"><ele>268.0</ele><time>2026-04-01T13:52:49Z</time></trkpt><trkpt lat="42.40648699655723" lon="-8.101726123337043"><ele>268.6</ele><time>2026-04-01T13:52:50Z</time></trkpt><trkpt lat="42.406579966540285" lon="-8.101668519292632"><ele>269.20000000000005</ele><time>2026-04-01T13:52:51Z</time></trkpt><trkpt lat="42.406663412186894" lon="-8.1016119676694"><ele>269.8</ele><time>2026-04-01T13:52:52Z</time></trkpt><trkpt lat="42.40670596726946" lon="-8.101535287699374"><ele>270.40000000000003</ele><time>2026-04-01T13:52:53Z</time></trkpt><trkpt lat="42.40675266446954" lon="-8.1014259526076"><ele>271.0</ele><time>2026-04-01T13:52:54Z</time></trkpt><trkpt lat="42.406815526112204" lon="-8.10130655332884"><ele>271.0</ele><time>2026-04-01T13:52:55Z</time></trkpt><trkpt lat="42.40688071406665" lon="-8.101207985216714"><ele>271.0</ele><time>2026-04-01T13:52:56Z</time></trkpt><trkpt lat="42.40695804883838" lon="-8.101104728471833"><ele>271.0</ele><time>2026-04-01T13:52:57Z</time></trkpt><trkpt lat="42.407032685758644" lon="-8.101040596420075"><ele>271.0</ele><time>2026-04-01T13:52:58Z</time></trkpt><trkpt lat="42.407109258854796" lon="-8.100971403969718"><ele>271.0</ele><time>2026-04-01T13:52:59Z</time></trkpt><trkpt lat="42.407180619341496" lon="-8.100897030098013"><ele>272.2</ele><time>2026-04-01T13:53:00Z</time></trkpt><trkpt lat="42.40725110630049" lon="-8.100826539698067"><ele>273.40000000000003</ele><time>2026-04-01T13:53:01Z</time></trkpt><trkpt lat="42.40733017122621" lon="-8.100778708307017"><ele>274.6</ele><time>2026-04-01T13:53:02Z</time></trkpt><trkpt lat="42.40743078498623" lon="-8.10074467519162"><ele>275.8</ele><time>2026-04-01T13:53:03Z</time></trkpt><trkpt lat="42.407519045729536" lon="-8.100748450643625"><ele>277.0</ele><time>2026-04-01T13:53:04Z</time></trkpt><trkpt lat="42.407610654472336" lon="-8.10076096493931"><ele>277.0</ele><time>2026-04-01T13:53:05Z</time></trkpt><trkpt lat="42.407691953592725" lon="-8.100775184255214"><ele>277.0</ele><time>2026-04-01T13:53:06Z</time></trkpt><trkpt lat="42.40780989656228" lon="-8.10076745519732"><ele>277.0</ele><time>2026-04-01T13:53:08Z</time></trkpt><trkpt lat="42.40785137500513" lon="-8.100679613344935"><ele>277.0</ele><time>2026-04-01T13:53:09Z</time></trkpt><trkpt lat="42.40783584738832" lon="-8.10054236223166"><ele>277.0</ele><time>2026-04-01T13:53:10Z</time></trkpt><trkpt lat="42.407843581084535" lon="-8.100379737183221"><ele>277.0</ele><time>2026-04-01T13:53:11Z</time></trkpt><trkpt lat="42.40787472930943" lon="-8.10024186526224"><ele>277.0</ele><time>2026-04-01T13:53:12Z</time></trkpt><trkpt lat="42.407923622860395" lon="-8.10012943463025"><ele>277.0</ele><time>2026-04-01T13:53:13.001Z</time></trkpt><trkpt lat="42.40799927550665" lon="-8.10006985624452"><ele>277.0</ele><time>2026-04-01T13:53:14.001Z</time></trkpt><trkpt lat="42.408100793195565" lon="-8.100027517742141"><ele>277.0</ele><time>2026-04-01T13:53:15.001Z</time></trkpt><trkpt lat="42.40821494927656" lon="-8.099974935449323"><ele>278.8</ele><time>2026-04-01T13:53:16.001Z</time></trkpt><trkpt lat="42.408319503386394" lon="-8.099921160391727"><ele>280.6</ele><time>2026-04-01T13:53:17.001Z</time></trkpt><trkpt lat="42.408428204079996" lon="-8.099877997135742"><ele>282.40000000000003</ele><time>2026-04-01T13:53:18.001Z</time></trkpt><trkpt lat="42.40850288459533" lon="-8.099837766819524"><ele>284.2</ele><time>2026-04-01T13:53:19.001Z</time></trkpt><trkpt lat="42.408580193245186" lon="-8.099824992229424"><ele>286.0</ele><time>2026-04-01T13:53:20.001Z</time></trkpt><trkpt lat="42.40866868968466" lon="-8.099876251278411"><ele>288.2</ele><time>2026-04-01T13:53:21.001Z</time></trkpt><trkpt lat="42.40873686943654" lon="-8.099950657485692"><ele>290.40000000000003</ele><time>2026-04-01T13:53:22.001Z</time></trkpt><trkpt lat="42.40880055993351" lon="-8.100046381394163"><ele>292.6</ele><time>2026-04-01T13:53:23.001Z</time></trkpt><trkpt lat="42.40884746999426" lon="-8.100152372583228"><ele>294.8</ele><time>2026-04-01T13:53:24.001Z</time></trkpt><trkpt lat="42.40891483760514" lon="-8.100243459577884"><ele>297.0</ele><time>2026-04-01T13:53:25.001Z</time></trkpt><trkpt lat="42.40897903666484" lon="-8.100364711489876"><ele>300.0</ele><time>2026-04-01T13:53:26.001Z</time></trkpt><trkpt lat="42.409046597031235" lon="-8.10044893542717"><ele>303.0</ele><time>2026-04-01T13:53:27.001Z</time></trkpt><trkpt lat="42.40912362493513" lon="-8.100483701364645"><ele>306.0</ele><time>2026-04-01T13:53:28.001Z</time></trkpt><trkpt lat="42.409217230765" lon="-8.10043045825262"><ele>309.0</ele><time>2026-04-01T13:53:29.001Z</time></trkpt><trkpt lat="42.40928903792667" lon="-8.100317220661742"><ele>312.0</ele><time>2026-04-01T13:53:30.001Z</time></trkpt><trkpt lat="42.409380232538055" lon="-8.100233220865803"><ele>312.0</ele><time>2026-04-01T13:53:31.001Z</time></trkpt><trkpt lat="42.40948101302192" lon="-8.10016096415914"><ele>312.0</ele><time>2026-04-01T13:53:32.001Z</time></trkpt><trkpt lat="42.40959939794529" lon="-8.100114941605273"><ele>312.0</ele><time>2026-04-01T13:53:33.001Z</time></trkpt><trkpt lat="42.40970209000766" lon="-8.10009180802602"><ele>312.0</ele><time>2026-04-01T13:53:34.001Z</time></trkpt><trkpt lat="42.40982123271834" lon="-8.100056618253433"><ele>315.6</ele><time>2026-04-01T13:53:35.001Z</time></trkpt><trkpt lat="42.40990121911838" lon="-8.100007430312923"><ele>319.2</ele><time>2026-04-01T13:53:36Z</time></trkpt><trkpt lat="42.40997734718181" lon="-8.100010835183168"><ele>322.8</ele><time>2026-04-01T13:53:37Z</time></trkpt><trkpt lat="42.410050694245776" lon="-8.100070139891976"><ele>326.4</ele><time>2026-04-01T13:53:38Z</time></trkpt><trkpt lat="42.41009933559506" lon="-8.10020537790794"><ele>330.0</ele><time>2026-04-01T13:53:39Z</time></trkpt><trkpt lat="42.41014387142494" lon="-8.100349970618153"><ele>330.0</ele><time>2026-04-01T13:53:40Z</time></trkpt><trkpt lat="42.4101668861958" lon="-8.100434640722456"><ele>330.0</ele><time>2026-04-01T13:53:41Z</time></trkpt><trkpt lat="42.410222548479275" lon="-8.10054241447298"><ele>330.0</ele><time>2026-04-01T13:53:42Z</time></trkpt><trkpt lat="42.410289596216735" lon="-8.100606502284275"><ele>330.0</ele><time>2026-04-01T13:53:43Z</time></trkpt><trkpt lat="42.41037456037566" lon="-8.100674430700643"><ele>330.0</ele><time>2026-04-01T13:53:44Z</time></trkpt><trkpt lat="42.41046606834767" lon="-8.100738301227352"><ele>330.0</ele><time>2026-04-01T13:53:45Z</time></trkpt><trkpt lat="42.41053549214674" lon="-8.100821769926137"><ele>333.6</ele><time>2026-04-01T13:53:46Z</time></trkpt><trkpt lat="42.410573015046765" lon="-8.100926026258115"><ele>337.2</ele><time>2026-04-01T13:53:47Z</time></trkpt><trkpt lat="42.41059273693609" lon="-8.101025451062352"><ele>340.79999999999995</ele><time>2026-04-01T13:53:48Z</time></trkpt><trkpt lat="42.41059543245732" lon="-8.101142433461392"><ele>344.4</ele><time>2026-04-01T13:53:49Z</time></trkpt><trkpt lat="42.41058450023745" lon="-8.101294453177076"><ele>348.0</ele><time>2026-04-01T13:53:50Z</time></trkpt><trkpt lat="42.41055774237695" lon="-8.101411751847634"><ele>348.0</ele><time>2026-04-01T13:53:51Z</time></trkpt><trkpt lat="42.410505934067345" lon="-8.101523041955978"><ele>348.0</ele><time>2026-04-01T13:53:52Z</time></trkpt><trkpt lat="42.410426932867935" lon="-8.10156396060801"><ele>348.0</ele><time>2026-04-01T13:53:53Z</time></trkpt><trkpt lat="42.410351344416114" lon="-8.101590647094174"><ele>348.0</ele><time>2026-04-01T13:53:54Z</time></trkpt><trkpt lat="42.410222173611956" lon="-8.101645281700241"><ele>348.0</ele><time>2026-04-01T13:53:55Z</time></trkpt><trkpt lat="42.41017878795663" lon="-8.101752437426255"><ele>347.6666666666667</ele><time>2026-04-01T13:53:56Z</time></trkpt><trkpt lat="42.41023690639807" lon="-8.101817403326862"><ele>347.3333333333333</ele><time>2026-04-01T13:53:57Z</time></trkpt><trkpt lat="42.41031750436189" lon="-8.101915057521394"><ele>347.0</ele><time>2026-04-01T13:53:59Z</time></trkpt><trkpt lat="42.410388591237975" lon="-8.101947146405092"><ele>346.66666666666663</ele><time>2026-04-01T13:54:00Z</time></trkpt><trkpt lat="42.41046244477869" lon="-8.10198719727598"><ele>346.3333333333333</ele><time>2026-04-01T13:54:01Z</time></trkpt><trkpt lat="42.41051860038404" lon="-8.102048795279995"><ele>346.0</ele><time>2026-04-01T13:54:02Z</time></trkpt><trkpt lat="42.41053594729701" lon="-8.102146065132295"><ele>346.0</ele><time>2026-04-01T13:54:03Z</time></trkpt><trkpt lat="42.410522463107505" lon="-8.10224681195859"><ele>346.0</ele><time>2026-04-01T13:54:04Z</time></trkpt><trkpt lat="42.410484187824565" lon="-8.102355900049904"><ele>346.0</ele><time>2026-04-01T13:54:05Z</time></trkpt><trkpt lat="42.41044480543593" lon="-8.102459815693157"><ele>346.0</ele><time>2026-04-01T13:54:06Z</time></trkpt><trkpt lat="42.410393981159146" lon="-8.102576409038077"><ele>346.0</ele><time>2026-04-01T13:54:07Z</time></trkpt><trkpt lat="42.410346966664456" lon="-8.102695510633486"><ele>345.20000000000005</ele><time>2026-04-01T13:54:08Z</time></trkpt><trkpt lat="42.4102924206127" lon="-8.102825130905144"><ele>344.40000000000003</ele><time>2026-04-01T13:54:09Z</time></trkpt><trkpt lat="42.41025358586729" lon="-8.102958186854435"><ele>343.6</ele><time>2026-04-01T13:54:10Z</time></trkpt><trkpt lat="42.41022566077729" lon="-8.10310330224445"><ele>342.8</ele><time>2026-04-01T13:54:11Z</time></trkpt><trkpt lat="42.410209691754034" lon="-8.103240660142419"><ele>342.0</ele><time>2026-04-01T13:54:12Z</time></trkpt><trkpt lat="42.41017310405451" lon="-8.103371090759667"><ele>345.75</ele><time>2026-04-01T13:54:13Z</time></trkpt><trkpt lat="42.41012855941276" lon="-8.103506225762146"><ele>349.5</ele><time>2026-04-01T13:54:14Z</time></trkpt><trkpt lat="42.41003482663518" lon="-8.103599601013489"><ele>353.25</ele><time>2026-04-01T13:54:15Z</time></trkpt><trkpt lat="42.409967451779785" lon="-8.10372039180976"><ele>357.0</ele><time>2026-04-01T13:54:16Z</time></trkpt><trkpt lat="42.40988278671294" lon="-8.103829493559441"><ele>357.0</ele><time>2026-04-01T13:54:17Z</time></trkpt><trkpt lat="42.40980138807348" lon="-8.10390624313093"><ele>357.0</ele><time>2026-04-01T13:54:18Z</time></trkpt><trkpt lat="42.40974370114112" lon="-8.104012199921584"><ele>357.0</ele><time>2026-04-01T13:54:19Z</time></trkpt><trkpt lat="42.409715915947785" lon="-8.104165575515566"><ele>357.0</ele><time>2026-04-01T13:54:20Z</time></trkpt><trkpt lat="42.40971340916107" lon="-8.104260806983955"><ele>357.0</ele><time>2026-04-01T13:54:21Z</time></trkpt><trkpt lat="42.40971672325963" lon="-8.104424708611594"><ele>360.75</ele><time>2026-04-01T13:54:23Z</time></trkpt><trkpt lat="42.409726117921196" lon="-8.104612371738396"><ele>364.5</ele><time>2026-04-01T13:54:24Z</time></trkpt><trkpt lat="42.40975767027627" lon="-8.104757125283648"><ele>368.25</ele><time>2026-04-01T13:54:25Z</time></trkpt><trkpt lat="42.409768873796466" lon="-8.10489057072968"><ele>372.0</ele><time>2026-04-01T13:54:26Z</time></trkpt><trkpt lat="42.40983041989825" lon="-8.105013469327565"><ele>374.75</ele><time>2026-04-01T13:54:27Z</time></trkpt><trkpt lat="42.409892633633945" lon="-8.105133214564557"><ele>377.5</ele><time>2026-04-01T13:54:28Z</time></trkpt><trkpt lat="42.40998743898596" lon="-8.105230211511529"><ele>380.25</ele><time>2026-04-01T13:54:29Z</time></trkpt><trkpt lat="42.41008059212745" lon="-8.105301649500914"><ele>383.0</ele><time>2026-04-01T13:54:30Z</time></trkpt><trkpt lat="42.41018325264399" lon="-8.105397173007438"><ele>383.0</ele><time>2026-04-01T13:54:31Z</time></trkpt><trkpt lat="42.41026868830791" lon="-8.105494412522845"><ele>383.0</ele><time>2026-04-01T13:54:32Z</time></trkpt><trkpt lat="42.41035520321914" lon="-8.105609132891939"><ele>383.0</ele><time>2026-04-01T13:54:33Z</time></trkpt><trkpt lat="42.410455433806995" lon="-8.105683289805182"><ele>383.0</ele><time>2026-04-01T13:54:34Z</time></trkpt><trkpt lat="42.41053594059108" lon="-8.10570478560363"><ele>383.0</ele><time>2026-04-01T13:54:35Z</time></trkpt><trkpt lat="42.41065220242474" lon="-8.105711029350916"><ele>385.0</ele><time>2026-04-01T13:54:36Z</time></trkpt><trkpt lat="42.410814730434765" lon="-8.105690789607419"><ele>387.0</ele><time>2026-04-01T13:54:37Z</time></trkpt><trkpt lat="42.410994583999326" lon="-8.105680870554211"><ele>389.0</ele><time>2026-04-01T13:54:38Z</time></trkpt><trkpt lat="42.41109869334543" lon="-8.105681784934138"><ele>391.0</ele><time>2026-04-01T13:54:39Z</time></trkpt><trkpt lat="42.41119224153706" lon="-8.105687528199876"><ele>391.0</ele><time>2026-04-01T13:54:40Z</time></trkpt><trkpt lat="42.41131295467584" lon="-8.105700851290386"><ele>391.0</ele><time>2026-04-01T13:54:41Z</time></trkpt><trkpt lat="42.41143298943504" lon="-8.105727249062857"><ele>391.0</ele><time>2026-04-01T13:54:42Z</time></trkpt><trkpt lat="42.411549315399995" lon="-8.105771314368507"><ele>391.0</ele><time>2026-04-01T13:54:43Z</time></trkpt><trkpt lat="42.41165155591742" lon="-8.105842253902807"><ele>394.0</ele><time>2026-04-01T13:54:44Z</time></trkpt><trkpt lat="42.41173320831476" lon="-8.105877622508345"><ele>397.0</ele><time>2026-04-01T13:54:45Z</time></trkpt><trkpt lat="42.411831760167594" lon="-8.105972338253787"><ele>400.0</ele><time>2026-04-01T13:54:47Z</time></trkpt><trkpt lat="42.41190398674856" lon="-8.106023317505423"><ele>403.0</ele><time>2026-04-01T13:54:51Z</time></trkpt><trkpt lat="42.41199411617225" lon="-8.105914986354705"><ele>406.0</ele><time>2026-04-01T13:54:52Z</time></trkpt><trkpt lat="42.41207396492934" lon="-8.105823606828812"><ele>406.75</ele><time>2026-04-01T13:54:53Z</time></trkpt><trkpt lat="42.41216910794978" lon="-8.10574496206981"><ele>407.5</ele><time>2026-04-01T13:54:54Z</time></trkpt><trkpt lat="42.412272476209964" lon="-8.105645849988429"><ele>408.25</ele><time>2026-04-01T13:54:55Z</time></trkpt><trkpt lat="42.41236659124882" lon="-8.105547132694268"><ele>409.0</ele><time>2026-04-01T13:54:56Z</time></trkpt><trkpt lat="42.41243688785673" lon="-8.105423199599123"><ele>409.0</ele><time>2026-04-01T13:54:57Z</time></trkpt><trkpt lat="42.412507934721475" lon="-8.105292347052968"><ele>409.0</ele><time>2026-04-01T13:54:58Z</time></trkpt><trkpt lat="42.41256720982" lon="-8.105159901179725"><ele>409.0</ele><time>2026-04-01T13:54:59Z</time></trkpt><trkpt lat="42.412622492876736" lon="-8.105019940719606"><ele>409.0</ele><time>2026-04-01T13:55:00Z</time></trkpt><trkpt lat="42.41268136347649" lon="-8.104906208171576"><ele>409.75</ele><time>2026-04-01T13:55:01Z</time></trkpt><trkpt lat="42.412774843774244" lon="-8.104815531662304"><ele>410.5</ele><time>2026-04-01T13:55:02Z</time></trkpt><trkpt lat="42.412864852411914" lon="-8.104710655166969"><ele>411.25</ele><time>2026-04-01T13:55:03Z</time></trkpt><trkpt lat="42.41298192894023" lon="-8.104617194024978"><ele>412.0</ele><time>2026-04-01T13:55:04Z</time></trkpt><trkpt lat="42.41309936103095" lon="-8.104497570593974"><ele>412.0</ele><time>2026-04-01T13:55:05Z</time></trkpt><trkpt lat="42.41320536609727" lon="-8.104395661634914"><ele>412.0</ele><time>2026-04-01T13:55:06Z</time></trkpt><trkpt lat="42.413330507024995" lon="-8.10428166459406"><ele>412.0</ele><time>2026-04-01T13:55:07Z</time></trkpt><trkpt lat="42.41343810363652" lon="-8.104149760899354"><ele>412.0</ele><time>2026-04-01T13:55:08Z</time></trkpt><trkpt lat="42.41354463195707" lon="-8.104062302474004"><ele>412.0</ele><time>2026-04-01T13:55:09Z</time></trkpt><trkpt lat="42.4136359390868" lon="-8.103929021693562"><ele>412.0</ele><time>2026-04-01T13:55:10Z</time></trkpt><trkpt lat="42.41373459502265" lon="-8.103831736323382"><ele>412.0</ele><time>2026-04-01T13:55:11Z</time></trkpt><trkpt lat="42.41382394778251" lon="-8.103771381261087"><ele>412.0</ele><time>2026-04-01T13:55:12Z</time></trkpt><trkpt lat="42.413932391023174" lon="-8.103715605412111"><ele>412.0</ele><time>2026-04-01T13:55:13Z</time></trkpt><trkpt lat="42.41405266312534" lon="-8.103700842640988"><ele>412.0</ele><time>2026-04-01T13:55:14Z</time></trkpt><trkpt lat="42.41415284162148" lon="-8.103679198766987"><ele>412.0</ele><time>2026-04-01T13:55:15Z</time></trkpt><trkpt lat="42.41422541805657" lon="-8.103612193444174"><ele>412.0</ele><time>2026-04-01T13:55:16Z</time></trkpt><trkpt lat="42.41426355249789" lon="-8.103532445933386"><ele>412.0</ele><time>2026-04-01T13:55:17Z</time></trkpt><trkpt lat="42.41428191676284" lon="-8.103406505688344"><ele>412.0</ele><time>2026-04-01T13:55:19Z</time></trkpt><trkpt lat="42.41448312527533" lon="-8.103516850905091"><ele>412.0</ele><time>2026-04-01T13:55:28Z</time></trkpt><trkpt lat="42.414547379151244" lon="-8.103580073230926"><ele>412.0</ele><time>2026-04-01T13:55:30Z</time></trkpt><trkpt lat="42.414615945339534" lon="-8.103656301057523"><ele>412.0</ele><time>2026-04-01T13:55:32Z</time></trkpt><trkpt lat="42.414693612263086" lon="-8.103733431378021"><ele>413.20000000000005</ele><time>2026-04-01T13:55:34Z</time></trkpt><trkpt lat="42.41481512400922" lon="-8.10379278466749"><ele>414.4</ele><time>2026-04-01T13:55:36Z</time></trkpt><trkpt lat="42.41489427845272" lon="-8.103810780377655"><ele>415.6</ele><time>2026-04-01T13:55:37Z</time></trkpt><trkpt lat="42.41499144751736" lon="-8.103813308302993"><ele>416.79999999999995</ele><time>2026-04-01T13:55:38Z</time></trkpt><trkpt lat="42.415099132198286" lon="-8.103809648810769"><ele>418.0</ele><time>2026-04-01T13:55:39Z</time></trkpt><trkpt lat="42.415201854192645" lon="-8.103803814796569"><ele>418.00000000000006</ele><time>2026-04-01T13:55:40Z</time></trkpt><trkpt lat="42.415280580212006" lon="-8.10380169092993"><ele>418.0</ele><time>2026-04-01T13:55:41Z</time></trkpt><trkpt lat="42.41535057570171" lon="-8.103801811061333"><ele>418.0</ele><time>2026-04-01T13:55:42Z</time></trkpt><trkpt lat="42.41544849284771" lon="-8.103775668963772"><ele>418.0</ele><time>2026-04-01T13:55:44Z</time></trkpt><trkpt lat="42.41549459837076" lon="-8.103706520279099"><ele>418.00000000000006</ele><time>2026-04-01T13:55:46Z</time></trkpt><trkpt lat="42.41551699248407" lon="-8.103622159417405"><ele>418.0</ele><time>2026-04-01T13:55:48Z</time></trkpt><trkpt lat="42.41553755804577" lon="-8.103527137995087"><ele>418.0</ele><time>2026-04-01T13:55:51Z</time></trkpt><trkpt lat="42.41558465537313" lon="-8.10360851298429"><ele>418.0</ele><time>2026-04-01T13:55:54Z</time></trkpt><trkpt lat="42.415644094806474" lon="-8.103714254256456"><ele>418.0</ele><time>2026-04-01T13:55:56Z</time></trkpt><trkpt lat="42.41576953340415" lon="-8.103698186950579"><ele>418.0</ele><time>2026-04-01T13:55:58Z</time></trkpt><trkpt lat="42.41584755102326" lon="-8.103672299676884"><ele>418.0</ele><time>2026-04-01T13:55:59Z</time></trkpt><trkpt lat="42.41592717225506" lon="-8.103636911452643"><ele>418.00000000000006</ele><time>2026-04-01T13:56:00Z</time></trkpt><trkpt lat="42.41599776574831" lon="-8.10360838405762"><ele>418.0</ele><time>2026-04-01T13:56:01Z</time></trkpt><trkpt lat="42.4160658959874" lon="-8.103579925151399"><ele>418.0</ele><time>2026-04-01T13:56:02Z</time></trkpt><trkpt lat="42.41613268151144" lon="-8.103537531412666"><ele>418.0</ele><time>2026-04-01T13:56:03Z</time></trkpt><trkpt lat="42.41621500707076" lon="-8.103504642136656"><ele>418.00000000000006</ele><time>2026-04-01T13:56:04Z</time></trkpt><trkpt lat="42.41629496957498" lon="-8.1034617179177"><ele>418.0</ele><time>2026-04-01T13:56:05Z</time></trkpt><trkpt lat="42.416361160685355" lon="-8.103417829053281"><ele>417.50000000000006</ele><time>2026-04-01T13:56:06Z</time></trkpt><trkpt lat="42.41644717122412" lon="-8.103357260583284"><ele>417.0</ele><time>2026-04-01T13:56:07Z</time></trkpt><trkpt lat="42.41651543984986" lon="-8.103310338369097"><ele>416.5</ele><time>2026-04-01T13:56:08Z</time></trkpt><trkpt lat="42.416587835880954" lon="-8.103266381382198"><ele>416.0</ele><time>2026-04-01T13:56:09Z</time></trkpt><trkpt lat="42.416656442619335" lon="-8.103221356217627"><ele>415.50000000000006</ele><time>2026-04-01T13:56:10Z</time></trkpt><trkpt lat="42.41675285061693" lon="-8.103152573720143"><ele>415.0</ele><time>2026-04-01T13:56:12Z</time></trkpt><trkpt lat="42.4168128240467" lon="-8.103124454006148"><ele>414.75</ele><time>2026-04-01T13:56:14Z</time></trkpt><trkpt lat="42.41678012653519" lon="-8.102956281593547"><ele>414.5</ele><time>2026-04-01T13:56:16Z</time></trkpt><trkpt lat="42.41676687777193" lon="-8.102860835493884"><ele>414.25</ele><time>2026-04-01T13:56:33Z</time></trkpt><trkpt lat="42.41697993441004" lon="-8.102806403602374"><ele>414.0</ele><time>2026-04-01T13:56:35Z</time></trkpt><trkpt lat="42.41709453748591" lon="-8.102790913854072"><ele>412.25</ele><time>2026-04-01T13:56:37Z</time></trkpt><trkpt lat="42.41718635853535" lon="-8.102752527957252"><ele>410.5</ele><time>2026-04-01T13:56:39Z</time></trkpt><trkpt lat="42.41717659747424" lon="-8.102459370469589"><ele>408.75</ele><time>2026-04-01T13:56:41Z</time></trkpt><trkpt lat="42.41717222563593" lon="-8.102309403498536"><ele>407.0</ele><time>2026-04-01T13:56:42Z</time></trkpt><trkpt lat="42.41717271942751" lon="-8.102155148385943"><ele>406.40000000000003</ele><time>2026-04-01T13:56:43Z</time></trkpt><trkpt lat="42.41717923495547" lon="-8.102019622855327"><ele>405.8</ele><time>2026-04-01T13:56:44Z</time></trkpt><trkpt lat="42.41720709509531" lon="-8.10185670102627"><ele>405.2</ele><time>2026-04-01T13:56:45Z</time></trkpt><trkpt lat="42.417207149872844" lon="-8.101733567088067"><ele>404.6</ele><time>2026-04-01T13:56:46Z</time></trkpt><trkpt lat="42.41722461856638" lon="-8.101604761672121"><ele>404.0</ele><time>2026-04-01T13:56:47Z</time></trkpt><trkpt lat="42.417237590126774" lon="-8.101465067534438"><ele>403.25</ele><time>2026-04-01T13:56:48Z</time></trkpt><trkpt lat="42.41721787605807" lon="-8.101362294790105"><ele>402.5</ele><time>2026-04-01T13:56:49Z</time></trkpt><trkpt lat="42.41720508444678" lon="-8.101199388218484"><ele>401.75</ele><time>2026-04-01T13:56:50Z</time></trkpt><trkpt lat="42.4171915416893" lon="-8.101036154810394"><ele>401.0</ele><time>2026-04-01T13:56:51Z</time></trkpt><trkpt lat="42.41717937686923" lon="-8.100852730801556"><ele>402.75</ele><time>2026-04-01T13:56:52Z</time></trkpt><trkpt lat="42.41714490465467" lon="-8.100658397682224"><ele>404.5</ele><time>2026-04-01T13:56:53Z</time></trkpt><trkpt lat="42.41712133874298" lon="-8.100470556654393"><ele>406.25</ele><time>2026-04-01T13:56:54Z</time></trkpt><trkpt lat="42.417078284595014" lon="-8.100264255367325"><ele>408.0</ele><time>2026-04-01T13:56:55Z</time></trkpt><trkpt lat="42.41704261416487" lon="-8.100069071615884"><ele>407.75</ele><time>2026-04-01T13:56:56Z</time></trkpt><trkpt lat="42.41702070657442" lon="-8.099863709559733"><ele>407.5</ele><time>2026-04-01T13:56:57Z</time></trkpt><trkpt lat="42.416984127431434" lon="-8.099674210088809"><ele>407.25</ele><time>2026-04-01T13:56:58Z</time></trkpt><trkpt lat="42.41695639686999" lon="-8.099500364709707"><ele>407.0</ele><time>2026-04-01T13:56:59Z</time></trkpt><trkpt lat="42.41694311838474" lon="-8.099332348390034"><ele>407.0</ele><time>2026-04-01T13:57:00Z</time></trkpt><trkpt lat="42.41693559024245" lon="-8.099170572719537"><ele>407.0</ele><time>2026-04-01T13:57:01Z</time></trkpt><trkpt lat="42.41694052432943" lon="-8.09901211434405"><ele>407.0</ele><time>2026-04-01T13:57:02Z</time></trkpt><trkpt lat="42.41692815381124" lon="-8.098846174610465"><ele>407.0</ele><time>2026-04-01T13:57:03Z</time></trkpt><trkpt lat="42.41694490967075" lon="-8.098741126823661"><ele>407.0</ele><time>2026-04-01T13:57:05Z</time></trkpt><trkpt lat="42.41694178976297" lon="-8.09856963954064"><ele>406.8</ele><time>2026-04-01T13:57:07Z</time></trkpt><trkpt lat="42.416937796797974" lon="-8.098460869905415"><ele>406.6</ele><time>2026-04-01T13:57:08Z</time></trkpt><trkpt lat="42.41693336550203" lon="-8.098340160159264"><ele>406.40000000000003</ele><time>2026-04-01T13:57:09Z</time></trkpt><trkpt lat="42.41692810414441" lon="-8.098196837154104"><ele>406.20000000000005</ele><time>2026-04-01T13:57:10Z</time></trkpt><trkpt lat="42.416937888017564" lon="-8.09806327135932"><ele>406.0</ele><time>2026-04-01T13:57:11Z</time></trkpt><trkpt lat="42.416931882600956" lon="-8.097926576631002"><ele>406.00000000000006</ele><time>2026-04-01T13:57:12Z</time></trkpt><trkpt lat="42.41692239596828" lon="-8.097792574072837"><ele>406.0</ele><time>2026-04-01T13:57:13Z</time></trkpt><trkpt lat="42.41692430976709" lon="-8.09765436370115"><ele>406.0</ele><time>2026-04-01T13:57:14Z</time></trkpt><trkpt lat="42.41692670895461" lon="-8.09753165428461"><ele>406.0</ele><time>2026-04-01T13:57:15Z</time></trkpt><trkpt lat="42.41693006618717" lon="-8.097425817420168"><ele>406.00000000000006</ele><time>2026-04-01T13:57:16Z</time></trkpt><trkpt lat="42.416935318433595" lon="-8.097320920447624"><ele>406.0</ele><time>2026-04-01T13:57:17Z</time></trkpt><trkpt lat="42.41694179716935" lon="-8.097232659497852"><ele>406.0</ele><time>2026-04-01T13:57:18Z</time></trkpt><trkpt lat="42.4169639048635" lon="-8.097146885420333"><ele>406.0</ele><time>2026-04-01T13:57:19Z</time></trkpt><trkpt lat="42.416949758490134" lon="-8.097007607208484"><ele>406.0</ele><time>2026-04-01T13:57:21Z</time></trkpt><trkpt lat="42.41686756559564" lon="-8.09697361591809"><ele>406.0</ele><time>2026-04-01T13:57:23Z</time></trkpt><trkpt lat="42.416823686601255" lon="-8.09684158129186"><ele>406.0</ele><time>2026-04-01T13:57:27Z</time></trkpt><trkpt lat="42.416878120607436" lon="-8.096702987409397"><ele>405.25</ele><time>2026-04-01T13:57:28Z</time></trkpt><trkpt lat="42.41693637276896" lon="-8.09657991416824"><ele>404.5</ele><time>2026-04-01T13:57:29Z</time></trkpt><trkpt lat="42.416978382131646" lon="-8.096441500081653"><ele>403.75</ele><time>2026-04-01T13:57:30Z</time></trkpt><trkpt lat="42.41702875244599" lon="-8.096295911946198"><ele>403.0</ele><time>2026-04-01T13:57:31Z</time></trkpt><trkpt lat="42.41708963768514" lon="-8.096163430629867"><ele>402.75</ele><time>2026-04-01T13:57:32Z</time></trkpt><trkpt lat="42.4171624647951" lon="-8.096033518512883"><ele>402.5</ele><time>2026-04-01T13:57:33Z</time></trkpt><trkpt lat="42.417251060261805" lon="-8.095909914123824"><ele>402.25</ele><time>2026-04-01T13:57:34Z</time></trkpt><trkpt lat="42.41733944843341" lon="-8.095783404198665"><ele>402.0</ele><time>2026-04-01T13:57:35Z</time></trkpt><trkpt lat="42.41741606925313" lon="-8.095657189685188"><ele>402.0</ele><time>2026-04-01T13:57:36Z</time></trkpt><trkpt lat="42.41748199902707" lon="-8.09550644735931"><ele>402.0</ele><time>2026-04-01T13:57:37Z</time></trkpt><trkpt lat="42.417542899269826" lon="-8.095357132855181"><ele>402.0</ele><time>2026-04-01T13:57:38Z</time></trkpt><trkpt lat="42.41757972462088" lon="-8.095196674251303"><ele>402.0</ele><time>2026-04-01T13:57:39Z</time></trkpt><trkpt lat="42.417632190417585" lon="-8.095035186106053"><ele>402.5</ele><time>2026-04-01T13:57:40Z</time></trkpt><trkpt lat="42.417705193318575" lon="-8.094884294714147"><ele>403.0</ele><time>2026-04-01T13:57:41Z</time></trkpt><trkpt lat="42.41780240997245" lon="-8.094734812150993"><ele>403.5</ele><time>2026-04-01T13:57:42Z</time></trkpt><trkpt lat="42.41789584147173" lon="-8.09456978109767"><ele>404.0</ele><time>2026-04-01T13:57:43Z</time></trkpt><trkpt lat="42.4179755101151" lon="-8.094387065479475"><ele>403.3333333333333</ele><time>2026-04-01T13:57:44Z</time></trkpt><trkpt lat="42.41804556698101" lon="-8.094205061369909"><ele>402.66666666666663</ele><time>2026-04-01T13:57:45Z</time></trkpt><trkpt lat="42.41812802717907" lon="-8.094039883235673"><ele>402.0</ele><time>2026-04-01T13:57:46Z</time></trkpt><trkpt lat="42.418242349858666" lon="-8.093891148855118"><ele>404.33333333333337</ele><time>2026-04-01T13:57:47Z</time></trkpt><trkpt lat="42.4183640950597" lon="-8.093745262882274"><ele>406.6666666666667</ele><time>2026-04-01T13:57:48Z</time></trkpt><trkpt lat="42.4184891628738" lon="-8.093594321628238"><ele>409.0</ele><time>2026-04-01T13:57:49Z</time></trkpt><trkpt lat="42.418614448076916" lon="-8.093450373866837"><ele>409.0</ele><time>2026-04-01T13:57:50Z</time></trkpt><trkpt lat="42.41872999609313" lon="-8.093315908013755"><ele>409.0</ele><time>2026-04-01T13:57:51Z</time></trkpt><trkpt lat="42.41882984035759" lon="-8.093194031853853"><ele>409.0</ele><time>2026-04-01T13:57:52Z</time></trkpt><trkpt lat="42.41892009111455" lon="-8.093073133293373"><ele>409.0</ele><time>2026-04-01T13:57:53Z</time></trkpt><trkpt lat="42.418963204936254" lon="-8.092940976724062"><ele>409.0</ele><time>2026-04-01T13:57:54Z</time></trkpt><trkpt lat="42.419021843010924" lon="-8.092788379852557"><ele>409.0</ele><time>2026-04-01T13:57:55Z</time></trkpt><trkpt lat="42.41907950563873" lon="-8.092638314889305"><ele>409.0</ele><time>2026-04-01T13:57:56Z</time></trkpt><trkpt lat="42.41914406924625" lon="-8.092453632857563"><ele>409.0</ele><time>2026-04-01T13:57:57Z</time></trkpt><trkpt lat="42.41922280000628" lon="-8.092263013007594"><ele>408.33333333333337</ele><time>2026-04-01T13:57:58Z</time></trkpt><trkpt lat="42.41931684575835" lon="-8.092070347609598"><ele>407.66666666666663</ele><time>2026-04-01T13:57:59Z</time></trkpt><trkpt lat="42.41942601404351" lon="-8.09187678092542"><ele>407.0</ele><time>2026-04-01T13:58:00Z</time></trkpt><trkpt lat="42.4195469514259" lon="-8.09169315254542"><ele>406.0</ele><time>2026-04-01T13:58:01Z</time></trkpt><trkpt lat="42.41968139481829" lon="-8.091521582750916"><ele>405.0</ele><time>2026-04-01T13:58:02Z</time></trkpt><trkpt lat="42.419825144616304" lon="-8.091345648651338"><ele>404.0</ele><time>2026-04-01T13:58:03Z</time></trkpt><trkpt lat="42.419967270945094" lon="-8.091169731443067"><ele>404.0</ele><time>2026-04-01T13:58:04Z</time></trkpt><trkpt lat="42.42011440200011" lon="-8.090987437854444"><ele>404.0</ele><time>2026-04-01T13:58:05Z</time></trkpt><trkpt lat="42.42026100581544" lon="-8.090803156560456"><ele>404.0</ele><time>2026-04-01T13:58:06Z</time></trkpt><trkpt lat="42.42041154071357" lon="-8.090615497126624"><ele>404.66666666666663</ele><time>2026-04-01T13:58:07Z</time></trkpt><trkpt lat="42.4205413937977" lon="-8.090440573624743"><ele>405.33333333333337</ele><time>2026-04-01T13:58:08Z</time></trkpt><trkpt lat="42.42068130359852" lon="-8.09022326167175"><ele>406.0</ele><time>2026-04-01T13:58:09Z</time></trkpt><trkpt lat="42.42083682418567" lon="-8.090029287173168"><ele>407.0</ele><time>2026-04-01T13:58:10Z</time></trkpt><trkpt lat="42.42099472002801" lon="-8.089842205642421"><ele>408.0</ele><time>2026-04-01T13:58:11Z</time></trkpt><trkpt lat="42.42115846306403" lon="-8.089664402362962"><ele>409.0</ele><time>2026-04-01T13:58:12Z</time></trkpt><trkpt lat="42.421328380924635" lon="-8.089494669569323"><ele>409.6666666666667</ele><time>2026-04-01T13:58:13Z</time></trkpt><trkpt lat="42.42149726735473" lon="-8.089322000768778"><ele>410.33333333333337</ele><time>2026-04-01T13:58:14Z</time></trkpt><trkpt lat="42.42166027780856" lon="-8.089144925451912"><ele>411.0</ele><time>2026-04-01T13:58:15Z</time></trkpt><trkpt lat="42.4218208823441" lon="-8.088984260852662"><ele>412.66666666666663</ele><time>2026-04-01T13:58:16Z</time></trkpt><trkpt lat="42.42198742976077" lon="-8.0888400564892"><ele>414.3333333333333</ele><time>2026-04-01T13:58:17Z</time></trkpt><trkpt lat="42.42214757011393" lon="-8.088695431937285"><ele>416.0</ele><time>2026-04-01T13:58:18Z</time></trkpt><trkpt lat="42.42230689795336" lon="-8.088601333065087"><ele>417.0</ele><time>2026-04-01T13:58:19Z</time></trkpt><trkpt lat="42.422451110340965" lon="-8.088494792497412"><ele>418.0</ele><time>2026-04-01T13:58:20Z</time></trkpt><trkpt lat="42.42258395153189" lon="-8.088393603722393"><ele>419.0</ele><time>2026-04-01T13:58:21Z</time></trkpt><trkpt lat="42.422710142247446" lon="-8.088293058452743"><ele>418.75</ele><time>2026-04-01T13:58:22Z</time></trkpt><trkpt lat="42.4228373298498" lon="-8.088202704432971"><ele>418.5</ele><time>2026-04-01T13:58:23Z</time></trkpt><trkpt lat="42.42296091402474" lon="-8.088125332056677"><ele>418.25</ele><time>2026-04-01T13:58:24Z</time></trkpt><trkpt lat="42.42308215900966" lon="-8.08806664675841"><ele>418.0</ele><time>2026-04-01T13:58:25Z</time></trkpt><trkpt lat="42.42320375523782" lon="-8.088016271103326"><ele>416.75</ele><time>2026-04-01T13:58:26Z</time></trkpt><trkpt lat="42.423330321976096" lon="-8.087974064941431"><ele>415.5</ele><time>2026-04-01T13:58:27Z</time></trkpt><trkpt lat="42.42344565112715" lon="-8.08792880269147"><ele>414.25</ele><time>2026-04-01T13:58:28Z</time></trkpt><trkpt lat="42.42356316021727" lon="-8.0878788209616"><ele>413.0</ele><time>2026-04-01T13:58:29Z</time></trkpt><trkpt lat="42.42367881268151" lon="-8.087819781462544"><ele>413.0</ele><time>2026-04-01T13:58:30Z</time></trkpt><trkpt lat="42.42378323353005" lon="-8.087752197055197"><ele>413.0</ele><time>2026-04-01T13:58:31Z</time></trkpt><trkpt lat="42.42388415729397" lon="-8.087669990121556"><ele>413.0</ele><time>2026-04-01T13:58:32Z</time></trkpt><trkpt lat="42.42396597851621" lon="-8.087589098504317"><ele>413.0</ele><time>2026-04-01T13:58:33Z</time></trkpt><trkpt lat="42.424028956375786" lon="-8.087516740260266"><ele>413.0</ele><time>2026-04-01T13:58:34Z</time></trkpt><trkpt lat="42.424079656042146" lon="-8.08745686911763"><ele>410.0</ele><time>2026-04-01T13:58:35Z</time></trkpt><trkpt lat="42.42416063976886" lon="-8.087356387893545"><ele>408.0</ele><time>2026-04-01T13:58:37Z</time></trkpt><trkpt lat="42.42423228368678" lon="-8.087263808478749"><ele>408.0</ele><time>2026-04-01T13:58:39Z</time></trkpt><trkpt lat="42.42428706869066" lon="-8.087189966799729"><ele>408.0</ele><time>2026-04-01T13:58:41Z</time></trkpt><trkpt lat="42.42442643841273" lon="-8.0870841833973"><ele>408.0</ele><time>2026-04-01T13:58:45Z</time></trkpt></trkseg><trkseg><trkpt lat="42.43481460063298" lon="-8.078119246033346"><ele>404.0</ele><time>2026-04-01T14:50:11Z</time></trkpt><trkpt lat="42.43481230789566" lon="-8.07802883038124"><ele>404.0</ele><time>2026-04-01T14:50:12Z</time></trkpt></trkseg><trkseg><trkpt lat="42.42486121942373" lon="-8.086495823972738"><ele>403.0</ele><time>2026-04-01T15:08:32Z</time></trkpt><trkpt lat="42.42491380006239" lon="-8.086415917607303"><ele>403.0</ele><time>2026-04-01T15:08:33Z</time></trkpt><trkpt lat="42.4249759591266" lon="-8.086341525653364"><ele>403.0</ele><time>2026-04-01T15:08:34Z</time></trkpt><trkpt lat="42.425049855714214" lon="-8.086259614094763"><ele>403.0</ele><time>2026-04-01T15:08:35Z</time></trkpt><trkpt lat="42.42511600023962" lon="-8.08617027576376"><ele>403.0</ele><time>2026-04-01T15:08:36Z</time></trkpt><trkpt lat="42.425180215875294" lon="-8.08606147652003"><ele>403.0</ele><time>2026-04-01T15:08:37Z</time></trkpt><trkpt lat="42.42526732187565" lon="-8.085958804075215"><ele>403.0</ele><time>2026-04-01T15:08:38Z</time></trkpt><trkpt lat="42.4253515959626" lon="-8.085794454461563"><ele>403.0</ele><time>2026-04-01T15:08:39Z</time></trkpt><trkpt lat="42.425424369692074" lon="-8.085627228129585"><ele>403.0</ele><time>2026-04-01T15:08:40Z</time></trkpt><trkpt lat="42.42547407264703" lon="-8.08546876287574"><ele>402.5</ele><time>2026-04-01T15:08:41Z</time></trkpt><trkpt lat="42.42553155001034" lon="-8.08530107404467"><ele>402.0</ele><time>2026-04-01T15:08:42Z</time></trkpt><trkpt lat="42.42558856310902" lon="-8.085132456608173"><ele>401.5</ele><time>2026-04-01T15:08:43Z</time></trkpt><trkpt lat="42.425643204723414" lon="-8.084962965241566"><ele>401.0</ele><time>2026-04-01T15:08:44Z</time></trkpt><trkpt lat="42.4256932895044" lon="-8.084805883498664"><ele>401.0</ele><time>2026-04-01T15:08:45Z</time></trkpt><trkpt lat="42.42573955172691" lon="-8.084660790318816"><ele>401.0</ele><time>2026-04-01T15:08:46Z</time></trkpt><trkpt lat="42.4257829667713" lon="-8.08452462679119"><ele>401.0</ele><time>2026-04-01T15:08:47Z</time></trkpt><trkpt lat="42.425843428709875" lon="-8.084408669391445"><ele>401.0</ele><time>2026-04-01T15:08:48Z</time></trkpt><trkpt lat="42.42588102091222" lon="-8.084293053396513"><ele>401.0</ele><time>2026-04-01T15:08:49Z</time></trkpt><trkpt lat="42.42590180861424" lon="-8.084166122764884"><ele>401.0</ele><time>2026-04-01T15:08:50Z</time></trkpt><trkpt lat="42.42593694608131" lon="-8.08404210362017"><ele>401.0</ele><time>2026-04-01T15:08:51Z</time></trkpt><trkpt lat="42.42597026881386" lon="-8.083931067495817"><ele>401.0</ele><time>2026-04-01T15:08:52Z</time></trkpt><trkpt lat="42.426022886279696" lon="-8.083843659573345"><ele>401.0</ele><time>2026-04-01T15:08:53Z</time></trkpt><trkpt lat="42.42606766237973" lon="-8.083717462139846"><ele>401.0</ele><time>2026-04-01T15:08:55Z</time></trkpt><trkpt lat="42.426270314073705" lon="-8.083871963225151"><ele>400.6</ele><time>2026-04-01T15:08:56Z</time></trkpt><trkpt lat="42.42640293075595" lon="-8.083880340777673"><ele>400.20000000000005</ele><time>2026-04-01T15:08:57Z</time></trkpt><trkpt lat="42.42651669154865" lon="-8.083863208696817"><ele>399.79999999999995</ele><time>2026-04-01T15:08:58Z</time></trkpt><trkpt lat="42.42661644613522" lon="-8.083883460460163"><ele>399.4</ele><time>2026-04-01T15:08:59Z</time></trkpt><trkpt lat="42.42671611057881" lon="-8.083883460458253"><ele>399.0</ele><time>2026-04-01T15:09:01Z</time></trkpt><trkpt lat="42.42676715286086" lon="-8.083645972751619"><ele>399.0</ele><time>2026-04-01T15:09:03Z</time></trkpt><trkpt lat="42.426777930970836" lon="-8.08350787078107"><ele>399.0</ele><time>2026-04-01T15:09:04Z</time></trkpt><trkpt lat="42.426783323486184" lon="-8.083347485291899"><ele>399.0</ele><time>2026-04-01T15:09:05Z</time></trkpt><trkpt lat="42.42677369154985" lon="-8.083177848328072"><ele>399.0</ele><time>2026-04-01T15:09:06Z</time></trkpt><trkpt lat="42.42676147378902" lon="-8.08300182640786"><ele>398.2</ele><time>2026-04-01T15:09:07Z</time></trkpt><trkpt lat="42.426749751122344" lon="-8.082843001200162"><ele>397.4</ele><time>2026-04-01T15:09:08Z</time></trkpt><trkpt lat="42.42675022778858" lon="-8.082712555255894"><ele>396.6</ele><time>2026-04-01T15:09:09Z</time></trkpt><trkpt lat="42.42674336096617" lon="-8.082608124401862"><ele>395.8</ele><time>2026-04-01T15:09:10Z</time></trkpt><trkpt lat="42.42672254952885" lon="-8.082526422871062"><ele>395.0</ele><time>2026-04-01T15:09:11Z</time></trkpt><trkpt lat="42.42684029351474" lon="-8.08245565682554"><ele>395.0</ele><time>2026-04-01T15:09:12Z</time></trkpt><trkpt lat="42.426936718426525" lon="-8.082408525868216"><ele>395.0</ele><time>2026-04-01T15:09:13Z</time></trkpt><trkpt lat="42.427046181988366" lon="-8.082338361405116"><ele>395.0</ele><time>2026-04-01T15:09:14Z</time></trkpt><trkpt lat="42.4271648432" lon="-8.082214186138991"><ele>395.0</ele><time>2026-04-01T15:09:15Z</time></trkpt><trkpt lat="42.42729283088791" lon="-8.082116003386023"><ele>394.3333333333333</ele><time>2026-04-01T15:09:16Z</time></trkpt><trkpt lat="42.42742350068849" lon="-8.082011840972948"><ele>393.66666666666663</ele><time>2026-04-01T15:09:17Z</time></trkpt><trkpt lat="42.427572184159466" lon="-8.081892213155385"><ele>393.0</ele><time>2026-04-01T15:09:17.999Z</time></trkpt><trkpt lat="42.427711599817826" lon="-8.081776814888121"><ele>393.0</ele><time>2026-04-01T15:09:18.999Z</time></trkpt><trkpt lat="42.42784527539248" lon="-8.081673120966975"><ele>393.0</ele><time>2026-04-01T15:09:19.999Z</time></trkpt><trkpt lat="42.42796021235847" lon="-8.08157036806089"><ele>393.0</ele><time>2026-04-01T15:09:20.999Z</time></trkpt><trkpt lat="42.42804319618537" lon="-8.081484057314293"><ele>393.0</ele><time>2026-04-01T15:09:21.999Z</time></trkpt><trkpt lat="42.428159556402036" lon="-8.081378927658728"><ele>392.75</ele><time>2026-04-01T15:09:22.999Z</time></trkpt><trkpt lat="42.428276013422995" lon="-8.081273710350247"><ele>392.5</ele><time>2026-04-01T15:09:23.999Z</time></trkpt><trkpt lat="42.42840298300411" lon="-8.081157630731456"><ele>392.25</ele><time>2026-04-01T15:09:24.999Z</time></trkpt><trkpt lat="42.42852946694606" lon="-8.081041896843628"><ele>392.0</ele><time>2026-04-01T15:09:25.999Z</time></trkpt><trkpt lat="42.42865768957593" lon="-8.080926241303272"><ele>392.0</ele><time>2026-04-01T15:09:26.999Z</time></trkpt><trkpt lat="42.428788057932614" lon="-8.080811915335255"><ele>392.0</ele><time>2026-04-01T15:09:27.999Z</time></trkpt><trkpt lat="42.428913787886174" lon="-8.080724467018005"><ele>392.0</ele><time>2026-04-01T15:09:28.999Z</time></trkpt><trkpt lat="42.42901587235495" lon="-8.08061713008684"><ele>392.0</ele><time>2026-04-01T15:09:29.999Z</time></trkpt><trkpt lat="42.42912198095458" lon="-8.080549010319965"><ele>392.8</ele><time>2026-04-01T15:09:30.999Z</time></trkpt><trkpt lat="42.429215279502955" lon="-8.080455710259018"><ele>393.6</ele><time>2026-04-01T15:09:31.999Z</time></trkpt><trkpt lat="42.42929030637957" lon="-8.080376343448423"><ele>394.40000000000003</ele><time>2026-04-01T15:09:32.999Z</time></trkpt><trkpt lat="42.42935469190234" lon="-8.080305678252135"><ele>395.20000000000005</ele><time>2026-04-01T15:09:33.999Z</time></trkpt><trkpt lat="42.42943853827137" lon="-8.080256942742345"><ele>396.0</ele><time>2026-04-01T15:09:34.999Z</time></trkpt><trkpt lat="42.42950228972884" lon="-8.080214044445201"><ele>396.0</ele><time>2026-04-01T15:09:35.999Z</time></trkpt><trkpt lat="42.42960555165357" lon="-8.080133154079277"><ele>396.0</ele><time>2026-04-01T15:09:37.999Z</time></trkpt><trkpt lat="42.429694592042594" lon="-8.080066727230989"><ele>396.0</ele><time>2026-04-01T15:09:39.999Z</time></trkpt><trkpt lat="42.42974475359175" lon="-8.080010979130696"><ele>396.0</ele><time>2026-04-01T15:09:40.999Z</time></trkpt><trkpt lat="42.42981824404499" lon="-8.079919032783224"><ele>396.0</ele><time>2026-04-01T15:09:41.999Z</time></trkpt><trkpt lat="42.4299049043297" lon="-8.07985343046739"><ele>397.75</ele><time>2026-04-01T15:09:42.999Z</time></trkpt><trkpt lat="42.43001158402756" lon="-8.079781050240678"><ele>399.5</ele><time>2026-04-01T15:09:43.999Z</time></trkpt><trkpt lat="42.43011179079133" lon="-8.079680929220252"><ele>401.25</ele><time>2026-04-01T15:09:44.999Z</time></trkpt><trkpt lat="42.43021664837854" lon="-8.079596832431116"><ele>403.0</ele><time>2026-04-01T15:09:45.999Z</time></trkpt><trkpt lat="42.43030278082504" lon="-8.079530908474968"><ele>403.0</ele><time>2026-04-01T15:09:46.999Z</time></trkpt><trkpt lat="42.43037005668819" lon="-8.079483948057343"><ele>403.0</ele><time>2026-04-01T15:09:47.999Z</time></trkpt><trkpt lat="42.43045381690458" lon="-8.079402723931969"><ele>403.0</ele><time>2026-04-01T15:09:49.999Z</time></trkpt><trkpt lat="42.430544917187255" lon="-8.079323871577177"><ele>403.0</ele><time>2026-04-01T15:09:51.999Z</time></trkpt><trkpt lat="42.430649013473015" lon="-8.079212326271865"><ele>403.0</ele><time>2026-04-01T15:09:53.999Z</time></trkpt><trkpt lat="42.430708428475995" lon="-8.079163387944995"><ele>403.1666666666667</ele><time>2026-04-01T15:09:54.999Z</time></trkpt><trkpt lat="42.4307664632217" lon="-8.079125475459998"><ele>403.33333333333337</ele><time>2026-04-01T15:09:55.999Z</time></trkpt><trkpt lat="42.430820136445995" lon="-8.079074212019417"><ele>403.5</ele><time>2026-04-01T15:09:56.999Z</time></trkpt><trkpt lat="42.43092377957209" lon="-8.07899103230726"><ele>403.66666666666663</ele><time>2026-04-01T15:09:58.999Z</time></trkpt><trkpt lat="42.430994638753546" lon="-8.078939936425193"><ele>403.8333333333333</ele><time>2026-04-01T15:10:00.999Z</time></trkpt><trkpt lat="42.43107754667133" lon="-8.078874063630733"><ele>404.0</ele><time>2026-04-01T15:10:04.999Z</time></trkpt><trkpt lat="42.43115877821261" lon="-8.07880643992983"><ele>404.66666666666663</ele><time>2026-04-01T15:10:06.999Z</time></trkpt><trkpt lat="42.431221407336636" lon="-8.07874138967347"><ele>405.3333333333333</ele><time>2026-04-01T15:10:08.999Z</time></trkpt><trkpt lat="42.43129048635663" lon="-8.078661007729595"><ele>406.0</ele><time>2026-04-01T15:10:10.999Z</time></trkpt><trkpt lat="42.43140430485991" lon="-8.078629726083872"><ele>406.66666666666663</ele><time>2026-04-01T15:13:05Z</time></trkpt><trkpt lat="42.43149023669196" lon="-8.0786326390623"><ele>407.3333333333333</ele><time>2026-04-01T15:13:20Z</time></trkpt><trkpt lat="42.43151664494805" lon="-8.078547265178894"><ele>408.0</ele><time>2026-04-01T15:13:21Z</time></trkpt><trkpt lat="42.43152893250694" lon="-8.078443082141705"><ele>408.2</ele><time>2026-04-01T15:13:22Z</time></trkpt><trkpt lat="42.431544670637386" lon="-8.07835083093445"><ele>408.4</ele><time>2026-04-01T15:13:23Z</time></trkpt><trkpt lat="42.4314152188464" lon="-8.078273681557421"><ele>408.59999999999997</ele><time>2026-04-01T15:13:24Z</time></trkpt><trkpt lat="42.431415253695235" lon="-8.078177789725965"><ele>408.79999999999995</ele><time>2026-04-01T15:13:26Z</time></trkpt><trkpt lat="42.431398218394364" lon="-8.078035728316522"><ele>409.0</ele><time>2026-04-01T15:13:29Z</time></trkpt><trkpt lat="42.431363818473926" lon="-8.077940152352369"><ele>408.83333333333337</ele><time>2026-04-01T15:13:32Z</time></trkpt><trkpt lat="42.43135727959427" lon="-8.077829943881577"><ele>408.6666666666667</ele><time>2026-04-01T15:13:36Z</time></trkpt><trkpt lat="42.431276610367" lon="-8.07778317441088"><ele>408.5</ele><time>2026-04-01T15:13:38Z</time></trkpt><trkpt lat="42.43121563446922" lon="-8.077658382007163"><ele>408.33333333333337</ele><time>2026-04-01T15:13:40Z</time></trkpt><trkpt lat="42.43119619876859" lon="-8.077570417502502"><ele>408.1666666666667</ele><time>2026-04-01T15:13:41Z</time></trkpt><trkpt lat="42.43116760581175" lon="-8.077479657935728"><ele>408.0</ele><time>2026-04-01T15:13:42Z</time></trkpt><trkpt lat="42.43110855006726" lon="-8.077346146045288"><ele>407.59999999999997</ele><time>2026-04-01T15:13:44Z</time></trkpt><trkpt lat="42.431066970966484" lon="-8.07722939387244"><ele>407.2</ele><time>2026-04-01T15:13:46Z</time></trkpt><trkpt lat="42.431022979112285" lon="-8.077122720408129"><ele>406.8</ele><time>2026-04-01T15:13:48Z</time></trkpt><trkpt lat="42.43099101085071" lon="-8.077013062007497"><ele>406.4</ele><time>2026-04-01T15:13:50Z</time></trkpt><trkpt lat="42.43096280921408" lon="-8.076886206308979"><ele>406.0</ele><time>2026-04-01T15:13:52Z</time></trkpt><trkpt lat="42.43092918664654" lon="-8.076729103021377"><ele>405.6</ele><time>2026-04-01T15:13:54Z</time></trkpt><trkpt lat="42.43089872781367" lon="-8.07658819267417"><ele>405.20000000000005</ele><time>2026-04-01T15:13:56Z</time></trkpt><trkpt lat="42.43086704645564" lon="-8.076442441029343"><ele>404.79999999999995</ele><time>2026-04-01T15:13:58Z</time></trkpt><trkpt lat="42.43084224952294" lon="-8.07632836172094"><ele>404.4</ele><time>2026-04-01T15:13:59Z</time></trkpt><trkpt lat="42.43082002550278" lon="-8.076226119067853"><ele>404.0</ele><time>2026-04-01T15:13:59.999Z</time></trkpt><trkpt lat="42.43079877514087" lon="-8.076128357332992"><ele>403.99999999999994</ele><time>2026-04-01T15:14:00.999Z</time></trkpt><trkpt lat="42.430775698295854" lon="-8.076028356857082"><ele>404.0</ele><time>2026-04-01T15:14:01.999Z</time></trkpt><trkpt lat="42.43075296477952" lon="-8.075929451519142"><ele>404.0</ele><time>2026-04-01T15:14:02.999Z</time></trkpt><trkpt lat="42.430728945412405" lon="-8.075824501468285"><ele>404.0</ele><time>2026-04-01T15:14:03.999Z</time></trkpt><trkpt lat="42.43070799477638" lon="-8.07573295986548"><ele>403.99999999999994</ele><time>2026-04-01T15:14:04.999Z</time></trkpt><trkpt lat="42.43068624259495" lon="-8.075637915909606"><ele>404.0</ele><time>2026-04-01T15:14:05.999Z</time></trkpt><trkpt lat="42.43066414527873" lon="-8.075541364057853"><ele>404.0</ele><time>2026-04-01T15:14:06.999Z</time></trkpt><trkpt lat="42.43064384708306" lon="-8.07545267319353"><ele>404.0</ele><time>2026-04-01T15:14:07.999Z</time></trkpt><trkpt lat="42.430623434840676" lon="-8.075363484047612"><ele>404.0</ele><time>2026-04-01T15:14:08.999Z</time></trkpt><trkpt lat="42.430603328773394" lon="-8.075272009379486"><ele>404.0</ele><time>2026-04-01T15:14:09.999Z</time></trkpt><trkpt lat="42.430583856179496" lon="-8.075182229356164"><ele>404.0</ele><time>2026-04-01T15:14:10.999Z</time></trkpt><trkpt lat="42.43056412415859" lon="-8.075091253401727"><ele>404.0</ele><time>2026-04-01T15:14:11.999Z</time></trkpt><trkpt lat="42.430545807968564" lon="-8.075006805094846"><ele>404.0</ele><time>2026-04-01T15:14:12.999Z</time></trkpt><trkpt lat="42.430527645177854" lon="-8.074922614113136"><ele>403.57142857142856</ele><time>2026-04-01T15:14:13.999Z</time></trkpt><trkpt lat="42.43050856707983" lon="-8.074833502487923"><ele>403.1428571428571</ele><time>2026-04-01T15:14:14.999Z</time></trkpt><trkpt lat="42.43048994386505" lon="-8.07474708874332"><ele>402.7142857142857</ele><time>2026-04-01T15:14:15.999Z</time></trkpt><trkpt lat="42.430470878634296" lon="-8.074658843037476"><ele>402.2857142857143</ele><time>2026-04-01T15:14:16.999Z</time></trkpt><trkpt lat="42.43046411099173" lon="-8.074567569880777"><ele>401.8571428571429</ele><time>2026-04-01T15:14:17.999Z</time></trkpt><trkpt lat="42.430431257482574" lon="-8.074473871915"><ele>401.42857142857144</ele><time>2026-04-01T15:14:18.999Z</time></trkpt><trkpt lat="42.43041015469295" lon="-8.074366469844705"><ele>401.0</ele><time>2026-04-01T15:14:19.999Z</time></trkpt><trkpt lat="42.43038553883286" lon="-8.074250662345856"><ele>400.3333333333333</ele><time>2026-04-01T15:14:20.999Z</time></trkpt><trkpt lat="42.43035777038979" lon="-8.074135307645271"><ele>399.66666666666663</ele><time>2026-04-01T15:14:21.999Z</time></trkpt><trkpt lat="42.43034438430944" lon="-8.07401915435219"><ele>399.0</ele><time>2026-04-01T15:14:22.999Z</time></trkpt><trkpt lat="42.430311254414256" lon="-8.073920002787165"><ele>398.33333333333337</ele><time>2026-04-01T15:14:23.999Z</time></trkpt><trkpt lat="42.43029307224813" lon="-8.073835844322748"><ele>397.6666666666667</ele><time>2026-04-01T15:14:24.999Z</time></trkpt><trkpt lat="42.43026884963463" lon="-8.07372372918505"><ele>397.0</ele><time>2026-04-01T15:14:25.999Z</time></trkpt><trkpt lat="42.4304721168773" lon="-8.073546921045482"><ele>397.0</ele><time>2026-04-01T15:14:26.999Z</time></trkpt><trkpt lat="42.430540587015166" lon="-8.073444715316834"><ele>397.0</ele><time>2026-04-01T15:14:27.999Z</time></trkpt><trkpt lat="42.43061500077135" lon="-8.073310214002502"><ele>397.0</ele><time>2026-04-01T15:14:28.999Z</time></trkpt><trkpt lat="42.43070358684103" lon="-8.07317209203026"><ele>397.0</ele><time>2026-04-01T15:14:29.999Z</time></trkpt><trkpt lat="42.43079465701202" lon="-8.073032286458256"><ele>396.0</ele><time>2026-04-01T15:14:30.999Z</time></trkpt><trkpt lat="42.430878536024665" lon="-8.07288667853276"><ele>395.0</ele><time>2026-04-01T15:14:31.999Z</time></trkpt><trkpt lat="42.430968227712775" lon="-8.072745160860952"><ele>394.0</ele><time>2026-04-01T15:14:32.999Z</time></trkpt><trkpt lat="42.43104924022461" lon="-8.072596497279731"><ele>393.0</ele><time>2026-04-01T15:14:33.999Z</time></trkpt><trkpt lat="42.4311527013486" lon="-8.072452644163453"><ele>393.4</ele><time>2026-04-01T15:14:34.999Z</time></trkpt><trkpt lat="42.43122343217983" lon="-8.072344595961665"><ele>393.79999999999995</ele><time>2026-04-01T15:14:35.999Z</time></trkpt><trkpt lat="42.43129428200039" lon="-8.072235645863941"><ele>394.2</ele><time>2026-04-01T15:14:36.999Z</time></trkpt><trkpt lat="42.43135903324077" lon="-8.07211191663942"><ele>394.6</ele><time>2026-04-01T15:14:37.999Z</time></trkpt><trkpt lat="42.43142308937445" lon="-8.071993030448398"><ele>395.0</ele><time>2026-04-01T15:14:38.999Z</time></trkpt><trkpt lat="42.43150105185894" lon="-8.071886530995778"><ele>395.0</ele><time>2026-04-01T15:14:39.999Z</time></trkpt><trkpt lat="42.431565771486675" lon="-8.071782115213924"><ele>395.0</ele><time>2026-04-01T15:14:40.999Z</time></trkpt><trkpt lat="42.43163882315309" lon="-8.071669205355922"><ele>395.0</ele><time>2026-04-01T15:14:41.999Z</time></trkpt><trkpt lat="42.43169043212341" lon="-8.071577131380367"><ele>395.0</ele><time>2026-04-01T15:14:42.999Z</time></trkpt><trkpt lat="42.431742926982515" lon="-8.071503213441819"><ele>395.0</ele><time>2026-04-01T15:14:43.999Z</time></trkpt><trkpt lat="42.43179731134218" lon="-8.071407258897008"><ele>396.0</ele><time>2026-04-01T15:14:45.999Z</time></trkpt><trkpt lat="42.43184957707805" lon="-8.071319264714889"><ele>396.0</ele><time>2026-04-01T15:14:48.999Z</time></trkpt></trkseg><trkseg><trkpt lat="42.42957938095252" lon="-8.068349713572612"><ele>383.2</ele><time>2026-04-01T15:19:09Z</time></trkpt><trkpt lat="42.42957443966097" lon="-8.068216696719091"><ele>383.4</ele><time>2026-04-01T15:19:14Z</time></trkpt><trkpt lat="42.4295678467755" lon="-8.068093639660098"><ele>383.59999999999997</ele><time>2026-04-01T15:19:15Z</time></trkpt><trkpt lat="42.4295497532841" lon="-8.067945548385751"><ele>383.79999999999995</ele><time>2026-04-01T15:19:16Z</time></trkpt><trkpt lat="42.429518553095086" lon="-8.067790875081917"><ele>384.0</ele><time>2026-04-01T15:19:17Z</time></trkpt><trkpt lat="42.42946771875737" lon="-8.067621669275416"><ele>384.0</ele><time>2026-04-01T15:19:18Z</time></trkpt><trkpt lat="42.429408969617555" lon="-8.06744789613034"><ele>384.0</ele><time>2026-04-01T15:19:19Z</time></trkpt><trkpt lat="42.42934298429932" lon="-8.067268047208408"><ele>384.0</ele><time>2026-04-01T15:19:20Z</time></trkpt><trkpt lat="42.429272812440765" lon="-8.067082075955389"><ele>384.0</ele><time>2026-04-01T15:19:21Z</time></trkpt><trkpt lat="42.42920920716782" lon="-8.066874681578062"><ele>385.33333333333337</ele><time>2026-04-01T15:19:22Z</time></trkpt><trkpt lat="42.429118080906804" lon="-8.066682224399948"><ele>386.6666666666667</ele><time>2026-04-01T15:19:23Z</time></trkpt><trkpt lat="42.42903931679291" lon="-8.066480685333751"><ele>388.0</ele><time>2026-04-01T15:19:24Z</time></trkpt><trkpt lat="42.428980003080966" lon="-8.066288705423059"><ele>387.6666666666667</ele><time>2026-04-01T15:19:25Z</time></trkpt><trkpt lat="42.42890839848013" lon="-8.066107857881148"><ele>387.33333333333337</ele><time>2026-04-01T15:19:26Z</time></trkpt><trkpt lat="42.428829891009286" lon="-8.065928200260053"><ele>387.0</ele><time>2026-04-01T15:19:27Z</time></trkpt><trkpt lat="42.4287602249451" lon="-8.065750796077891"><ele>387.0</ele><time>2026-04-01T15:19:28Z</time></trkpt><trkpt lat="42.42869472125463" lon="-8.065574176933442"><ele>387.0</ele><time>2026-04-01T15:19:29Z</time></trkpt><trkpt lat="42.42863462732643" lon="-8.06539932991364"><ele>387.0</ele><time>2026-04-01T15:19:30Z</time></trkpt><trkpt lat="42.42857818121388" lon="-8.065230074506273"><ele>387.0</ele><time>2026-04-01T15:19:31Z</time></trkpt><trkpt lat="42.42850548621822" lon="-8.065077867704431"><ele>387.25</ele><time>2026-04-01T15:19:32Z</time></trkpt><trkpt lat="42.42844988598385" lon="-8.064926655880088"><ele>387.5</ele><time>2026-04-01T15:19:33Z</time></trkpt><trkpt lat="42.42839805558237" lon="-8.064785107204441"><ele>387.75</ele><time>2026-04-01T15:19:34Z</time></trkpt><trkpt lat="42.42834632264135" lon="-8.064643822709677"><ele>388.0</ele><time>2026-04-01T15:19:35Z</time></trkpt><trkpt lat="42.42831417407993" lon="-8.064499932464328"><ele>388.0</ele><time>2026-04-01T15:19:36Z</time></trkpt><trkpt lat="42.42827238285658" lon="-8.06438910003254"><ele>388.0</ele><time>2026-04-01T15:19:37Z</time></trkpt><trkpt lat="42.42823413543725" lon="-8.06426965189181"><ele>388.0</ele><time>2026-04-01T15:19:38Z</time></trkpt><trkpt lat="42.42819530666851" lon="-8.064157039918129"><ele>388.0</ele><time>2026-04-01T15:19:39Z</time></trkpt><trkpt lat="42.42815911101363" lon="-8.064038129635314"><ele>388.0</ele><time>2026-04-01T15:19:40Z</time></trkpt><trkpt lat="42.428130393796486" lon="-8.063929139406188"><ele>388.1666666666667</ele><time>2026-04-01T15:19:41Z</time></trkpt><trkpt lat="42.42810063818854" lon="-8.063835329576534"><ele>388.33333333333337</ele><time>2026-04-01T15:19:42Z</time></trkpt><trkpt lat="42.428070903840236" lon="-8.063756665336161"><ele>388.5</ele><time>2026-04-01T15:19:43Z</time></trkpt><trkpt lat="42.42801015380762" lon="-8.063641347646474"><ele>388.66666666666663</ele><time>2026-04-01T15:19:45Z</time></trkpt><trkpt lat="42.42796034930959" lon="-8.063573867467237"><ele>388.8333333333333</ele><time>2026-04-01T15:19:46Z</time></trkpt><trkpt lat="42.427906373215556" lon="-8.063485748454712"><ele>389.0</ele><time>2026-04-01T15:19:47Z</time></trkpt><trkpt lat="42.42786638924324" lon="-8.06335531417734"><ele>389.2</ele><time>2026-04-01T15:19:48Z</time></trkpt><trkpt lat="42.42785415689647" lon="-8.063205131188834"><ele>389.4</ele><time>2026-04-01T15:19:49Z</time></trkpt><trkpt lat="42.42784546970665" lon="-8.06304910220759"><ele>389.6</ele><time>2026-04-01T15:19:50Z</time></trkpt><trkpt lat="42.42780865846836" lon="-8.062917936545796"><ele>389.8</ele><time>2026-04-01T15:19:51Z</time></trkpt><trkpt lat="42.42774758006286" lon="-8.062807639284147"><ele>390.0</ele><time>2026-04-01T15:19:52Z</time></trkpt><trkpt lat="42.427677207533954" lon="-8.06271370256357"><ele>390.0</ele><time>2026-04-01T15:19:53Z</time></trkpt><trkpt lat="42.42760492817454" lon="-8.062620060691573"><ele>390.0</ele><time>2026-04-01T15:19:54Z</time></trkpt><trkpt lat="42.42753869639459" lon="-8.062516742264759"><ele>390.0</ele><time>2026-04-01T15:19:55Z</time></trkpt><trkpt lat="42.42747360367578" lon="-8.062405249310913"><ele>390.0</ele><time>2026-04-01T15:19:56Z</time></trkpt><trkpt lat="42.42740360116712" lon="-8.062288956651528"><ele>390.0</ele><time>2026-04-01T15:19:57Z</time></trkpt><trkpt lat="42.42732921396239" lon="-8.062162509895458"><ele>390.0</ele><time>2026-04-01T15:19:58Z</time></trkpt><trkpt lat="42.42725698938714" lon="-8.062028554433596"><ele>390.0</ele><time>2026-04-01T15:19:59Z</time></trkpt><trkpt lat="42.427182907618786" lon="-8.061879257452006"><ele>390.0</ele><time>2026-04-01T15:20:00Z</time></trkpt><trkpt lat="42.427108802815276" lon="-8.06172206789585"><ele>390.0</ele><time>2026-04-01T15:20:01Z</time></trkpt><trkpt lat="42.427019885972165" lon="-8.061586254179161"><ele>392.0</ele><time>2026-04-01T15:20:02Z</time></trkpt><trkpt lat="42.426942912070686" lon="-8.061435523047983"><ele>394.0</ele><time>2026-04-01T15:20:03Z</time></trkpt><trkpt lat="42.42686986546281" lon="-8.06127885196359"><ele>396.0</ele><time>2026-04-01T15:20:04Z</time></trkpt><trkpt lat="42.426793203341255" lon="-8.061116330848108"><ele>398.0</ele><time>2026-04-01T15:20:05Z</time></trkpt><trkpt lat="42.42671501013458" lon="-8.0609509525415"><ele>399.66666666666663</ele><time>2026-04-01T15:20:06Z</time></trkpt><trkpt lat="42.42663517475274" lon="-8.060780764779524"><ele>401.33333333333337</ele><time>2026-04-01T15:20:07Z</time></trkpt><trkpt lat="42.426554837813875" lon="-8.06060913276665"><ele>403.0</ele><time>2026-04-01T15:20:08Z</time></trkpt><trkpt lat="42.426473960681655" lon="-8.060434952409155"><ele>403.0</ele><time>2026-04-01T15:20:09Z</time></trkpt><trkpt lat="42.426399727181426" lon="-8.06024726429971"><ele>403.0</ele><time>2026-04-01T15:20:10Z</time></trkpt><trkpt lat="42.42631666289851" lon="-8.060063722655107"><ele>403.0</ele><time>2026-04-01T15:20:11Z</time></trkpt><trkpt lat="42.42622857429721" lon="-8.059890386474406"><ele>404.6666666666667</ele><time>2026-04-01T15:20:12Z</time></trkpt><trkpt lat="42.42613729708002" lon="-8.059706544073556"><ele>406.33333333333337</ele><time>2026-04-01T15:20:13Z</time></trkpt><trkpt lat="42.42605009757292" lon="-8.059505364534024"><ele>408.0</ele><time>2026-04-01T15:20:14Z</time></trkpt><trkpt lat="42.42596146776078" lon="-8.059308158556872"><ele>407.66666666666663</ele><time>2026-04-01T15:20:15Z</time></trkpt><trkpt lat="42.4258702091081" lon="-8.05911310330902"><ele>407.3333333333333</ele><time>2026-04-01T15:20:16Z</time></trkpt><trkpt lat="42.4257788558895" lon="-8.05891302245113"><ele>407.0</ele><time>2026-04-01T15:20:17Z</time></trkpt><trkpt lat="42.42568388244833" lon="-8.058713286885345"><ele>407.0</ele><time>2026-04-01T15:20:18Z</time></trkpt><trkpt lat="42.42559149127395" lon="-8.058514500313617"><ele>407.0</ele><time>2026-04-01T15:20:19Z</time></trkpt><trkpt lat="42.42549666455002" lon="-8.05830710372486"><ele>407.0</ele><time>2026-04-01T15:20:20Z</time></trkpt><trkpt lat="42.42540275732213" lon="-8.058100358745648"><ele>408.66666666666663</ele><time>2026-04-01T15:20:21Z</time></trkpt><trkpt lat="42.42530839069741" lon="-8.057892134989059"><ele>410.33333333333337</ele><time>2026-04-01T15:20:22Z</time></trkpt><trkpt lat="42.425213856997374" lon="-8.057678247676726"><ele>412.0</ele><time>2026-04-01T15:20:23Z</time></trkpt><trkpt lat="42.42512035977828" lon="-8.057463338258737"><ele>413.33333333333337</ele><time>2026-04-01T15:20:24Z</time></trkpt><trkpt lat="42.425025557983474" lon="-8.057246087714336"><ele>414.66666666666663</ele><time>2026-04-01T15:20:25Z</time></trkpt><trkpt lat="42.42493581757813" lon="-8.057022887597272"><ele>416.0</ele><time>2026-04-01T15:20:26Z</time></trkpt><trkpt lat="42.42485316097644" lon="-8.05678859496231"><ele>415.3333333333333</ele><time>2026-04-01T15:20:27Z</time></trkpt><trkpt lat="42.42477239885733" lon="-8.056554299523945"><ele>414.66666666666663</ele><time>2026-04-01T15:20:28Z</time></trkpt><trkpt lat="42.42469391001516" lon="-8.056319011873548"><ele>414.0</ele><time>2026-04-01T15:20:29Z</time></trkpt><trkpt lat="42.42461553334253" lon="-8.056083438956007"><ele>414.0</ele><time>2026-04-01T15:20:30Z</time></trkpt><trkpt lat="42.42453225253091" lon="-8.055843503262764"><ele>414.0</ele><time>2026-04-01T15:20:31Z</time></trkpt><trkpt lat="42.424445325827584" lon="-8.05560452400884"><ele>414.0</ele><time>2026-04-01T15:20:32Z</time></trkpt><trkpt lat="42.42436758012627" lon="-8.055384396283475"><ele>415.33333333333337</ele><time>2026-04-01T15:20:33Z</time></trkpt><trkpt lat="42.42429492085175" lon="-8.055179897051953"><ele>416.6666666666667</ele><time>2026-04-01T15:20:34Z</time></trkpt><trkpt lat="42.424221267394394" lon="-8.054983788314345"><ele>418.0</ele><time>2026-04-01T15:20:35Z</time></trkpt><trkpt lat="42.424143052108064" lon="-8.054790763224569"><ele>419.0</ele><time>2026-04-01T15:20:36Z</time></trkpt><trkpt lat="42.42405790444725" lon="-8.054598099123368"><ele>420.0</ele><time>2026-04-01T15:20:37Z</time></trkpt><trkpt lat="42.42397485081865" lon="-8.054406392685255"><ele>421.0</ele><time>2026-04-01T15:20:38Z</time></trkpt><trkpt lat="42.423893574572" lon="-8.054216929610028"><ele>420.0</ele><time>2026-04-01T15:20:39Z</time></trkpt><trkpt lat="42.423813238932794" lon="-8.054027765653652"><ele>419.0</ele><time>2026-04-01T15:20:40Z</time></trkpt><trkpt lat="42.423734842312356" lon="-8.053830716802606"><ele>418.0</ele><time>2026-04-01T15:20:41Z</time></trkpt><trkpt lat="42.42366091344085" lon="-8.05363074409718"><ele>418.0</ele><time>2026-04-01T15:20:42Z</time></trkpt><trkpt lat="42.423597529651374" lon="-8.053416207513052"><ele>418.0</ele><time>2026-04-01T15:20:43Z</time></trkpt><trkpt lat="42.42355145056901" lon="-8.05319460518488"><ele>418.0</ele><time>2026-04-01T15:20:44Z</time></trkpt><trkpt lat="42.42353837906373" lon="-8.052955850303118"><ele>417.6666666666667</ele><time>2026-04-01T15:20:45Z</time></trkpt><trkpt lat="42.42352890687225" lon="-8.052715573230154"><ele>417.33333333333337</ele><time>2026-04-01T15:20:46Z</time></trkpt><trkpt lat="42.42350267428138" lon="-8.05246635148977"><ele>417.0</ele><time>2026-04-01T15:20:47Z</time></trkpt><trkpt lat="42.4234308659274" lon="-8.052234444072942"><ele>418.33333333333337</ele><time>2026-04-01T15:20:48Z</time></trkpt><trkpt lat="42.423334690908284" lon="-8.052015702907156"><ele>419.6666666666667</ele><time>2026-04-01T15:20:49Z</time></trkpt><trkpt lat="42.42320543143466" lon="-8.051823376794067"><ele>421.0</ele><time>2026-04-01T15:20:50Z</time></trkpt><trkpt lat="42.42305641488821" lon="-8.05164183264949"><ele>423.0</ele><time>2026-04-01T15:20:51Z</time></trkpt><trkpt lat="42.42290286321551" lon="-8.051482439268396"><ele>425.0</ele><time>2026-04-01T15:20:52Z</time></trkpt><trkpt lat="42.42275137156004" lon="-8.051321028507857"><ele>427.0</ele><time>2026-04-01T15:20:53Z</time></trkpt><trkpt lat="42.42260667857904" lon="-8.051186065804565"><ele>427.0</ele><time>2026-04-01T15:20:54Z</time></trkpt><trkpt lat="42.42247386577328" lon="-8.051058353940254"><ele>427.0</ele><time>2026-04-01T15:20:55Z</time></trkpt><trkpt lat="42.42236560048269" lon="-8.050922767331349"><ele>427.0</ele><time>2026-04-01T15:20:56Z</time></trkpt><trkpt lat="42.42227967515763" lon="-8.050780249082697"><ele>427.0</ele><time>2026-04-01T15:20:57Z</time></trkpt><trkpt lat="42.422230682061276" lon="-8.050613428343292"><ele>427.0</ele><time>2026-04-01T15:20:58Z</time></trkpt><trkpt lat="42.42222563935592" lon="-8.05044810731517"><ele>427.0</ele><time>2026-04-01T15:20:59Z</time></trkpt><trkpt lat="42.42222369473208" lon="-8.050286672300937"><ele>427.0</ele><time>2026-04-01T15:21:00Z</time></trkpt><trkpt lat="42.422223710219214" lon="-8.050118118604047"><ele>427.0</ele><time>2026-04-01T15:21:01Z</time></trkpt><trkpt lat="42.422215429270565" lon="-8.049948591968858"><ele>427.0</ele><time>2026-04-01T15:21:02Z</time></trkpt><trkpt lat="42.422201659465934" lon="-8.049772130650684"><ele>427.0</ele><time>2026-04-01T15:21:03Z</time></trkpt><trkpt lat="42.42219126451197" lon="-8.049595811294287"><ele>427.0</ele><time>2026-04-01T15:21:04Z</time></trkpt><trkpt lat="42.42218260449597" lon="-8.049430869226159"><ele>427.0</ele><time>2026-04-01T15:21:05Z</time></trkpt><trkpt lat="42.422170917200276" lon="-8.049274873766619"><ele>427.0</ele><time>2026-04-01T15:21:06Z</time></trkpt><trkpt lat="42.42215787725932" lon="-8.049121280975564"><ele>427.00000000000006</ele><time>2026-04-01T15:21:07Z</time></trkpt><trkpt lat="42.42214809565511" lon="-8.048967394123055"><ele>427.00000000000006</ele><time>2026-04-01T15:21:08Z</time></trkpt><trkpt lat="42.42213953341644" lon="-8.048825513274242"><ele>427.0</ele><time>2026-04-01T15:21:09Z</time></trkpt><trkpt lat="42.422124622414096" lon="-8.048698640735862"><ele>427.0</ele><time>2026-04-01T15:21:10Z</time></trkpt><trkpt lat="42.42211323901563" lon="-8.048574444613857"><ele>425.0</ele><time>2026-04-01T15:21:11Z</time></trkpt><trkpt lat="42.422105134793476" lon="-8.048437082615722"><ele>423.0</ele><time>2026-04-01T15:21:12Z</time></trkpt><trkpt lat="42.422096039470716" lon="-8.04828310598917"><ele>421.0</ele><time>2026-04-01T15:21:13Z</time></trkpt><trkpt lat="42.42208293054661" lon="-8.048125005742607"><ele>419.0</ele><time>2026-04-01T15:21:14Z</time></trkpt><trkpt lat="42.42207007226268" lon="-8.04796068087354"><ele>418.25</ele><time>2026-04-01T15:21:15Z</time></trkpt><trkpt lat="42.422042153688196" lon="-8.047802327990764"><ele>417.5</ele><time>2026-04-01T15:21:16Z</time></trkpt><trkpt lat="42.42202905618995" lon="-8.047648216239764"><ele>416.75</ele><time>2026-04-01T15:21:17Z</time></trkpt><trkpt lat="42.42201644818444" lon="-8.04748767665726"><ele>416.0</ele><time>2026-04-01T15:21:18Z</time></trkpt><trkpt lat="42.42200347108053" lon="-8.047322437342066"><ele>416.0</ele><time>2026-04-01T15:21:19Z</time></trkpt><trkpt lat="42.4219904458368" lon="-8.047156587001027"><ele>416.0</ele><time>2026-04-01T15:21:20Z</time></trkpt><trkpt lat="42.42199379101758" lon="-8.04699568848589"><ele>416.0</ele><time>2026-04-01T15:21:21Z</time></trkpt><trkpt lat="42.42197605988499" lon="-8.046831915675089"><ele>416.0</ele><time>2026-04-01T15:21:22Z</time></trkpt><trkpt lat="42.421967668678995" lon="-8.046668963510852"><ele>415.5</ele><time>2026-04-01T15:21:23Z</time></trkpt><trkpt lat="42.42195767704144" lon="-8.04649276226488"><ele>415.0</ele><time>2026-04-01T15:21:24Z</time></trkpt><trkpt lat="42.42195437639996" lon="-8.046310664354108"><ele>414.5</ele><time>2026-04-01T15:21:25Z</time></trkpt><trkpt lat="42.42194411661079" lon="-8.04613841089026"><ele>414.0</ele><time>2026-04-01T15:21:26Z</time></trkpt><trkpt lat="42.42196127251543" lon="-8.045958628239237"><ele>413.25</ele><time>2026-04-01T15:21:27Z</time></trkpt><trkpt lat="42.42200622666623" lon="-8.045783137451107"><ele>412.5</ele><time>2026-04-01T15:21:28Z</time></trkpt><trkpt lat="42.42203429501888" lon="-8.045604324163504"><ele>411.75</ele><time>2026-04-01T15:21:29Z</time></trkpt><trkpt lat="42.42206912481067" lon="-8.045419219022332"><ele>411.0</ele><time>2026-04-01T15:21:30Z</time></trkpt><trkpt lat="42.42210149094994" lon="-8.04523237417533"><ele>411.0</ele><time>2026-04-01T15:21:31Z</time></trkpt><trkpt lat="42.42212676501176" lon="-8.045036574359353"><ele>411.0</ele><time>2026-04-01T15:21:32Z</time></trkpt><trkpt lat="42.42213657786201" lon="-8.044832743141042"><ele>411.0</ele><time>2026-04-01T15:21:33Z</time></trkpt><trkpt lat="42.422119002167655" lon="-8.044621747441582"><ele>410.33333333333337</ele><time>2026-04-01T15:21:34Z</time></trkpt><trkpt lat="42.422083848775095" lon="-8.044417985977777"><ele>409.6666666666667</ele><time>2026-04-01T15:21:35Z</time></trkpt><trkpt lat="42.422009429204415" lon="-8.044227584117042"><ele>409.0</ele><time>2026-04-01T15:21:36Z</time></trkpt><trkpt lat="42.42192172029069" lon="-8.044028623181994"><ele>409.0</ele><time>2026-04-01T15:21:37Z</time></trkpt><trkpt lat="42.42181784870483" lon="-8.043825942219666"><ele>409.0</ele><time>2026-04-01T15:21:38Z</time></trkpt><trkpt lat="42.42170796275533" lon="-8.043618993693984"><ele>409.0</ele><time>2026-04-01T15:21:39Z</time></trkpt><trkpt lat="42.42159313127641" lon="-8.043408846877547"><ele>408.0</ele><time>2026-04-01T15:21:40Z</time></trkpt><trkpt lat="42.42146971166781" lon="-8.043195059960826"><ele>407.0</ele><time>2026-04-01T15:21:41Z</time></trkpt><trkpt lat="42.421347934418904" lon="-8.042967400434888"><ele>406.0</ele><time>2026-04-01T15:21:42Z</time></trkpt><trkpt lat="42.4211913742048" lon="-8.042762820636518"><ele>406.0</ele><time>2026-04-01T15:21:43Z</time></trkpt><trkpt lat="42.42103144636696" lon="-8.042564137684224"><ele>406.0</ele><time>2026-04-01T15:21:44Z</time></trkpt><trkpt lat="42.42086437116966" lon="-8.04237755550698"><ele>406.0</ele><time>2026-04-01T15:21:45Z</time></trkpt><trkpt lat="42.42067027269766" lon="-8.042232995445222"><ele>408.33333333333337</ele><time>2026-04-01T15:21:46Z</time></trkpt><trkpt lat="42.42047406012193" lon="-8.042099694665357"><ele>410.66666666666663</ele><time>2026-04-01T15:21:47Z</time></trkpt><trkpt lat="42.42027039473913" lon="-8.041983069335524"><ele>413.0</ele><time>2026-04-01T15:21:48Z</time></trkpt><trkpt lat="42.4200590963145" lon="-8.041881260195847"><ele>413.0</ele><time>2026-04-01T15:21:49Z</time></trkpt><trkpt lat="42.41984291392266" lon="-8.041796344363881"><ele>413.0</ele><time>2026-04-01T15:21:50Z</time></trkpt><trkpt lat="42.41962656843415" lon="-8.041719997633733"><ele>413.0</ele><time>2026-04-01T15:21:51Z</time></trkpt><trkpt lat="42.41941677467364" lon="-8.041631778829403"><ele>416.5</ele><time>2026-04-01T15:21:52Z</time></trkpt><trkpt lat="42.419197889703746" lon="-8.041563126633188"><ele>420.0</ele><time>2026-04-01T15:21:53Z</time></trkpt><trkpt lat="42.41897886476197" lon="-8.041476231318246"><ele>419.5</ele><time>2026-04-01T15:21:54Z</time></trkpt><trkpt lat="42.41876837430089" lon="-8.041367891029735"><ele>419.0</ele><time>2026-04-01T15:21:55Z</time></trkpt><trkpt lat="42.418570468321725" lon="-8.041222810273512"><ele>419.0</ele><time>2026-04-01T15:21:56Z</time></trkpt><trkpt lat="42.41838983701763" lon="-8.041040284556201"><ele>419.0</ele><time>2026-04-01T15:21:57Z</time></trkpt><trkpt lat="42.418214401861924" lon="-8.040836739994255"><ele>418.0</ele><time>2026-04-01T15:21:58Z</time></trkpt><trkpt lat="42.418028104454095" lon="-8.040659946927468"><ele>417.0</ele><time>2026-04-01T15:21:59Z</time></trkpt><trkpt lat="42.41785880998647" lon="-8.04045244608448"><ele>417.0</ele><time>2026-04-01T15:22:00Z</time></trkpt><trkpt lat="42.41771574467171" lon="-8.040213700682244"><ele>417.0</ele><time>2026-04-01T15:22:01Z</time></trkpt><trkpt lat="42.41761438725771" lon="-8.039931425872076"><ele>419.0</ele><time>2026-04-01T15:22:02Z</time></trkpt><trkpt lat="42.417540733012856" lon="-8.039637933659003"><ele>421.0</ele><time>2026-04-01T15:22:03Z</time></trkpt><trkpt lat="42.417462063120325" lon="-8.039347789684882"><ele>422.6666666666667</ele><time>2026-04-01T15:22:04Z</time></trkpt><trkpt lat="42.41737689709485" lon="-8.039068048226593"><ele>424.33333333333337</ele><time>2026-04-01T15:22:05Z</time></trkpt><trkpt lat="42.417286178063094" lon="-8.038805193854298"><ele>426.0</ele><time>2026-04-01T15:22:06Z</time></trkpt><trkpt lat="42.417201154473936" lon="-8.038566242877103"><ele>426.33333333333337</ele><time>2026-04-01T15:22:07Z</time></trkpt><trkpt lat="42.41711634652558" lon="-8.038350709422874"><ele>426.6666666666667</ele><time>2026-04-01T15:22:08Z</time></trkpt><trkpt lat="42.4170285863146" lon="-8.038151494533393"><ele>427.0</ele><time>2026-04-01T15:22:09Z</time></trkpt><trkpt lat="42.41692445111096" lon="-8.037981248804485"><ele>428.0</ele><time>2026-04-01T15:22:10Z</time></trkpt><trkpt lat="42.416816312103926" lon="-8.037813838982128"><ele>429.0</ele><time>2026-04-01T15:22:11Z</time></trkpt><trkpt lat="42.41669649692959" lon="-8.037649058116504"><ele>430.0</ele><time>2026-04-01T15:22:12Z</time></trkpt><trkpt lat="42.41657329183486" lon="-8.037481817841206"><ele>431.33333333333337</ele><time>2026-04-01T15:22:13Z</time></trkpt><trkpt lat="42.41645113785183" lon="-8.037305387866153"><ele>432.66666666666663</ele><time>2026-04-01T15:22:14Z</time></trkpt><trkpt lat="42.41632522500843" lon="-8.037134185482387"><ele>434.0</ele><time>2026-04-01T15:22:15Z</time></trkpt><trkpt lat="42.41620069324516" lon="-8.036954554445941"><ele>434.0</ele><time>2026-04-01T15:22:16Z</time></trkpt><trkpt lat="42.41606804292806" lon="-8.036772510584113"><ele>434.0</ele><time>2026-04-01T15:22:17Z</time></trkpt><trkpt lat="42.41594509109974" lon="-8.036586906201341"><ele>434.0</ele><time>2026-04-01T15:22:18Z</time></trkpt><trkpt lat="42.41581562872356" lon="-8.03639700106642"><ele>434.3333333333333</ele><time>2026-04-01T15:22:19Z</time></trkpt><trkpt lat="42.41568682467042" lon="-8.036200535940912"><ele>434.66666666666663</ele><time>2026-04-01T15:22:20Z</time></trkpt><trkpt lat="42.41556520599584" lon="-8.035986558567975"><ele>435.0</ele><time>2026-04-01T15:22:21Z</time></trkpt><trkpt lat="42.41545715164811" lon="-8.035753690100984"><ele>433.33333333333337</ele><time>2026-04-01T15:22:22Z</time></trkpt><trkpt lat="42.41535565742973" lon="-8.03550802753704"><ele>431.6666666666667</ele><time>2026-04-01T15:22:23Z</time></trkpt><trkpt lat="42.41525437664796" lon="-8.035260448588918"><ele>430.0</ele><time>2026-04-01T15:22:24Z</time></trkpt><trkpt lat="42.415144529624996" lon="-8.035012038521339"><ele>429.0</ele><time>2026-04-01T15:22:25Z</time></trkpt><trkpt lat="42.415016757431985" lon="-8.03479004873634"><ele>428.0</ele><time>2026-04-01T15:22:26Z</time></trkpt><trkpt lat="42.41490243831429" lon="-8.034569843835968"><ele>427.0</ele><time>2026-04-01T15:22:27Z</time></trkpt><trkpt lat="42.41480235959049" lon="-8.034343753233667"><ele>426.33333333333337</ele><time>2026-04-01T15:22:28Z</time></trkpt><trkpt lat="42.41468141818113" lon="-8.034123278622095"><ele>425.66666666666663</ele><time>2026-04-01T15:22:29Z</time></trkpt><trkpt lat="42.41455641794668" lon="-8.033883437658362"><ele>425.0</ele><time>2026-04-01T15:22:30Z</time></trkpt><trkpt lat="42.41442704033358" lon="-8.033629003136841"><ele>422.0</ele><time>2026-04-01T15:22:31Z</time></trkpt><trkpt lat="42.41428608763037" lon="-8.033382289654122"><ele>419.0</ele><time>2026-04-01T15:22:32Z</time></trkpt><trkpt lat="42.41416418718208" lon="-8.033106874302845"><ele>418.0</ele><time>2026-04-01T15:22:33Z</time></trkpt><trkpt lat="42.414074151661886" lon="-8.032813874065575"><ele>417.0</ele><time>2026-04-01T15:22:34Z</time></trkpt><trkpt lat="42.41399578381343" lon="-8.032526354380927"><ele>415.0</ele><time>2026-04-01T15:22:35Z</time></trkpt><trkpt lat="42.41395241076874" lon="-8.032221823097046"><ele>413.0</ele><time>2026-04-01T15:22:36Z</time></trkpt><trkpt lat="42.41393470561923" lon="-8.031900591029958"><ele>412.0</ele><time>2026-04-01T15:22:37Z</time></trkpt><trkpt lat="42.41393329570466" lon="-8.03158090140014"><ele>411.0</ele><time>2026-04-01T15:22:38Z</time></trkpt><trkpt lat="42.41395445904676" lon="-8.031254378349814"><ele>411.0</ele><time>2026-04-01T15:22:39Z</time></trkpt><trkpt lat="42.41400802529295" lon="-8.030929421368276"><ele>411.0</ele><time>2026-04-01T15:22:40Z</time></trkpt><trkpt lat="42.41408517479698" lon="-8.030608718984777"><ele>410.5</ele><time>2026-04-01T15:22:41Z</time></trkpt><trkpt lat="42.41418413860981" lon="-8.030300348535063"><ele>410.0</ele><time>2026-04-01T15:22:42Z</time></trkpt><trkpt lat="42.414288329323796" lon="-8.029997801874533"><ele>408.0</ele><time>2026-04-01T15:22:43Z</time></trkpt><trkpt lat="42.41438925769712" lon="-8.029689875446893"><ele>406.0</ele><time>2026-04-01T15:22:44Z</time></trkpt><trkpt lat="42.414485698104514" lon="-8.029376746760148"><ele>406.5</ele><time>2026-04-01T15:22:45Z</time></trkpt><trkpt lat="42.41458442553041" lon="-8.029058772400862"><ele>407.0</ele><time>2026-04-01T15:22:46Z</time></trkpt><trkpt lat="42.4146732285681" lon="-8.028742858997933"><ele>407.0</ele><time>2026-04-01T15:22:47Z</time></trkpt><trkpt lat="42.41475555085211" lon="-8.02842033272466"><ele>407.0</ele><time>2026-04-01T15:22:48Z</time></trkpt><trkpt lat="42.414820873107175" lon="-8.028115633555217"><ele>406.0</ele><time>2026-04-01T15:22:49Z</time></trkpt><trkpt lat="42.41488371848978" lon="-8.027829387176943"><ele>405.0</ele><time>2026-04-01T15:22:50Z</time></trkpt><trkpt lat="42.414946456127424" lon="-8.027549414577567"><ele>404.0</ele><time>2026-04-01T15:22:51Z</time></trkpt><trkpt lat="42.41500182309567" lon="-8.02727221031358"><ele>402.0</ele><time>2026-04-01T15:22:52Z</time></trkpt><trkpt lat="42.41504851976488" lon="-8.027002812773665"><ele>400.0</ele><time>2026-04-01T15:22:53Z</time></trkpt><trkpt lat="42.41509325182162" lon="-8.026742616212465"><ele>398.0</ele><time>2026-04-01T15:22:54Z</time></trkpt><trkpt lat="42.41514214539892" lon="-8.026494031174765"><ele>396.66666666666663</ele><time>2026-04-01T15:22:55Z</time></trkpt><trkpt lat="42.41518426452013" lon="-8.02624233495721"><ele>395.33333333333337</ele><time>2026-04-01T15:22:55.999Z</time></trkpt><trkpt lat="42.41521379748836" lon="-8.02599762554991"><ele>394.0</ele><time>2026-04-01T15:22:56.999Z</time></trkpt><trkpt lat="42.415232133439126" lon="-8.025746965936253"><ele>392.0</ele><time>2026-04-01T15:22:57.999Z</time></trkpt><trkpt lat="42.41524246182665" lon="-8.025485845126637"><ele>390.0</ele><time>2026-04-01T15:22:58.999Z</time></trkpt><trkpt lat="42.4152226856412" lon="-8.0252204080166"><ele>388.0</ele><time>2026-04-01T15:22:59.999Z</time></trkpt><trkpt lat="42.41522414435018" lon="-8.024950642539038"><ele>386.0</ele><time>2026-04-01T15:23:00.999Z</time></trkpt><trkpt lat="42.41517506357617" lon="-8.024679129241783"><ele>384.0</ele><time>2026-04-01T15:23:02Z</time></trkpt><trkpt lat="42.41514609567573" lon="-8.024405177926315"><ele>382.0</ele><time>2026-04-01T15:23:03Z</time></trkpt><trkpt lat="42.41508858129258" lon="-8.024134446909716"><ele>379.66666666666663</ele><time>2026-04-01T15:23:04Z</time></trkpt><trkpt lat="42.41501538181248" lon="-8.023856813475673"><ele>377.3333333333333</ele><time>2026-04-01T15:23:05Z</time></trkpt><trkpt lat="42.414925861585736" lon="-8.023575684839996"><ele>375.0</ele><time>2026-04-01T15:23:06Z</time></trkpt><trkpt lat="42.41481911069656" lon="-8.023293338787951"><ele>372.5</ele><time>2026-04-01T15:23:07Z</time></trkpt><trkpt lat="42.414690914466114" lon="-8.02301618509827"><ele>370.0</ele><time>2026-04-01T15:23:08Z</time></trkpt><trkpt lat="42.41454370169004" lon="-8.022746698633735"><ele>369.0</ele><time>2026-04-01T15:23:09Z</time></trkpt><trkpt lat="42.414377835339664" lon="-8.022496163371832"><ele>368.0</ele><time>2026-04-01T15:23:10Z</time></trkpt><trkpt lat="42.41419166090221" lon="-8.022260091421892"><ele>365.5</ele><time>2026-04-01T15:23:11Z</time></trkpt><trkpt lat="42.413994323708195" lon="-8.022042218867172"><ele>363.0</ele><time>2026-04-01T15:23:12Z</time></trkpt><trkpt lat="42.413780694593974" lon="-8.021839790881634"><ele>363.0</ele><time>2026-04-01T15:23:13Z</time></trkpt><trkpt lat="42.41355397363701" lon="-8.021659695840825"><ele>363.0</ele><time>2026-04-01T15:23:14Z</time></trkpt><trkpt lat="42.41330945072022" lon="-8.021528851689505"><ele>362.5</ele><time>2026-04-01T15:23:15Z</time></trkpt><trkpt lat="42.413066073086966" lon="-8.021420488609323"><ele>362.0</ele><time>2026-04-01T15:23:16Z</time></trkpt><trkpt lat="42.41283513630041" lon="-8.021325342388318"><ele>360.5</ele><time>2026-04-01T15:23:17Z</time></trkpt><trkpt lat="42.412609263357744" lon="-8.021243593769887"><ele>359.0</ele><time>2026-04-01T15:23:18Z</time></trkpt><trkpt lat="42.41237607252304" lon="-8.02116475702514"><ele>358.0</ele><time>2026-04-01T15:23:19Z</time></trkpt><trkpt lat="42.41213567193442" lon="-8.021084040963105"><ele>357.0</ele><time>2026-04-01T15:23:20Z</time></trkpt><trkpt lat="42.4118951302614" lon="-8.020991475014895"><ele>357.0</ele><time>2026-04-01T15:23:21Z</time></trkpt><trkpt lat="42.411663555114046" lon="-8.020851521434777"><ele>357.0</ele><time>2026-04-01T15:23:22Z</time></trkpt><trkpt lat="42.411429183667664" lon="-8.020724478972015"><ele>354.0</ele><time>2026-04-01T15:23:23Z</time></trkpt><trkpt lat="42.41120089393032" lon="-8.020570155649452"><ele>351.0</ele><time>2026-04-01T15:23:24Z</time></trkpt><trkpt lat="42.410984877094954" lon="-8.020389891637368"><ele>351.0</ele><time>2026-04-01T15:23:25Z</time></trkpt><trkpt lat="42.41077894144102" lon="-8.020184555067573"><ele>351.0</ele><time>2026-04-01T15:23:26Z</time></trkpt><trkpt lat="42.41057514796359" lon="-8.019966710983606"><ele>346.0</ele><time>2026-04-01T15:23:27Z</time></trkpt><trkpt lat="42.410376153957614" lon="-8.019743009180214"><ele>341.0</ele><time>2026-04-01T15:23:28Z</time></trkpt><trkpt lat="42.41018937345327" lon="-8.019528970857506"><ele>341.0</ele><time>2026-04-01T15:23:29Z</time></trkpt><trkpt lat="42.41000143957598" lon="-8.019324678967953"><ele>341.0</ele><time>2026-04-01T15:23:30Z</time></trkpt><trkpt lat="42.40979091746848" lon="-8.019153344974145"><ele>337.5</ele><time>2026-04-01T15:23:31Z</time></trkpt><trkpt lat="42.40959682355037" lon="-8.018939779607964"><ele>334.0</ele><time>2026-04-01T15:23:32Z</time></trkpt><trkpt lat="42.4094042167029" lon="-8.018725327602606"><ele>334.0</ele><time>2026-04-01T15:23:33Z</time></trkpt><trkpt lat="42.40920943508237" lon="-8.01851139387654"><ele>334.0</ele><time>2026-04-01T15:23:34Z</time></trkpt><trkpt lat="42.40901201229652" lon="-8.018301733538546"><ele>331.5</ele><time>2026-04-01T15:23:35Z</time></trkpt><trkpt lat="42.40881354843028" lon="-8.018089463155183"><ele>329.0</ele><time>2026-04-01T15:23:36Z</time></trkpt><trkpt lat="42.408614973556546" lon="-8.017875689335991"><ele>329.0</ele><time>2026-04-01T15:23:37Z</time></trkpt><trkpt lat="42.40841642138548" lon="-8.017663076807686"><ele>329.0</ele><time>2026-04-01T15:23:38Z</time></trkpt><trkpt lat="42.408221297731615" lon="-8.017451999660015"><ele>328.5</ele><time>2026-04-01T15:23:39Z</time></trkpt><trkpt lat="42.408035664669825" lon="-8.01725274534917"><ele>328.0</ele><time>2026-04-01T15:23:40Z</time></trkpt><trkpt lat="42.407866645424235" lon="-8.017037353671885"><ele>327.66666666666663</ele><time>2026-04-01T15:23:41Z</time></trkpt><trkpt lat="42.40769492458503" lon="-8.016855672869571"><ele>327.3333333333333</ele><time>2026-04-01T15:23:42Z</time></trkpt><trkpt lat="42.40752680556185" lon="-8.016671299912666"><ele>327.0</ele><time>2026-04-01T15:23:43Z</time></trkpt><trkpt lat="42.407371953398254" lon="-8.016500196898285"><ele>326.3333333333333</ele><time>2026-04-01T15:23:44Z</time></trkpt><trkpt lat="42.407224079062786" lon="-8.016339200814201"><ele>325.66666666666663</ele><time>2026-04-01T15:23:45Z</time></trkpt><trkpt lat="42.407101672247904" lon="-8.01620691676041"><ele>325.0</ele><time>2026-04-01T15:23:46Z</time></trkpt><trkpt lat="42.40696911801525" lon="-8.016089451976939"><ele>324.75</ele><time>2026-04-01T15:23:47Z</time></trkpt><trkpt lat="42.40684173087908" lon="-8.015959737746973"><ele>324.5</ele><time>2026-04-01T15:23:48Z</time></trkpt><trkpt lat="42.40675279043639" lon="-8.01584351433231"><ele>324.25</ele><time>2026-04-01T15:23:49Z</time></trkpt><trkpt lat="42.40665792346415" lon="-8.015780945015491"><ele>324.0</ele><time>2026-04-01T15:23:50Z</time></trkpt><trkpt lat="42.40657666833576" lon="-8.015759981748126"><ele>323.6</ele><time>2026-04-01T15:23:52Z</time></trkpt><trkpt lat="42.40650817856585" lon="-8.01572089322489"><ele>323.2</ele><time>2026-04-01T15:26:04Z</time></trkpt><trkpt lat="42.40645667135861" lon="-8.015638963379088"><ele>322.8</ele><time>2026-04-01T15:26:05Z</time></trkpt><trkpt lat="42.40638034954643" lon="-8.015549751688543"><ele>322.40000000000003</ele><time>2026-04-01T15:26:06Z</time></trkpt><trkpt lat="42.40628387596003" lon="-8.015471720205047"><ele>322.0</ele><time>2026-04-01T15:26:07Z</time></trkpt><trkpt lat="42.40617052055102" lon="-8.015412841724638"><ele>322.0</ele><time>2026-04-01T15:26:08Z</time></trkpt><trkpt lat="42.40603895196758" lon="-8.015359462391523"><ele>322.0</ele><time>2026-04-01T15:26:09Z</time></trkpt><trkpt lat="42.40589570941926" lon="-8.015299256292721"><ele>322.0</ele><time>2026-04-01T15:26:10Z</time></trkpt><trkpt lat="42.405742882670744" lon="-8.015242579894139"><ele>322.0</ele><time>2026-04-01T15:26:11Z</time></trkpt><trkpt lat="42.405578951766444" lon="-8.01519048538557"><ele>322.3333333333333</ele><time>2026-04-01T15:26:12Z</time></trkpt><trkpt lat="42.40541395793066" lon="-8.015141505931753"><ele>322.6666666666667</ele><time>2026-04-01T15:26:13Z</time></trkpt><trkpt lat="42.40526749188285" lon="-8.015084024682661"><ele>323.0</ele><time>2026-04-01T15:26:14Z</time></trkpt><trkpt lat="42.40512403657521" lon="-8.015043438641246"><ele>321.75</ele><time>2026-04-01T15:26:15Z</time></trkpt><trkpt lat="42.40500106303572" lon="-8.014945599357464"><ele>320.5</ele><time>2026-04-01T15:26:16Z</time></trkpt><trkpt lat="42.40488442769994" lon="-8.0148560350857"><ele>319.25</ele><time>2026-04-01T15:26:17Z</time></trkpt><trkpt lat="42.40478587619326" lon="-8.01474903156638"><ele>318.0</ele><time>2026-04-01T15:26:18Z</time></trkpt><trkpt lat="42.4046957636293" lon="-8.01463343841636"><ele>320.25</ele><time>2026-04-01T15:26:19Z</time></trkpt><trkpt lat="42.4046070470814" lon="-8.014494180604922"><ele>322.5</ele><time>2026-04-01T15:26:20Z</time></trkpt><trkpt lat="42.40452414106309" lon="-8.014331160952832"><ele>324.75</ele><time>2026-04-01T15:26:21Z</time></trkpt><trkpt lat="42.40445605933622" lon="-8.01414345039265"><ele>327.0</ele><time>2026-04-01T15:26:22Z</time></trkpt><trkpt lat="42.4044020947064" lon="-8.013940126329127"><ele>327.0</ele><time>2026-04-01T15:26:23Z</time></trkpt><trkpt lat="42.40436566756316" lon="-8.013716645905"><ele>327.0</ele><time>2026-04-01T15:26:24Z</time></trkpt><trkpt lat="42.40434159739752" lon="-8.013484922859572"><ele>327.0</ele><time>2026-04-01T15:26:25Z</time></trkpt><trkpt lat="42.4043221019299" lon="-8.013241507757696"><ele>325.6666666666667</ele><time>2026-04-01T15:26:26Z</time></trkpt><trkpt lat="42.40429563235698" lon="-8.012991868598764"><ele>324.33333333333337</ele><time>2026-04-01T15:26:27Z</time></trkpt><trkpt lat="42.40425378741298" lon="-8.012745839258487"><ele>323.0</ele><time>2026-04-01T15:26:28Z</time></trkpt><trkpt lat="42.404190847939965" lon="-8.012501082386239"><ele>321.6666666666667</ele><time>2026-04-01T15:26:29Z</time></trkpt><trkpt lat="42.40410461135285" lon="-8.012264613244074"><ele>320.3333333333333</ele><time>2026-04-01T15:26:30Z</time></trkpt><trkpt lat="42.403989454879316" lon="-8.012040608165703"><ele>319.0</ele><time>2026-04-01T15:26:31Z</time></trkpt><trkpt lat="42.40385263493499" lon="-8.011836439663952"><ele>319.0</ele><time>2026-04-01T15:26:32Z</time></trkpt><trkpt lat="42.40368390488472" lon="-8.011690722995395"><ele>319.0</ele><time>2026-04-01T15:26:33Z</time></trkpt><trkpt lat="42.40350571549382" lon="-8.011560306181574"><ele>319.0</ele><time>2026-04-01T15:26:34Z</time></trkpt><trkpt lat="42.403311088569176" lon="-8.011459778541772"><ele>319.0</ele><time>2026-04-01T15:26:35Z</time></trkpt><trkpt lat="42.403104499887036" lon="-8.011368157461527"><ele>319.0</ele><time>2026-04-01T15:26:36Z</time></trkpt><trkpt lat="42.402889559425354" lon="-8.011279505181811"><ele>319.0</ele><time>2026-04-01T15:26:37Z</time></trkpt><trkpt lat="42.402675823301735" lon="-8.011167843127856"><ele>318.5</ele><time>2026-04-01T15:26:38Z</time></trkpt><trkpt lat="42.40245105320881" lon="-8.011092527409009"><ele>318.0</ele><time>2026-04-01T15:26:39Z</time></trkpt><trkpt lat="42.40222716650177" lon="-8.010995595165335"><ele>317.5</ele><time>2026-04-01T15:26:40Z</time></trkpt><trkpt lat="42.40199870773801" lon="-8.010889728323786"><ele>317.0</ele><time>2026-04-01T15:26:41Z</time></trkpt><trkpt lat="42.401777519330224" lon="-8.010757803917171"><ele>315.5</ele><time>2026-04-01T15:26:42Z</time></trkpt><trkpt lat="42.4015513102289" lon="-8.010640578758736"><ele>314.0</ele><time>2026-04-01T15:26:43Z</time></trkpt><trkpt lat="42.40132171821437" lon="-8.010509321326046"><ele>313.5</ele><time>2026-04-01T15:26:44Z</time></trkpt><trkpt lat="42.40108847186361" lon="-8.010374052485556"><ele>313.0</ele><time>2026-04-01T15:26:45Z</time></trkpt><trkpt lat="42.40085890960149" lon="-8.010241446239311"><ele>313.0</ele><time>2026-04-01T15:26:46Z</time></trkpt><trkpt lat="42.40062862436691" lon="-8.01009661409995"><ele>313.0</ele><time>2026-04-01T15:26:47Z</time></trkpt><trkpt lat="42.40019901031457" lon="-8.009808737498203"><ele>313.3333333333333</ele><time>2026-04-01T15:26:49Z</time></trkpt><trkpt lat="42.400005025662026" lon="-8.009672569885929"><ele>313.6666666666667</ele><time>2026-04-01T15:26:50Z</time></trkpt><trkpt lat="42.399821580707396" lon="-8.009519589849951"><ele>314.0</ele><time>2026-04-01T15:26:51Z</time></trkpt><trkpt lat="42.399648303376885" lon="-8.009349129509431"><ele>314.0</ele><time>2026-04-01T15:26:52Z</time></trkpt><trkpt lat="42.39949431933376" lon="-8.00915944662429"><ele>314.0</ele><time>2026-04-01T15:26:53Z</time></trkpt><trkpt lat="42.39936350662062" lon="-8.008943932424156"><ele>314.0</ele><time>2026-04-01T15:26:54Z</time></trkpt><trkpt lat="42.39926367822257" lon="-8.008721717528479"><ele>314.0</ele><time>2026-04-01T15:26:55Z</time></trkpt><trkpt lat="42.39919218403464" lon="-8.008495633351465"><ele>314.0</ele><time>2026-04-01T15:26:56Z</time></trkpt><trkpt lat="42.39913997598675" lon="-8.008265321098065"><ele>314.0</ele><time>2026-04-01T15:26:57Z</time></trkpt><trkpt lat="42.39910295131288" lon="-8.008026751551736"><ele>313.33333333333337</ele><time>2026-04-01T15:26:58Z</time></trkpt><trkpt lat="42.39908976648021" lon="-8.007768228905615"><ele>312.6666666666667</ele><time>2026-04-01T15:26:59Z</time></trkpt><trkpt lat="42.39909581507596" lon="-8.007506939468968"><ele>312.0</ele><time>2026-04-01T15:27:00Z</time></trkpt><trkpt lat="42.39911377886276" lon="-8.007239488507784"><ele>312.0</ele><time>2026-04-01T15:27:01Z</time></trkpt><trkpt lat="42.39912544105844" lon="-8.00697263995261"><ele>312.0</ele><time>2026-04-01T15:27:02Z</time></trkpt><trkpt lat="42.39911761690293" lon="-8.006699492261362"><ele>312.0</ele><time>2026-04-01T15:27:03Z</time></trkpt><trkpt lat="42.399065120830656" lon="-8.006440898033047"><ele>311.6666666666667</ele><time>2026-04-01T15:27:04Z</time></trkpt><trkpt lat="42.39898623468054" lon="-8.006209366486884"><ele>311.33333333333337</ele><time>2026-04-01T15:27:05Z</time></trkpt><trkpt lat="42.398899816106464" lon="-8.005989502813993"><ele>311.0</ele><time>2026-04-01T15:27:06Z</time></trkpt><trkpt lat="42.39877662772792" lon="-8.00582623145234"><ele>308.33333333333337</ele><time>2026-04-01T15:27:07Z</time></trkpt><trkpt lat="42.39863361678017" lon="-8.005666710772847"><ele>305.6666666666667</ele><time>2026-04-01T15:27:08.001Z</time></trkpt><trkpt lat="42.3984721394304" lon="-8.005552808571135"><ele>303.0</ele><time>2026-04-01T15:27:09.001Z</time></trkpt><trkpt lat="42.398296605254316" lon="-8.00547952202948"><ele>303.0</ele><time>2026-04-01T15:27:10.001Z</time></trkpt><trkpt lat="42.39811461923414" lon="-8.005453989334026"><ele>303.0</ele><time>2026-04-01T15:27:11.001Z</time></trkpt><trkpt lat="42.397924731548244" lon="-8.005426801980482"><ele>303.0</ele><time>2026-04-01T15:27:12.001Z</time></trkpt><trkpt lat="42.39775114920747" lon="-8.005368412439687"><ele>302.3333333333333</ele><time>2026-04-01T15:27:13.001Z</time></trkpt><trkpt lat="42.3975848411294" lon="-8.005294080563337"><ele>301.66666666666663</ele><time>2026-04-01T15:27:14Z</time></trkpt><trkpt lat="42.39742739333443" lon="-8.005150789808388"><ele>301.0</ele><time>2026-04-01T15:27:15Z</time></trkpt><trkpt lat="42.39728027025404" lon="-8.004971561256003"><ele>298.66666666666663</ele><time>2026-04-01T15:27:16Z</time></trkpt><trkpt lat="42.397148019929965" lon="-8.004759463420012"><ele>296.3333333333333</ele><time>2026-04-01T15:27:17Z</time></trkpt><trkpt lat="42.39701491781958" lon="-8.00452455040196"><ele>294.0</ele><time>2026-04-01T15:27:18Z</time></trkpt><trkpt lat="42.396882844916824" lon="-8.004286086859114"><ele>289.0</ele><time>2026-04-01T15:27:19Z</time></trkpt><trkpt lat="42.39672169228364" lon="-8.004070241335564"><ele>284.0</ele><time>2026-04-01T15:27:20Z</time></trkpt><trkpt lat="42.39655020860596" lon="-8.00386843711305"><ele>284.0</ele><time>2026-04-01T15:27:21Z</time></trkpt><trkpt lat="42.39635701542702" lon="-8.003681669691495"><ele>284.0</ele><time>2026-04-01T15:27:22Z</time></trkpt><trkpt lat="42.39614547231209" lon="-8.003519063482447"><ele>287.0</ele><time>2026-04-01T15:27:23Z</time></trkpt><trkpt lat="42.39591846238309" lon="-8.003387522244752"><ele>290.0</ele><time>2026-04-01T15:27:24Z</time></trkpt><trkpt lat="42.395682970962895" lon="-8.003267994264881"><ele>285.5</ele><time>2026-04-01T15:27:25Z</time></trkpt><trkpt lat="42.39543966107768" lon="-8.00315108588044"><ele>281.0</ele><time>2026-04-01T15:27:26Z</time></trkpt><trkpt lat="42.39520665558703" lon="-8.003032578895052"><ele>281.0</ele><time>2026-04-01T15:27:27Z</time></trkpt><trkpt lat="42.394956738587574" lon="-8.002900439273695"><ele>281.0</ele><time>2026-04-01T15:27:28Z</time></trkpt><trkpt lat="42.39471500562109" lon="-8.002754564932241"><ele>278.0</ele><time>2026-04-01T15:27:29Z</time></trkpt><trkpt lat="42.39448153328502" lon="-8.002595547911723"><ele>275.0</ele><time>2026-04-01T15:27:30Z</time></trkpt><trkpt lat="42.39425404350682" lon="-8.00241836857726"><ele>275.0</ele><time>2026-04-01T15:27:31Z</time></trkpt><trkpt lat="42.394058035768836" lon="-8.002217084092354"><ele>275.0</ele><time>2026-04-01T15:27:32Z</time></trkpt><trkpt lat="42.39386147894158" lon="-8.00202236313954"><ele>277.5</ele><time>2026-04-01T15:27:33Z</time></trkpt><trkpt lat="42.39366837070674" lon="-8.001807440174593"><ele>280.0</ele><time>2026-04-01T15:27:34Z</time></trkpt><trkpt lat="42.393476296618154" lon="-8.00157856910845"><ele>274.5</ele><time>2026-04-01T15:27:35Z</time></trkpt><trkpt lat="42.39327817129642" lon="-8.001357268032839"><ele>269.0</ele><time>2026-04-01T15:27:36Z</time></trkpt><trkpt lat="42.39309298735633" lon="-8.001118211186803"><ele>268.5</ele><time>2026-04-01T15:27:37Z</time></trkpt><trkpt lat="42.39291442660127" lon="-8.000888646428347"><ele>268.0</ele><time>2026-04-01T15:27:38Z</time></trkpt><trkpt lat="42.39273666094726" lon="-8.000658905926928"><ele>268.0</ele><time>2026-04-01T15:27:39Z</time></trkpt><trkpt lat="42.392562189070304" lon="-8.00043529636938"><ele>268.0</ele><time>2026-04-01T15:27:40Z</time></trkpt><trkpt lat="42.39237794150614" lon="-8.000213106716547"><ele>268.0</ele><time>2026-04-01T15:27:41Z</time></trkpt><trkpt lat="42.39218903866192" lon="-7.999991756324838"><ele>268.0</ele><time>2026-04-01T15:27:42Z</time></trkpt><trkpt lat="42.39199088704498" lon="-7.99978346274148"><ele>268.5</ele><time>2026-04-01T15:27:43Z</time></trkpt><trkpt lat="42.39179169578288" lon="-7.999602561261492"><ele>269.0</ele><time>2026-04-01T15:27:44Z</time></trkpt><trkpt lat="42.39161005232418" lon="-7.999417409938596"><ele>269.0</ele><time>2026-04-01T15:27:45Z</time></trkpt><trkpt lat="42.39144196118416" lon="-7.999229859966732"><ele>269.0</ele><time>2026-04-01T15:27:46Z</time></trkpt><trkpt lat="42.39125724756007" lon="-7.9990865891328555"><ele>269.0</ele><time>2026-04-01T15:27:47Z</time></trkpt><trkpt lat="42.39108106839918" lon="-7.99895239625097"><ele>268.0</ele><time>2026-04-01T15:27:48Z</time></trkpt><trkpt lat="42.39089164220678" lon="-7.998842314624441"><ele>267.0</ele><time>2026-04-01T15:27:49Z</time></trkpt><trkpt lat="42.390697647353065" lon="-7.99875523868782"><ele>266.0</ele><time>2026-04-01T15:27:50Z</time></trkpt><trkpt lat="42.39049366399167" lon="-7.9987293305880875"><ele>264.0</ele><time>2026-04-01T15:27:51Z</time></trkpt><trkpt lat="42.3902907142786" lon="-7.998752264387447"><ele>262.0</ele><time>2026-04-01T15:27:52Z</time></trkpt><trkpt lat="42.390084411911644" lon="-7.998816159159344"><ele>260.0</ele><time>2026-04-01T15:27:53Z</time></trkpt><trkpt lat="42.38988251322267" lon="-7.998928350238264"><ele>257.0</ele><time>2026-04-01T15:27:54Z</time></trkpt><trkpt lat="42.389673132418736" lon="-7.999053658278549"><ele>254.0</ele><time>2026-04-01T15:27:55Z</time></trkpt><trkpt lat="42.38948459753818" lon="-7.999207643998841"><ele>251.0</ele><time>2026-04-01T15:27:56Z</time></trkpt><trkpt lat="42.38930131048085" lon="-7.999339024737893"><ele>251.0</ele><time>2026-04-01T15:27:57Z</time></trkpt><trkpt lat="42.38911513287998" lon="-7.999427974686514"><ele>251.0</ele><time>2026-04-01T15:27:58Z</time></trkpt><trkpt lat="42.388923244214034" lon="-7.99947495148551"><ele>251.0</ele><time>2026-04-01T15:27:59Z</time></trkpt><trkpt lat="42.38873637598004" lon="-7.999467715203658"><ele>252.66666666666669</ele><time>2026-04-01T15:28:00Z</time></trkpt><trkpt lat="42.388553185637086" lon="-7.9994164105711425"><ele>254.33333333333331</ele><time>2026-04-01T15:28:01Z</time></trkpt><trkpt lat="42.38837976112316" lon="-7.999322729336188"><ele>256.0</ele><time>2026-04-01T15:28:02Z</time></trkpt><trkpt lat="42.38821544447829" lon="-7.999197428734486"><ele>258.0</ele><time>2026-04-01T15:28:03Z</time></trkpt><trkpt lat="42.38806660465475" lon="-7.999029804587912"><ele>260.0</ele><time>2026-04-01T15:28:04Z</time></trkpt><trkpt lat="42.387937061635135" lon="-7.99882815867059"><ele>262.0</ele><time>2026-04-01T15:28:05Z</time></trkpt><trkpt lat="42.38782676673157" lon="-7.998598665881729"><ele>262.0</ele><time>2026-04-01T15:28:06Z</time></trkpt><trkpt lat="42.38772162426198" lon="-7.9983768729870945"><ele>262.0</ele><time>2026-04-01T15:28:07Z</time></trkpt><trkpt lat="42.387616955286234" lon="-7.998161472536102"><ele>262.0</ele><time>2026-04-01T15:28:08Z</time></trkpt><trkpt lat="42.38748187145986" lon="-7.997990400769318"><ele>257.0</ele><time>2026-04-01T15:28:09Z</time></trkpt><trkpt lat="42.38733621528535" lon="-7.997836223327209"><ele>252.0</ele><time>2026-04-01T15:28:10Z</time></trkpt><trkpt lat="42.38716318931223" lon="-7.997714958728104"><ele>247.0</ele><time>2026-04-01T15:28:11Z</time></trkpt><trkpt lat="42.38697384829033" lon="-7.997636474478878"><ele>247.0</ele><time>2026-04-01T15:28:12Z</time></trkpt><trkpt lat="42.386775589405865" lon="-7.997607607925923"><ele>247.0</ele><time>2026-04-01T15:28:13Z</time></trkpt><trkpt lat="42.386569093719025" lon="-7.997616056702917"><ele>247.0</ele><time>2026-04-01T15:28:14Z</time></trkpt><trkpt lat="42.386354876222" lon="-7.997651661789467"><ele>245.33333333333331</ele><time>2026-04-01T15:28:15Z</time></trkpt><trkpt lat="42.3861328835453" lon="-7.997686883337234"><ele>243.66666666666669</ele><time>2026-04-01T15:28:16Z</time></trkpt><trkpt lat="42.38590761252028" lon="-7.997709508842711"><ele>242.0</ele><time>2026-04-01T15:28:17Z</time></trkpt><trkpt lat="42.38567936402955" lon="-7.997762346677659"><ele>237.0</ele><time>2026-04-01T15:28:18Z</time></trkpt><trkpt lat="42.38544093282749" lon="-7.99779948184721"><ele>232.0</ele><time>2026-04-01T15:28:19Z</time></trkpt><trkpt lat="42.385199961655765" lon="-7.997838004508292"><ele>232.0</ele><time>2026-04-01T15:28:20Z</time></trkpt><trkpt lat="42.38495951899032" lon="-7.997878156316041"><ele>232.0</ele><time>2026-04-01T15:28:21Z</time></trkpt><trkpt lat="42.384713828928774" lon="-7.9979284639556845"><ele>224.0</ele><time>2026-04-01T15:28:22Z</time></trkpt><trkpt lat="42.384478731928326" lon="-7.998001026582247"><ele>216.0</ele><time>2026-04-01T15:28:23Z</time></trkpt><trkpt lat="42.38426366343752" lon="-7.998108099798244"><ele>216.0</ele><time>2026-04-01T15:28:24Z</time></trkpt><trkpt lat="42.38404578616146" lon="-7.998246869157798"><ele>216.0</ele><time>2026-04-01T15:28:25Z</time></trkpt><trkpt lat="42.3838340049527" lon="-7.998394369758164"><ele>212.0</ele><time>2026-04-01T15:28:26Z</time></trkpt><trkpt lat="42.383622314842924" lon="-7.9985366376077165"><ele>208.0</ele><time>2026-04-01T15:28:27Z</time></trkpt><trkpt lat="42.38340635203262" lon="-7.998655673497058"><ele>208.0</ele><time>2026-04-01T15:28:28Z</time></trkpt><trkpt lat="42.38317078288033" lon="-7.9987377570075395"><ele>208.0</ele><time>2026-04-01T15:28:29Z</time></trkpt><trkpt lat="42.382927223529386" lon="-7.998780558609856"><ele>204.5</ele><time>2026-04-01T15:28:30Z</time></trkpt><trkpt lat="42.38267655508509" lon="-7.99879368286044"><ele>201.0</ele><time>2026-04-01T15:28:31Z</time></trkpt><trkpt lat="42.382425073215316" lon="-7.998795885874487"><ele>198.5</ele><time>2026-04-01T15:28:32Z</time></trkpt><trkpt lat="42.38216989021474" lon="-7.998803197745313"><ele>196.0</ele><time>2026-04-01T15:28:33Z</time></trkpt><trkpt lat="42.38191829202124" lon="-7.9988194602481615"><ele>196.0</ele><time>2026-04-01T15:28:34Z</time></trkpt><trkpt lat="42.38165962290212" lon="-7.998844842433755"><ele>196.0</ele><time>2026-04-01T15:28:35Z</time></trkpt><trkpt lat="42.381408008951" lon="-7.998878535926051"><ele>193.0</ele><time>2026-04-01T15:28:36Z</time></trkpt><trkpt lat="42.38116891821602" lon="-7.998922693946296"><ele>190.0</ele><time>2026-04-01T15:28:37Z</time></trkpt><trkpt lat="42.38093940602583" lon="-7.998982754664043"><ele>190.0</ele><time>2026-04-01T15:28:38Z</time></trkpt><trkpt lat="42.380711613734924" lon="-7.999065779980654"><ele>190.0</ele><time>2026-04-01T15:28:39Z</time></trkpt><trkpt lat="42.38048151668757" lon="-7.999171172361893"><ele>189.5</ele><time>2026-04-01T15:28:40Z</time></trkpt><trkpt lat="42.38025638361771" lon="-7.999301371130245"><ele>189.0</ele><time>2026-04-01T15:28:41Z</time></trkpt><trkpt lat="42.38002954958421" lon="-7.999454119644545"><ele>189.0</ele><time>2026-04-01T15:28:42Z</time></trkpt><trkpt lat="42.37979750242182" lon="-7.999601107597615"><ele>189.0</ele><time>2026-04-01T15:28:43Z</time></trkpt><trkpt lat="42.379556989744486" lon="-7.999727056715447"><ele>182.5</ele><time>2026-04-01T15:28:44Z</time></trkpt><trkpt lat="42.37930158424908" lon="-7.999818924324204"><ele>176.0</ele><time>2026-04-01T15:28:45Z</time></trkpt><trkpt lat="42.37904510750037" lon="-7.999866469893744"><ele>177.5</ele><time>2026-04-01T15:28:46Z</time></trkpt><trkpt lat="42.378805266300915" lon="-7.999878799185613"><ele>179.0</ele><time>2026-04-01T15:28:47Z</time></trkpt><trkpt lat="42.37855311290699" lon="-7.999880421013098"><ele>179.0</ele><time>2026-04-01T15:28:48Z</time></trkpt><trkpt lat="42.37830359050645" lon="-7.999896064950277"><ele>179.0</ele><time>2026-04-01T15:28:49Z</time></trkpt><trkpt lat="42.37806066357566" lon="-7.999939525563081"><ele>174.0</ele><time>2026-04-01T15:28:50Z</time></trkpt><trkpt lat="42.37781681067794" lon="-8.000022362432805"><ele>169.0</ele><time>2026-04-01T15:28:51Z</time></trkpt><trkpt lat="42.37759622368831" lon="-8.000171319397548"><ele>169.0</ele><time>2026-04-01T15:28:52Z</time></trkpt><trkpt lat="42.37737665187587" lon="-8.000327107864885"><ele>169.0</ele><time>2026-04-01T15:28:53Z</time></trkpt><trkpt lat="42.37716820590347" lon="-8.000488522293466"><ele>166.33333333333334</ele><time>2026-04-01T15:28:54Z</time></trkpt><trkpt lat="42.3769617118627" lon="-8.000612086426656"><ele>163.66666666666666</ele><time>2026-04-01T15:28:55Z</time></trkpt><trkpt lat="42.376754184200045" lon="-8.000722593036086"><ele>161.0</ele><time>2026-04-01T15:28:56Z</time></trkpt><trkpt lat="42.37653108481772" lon="-8.000786869464232"><ele>160.0</ele><time>2026-04-01T15:28:57Z</time></trkpt><trkpt lat="42.376298880872085" lon="-8.000801178195648"><ele>159.0</ele><time>2026-04-01T15:28:58Z</time></trkpt><trkpt lat="42.37606454230597" lon="-8.000795679037706"><ele>159.0</ele><time>2026-04-01T15:28:59Z</time></trkpt><trkpt lat="42.37582826162783" lon="-8.000787499707403"><ele>159.0</ele><time>2026-04-01T15:29:00Z</time></trkpt><trkpt lat="42.37559228818033" lon="-8.000788619394516"><ele>158.0</ele><time>2026-04-01T15:29:01Z</time></trkpt><trkpt lat="42.375352019437706" lon="-8.000793478587779"><ele>157.0</ele><time>2026-04-01T15:29:02Z</time></trkpt><trkpt lat="42.37511024405401" lon="-8.000794204576264"><ele>157.0</ele><time>2026-04-01T15:29:03Z</time></trkpt><trkpt lat="42.37486851254418" lon="-8.000794131132908"><ele>157.0</ele><time>2026-04-01T15:29:04Z</time></trkpt><trkpt lat="42.3746237888343" lon="-8.000795111803814"><ele>157.5</ele><time>2026-04-01T15:29:05Z</time></trkpt><trkpt lat="42.37437852652489" lon="-8.000801100730703"><ele>158.0</ele><time>2026-04-01T15:29:06Z</time></trkpt><trkpt lat="42.37413077634156" lon="-8.000817275998376"><ele>158.0</ele><time>2026-04-01T15:29:07Z</time></trkpt><trkpt lat="42.373880279176824" lon="-8.000827360292131"><ele>158.0</ele><time>2026-04-01T15:29:08Z</time></trkpt><trkpt lat="42.373644191493646" lon="-8.000828853456552"><ele>159.0</ele><time>2026-04-01T15:29:09Z</time></trkpt><trkpt lat="42.373419235169955" lon="-8.00083080112293"><ele>160.0</ele><time>2026-04-01T15:29:10Z</time></trkpt><trkpt lat="42.3732032943301" lon="-8.00083950113012"><ele>161.0</ele><time>2026-04-01T15:29:11Z</time></trkpt><trkpt lat="42.37299815965564" lon="-8.000839047931423"><ele>161.0</ele><time>2026-04-01T15:29:12Z</time></trkpt><trkpt lat="42.37279851478267" lon="-8.000844817692938"><ele>161.0</ele><time>2026-04-01T15:29:13Z</time></trkpt><trkpt lat="42.372601430310795" lon="-8.000852562413659"><ele>161.0</ele><time>2026-04-01T15:29:14Z</time></trkpt><trkpt lat="42.37241315466194" lon="-8.000850469042714"><ele>161.0</ele><time>2026-04-01T15:29:15Z</time></trkpt><trkpt lat="42.37223643251428" lon="-8.000852903274325"><ele>161.0</ele><time>2026-04-01T15:29:16Z</time></trkpt><trkpt lat="42.372051363083976" lon="-8.000859840793133"><ele>161.0</ele><time>2026-04-01T15:29:17Z</time></trkpt><trkpt lat="42.37187715751353" lon="-8.00086338143885"><ele>158.33333333333331</ele><time>2026-04-01T15:29:18Z</time></trkpt><trkpt lat="42.37170713656121" lon="-8.000858094330612"><ele>155.66666666666666</ele><time>2026-04-01T15:29:19Z</time></trkpt><trkpt lat="42.371544546674485" lon="-8.00085633019167"><ele>153.0</ele><time>2026-04-01T15:29:20Z</time></trkpt><trkpt lat="42.371388910214804" lon="-8.000853199358565"><ele>150.75</ele><time>2026-04-01T15:29:21Z</time></trkpt><trkpt lat="42.37124842613765" lon="-8.000834302232832"><ele>148.5</ele><time>2026-04-01T15:29:22Z</time></trkpt><trkpt lat="42.371111961641795" lon="-8.000805496135122"><ele>146.25</ele><time>2026-04-01T15:29:23Z</time></trkpt><trkpt lat="42.37097943341115" lon="-8.000775557801795"><ele>144.0</ele><time>2026-04-01T15:29:24Z</time></trkpt><trkpt lat="42.370852434318365" lon="-8.000745895366691"><ele>142.25</ele><time>2026-04-01T15:29:25Z</time></trkpt><trkpt lat="42.370724189980024" lon="-8.000714974987803"><ele>140.5</ele><time>2026-04-01T15:29:26Z</time></trkpt><trkpt lat="42.37060162674629" lon="-8.000682691373997"><ele>138.75</ele><time>2026-04-01T15:29:27Z</time></trkpt><trkpt lat="42.370484852929664" lon="-8.000651362497008"><ele>137.0</ele><time>2026-04-01T15:29:28Z</time></trkpt><trkpt lat="42.3703700416958" lon="-8.000620922660303"><ele>137.0</ele><time>2026-04-01T15:29:29Z</time></trkpt><trkpt lat="42.370252356049654" lon="-8.00058964402003"><ele>137.0</ele><time>2026-04-01T15:29:30Z</time></trkpt><trkpt lat="42.37014130418036" lon="-8.000555294146258"><ele>137.0</ele><time>2026-04-01T15:29:31Z</time></trkpt><trkpt lat="42.370033855093034" lon="-8.000525535018413"><ele>137.0</ele><time>2026-04-01T15:29:32Z</time></trkpt><trkpt lat="42.36992057920759" lon="-8.00049555150324"><ele>137.0</ele><time>2026-04-01T15:29:33Z</time></trkpt><trkpt lat="42.3698144016371" lon="-8.000467707609417"><ele>137.0</ele><time>2026-04-01T15:29:34Z</time></trkpt><trkpt lat="42.36970860505921" lon="-8.000438653699758"><ele>137.0</ele><time>2026-04-01T15:29:35Z</time></trkpt><trkpt lat="42.36960581949429" lon="-8.00040648833017"><ele>137.0</ele><time>2026-04-01T15:29:36Z</time></trkpt><trkpt lat="42.369505769488505" lon="-8.00037695854554"><ele>137.0</ele><time>2026-04-01T15:29:37Z</time></trkpt><trkpt lat="42.369397037000404" lon="-8.000344004048786"><ele>136.79999999999998</ele><time>2026-04-01T15:29:38Z</time></trkpt><trkpt lat="42.36928919555247" lon="-8.000309812531274"><ele>136.6</ele><time>2026-04-01T15:29:39Z</time></trkpt><trkpt lat="42.36918648049079" lon="-8.00027739728314"><ele>136.39999999999998</ele><time>2026-04-01T15:29:40Z</time></trkpt><trkpt lat="42.36907599317356" lon="-8.000255527182203"><ele>136.2</ele><time>2026-04-01T15:29:41Z</time></trkpt><trkpt lat="42.36895558380065" lon="-8.00026229001897"><ele>136.0</ele><time>2026-04-01T15:29:42Z</time></trkpt><trkpt lat="42.36883721139569" lon="-8.000286480402778"><ele>134.25</ele><time>2026-04-01T15:29:43Z</time></trkpt><trkpt lat="42.36872296877114" lon="-8.00032391575758"><ele>132.5</ele><time>2026-04-01T15:29:44Z</time></trkpt><trkpt lat="42.3686087198168" lon="-8.000382142271798"><ele>130.75</ele><time>2026-04-01T15:29:45Z</time></trkpt><trkpt lat="42.36849609054971" lon="-8.000447859170418"><ele>129.0</ele><time>2026-04-01T15:29:46Z</time></trkpt><trkpt lat="42.3683858089176" lon="-8.000535792836036"><ele>129.0</ele><time>2026-04-01T15:29:47Z</time></trkpt><trkpt lat="42.36827794313997" lon="-8.000629424091674"><ele>129.0</ele><time>2026-04-01T15:29:48Z</time></trkpt><trkpt lat="42.36817532451111" lon="-8.000711285079316"><ele>129.0</ele><time>2026-04-01T15:29:49Z</time></trkpt><trkpt lat="42.36806966273602" lon="-8.000788286708431"><ele>129.0</ele><time>2026-04-01T15:29:50Z</time></trkpt><trkpt lat="42.36796011391474" lon="-8.00085318996162"><ele>129.5</ele><time>2026-04-01T15:29:51Z</time></trkpt><trkpt lat="42.36784083472739" lon="-8.00090866298694"><ele>130.0</ele><time>2026-04-01T15:29:52Z</time></trkpt><trkpt lat="42.367710909145764" lon="-8.000955504390337"><ele>130.5</ele><time>2026-04-01T15:29:53Z</time></trkpt><trkpt lat="42.36757608040423" lon="-8.000977858133739"><ele>131.0</ele><time>2026-04-01T15:29:54Z</time></trkpt><trkpt lat="42.36743068598934" lon="-8.000978863220094"><ele>131.0</ele><time>2026-04-01T15:29:55Z</time></trkpt><trkpt lat="42.36728085007127" lon="-8.000964833764684"><ele>131.0</ele><time>2026-04-01T15:29:56Z</time></trkpt><trkpt lat="42.36714025986624" lon="-8.00094297387195"><ele>131.0</ele><time>2026-04-01T15:29:57Z</time></trkpt><trkpt lat="42.36700361347774" lon="-8.000925200971544"><ele>131.0</ele><time>2026-04-01T15:29:58Z</time></trkpt><trkpt lat="42.36686665294646" lon="-8.00091664302551"><ele>131.0</ele><time>2026-04-01T15:29:59Z</time></trkpt><trkpt lat="42.366722467509696" lon="-8.000919608698771"><ele>131.0</ele><time>2026-04-01T15:30:00Z</time></trkpt><trkpt lat="42.36657950768744" lon="-8.000933064840973"><ele>131.0</ele><time>2026-04-01T15:30:01Z</time></trkpt><trkpt lat="42.36643113814945" lon="-8.00096482246896"><ele>131.0</ele><time>2026-04-01T15:30:02Z</time></trkpt><trkpt lat="42.36627835829142" lon="-8.001029180584109"><ele>131.0</ele><time>2026-04-01T15:30:03Z</time></trkpt><trkpt lat="42.3661216470804" lon="-8.001125159326008"><ele>131.0</ele><time>2026-04-01T15:30:04Z</time></trkpt><trkpt lat="42.36595960814221" lon="-8.001243289304808"><ele>131.0</ele><time>2026-04-01T15:30:05Z</time></trkpt><trkpt lat="42.36580852443698" lon="-8.001364322190296"><ele>131.0</ele><time>2026-04-01T15:30:06Z</time></trkpt><trkpt lat="42.36566565329262" lon="-8.001481859787587"><ele>131.0</ele><time>2026-04-01T15:30:07Z</time></trkpt><trkpt lat="42.3655229573865" lon="-8.001596216832048"><ele>131.0</ele><time>2026-04-01T15:30:08Z</time></trkpt><trkpt lat="42.36536556981362" lon="-8.00170449848054"><ele>128.33333333333331</ele><time>2026-04-01T15:30:09Z</time></trkpt><trkpt lat="42.36518719458811" lon="-8.001789862224639"><ele>125.66666666666666</ele><time>2026-04-01T15:30:10Z</time></trkpt><trkpt lat="42.36499277466687" lon="-8.001837958659019"><ele>123.0</ele><time>2026-04-01T15:30:11Z</time></trkpt><trkpt lat="42.364787013646584" lon="-8.001848016230312"><ele>122.33333333333334</ele><time>2026-04-01T15:30:12Z</time></trkpt><trkpt lat="42.364579346732256" lon="-8.001835494336403"><ele>121.66666666666667</ele><time>2026-04-01T15:30:13Z</time></trkpt><trkpt lat="42.36436299065178" lon="-8.001870040519123"><ele>121.0</ele><time>2026-04-01T15:30:14Z</time></trkpt><trkpt lat="42.364146900404734" lon="-8.001859275511137"><ele>121.0</ele><time>2026-04-01T15:30:15Z</time></trkpt><trkpt lat="42.36392475578971" lon="-8.001848139448933"><ele>121.0</ele><time>2026-04-01T15:30:16Z</time></trkpt><trkpt lat="42.363701160808596" lon="-8.001815172020978"><ele>121.0</ele><time>2026-04-01T15:30:17Z</time></trkpt><trkpt lat="42.363472831789586" lon="-8.001812168525374"><ele>121.5</ele><time>2026-04-01T15:30:18Z</time></trkpt><trkpt lat="42.36324087311638" lon="-8.00179582935836"><ele>122.0</ele><time>2026-04-01T15:30:19Z</time></trkpt><trkpt lat="42.36301467880277" lon="-8.001778700696855"><ele>122.0</ele><time>2026-04-01T15:30:20Z</time></trkpt><trkpt lat="42.36280751093266" lon="-8.001805174626659"><ele>122.0</ele><time>2026-04-01T15:30:21Z</time></trkpt><trkpt lat="42.36261502732122" lon="-8.001840500533179"><ele>122.0</ele><time>2026-04-01T15:30:22Z</time></trkpt><trkpt lat="42.36243559189168" lon="-8.001907654088356"><ele>122.0</ele><time>2026-04-01T15:30:23Z</time></trkpt><trkpt lat="42.362279980525784" lon="-8.002034339996733"><ele>122.0</ele><time>2026-04-01T15:30:24Z</time></trkpt><trkpt lat="42.362130999404044" lon="-8.002190118572024"><ele>122.0</ele><time>2026-04-01T15:30:25Z</time></trkpt><trkpt lat="42.361984121652874" lon="-8.002379210374102"><ele>120.33333333333333</ele><time>2026-04-01T15:30:26Z</time></trkpt><trkpt lat="42.361831396071196" lon="-8.00256972110937"><ele>118.66666666666666</ele><time>2026-04-01T15:30:27Z</time></trkpt><trkpt lat="42.361681431912295" lon="-8.002765641658359"><ele>117.0</ele><time>2026-04-01T15:30:28Z</time></trkpt><trkpt lat="42.36151906775812" lon="-8.0029541312436"><ele>117.0</ele><time>2026-04-01T15:30:29Z</time></trkpt><trkpt lat="42.361342396703364" lon="-8.00313207202658"><ele>117.0</ele><time>2026-04-01T15:30:30Z</time></trkpt><trkpt lat="42.36115401505416" lon="-8.003295471122735"><ele>117.0</ele><time>2026-04-01T15:30:31Z</time></trkpt><trkpt lat="42.36095969694467" lon="-8.003440815569808"><ele>117.0</ele><time>2026-04-01T15:30:32Z</time></trkpt><trkpt lat="42.36075932991433" lon="-8.003573750794015"><ele>117.0</ele><time>2026-04-01T15:30:33Z</time></trkpt><trkpt lat="42.36054652678417" lon="-8.003694747136443"><ele>118.0</ele><time>2026-04-01T15:30:34Z</time></trkpt><trkpt lat="42.360331578434845" lon="-8.00380355943646"><ele>119.0</ele><time>2026-04-01T15:30:35Z</time></trkpt><trkpt lat="42.360116269462466" lon="-8.003912331932366"><ele>119.0</ele><time>2026-04-01T15:30:36Z</time></trkpt><trkpt lat="42.35989510082282" lon="-8.00403646935536"><ele>119.0</ele><time>2026-04-01T15:30:37Z</time></trkpt><trkpt lat="42.35967436807197" lon="-8.004159783456855"><ele>120.0</ele><time>2026-04-01T15:30:38Z</time></trkpt><trkpt lat="42.35945586082953" lon="-8.004277375586039"><ele>121.0</ele><time>2026-04-01T15:30:39Z</time></trkpt><trkpt lat="42.35923486610148" lon="-8.004406428057772"><ele>121.0</ele><time>2026-04-01T15:30:40Z</time></trkpt><trkpt lat="42.35902675493096" lon="-8.0045666780896"><ele>121.0</ele><time>2026-04-01T15:30:41Z</time></trkpt><trkpt lat="42.358806419742976" lon="-8.00471270343475"><ele>118.5</ele><time>2026-04-01T15:30:42Z</time></trkpt><trkpt lat="42.35859021167306" lon="-8.004863874867159"><ele>116.0</ele><time>2026-04-01T15:30:43Z</time></trkpt><trkpt lat="42.35837258303996" lon="-8.004997063152082"><ele>116.0</ele><time>2026-04-01T15:30:44Z</time></trkpt><trkpt lat="42.35817353890241" lon="-8.005138686650971"><ele>116.0</ele><time>2026-04-01T15:30:45Z</time></trkpt><trkpt lat="42.357970269047996" lon="-8.005259957618613"><ele>116.0</ele><time>2026-04-01T15:30:46Z</time></trkpt><trkpt lat="42.3577515408596" lon="-8.005347578441642"><ele>113.0</ele><time>2026-04-01T15:30:47Z</time></trkpt><trkpt lat="42.35752229034065" lon="-8.005395144087831"><ele>110.0</ele><time>2026-04-01T15:30:48Z</time></trkpt><trkpt lat="42.35729512138597" lon="-8.005385534180403"><ele>112.0</ele><time>2026-04-01T15:30:49Z</time></trkpt><trkpt lat="42.357065218714766" lon="-8.005342025564891"><ele>114.0</ele><time>2026-04-01T15:30:50Z</time></trkpt><trkpt lat="42.356832425047315" lon="-8.005294357411106"><ele>114.0</ele><time>2026-04-01T15:30:51Z</time></trkpt><trkpt lat="42.35660272182684" lon="-8.005295962876318"><ele>114.0</ele><time>2026-04-01T15:30:52Z</time></trkpt><trkpt lat="42.356367861055425" lon="-8.005276065444178"><ele>113.0</ele><time>2026-04-01T15:30:53Z</time></trkpt><trkpt lat="42.356129839670416" lon="-8.005297236664518"><ele>112.0</ele><time>2026-04-01T15:30:54Z</time></trkpt><trkpt lat="42.355895869030235" lon="-8.005313981510694"><ele>112.0</ele><time>2026-04-01T15:30:55Z</time></trkpt><trkpt lat="42.35565540046262" lon="-8.0053223837764"><ele>112.0</ele><time>2026-04-01T15:30:56Z</time></trkpt><trkpt lat="42.35541543140346" lon="-8.005327109806272"><ele>110.5</ele><time>2026-04-01T15:30:57Z</time></trkpt><trkpt lat="42.35517622867705" lon="-8.005334872251607"><ele>109.0</ele><time>2026-04-01T15:30:58Z</time></trkpt><trkpt lat="42.35493351059545" lon="-8.00534106339222"><ele>109.0</ele><time>2026-04-01T15:30:59Z</time></trkpt><trkpt lat="42.35469088429765" lon="-8.005352228597674"><ele>109.0</ele><time>2026-04-01T15:31:00Z</time></trkpt><trkpt lat="42.35444602076184" lon="-8.005386991346612"><ele>109.0</ele><time>2026-04-01T15:31:01Z</time></trkpt><trkpt lat="42.354197051230685" lon="-8.005399905444289"><ele>109.0</ele><time>2026-04-01T15:31:02Z</time></trkpt><trkpt lat="42.35394501111491" lon="-8.005408617874108"><ele>109.5</ele><time>2026-04-01T15:31:03Z</time></trkpt><trkpt lat="42.353710145524595" lon="-8.005416736615974"><ele>110.0</ele><time>2026-04-01T15:31:04Z</time></trkpt><trkpt lat="42.353490983468454" lon="-8.0054243125252"><ele>110.0</ele><time>2026-04-01T15:31:05Z</time></trkpt><trkpt lat="42.35327959958315" lon="-8.005430866690514"><ele>110.0</ele><time>2026-04-01T15:31:06Z</time></trkpt><trkpt lat="42.35307974676694" lon="-8.005437007084836"><ele>110.0</ele><time>2026-04-01T15:31:07Z</time></trkpt><trkpt lat="42.352884506817496" lon="-8.00544300574253"><ele>108.66666666666666</ele><time>2026-04-01T15:31:08Z</time></trkpt><trkpt lat="42.35270465451003" lon="-8.005426807641044"><ele>107.33333333333334</ele><time>2026-04-01T15:31:09Z</time></trkpt><trkpt lat="42.35254040534433" lon="-8.005430763981375"><ele>106.0</ele><time>2026-04-01T15:31:10Z</time></trkpt><trkpt lat="42.35239418591385" lon="-8.005456755853539"><ele>106.0</ele><time>2026-04-01T15:31:11Z</time></trkpt><trkpt lat="42.35225650914998" lon="-8.005459848501484"><ele>106.0</ele><time>2026-04-01T15:31:12Z</time></trkpt><trkpt lat="42.35212511329774" lon="-8.005462308761874"><ele>106.0</ele><time>2026-04-01T15:31:13Z</time></trkpt><trkpt lat="42.35200410659782" lon="-8.00546348258234"><ele>106.0</ele><time>2026-04-01T15:31:14Z</time></trkpt><trkpt lat="42.35188348045387" lon="-8.00546273202144"><ele>105.25</ele><time>2026-04-01T15:31:15Z</time></trkpt><trkpt lat="42.351760781557985" lon="-8.005459081489555"><ele>104.5</ele><time>2026-04-01T15:31:16Z</time></trkpt><trkpt lat="42.35163591840146" lon="-8.005426381756132"><ele>103.75</ele><time>2026-04-01T15:31:17Z</time></trkpt><trkpt lat="42.35151462680531" lon="-8.005402491442476"><ele>103.0</ele><time>2026-04-01T15:31:18Z</time></trkpt><trkpt lat="42.3513964262787" lon="-8.005399596161398"><ele>103.25</ele><time>2026-04-01T15:31:19Z</time></trkpt><trkpt lat="42.351281072218924" lon="-8.005378101176571"><ele>103.5</ele><time>2026-04-01T15:31:19.999Z</time></trkpt><trkpt lat="42.35117507336433" lon="-8.005251223743516"><ele>103.75</ele><time>2026-04-01T15:31:20.999Z</time></trkpt><trkpt lat="42.35105518927809" lon="-8.005167678458234"><ele>104.0</ele><time>2026-04-01T15:31:21.999Z</time></trkpt><trkpt lat="42.350952115840066" lon="-8.00507986299699"><ele>102.0</ele><time>2026-04-01T15:31:22.999Z</time></trkpt><trkpt lat="42.35084905719136" lon="-8.004981343697425"><ele>100.0</ele><time>2026-04-01T15:31:23.999Z</time></trkpt><trkpt lat="42.3507553898034" lon="-8.004872807335387"><ele>98.0</ele><time>2026-04-01T15:31:25Z</time></trkpt><trkpt lat="42.35067228131257" lon="-8.004755387840635"><ele>96.0</ele><time>2026-04-01T15:31:26Z</time></trkpt><trkpt lat="42.350591206798626" lon="-8.00462133095153"><ele>95.5</ele><time>2026-04-01T15:31:27Z</time></trkpt><trkpt lat="42.35050864845539" lon="-8.004492110187453"><ele>95.0</ele><time>2026-04-01T15:31:28Z</time></trkpt><trkpt lat="42.350433928467694" lon="-8.004364520571798"><ele>94.5</ele><time>2026-04-01T15:31:29Z</time></trkpt><trkpt lat="42.3503578881115" lon="-8.004234097418207"><ele>94.0</ele><time>2026-04-01T15:31:30Z</time></trkpt><trkpt lat="42.35028036866833" lon="-8.004102236432008"><ele>94.0</ele><time>2026-04-01T15:31:31Z</time></trkpt><trkpt lat="42.35020410752457" lon="-8.003980023592701"><ele>94.0</ele><time>2026-04-01T15:31:32Z</time></trkpt><trkpt lat="42.35013003379135" lon="-8.003859500445506"><ele>94.0</ele><time>2026-04-01T15:31:33Z</time></trkpt><trkpt lat="42.35005890385451" lon="-8.003738414339907"><ele>94.0</ele><time>2026-04-01T15:31:34Z</time></trkpt><trkpt lat="42.349980345667234" lon="-8.00360586624253"><ele>94.0</ele><time>2026-04-01T15:31:35Z</time></trkpt><trkpt lat="42.3499025870832" lon="-8.003482689389049"><ele>94.0</ele><time>2026-04-01T15:31:36Z</time></trkpt><trkpt lat="42.34983591789372" lon="-8.003345236934026"><ele>94.0</ele><time>2026-04-01T15:31:37Z</time></trkpt><trkpt lat="42.349763234019846" lon="-8.00322081909283"><ele>94.0</ele><time>2026-04-01T15:31:38Z</time></trkpt><trkpt lat="42.34970139124454" lon="-8.003100866652389"><ele>93.25</ele><time>2026-04-01T15:31:39Z</time></trkpt><trkpt lat="42.349633523555774" lon="-8.002975344208648"><ele>92.5</ele><time>2026-04-01T15:31:40Z</time></trkpt><trkpt lat="42.34955187689645" lon="-8.002867313299221"><ele>91.75</ele><time>2026-04-01T15:31:41Z</time></trkpt><trkpt lat="42.34947335946253" lon="-8.002779229573576"><ele>91.0</ele><time>2026-04-01T15:31:42Z</time></trkpt><trkpt lat="42.34936319027772" lon="-8.002704295627966"><ele>91.0</ele><time>2026-04-01T15:31:43Z</time></trkpt><trkpt lat="42.34925320757924" lon="-8.00268797821377"><ele>91.0</ele><time>2026-04-01T15:31:44Z</time></trkpt><trkpt lat="42.34914881609025" lon="-8.002708630958272"><ele>91.0</ele><time>2026-04-01T15:31:45Z</time></trkpt><trkpt lat="42.34905079242692" lon="-8.002763012963886"><ele>91.0</ele><time>2026-04-01T15:31:46Z</time></trkpt><trkpt lat="42.34896340445606" lon="-8.00284566749674"><ele>91.0</ele><time>2026-04-01T15:31:47Z</time></trkpt><trkpt lat="42.348892314904745" lon="-8.002952405730761"><ele>91.0</ele><time>2026-04-01T15:31:48Z</time></trkpt><trkpt lat="42.348852018948186" lon="-8.00305861359294"><ele>91.0</ele><time>2026-04-01T15:31:49Z</time></trkpt><trkpt lat="42.34883360558313" lon="-8.003168944244928"><ele>91.0</ele><time>2026-04-01T15:31:50Z</time></trkpt><trkpt lat="42.34882965068943" lon="-8.00326857024122"><ele>91.0</ele><time>2026-04-01T15:31:51Z</time></trkpt><trkpt lat="42.34884927736827" lon="-8.003363172675819"><ele>91.0</ele><time>2026-04-01T15:31:52Z</time></trkpt><trkpt lat="42.348888575091166" lon="-8.00343548863894"><ele>91.0</ele><time>2026-04-01T15:31:53Z</time></trkpt><trkpt lat="42.34900279178873" lon="-8.003507474383317"><ele>91.0</ele><time>2026-04-01T15:31:55Z</time></trkpt><trkpt lat="42.34907364963711" lon="-8.003498082512749"><ele>91.0</ele><time>2026-04-01T15:31:56Z</time></trkpt><trkpt lat="42.34915099896092" lon="-8.003462716752486"><ele>91.0</ele><time>2026-04-01T15:31:57Z</time></trkpt><trkpt lat="42.34923394953877" lon="-8.003380874640651"><ele>91.0</ele><time>2026-04-01T15:31:58Z</time></trkpt><trkpt lat="42.34931517732138" lon="-8.003262599898973"><ele>91.0</ele><time>2026-04-01T15:31:59Z</time></trkpt><trkpt lat="42.34938825376935" lon="-8.003122794233676"><ele>91.0</ele><time>2026-04-01T15:32:00Z</time></trkpt><trkpt lat="42.34946113754863" lon="-8.002973434417955"><ele>91.0</ele><time>2026-04-01T15:32:01Z</time></trkpt><trkpt lat="42.349525623814365" lon="-8.002809917868595"><ele>91.0</ele><time>2026-04-01T15:32:02Z</time></trkpt><trkpt lat="42.34958665689471" lon="-8.00266415753998"><ele>91.0</ele><time>2026-04-01T15:32:03Z</time></trkpt><trkpt lat="42.34964134511454" lon="-8.002515198323668"><ele>92.75</ele><time>2026-04-01T15:32:04Z</time></trkpt><trkpt lat="42.34969402989947" lon="-8.002360984923055"><ele>94.5</ele><time>2026-04-01T15:32:05Z</time></trkpt><trkpt lat="42.34973964355772" lon="-8.002216343053624"><ele>96.25</ele><time>2026-04-01T15:32:06Z</time></trkpt><trkpt lat="42.349774365752296" lon="-8.00206966905671"><ele>98.0</ele><time>2026-04-01T15:32:07Z</time></trkpt><trkpt lat="42.34980634762478" lon="-8.001907591166276"><ele>99.0</ele><time>2026-04-01T15:32:08Z</time></trkpt><trkpt lat="42.34982738524399" lon="-8.001743149254178"><ele>100.0</ele><time>2026-04-01T15:32:09Z</time></trkpt><trkpt lat="42.349844581249506" lon="-8.001568404197105"><ele>101.0</ele><time>2026-04-01T15:32:10Z</time></trkpt><trkpt lat="42.34985009274839" lon="-8.001402342066546"><ele>102.0</ele><time>2026-04-01T15:32:11Z</time></trkpt><trkpt lat="42.34984818528677" lon="-8.00124536414724"><ele>104.0</ele><time>2026-04-01T15:32:12Z</time></trkpt><trkpt lat="42.349837400208344" lon="-8.001081229432119"><ele>106.0</ele><time>2026-04-01T15:32:13Z</time></trkpt><trkpt lat="42.34982036526361" lon="-8.000909906406726"><ele>108.0</ele><time>2026-04-01T15:32:14Z</time></trkpt><trkpt lat="42.349802774633986" lon="-8.000741186055913"><ele>110.0</ele><time>2026-04-01T15:32:15Z</time></trkpt><trkpt lat="42.34977962816696" lon="-8.000569055706213"><ele>110.25</ele><time>2026-04-01T15:32:16Z</time></trkpt><trkpt lat="42.34975409970439" lon="-8.000408167925341"><ele>110.5</ele><time>2026-04-01T15:32:17Z</time></trkpt><trkpt lat="42.34972268754344" lon="-8.000242263391653"><ele>110.75</ele><time>2026-04-01T15:32:18Z</time></trkpt><trkpt lat="42.349697820071995" lon="-8.000085886993418"><ele>111.0</ele><time>2026-04-01T15:32:19Z</time></trkpt><trkpt lat="42.34967430623844" lon="-7.999927756929264"><ele>111.0</ele><time>2026-04-01T15:32:20Z</time></trkpt><trkpt lat="42.3496477367315" lon="-7.999768196005522"><ele>111.0</ele><time>2026-04-01T15:32:21Z</time></trkpt><trkpt lat="42.3496219738135" lon="-7.999600596069133"><ele>111.0</ele><time>2026-04-01T15:32:22Z</time></trkpt><trkpt lat="42.349599521913845" lon="-7.999441395680951"><ele>111.0</ele><time>2026-04-01T15:32:23Z</time></trkpt><trkpt lat="42.34958193587101" lon="-7.999288205761263"><ele>112.75</ele><time>2026-04-01T15:32:24Z</time></trkpt><trkpt lat="42.34956370500472" lon="-7.999128298468792"><ele>114.5</ele><time>2026-04-01T15:32:25Z</time></trkpt><trkpt lat="42.34954935302099" lon="-7.998976236451371"><ele>116.25</ele><time>2026-04-01T15:32:26Z</time></trkpt><trkpt lat="42.349535149391976" lon="-7.998812393142185"><ele>118.0</ele><time>2026-04-01T15:32:27Z</time></trkpt><trkpt lat="42.34952489483208" lon="-7.998645417248259"><ele>118.0</ele><time>2026-04-01T15:32:28Z</time></trkpt><trkpt lat="42.34950269370254" lon="-7.998475844513991"><ele>118.0</ele><time>2026-04-01T15:32:29Z</time></trkpt><trkpt lat="42.349479413652375" lon="-7.9983291765093245"><ele>118.0</ele><time>2026-04-01T15:32:30Z</time></trkpt><trkpt lat="42.34945250972206" lon="-7.998181797459324"><ele>118.0</ele><time>2026-04-01T15:32:31Z</time></trkpt><trkpt lat="42.34944030344785" lon="-7.998008447282574"><ele>119.75</ele><time>2026-04-01T15:32:32Z</time></trkpt><trkpt lat="42.34942098292595" lon="-7.997819731574201"><ele>121.5</ele><time>2026-04-01T15:32:33Z</time></trkpt><trkpt lat="42.34939772094495" lon="-7.997624380013027"><ele>123.25</ele><time>2026-04-01T15:32:34Z</time></trkpt><trkpt lat="42.34937527252722" lon="-7.997417639052918"><ele>125.0</ele><time>2026-04-01T15:32:35Z</time></trkpt><trkpt lat="42.34935469911813" lon="-7.99720950605597"><ele>125.0</ele><time>2026-04-01T15:32:36Z</time></trkpt><trkpt lat="42.34930346070599" lon="-7.996995258994126"><ele>125.0</ele><time>2026-04-01T15:32:37Z</time></trkpt><trkpt lat="42.34926127678627" lon="-7.996771888485623"><ele>125.0</ele><time>2026-04-01T15:32:38Z</time></trkpt><trkpt lat="42.349231228390686" lon="-7.996542336221507"><ele>124.0</ele><time>2026-04-01T15:32:39Z</time></trkpt><trkpt lat="42.349172395140954" lon="-7.996313876717825"><ele>123.0</ele><time>2026-04-01T15:32:40Z</time></trkpt><trkpt lat="42.34910684018901" lon="-7.996080042542745"><ele>122.0</ele><time>2026-04-01T15:32:41Z</time></trkpt><trkpt lat="42.3490354700149" lon="-7.995846658269003"><ele>121.0</ele><time>2026-04-01T15:32:42Z</time></trkpt><trkpt lat="42.34896226284088" lon="-7.995617622340845"><ele>120.0</ele><time>2026-04-01T15:32:43Z</time></trkpt><trkpt lat="42.34889061152354" lon="-7.995379128790445"><ele>119.0</ele><time>2026-04-01T15:32:44Z</time></trkpt><trkpt lat="42.34881288058374" lon="-7.995116407454395"><ele>119.0</ele><time>2026-04-01T15:32:45Z</time></trkpt><trkpt lat="42.34872782239836" lon="-7.994870185741663"><ele>119.0</ele><time>2026-04-01T15:32:46Z</time></trkpt><trkpt lat="42.34864107676001" lon="-7.994616130525833"><ele>119.0</ele><time>2026-04-01T15:32:47Z</time></trkpt><trkpt lat="42.34855375110139" lon="-7.9943658737520495"><ele>120.0</ele><time>2026-04-01T15:32:48Z</time></trkpt><trkpt lat="42.348465669795566" lon="-7.994112842698954"><ele>121.0</ele><time>2026-04-01T15:32:49Z</time></trkpt><trkpt lat="42.348379659858935" lon="-7.993851956734169"><ele>122.0</ele><time>2026-04-01T15:32:50Z</time></trkpt><trkpt lat="42.348300017084036" lon="-7.993600728043563"><ele>122.0</ele><time>2026-04-01T15:32:51Z</time></trkpt><trkpt lat="42.34823215014914" lon="-7.993367544072665"><ele>122.0</ele><time>2026-04-01T15:32:52Z</time></trkpt><trkpt lat="42.34816161161655" lon="-7.993146115546995"><ele>122.0</ele><time>2026-04-01T15:32:53Z</time></trkpt><trkpt lat="42.34808510329661" lon="-7.992908687725963"><ele>122.0</ele><time>2026-04-01T15:32:54Z</time></trkpt><trkpt lat="42.348009966887496" lon="-7.992664368434003"><ele>122.0</ele><time>2026-04-01T15:32:55Z</time></trkpt><trkpt lat="42.34793855958048" lon="-7.992411314834928"><ele>122.0</ele><time>2026-04-01T15:32:56Z</time></trkpt><trkpt lat="42.34787153399873" lon="-7.992180838876941"><ele>122.33333333333333</ele><time>2026-04-01T15:32:57Z</time></trkpt><trkpt lat="42.347813146634095" lon="-7.99195985851399"><ele>122.66666666666666</ele><time>2026-04-01T15:32:58Z</time></trkpt><trkpt lat="42.34775950210078" lon="-7.991751466291363"><ele>123.0</ele><time>2026-04-01T15:32:59Z</time></trkpt><trkpt lat="42.34771345976866" lon="-7.991552197612713"><ele>123.25</ele><time>2026-04-01T15:33:00Z</time></trkpt><trkpt lat="42.34764544640251" lon="-7.991364237149839"><ele>123.5</ele><time>2026-04-01T15:33:01Z</time></trkpt><trkpt lat="42.347592583356246" lon="-7.99119226085005"><ele>123.75</ele><time>2026-04-01T15:33:02Z</time></trkpt><trkpt lat="42.34755354931403" lon="-7.991034165241553"><ele>124.0</ele><time>2026-04-01T15:33:03Z</time></trkpt><trkpt lat="42.34750591562644" lon="-7.990851153654129"><ele>124.0</ele><time>2026-04-01T15:33:04Z</time></trkpt><trkpt lat="42.347452948161504" lon="-7.990658545635732"><ele>124.0</ele><time>2026-04-01T15:33:05Z</time></trkpt><trkpt lat="42.347403300341796" lon="-7.990454541559698"><ele>124.0</ele><time>2026-04-01T15:33:06Z</time></trkpt><trkpt lat="42.347359653277984" lon="-7.990297653879402"><ele>124.0</ele><time>2026-04-01T15:33:07Z</time></trkpt><trkpt lat="42.347316555634166" lon="-7.990208912745951"><ele>124.0</ele><time>2026-04-01T15:33:09Z</time></trkpt><trkpt lat="42.34727365991646" lon="-7.990065286372197"><ele>124.0</ele><time>2026-04-01T15:33:12Z</time></trkpt><trkpt lat="42.3472489171455" lon="-7.989937736173782"><ele>124.0</ele><time>2026-04-01T15:33:13Z</time></trkpt><trkpt lat="42.34721384082831" lon="-7.989788239958228"><ele>124.0</ele><time>2026-04-01T15:33:14Z</time></trkpt><trkpt lat="42.34716907034142" lon="-7.989624788508374"><ele>124.25</ele><time>2026-04-01T15:33:15Z</time></trkpt><trkpt lat="42.34712173829097" lon="-7.989454045498604"><ele>124.5</ele><time>2026-04-01T15:33:16Z</time></trkpt><trkpt lat="42.347070655228144" lon="-7.989274378722773"><ele>124.75</ele><time>2026-04-01T15:33:17Z</time></trkpt><trkpt lat="42.34701660109098" lon="-7.9890759039612895"><ele>125.0</ele><time>2026-04-01T15:33:18Z</time></trkpt><trkpt lat="42.346960880190274" lon="-7.988871307312767"><ele>125.0</ele><time>2026-04-01T15:33:19Z</time></trkpt><trkpt lat="42.346908280673794" lon="-7.988655840482675"><ele>125.0</ele><time>2026-04-01T15:33:20Z</time></trkpt><trkpt lat="42.34684985600779" lon="-7.988435756354376"><ele>125.0</ele><time>2026-04-01T15:33:21Z</time></trkpt><trkpt lat="42.34677720941245" lon="-7.988209809961589"><ele>125.0</ele><time>2026-04-01T15:33:22Z</time></trkpt><trkpt lat="42.34671270460355" lon="-7.987986229816066"><ele>125.0</ele><time>2026-04-01T15:33:23Z</time></trkpt><trkpt lat="42.346649020434256" lon="-7.987751443705243"><ele>125.0</ele><time>2026-04-01T15:33:24Z</time></trkpt><trkpt lat="42.34658582495776" lon="-7.987519784489465"><ele>125.0</ele><time>2026-04-01T15:33:25Z</time></trkpt><trkpt lat="42.34652227505414" lon="-7.987280309850844"><ele>125.0</ele><time>2026-04-01T15:33:26Z</time></trkpt><trkpt lat="42.346467345479084" lon="-7.987045966894852"><ele>125.0</ele><time>2026-04-01T15:33:27Z</time></trkpt><trkpt lat="42.346406475642375" lon="-7.986795322166803"><ele>124.33333333333333</ele><time>2026-04-01T15:33:28Z</time></trkpt><trkpt lat="42.346355542517436" lon="-7.986543135621235"><ele>123.66666666666666</ele><time>2026-04-01T15:33:29Z</time></trkpt><trkpt lat="42.346316283620865" lon="-7.986280331677999"><ele>123.0</ele><time>2026-04-01T15:33:30Z</time></trkpt><trkpt lat="42.346286965288485" lon="-7.986011944245719"><ele>121.33333333333334</ele><time>2026-04-01T15:33:31Z</time></trkpt><trkpt lat="42.34626215937459" lon="-7.985735528361095"><ele>119.66666666666667</ele><time>2026-04-01T15:33:32Z</time></trkpt><trkpt lat="42.346244407765134" lon="-7.9854612407386085"><ele>118.0</ele><time>2026-04-01T15:33:33Z</time></trkpt><trkpt lat="42.34622860085454" lon="-7.98518137869768"><ele>118.66666666666667</ele><time>2026-04-01T15:33:34Z</time></trkpt><trkpt lat="42.346216284182795" lon="-7.984898868375196"><ele>119.33333333333334</ele><time>2026-04-01T15:33:35Z</time></trkpt><trkpt lat="42.34619675705044" lon="-7.984618443264992"><ele>120.0</ele><time>2026-04-01T15:33:36Z</time></trkpt><trkpt lat="42.34617179117328" lon="-7.984337178834602"><ele>121.66666666666666</ele><time>2026-04-01T15:33:37Z</time></trkpt><trkpt lat="42.346147654153754" lon="-7.984046634718001"><ele>123.33333333333333</ele><time>2026-04-01T15:33:38Z</time></trkpt><trkpt lat="42.34612160243785" lon="-7.983767680534281"><ele>125.0</ele><time>2026-04-01T15:33:39Z</time></trkpt><trkpt lat="42.346083591250185" lon="-7.983477996307914"><ele>126.33333333333333</ele><time>2026-04-01T15:33:40Z</time></trkpt><trkpt lat="42.34601199236616" lon="-7.983211561680891"><ele>127.66666666666666</ele><time>2026-04-01T15:33:41Z</time></trkpt><trkpt lat="42.345952672330355" lon="-7.982935133313761"><ele>129.0</ele><time>2026-04-01T15:33:42Z</time></trkpt><trkpt lat="42.34585309919469" lon="-7.982679063116647"><ele>130.66666666666666</ele><time>2026-04-01T15:33:43Z</time></trkpt><trkpt lat="42.34573421265" lon="-7.982448651405615"><ele>132.33333333333331</ele><time>2026-04-01T15:33:44Z</time></trkpt><trkpt lat="42.34558907794046" lon="-7.982239980239003"><ele>134.0</ele><time>2026-04-01T15:33:45Z</time></trkpt><trkpt lat="42.345407727379886" lon="-7.982102286779528"><ele>134.0</ele><time>2026-04-01T15:33:46Z</time></trkpt><trkpt lat="42.345227054430275" lon="-7.981968125113187"><ele>134.0</ele><time>2026-04-01T15:33:47Z</time></trkpt><trkpt lat="42.34503871598793" lon="-7.981860922287586"><ele>134.0</ele><time>2026-04-01T15:33:48Z</time></trkpt><trkpt lat="42.34484577569221" lon="-7.981768510444663"><ele>136.33333333333331</ele><time>2026-04-01T15:33:49Z</time></trkpt><trkpt lat="42.34464466714014" lon="-7.981709812355062"><ele>138.66666666666666</ele><time>2026-04-01T15:33:50Z</time></trkpt><trkpt lat="42.34444440872551" lon="-7.981650492048924"><ele>141.0</ele><time>2026-04-01T15:33:51Z</time></trkpt><trkpt lat="42.34426028774904" lon="-7.9815963234056175"><ele>141.66666666666666</ele><time>2026-04-01T15:33:52Z</time></trkpt><trkpt lat="42.34408823861869" lon="-7.98154978799468"><ele>142.33333333333331</ele><time>2026-04-01T15:33:53Z</time></trkpt><trkpt lat="42.3439302622587" lon="-7.981501641735548"><ele>143.0</ele><time>2026-04-01T15:33:54Z</time></trkpt><trkpt lat="42.34377933764031" lon="-7.981444407429881"><ele>143.0</ele><time>2026-04-01T15:33:55Z</time></trkpt><trkpt lat="42.34363668923623" lon="-7.981364004866593"><ele>143.0</ele><time>2026-04-01T15:33:56Z</time></trkpt><trkpt lat="42.343511241700256" lon="-7.981264341152579"><ele>143.0</ele><time>2026-04-01T15:33:57Z</time></trkpt><trkpt lat="42.34340004303688" lon="-7.981147641336825"><ele>143.0</ele><time>2026-04-01T15:33:58Z</time></trkpt><trkpt lat="42.34330093593734" lon="-7.981012460049909"><ele>143.0</ele><time>2026-04-01T15:33:59Z</time></trkpt><trkpt lat="42.343212736564766" lon="-7.980867008440732"><ele>143.0</ele><time>2026-04-01T15:34:00Z</time></trkpt><trkpt lat="42.34314063625754" lon="-7.98071761042108"><ele>143.0</ele><time>2026-04-01T15:34:01Z</time></trkpt><trkpt lat="42.34308685489733" lon="-7.980559464979106"><ele>143.0</ele><time>2026-04-01T15:34:02Z</time></trkpt><trkpt lat="42.34305206544727" lon="-7.980396754828527"><ele>142.0</ele><time>2026-04-01T15:34:03Z</time></trkpt><trkpt lat="42.34302620175145" lon="-7.980221633460674"><ele>141.0</ele><time>2026-04-01T15:34:04Z</time></trkpt><trkpt lat="42.34302179580111" lon="-7.980031668411729"><ele>140.0</ele><time>2026-04-01T15:34:05Z</time></trkpt><trkpt lat="42.343025084995844" lon="-7.979845660626774"><ele>139.0</ele><time>2026-04-01T15:34:06Z</time></trkpt><trkpt lat="42.34305485246607" lon="-7.979655172255034"><ele>139.0</ele><time>2026-04-01T15:34:07Z</time></trkpt><trkpt lat="42.343112745260946" lon="-7.979452871730311"><ele>139.0</ele><time>2026-04-01T15:34:08Z</time></trkpt><trkpt lat="42.343160259691565" lon="-7.979252189823617"><ele>139.0</ele><time>2026-04-01T15:34:09Z</time></trkpt><trkpt lat="42.34321453613165" lon="-7.979055453880221"><ele>137.33333333333334</ele><time>2026-04-01T15:34:10Z</time></trkpt><trkpt lat="42.34327175408799" lon="-7.9788563556778955"><ele>135.66666666666666</ele><time>2026-04-01T15:34:11Z</time></trkpt><trkpt lat="42.34330998042229" lon="-7.978647256346285"><ele>134.0</ele><time>2026-04-01T15:34:12Z</time></trkpt><trkpt lat="42.3433105800391" lon="-7.978421091922602"><ele>131.66666666666666</ele><time>2026-04-01T15:34:13Z</time></trkpt><trkpt lat="42.34330506701602" lon="-7.978197471039821"><ele>129.33333333333334</ele><time>2026-04-01T15:34:14Z</time></trkpt><trkpt lat="42.34327445021479" lon="-7.977969980044306"><ele>127.0</ele><time>2026-04-01T15:34:15Z</time></trkpt><trkpt lat="42.34322235997875" lon="-7.977738715438161"><ele>126.0</ele><time>2026-04-01T15:34:16Z</time></trkpt><trkpt lat="42.343139933055554" lon="-7.977514412337943"><ele>125.0</ele><time>2026-04-01T15:34:17Z</time></trkpt><trkpt lat="42.34303195179311" lon="-7.977303464590324"><ele>124.0</ele><time>2026-04-01T15:34:18Z</time></trkpt><trkpt lat="42.342903503401054" lon="-7.977111629591067"><ele>122.0</ele><time>2026-04-01T15:34:19Z</time></trkpt><trkpt lat="42.342762000123784" lon="-7.976942350068901"><ele>120.0</ele><time>2026-04-01T15:34:20Z</time></trkpt><trkpt lat="42.34260948576308" lon="-7.976769175103895"><ele>118.0</ele><time>2026-04-01T15:34:21Z</time></trkpt><trkpt lat="42.34243974307784" lon="-7.976632707418094"><ele>121.33333333333334</ele><time>2026-04-01T15:34:22Z</time></trkpt><trkpt lat="42.34225982176853" lon="-7.9765138538969484"><ele>124.66666666666666</ele><time>2026-04-01T15:34:23Z</time></trkpt><trkpt lat="42.34208528631311" lon="-7.976380794807039"><ele>128.0</ele><time>2026-04-01T15:34:24Z</time></trkpt><trkpt lat="42.34191588310219" lon="-7.976247420796841"><ele>128.0</ele><time>2026-04-01T15:34:25Z</time></trkpt><trkpt lat="42.34174343523125" lon="-7.9761129443854335"><ele>128.0</ele><time>2026-04-01T15:34:26Z</time></trkpt><trkpt lat="42.34157415330583" lon="-7.975972434414355"><ele>128.0</ele><time>2026-04-01T15:34:27Z</time></trkpt><trkpt lat="42.34141178755924" lon="-7.975815128746725"><ele>132.33333333333331</ele><time>2026-04-01T15:34:28Z</time></trkpt><trkpt lat="42.34125756756896" lon="-7.975649716197374"><ele>136.66666666666666</ele><time>2026-04-01T15:34:29Z</time></trkpt><trkpt lat="42.34112093622104" lon="-7.9754698073300005"><ele>141.0</ele><time>2026-04-01T15:34:30Z</time></trkpt><trkpt lat="42.3409927446123" lon="-7.975269569409655"><ele>141.0</ele><time>2026-04-01T15:34:31Z</time></trkpt><trkpt lat="42.340878565411884" lon="-7.975063076210479"><ele>141.0</ele><time>2026-04-01T15:34:32Z</time></trkpt><trkpt lat="42.34078265189569" lon="-7.974846133927018"><ele>141.0</ele><time>2026-04-01T15:34:33Z</time></trkpt><trkpt lat="42.340715844084805" lon="-7.974608215407401"><ele>143.33333333333334</ele><time>2026-04-01T15:34:34Z</time></trkpt><trkpt lat="42.34067950524499" lon="-7.97436663944124"><ele>145.66666666666669</ele><time>2026-04-01T15:34:35Z</time></trkpt><trkpt lat="42.340671516604" lon="-7.974117091131315"><ele>148.0</ele><time>2026-04-01T15:34:36Z</time></trkpt><trkpt lat="42.34068635326444" lon="-7.973877159799139"><ele>150.33333333333334</ele><time>2026-04-01T15:34:37Z</time></trkpt><trkpt lat="42.34072656741745" lon="-7.973639332039904"><ele>152.66666666666666</ele><time>2026-04-01T15:34:38Z</time></trkpt><trkpt lat="42.34078696998231" lon="-7.973410021819831"><ele>155.0</ele><time>2026-04-01T15:34:39Z</time></trkpt><trkpt lat="42.34086093678377" lon="-7.973183824313443"><ele>155.66666666666666</ele><time>2026-04-01T15:34:40Z</time></trkpt><trkpt lat="42.34095348227014" lon="-7.9729844681607815"><ele>156.33333333333334</ele><time>2026-04-01T15:34:41Z</time></trkpt><trkpt lat="42.341061454148466" lon="-7.97277761386319"><ele>157.0</ele><time>2026-04-01T15:34:42Z</time></trkpt><trkpt lat="42.34117542538321" lon="-7.972575729400853"><ele>159.33333333333334</ele><time>2026-04-01T15:34:43Z</time></trkpt><trkpt lat="42.3412919861409" lon="-7.9723716650021785"><ele>161.66666666666666</ele><time>2026-04-01T15:34:44Z</time></trkpt><trkpt lat="42.341414590356685" lon="-7.9721748792949985"><ele>164.0</ele><time>2026-04-01T15:34:45Z</time></trkpt><trkpt lat="42.341526621411745" lon="-7.971963366058318"><ele>164.0</ele><time>2026-04-01T15:34:46Z</time></trkpt><trkpt lat="42.34162564350041" lon="-7.971732730064079"><ele>164.0</ele><time>2026-04-01T15:34:47Z</time></trkpt><trkpt lat="42.34170671570647" lon="-7.9714887870483695"><ele>164.0</ele><time>2026-04-01T15:34:48Z</time></trkpt><trkpt lat="42.34177261180037" lon="-7.971233413437362"><ele>160.66666666666666</ele><time>2026-04-01T15:34:49Z</time></trkpt><trkpt lat="42.341809219148104" lon="-7.970967790191309"><ele>157.33333333333334</ele><time>2026-04-01T15:34:50Z</time></trkpt><trkpt lat="42.34182418469156" lon="-7.970697727706759"><ele>154.0</ele><time>2026-04-01T15:34:51Z</time></trkpt><trkpt lat="42.341811672129474" lon="-7.9704264605947515"><ele>154.33333333333334</ele><time>2026-04-01T15:34:52Z</time></trkpt><trkpt lat="42.34177493690685" lon="-7.970161901798949"><ele>154.66666666666666</ele><time>2026-04-01T15:34:53Z</time></trkpt><trkpt lat="42.34171488158032" lon="-7.969908686661854"><ele>155.0</ele><time>2026-04-01T15:34:54Z</time></trkpt><trkpt lat="42.34163587044834" lon="-7.9696626303596245"><ele>155.0</ele><time>2026-04-01T15:34:55Z</time></trkpt><trkpt lat="42.34151891509178" lon="-7.9694488496508065"><ele>155.0</ele><time>2026-04-01T15:34:56Z</time></trkpt><trkpt lat="42.341400859936286" lon="-7.96924355121368"><ele>155.0</ele><time>2026-04-01T15:34:57Z</time></trkpt><trkpt lat="42.34128682167785" lon="-7.96903514992845"><ele>158.0</ele><time>2026-04-01T15:34:58Z</time></trkpt><trkpt lat="42.34114869605009" lon="-7.9688568068108"><ele>161.0</ele><time>2026-04-01T15:34:59Z</time></trkpt><trkpt lat="42.34100914645494" lon="-7.968680266516935"><ele>164.0</ele><time>2026-04-01T15:35:00Z</time></trkpt><trkpt lat="42.34087506523906" lon="-7.96848683374396"><ele>165.33333333333331</ele><time>2026-04-01T15:35:01Z</time></trkpt><trkpt lat="42.34074949552242" lon="-7.968278058753504"><ele>166.66666666666666</ele><time>2026-04-01T15:35:02Z</time></trkpt><trkpt lat="42.34064536051506" lon="-7.968048261804347"><ele>168.0</ele><time>2026-04-01T15:35:03Z</time></trkpt><trkpt lat="42.340562196233215" lon="-7.9677983480172765"><ele>163.66666666666666</ele><time>2026-04-01T15:35:04Z</time></trkpt><trkpt lat="42.34050446957702" lon="-7.96753291877763"><ele>159.33333333333331</ele><time>2026-04-01T15:35:05Z</time></trkpt><trkpt lat="42.340454157748376" lon="-7.967261497406856"><ele>155.0</ele><time>2026-04-01T15:35:06Z</time></trkpt><trkpt lat="42.34040922862866" lon="-7.966988249566527"><ele>155.0</ele><time>2026-04-01T15:35:07Z</time></trkpt><trkpt lat="42.34037295850973" lon="-7.9667116171535755"><ele>155.0</ele><time>2026-04-01T15:35:08Z</time></trkpt><trkpt lat="42.3403394210597" lon="-7.966445456484487"><ele>155.0</ele><time>2026-04-01T15:35:09Z</time></trkpt><trkpt lat="42.340314808907245" lon="-7.96620082234404"><ele>154.0</ele><time>2026-04-01T15:35:10Z</time></trkpt><trkpt lat="42.340308168373696" lon="-7.965962552046393"><ele>153.0</ele><time>2026-04-01T15:35:11Z</time></trkpt><trkpt lat="42.34032311877493" lon="-7.965710420655808"><ele>152.0</ele><time>2026-04-01T15:35:12Z</time></trkpt><trkpt lat="42.34037649785869" lon="-7.965463502628084"><ele>151.66666666666666</ele><time>2026-04-01T15:35:13Z</time></trkpt><trkpt lat="42.3404604287656" lon="-7.965224246741428"><ele>151.33333333333334</ele><time>2026-04-01T15:35:14Z</time></trkpt><trkpt lat="42.340554800850086" lon="-7.964989648966925"><ele>151.0</ele><time>2026-04-01T15:35:15Z</time></trkpt><trkpt lat="42.34064130550826" lon="-7.964748987730379"><ele>155.0</ele><time>2026-04-01T15:35:16Z</time></trkpt><trkpt lat="42.3407078062855" lon="-7.9644935995093915"><ele>159.0</ele><time>2026-04-01T15:35:17Z</time></trkpt><trkpt lat="42.340732735295404" lon="-7.964220109835687"><ele>163.0</ele><time>2026-04-01T15:35:18Z</time></trkpt><trkpt lat="42.340732266071264" lon="-7.96394681720819"><ele>163.0</ele><time>2026-04-01T15:35:19Z</time></trkpt><trkpt lat="42.340708446407476" lon="-7.963660066387764"><ele>163.0</ele><time>2026-04-01T15:35:20Z</time></trkpt><trkpt lat="42.340672513209284" lon="-7.963378540108239"><ele>163.0</ele><time>2026-04-01T15:35:21Z</time></trkpt><trkpt lat="42.34063852403906" lon="-7.963077419028159"><ele>164.0</ele><time>2026-04-01T15:35:22Z</time></trkpt><trkpt lat="42.340597096205364" lon="-7.962790261526517"><ele>165.0</ele><time>2026-04-01T15:35:23Z</time></trkpt><trkpt lat="42.340547486009584" lon="-7.962485241660924"><ele>166.0</ele><time>2026-04-01T15:35:24Z</time></trkpt><trkpt lat="42.34049462151793" lon="-7.962183988483316"><ele>153.0</ele><time>2026-04-01T15:35:25Z</time></trkpt><trkpt lat="42.34043274632677" lon="-7.961877535080982"><ele>140.0</ele><time>2026-04-01T15:35:26Z</time></trkpt><trkpt lat="42.340370705134035" lon="-7.961563270835403"><ele>138.0</ele><time>2026-04-01T15:35:27Z</time></trkpt><trkpt lat="42.34030492397072" lon="-7.96124908175084"><ele>136.0</ele><time>2026-04-01T15:35:28Z</time></trkpt><trkpt lat="42.34023203481463" lon="-7.9609354991339885"><ele>139.0</ele><time>2026-04-01T15:35:29Z</time></trkpt><trkpt lat="42.34016042028133" lon="-7.960614995024905"><ele>142.0</ele><time>2026-04-01T15:35:30Z</time></trkpt><trkpt lat="42.34008973205685" lon="-7.960290224547938"><ele>145.5</ele><time>2026-04-01T15:35:31Z</time></trkpt><trkpt lat="42.34003644293242" lon="-7.95996702719164"><ele>149.0</ele><time>2026-04-01T15:35:31.999Z</time></trkpt><trkpt lat="42.340012178890355" lon="-7.959653347565338"><ele>149.0</ele><time>2026-04-01T15:35:32.999Z</time></trkpt><trkpt lat="42.34002075871321" lon="-7.959338898159491"><ele>149.0</ele><time>2026-04-01T15:35:33.999Z</time></trkpt><trkpt lat="42.340049107550115" lon="-7.959018694696108"><ele>147.5</ele><time>2026-04-01T15:35:34.999Z</time></trkpt><trkpt lat="42.340077161820886" lon="-7.958709827994469"><ele>146.0</ele><time>2026-04-01T15:35:35.999Z</time></trkpt><trkpt lat="42.34010087840124" lon="-7.95839297891021"><ele>146.0</ele><time>2026-04-01T15:35:36.999Z</time></trkpt><trkpt lat="42.340118289507785" lon="-7.95807427449532"><ele>146.0</ele><time>2026-04-01T15:35:37.999Z</time></trkpt><trkpt lat="42.34013250618666" lon="-7.957756290531345"><ele>146.0</ele><time>2026-04-01T15:35:38.999Z</time></trkpt><trkpt lat="42.34014352077432" lon="-7.957435544329307"><ele>146.0</ele><time>2026-04-01T15:35:39.999Z</time></trkpt><trkpt lat="42.340156951316985" lon="-7.957120815414275"><ele>146.0</ele><time>2026-04-01T15:35:40.999Z</time></trkpt><trkpt lat="42.34016897880028" lon="-7.956805850445714"><ele>146.0</ele><time>2026-04-01T15:35:41.999Z</time></trkpt><trkpt lat="42.34019495309503" lon="-7.956497469797011"><ele>146.0</ele><time>2026-04-01T15:35:42.999Z</time></trkpt><trkpt lat="42.340234832150394" lon="-7.9561880317042935"><ele>146.0</ele><time>2026-04-01T15:35:43.999Z</time></trkpt><trkpt lat="42.3402722615476" lon="-7.955873072525555"><ele>145.0</ele><time>2026-04-01T15:35:44.999Z</time></trkpt><trkpt lat="42.340303256266566" lon="-7.955565802123395"><ele>144.0</ele><time>2026-04-01T15:35:45.999Z</time></trkpt><trkpt lat="42.34032952083219" lon="-7.955268229573964"><ele>144.33333333333334</ele><time>2026-04-01T15:35:46.999Z</time></trkpt><trkpt lat="42.34035489031627" lon="-7.954972574670991"><ele>144.66666666666669</ele><time>2026-04-01T15:35:48Z</time></trkpt><trkpt lat="42.34038564193278" lon="-7.95466901336859"><ele>145.0</ele><time>2026-04-01T15:35:49Z</time></trkpt><trkpt lat="42.34041688722245" lon="-7.954376687195497"><ele>144.66666666666669</ele><time>2026-04-01T15:35:50Z</time></trkpt><trkpt lat="42.3404527624786" lon="-7.954083283819179"><ele>144.33333333333334</ele><time>2026-04-01T15:35:51Z</time></trkpt><trkpt lat="42.34049154717525" lon="-7.953788490763794"><ele>144.0</ele><time>2026-04-01T15:35:52Z</time></trkpt><trkpt lat="42.340535756651114" lon="-7.953491105395906"><ele>148.0</ele><time>2026-04-01T15:35:53Z</time></trkpt><trkpt lat="42.340580381906534" lon="-7.953197194729607"><ele>152.0</ele><time>2026-04-01T15:35:54Z</time></trkpt><trkpt lat="42.34063050174127" lon="-7.952906921085984"><ele>156.0</ele><time>2026-04-01T15:35:55Z</time></trkpt><trkpt lat="42.34068499117459" lon="-7.952613970759388"><ele>156.33333333333334</ele><time>2026-04-01T15:35:56Z</time></trkpt><trkpt lat="42.340743732017984" lon="-7.952325728155401"><ele>156.66666666666669</ele><time>2026-04-01T15:35:57Z</time></trkpt><trkpt lat="42.34080441262172" lon="-7.952034132988333"><ele>157.0</ele><time>2026-04-01T15:35:58Z</time></trkpt><trkpt lat="42.3408691957583" lon="-7.951741465072015"><ele>155.0</ele><time>2026-04-01T15:35:59Z</time></trkpt><trkpt lat="42.34093594014486" lon="-7.9514524396658155"><ele>153.0</ele><time>2026-04-01T15:36:00Z</time></trkpt><trkpt lat="42.34100778581518" lon="-7.951157354937929"><ele>151.5</ele><time>2026-04-01T15:36:01Z</time></trkpt><trkpt lat="42.34107466250872" lon="-7.950856433676321"><ele>150.0</ele><time>2026-04-01T15:36:02Z</time></trkpt><trkpt lat="42.34114397424223" lon="-7.950555091459041"><ele>150.0</ele><time>2026-04-01T15:36:03Z</time></trkpt><trkpt lat="42.34121723852719" lon="-7.950253687327909"><ele>150.0</ele><time>2026-04-01T15:36:04Z</time></trkpt><trkpt lat="42.34129608969319" lon="-7.949943865533579"><ele>148.5</ele><time>2026-04-01T15:36:05Z</time></trkpt><trkpt lat="42.34137108290147" lon="-7.949637995737801"><ele>147.0</ele><time>2026-04-01T15:36:06Z</time></trkpt><trkpt lat="42.341450193581665" lon="-7.949325947409382"><ele>150.0</ele><time>2026-04-01T15:36:07Z</time></trkpt><trkpt lat="42.34152999510964" lon="-7.949013950171897"><ele>153.0</ele><time>2026-04-01T15:36:08Z</time></trkpt><trkpt lat="42.3416035278569" lon="-7.948724101490767"><ele>153.0</ele><time>2026-04-01T15:36:09Z</time></trkpt><trkpt lat="42.341672189861946" lon="-7.948452627525301"><ele>153.0</ele><time>2026-04-01T15:36:10Z</time></trkpt><trkpt lat="42.3417478336158" lon="-7.94818693412515"><ele>153.0</ele><time>2026-04-01T15:36:11Z</time></trkpt><trkpt lat="42.341825244126966" lon="-7.947919378497964"><ele>152.0</ele><time>2026-04-01T15:36:12Z</time></trkpt><trkpt lat="42.34190103469943" lon="-7.947651379228868"><ele>151.0</ele><time>2026-04-01T15:36:13Z</time></trkpt><trkpt lat="42.34197339022391" lon="-7.947382119762684"><ele>150.0</ele><time>2026-04-01T15:36:14Z</time></trkpt><trkpt lat="42.342026160244814" lon="-7.947111064091806"><ele>147.66666666666666</ele><time>2026-04-01T15:36:15Z</time></trkpt><trkpt lat="42.34205187351567" lon="-7.946827008610485"><ele>145.33333333333331</ele><time>2026-04-01T15:36:16Z</time></trkpt><trkpt lat="42.34205060420168" lon="-7.94655034397197"><ele>143.0</ele><time>2026-04-01T15:36:17Z</time></trkpt><trkpt lat="42.342033679263594" lon="-7.946284446942323"><ele>141.66666666666666</ele><time>2026-04-01T15:36:18Z</time></trkpt><trkpt lat="42.34200676466109" lon="-7.946021800291832"><ele>140.33333333333334</ele><time>2026-04-01T15:36:19Z</time></trkpt><trkpt lat="42.34197987847108" lon="-7.945765378473754"><ele>139.0</ele><time>2026-04-01T15:36:20Z</time></trkpt><trkpt lat="42.34195817263478" lon="-7.945510252900957"><ele>139.0</ele><time>2026-04-01T15:36:21Z</time></trkpt><trkpt lat="42.34194109302444" lon="-7.945256326871141"><ele>139.0</ele><time>2026-04-01T15:36:22Z</time></trkpt><trkpt lat="42.341932216511616" lon="-7.945005822940104"><ele>139.0</ele><time>2026-04-01T15:36:23Z</time></trkpt><trkpt lat="42.34193320049354" lon="-7.944747057255886"><ele>138.66666666666669</ele><time>2026-04-01T15:36:24Z</time></trkpt><trkpt lat="42.34194487433634" lon="-7.944490855694983"><ele>138.33333333333334</ele><time>2026-04-01T15:36:25Z</time></trkpt><trkpt lat="42.341968139077686" lon="-7.944243209301265"><ele>138.0</ele><time>2026-04-01T15:36:26Z</time></trkpt><trkpt lat="42.342000281384784" lon="-7.9439898218381"><ele>137.0</ele><time>2026-04-01T15:36:27Z</time></trkpt><trkpt lat="42.34203073012399" lon="-7.943748673457202"><ele>136.0</ele><time>2026-04-01T15:36:28Z</time></trkpt><trkpt lat="42.34206078927769" lon="-7.943504798475603"><ele>135.0</ele><time>2026-04-01T15:36:29Z</time></trkpt><trkpt lat="42.34208556403749" lon="-7.943256421187253"><ele>133.33333333333334</ele><time>2026-04-01T15:36:30Z</time></trkpt><trkpt lat="42.34210691966747" lon="-7.943004915905203"><ele>131.66666666666669</ele><time>2026-04-01T15:36:31Z</time></trkpt><trkpt lat="42.34211784488858" lon="-7.942752826703502"><ele>130.0</ele><time>2026-04-01T15:36:32Z</time></trkpt><trkpt lat="42.34211684169223" lon="-7.942500044985656"><ele>130.0</ele><time>2026-04-01T15:36:33Z</time></trkpt><trkpt lat="42.34209614874999" lon="-7.942245719172499"><ele>130.0</ele><time>2026-04-01T15:36:34Z</time></trkpt><trkpt lat="42.34207087396264" lon="-7.942001452577034"><ele>130.0</ele><time>2026-04-01T15:36:35Z</time></trkpt><trkpt lat="42.342056032839245" lon="-7.941756498502134"><ele>131.0</ele><time>2026-04-01T15:36:36Z</time></trkpt><trkpt lat="42.342047721663754" lon="-7.9415189165105575"><ele>132.0</ele><time>2026-04-01T15:36:37Z</time></trkpt><trkpt lat="42.34204498527536" lon="-7.9412788804054895"><ele>133.0</ele><time>2026-04-01T15:36:38Z</time></trkpt><trkpt lat="42.34205600949657" lon="-7.941037245680171"><ele>132.66666666666669</ele><time>2026-04-01T15:36:39Z</time></trkpt><trkpt lat="42.342078445388154" lon="-7.940782206939312"><ele>132.33333333333334</ele><time>2026-04-01T15:36:40Z</time></trkpt><trkpt lat="42.342111368863286" lon="-7.940527845473982"><ele>132.0</ele><time>2026-04-01T15:36:41Z</time></trkpt><trkpt lat="42.3421551004588" lon="-7.940277790210611"><ele>130.66666666666666</ele><time>2026-04-01T15:36:42Z</time></trkpt><trkpt lat="42.342207186483066" lon="-7.9400223663704965"><ele>129.33333333333331</ele><time>2026-04-01T15:36:43Z</time></trkpt><trkpt lat="42.34226435039605" lon="-7.939772126792673"><ele>128.0</ele><time>2026-04-01T15:36:44Z</time></trkpt><trkpt lat="42.34232481997946" lon="-7.939515117261233"><ele>133.66666666666666</ele><time>2026-04-01T15:36:45Z</time></trkpt><trkpt lat="42.342386011399455" lon="-7.939257066165753"><ele>139.33333333333334</ele><time>2026-04-01T15:36:46Z</time></trkpt><trkpt lat="42.34245399198262" lon="-7.938996979196293"><ele>145.0</ele><time>2026-04-01T15:36:47Z</time></trkpt><trkpt lat="42.34252876039544" lon="-7.938738038749491"><ele>145.0</ele><time>2026-04-01T15:36:48Z</time></trkpt><trkpt lat="42.342596647512686" lon="-7.938470580056051"><ele>145.0</ele><time>2026-04-01T15:36:49Z</time></trkpt><trkpt lat="42.34266168254548" lon="-7.93820280493153"><ele>145.0</ele><time>2026-04-01T15:36:50Z</time></trkpt><trkpt lat="42.342730092877126" lon="-7.937933706528244"><ele>143.66666666666669</ele><time>2026-04-01T15:36:51Z</time></trkpt><trkpt lat="42.342795334308626" lon="-7.937662584457166"><ele>142.33333333333334</ele><time>2026-04-01T15:36:52Z</time></trkpt><trkpt lat="42.342864370207785" lon="-7.937421660703475"><ele>141.0</ele><time>2026-04-01T15:36:53Z</time></trkpt><trkpt lat="42.342940998062204" lon="-7.937196317305105"><ele>143.0</ele><time>2026-04-01T15:36:54Z</time></trkpt><trkpt lat="42.34302604338863" lon="-7.93698540187528"><ele>145.0</ele><time>2026-04-01T15:36:55Z</time></trkpt><trkpt lat="42.34313282841503" lon="-7.936783299686479"><ele>147.0</ele><time>2026-04-01T15:36:56Z</time></trkpt><trkpt lat="42.34325836688697" lon="-7.936598332033961"><ele>147.0</ele><time>2026-04-01T15:36:57Z</time></trkpt><trkpt lat="42.343392619828876" lon="-7.936421161895064"><ele>147.0</ele><time>2026-04-01T15:36:58Z</time></trkpt><trkpt lat="42.343527979026916" lon="-7.936243251112701"><ele>147.0</ele><time>2026-04-01T15:36:59Z</time></trkpt><trkpt lat="42.343664172938844" lon="-7.936063306605022"><ele>151.0</ele><time>2026-04-01T15:37:00Z</time></trkpt><trkpt lat="42.34380042586183" lon="-7.935880994430394"><ele>155.0</ele><time>2026-04-01T15:37:01Z</time></trkpt><trkpt lat="42.34393267223488" lon="-7.935692676204035"><ele>159.0</ele><time>2026-04-01T15:37:02Z</time></trkpt><trkpt lat="42.34405772653241" lon="-7.935491484645994"><ele>159.0</ele><time>2026-04-01T15:37:03Z</time></trkpt><trkpt lat="42.34417004563458" lon="-7.93527338239781"><ele>159.0</ele><time>2026-04-01T15:37:04Z</time></trkpt><trkpt lat="42.34426869098516" lon="-7.935040866518731"><ele>159.0</ele><time>2026-04-01T15:37:05Z</time></trkpt><trkpt lat="42.34436484502927" lon="-7.934803546920783"><ele>158.33333333333334</ele><time>2026-04-01T15:37:06Z</time></trkpt><trkpt lat="42.344468668939854" lon="-7.934575487244394"><ele>157.66666666666669</ele><time>2026-04-01T15:37:07Z</time></trkpt><trkpt lat="42.344591456689685" lon="-7.934362165085408"><ele>157.0</ele><time>2026-04-01T15:37:08Z</time></trkpt><trkpt lat="42.344723231658044" lon="-7.934168554644412"><ele>157.0</ele><time>2026-04-01T15:37:09Z</time></trkpt><trkpt lat="42.3448701223046" lon="-7.933987299058505"><ele>157.0</ele><time>2026-04-01T15:37:10Z</time></trkpt><trkpt lat="42.345028481295955" lon="-7.933817017917895"><ele>157.0</ele><time>2026-04-01T15:37:11Z</time></trkpt><trkpt lat="42.34518912054947" lon="-7.933646111741314"><ele>157.0</ele><time>2026-04-01T15:37:12Z</time></trkpt><trkpt lat="42.34534327514781" lon="-7.933478421953971"><ele>157.0</ele><time>2026-04-01T15:37:13Z</time></trkpt><trkpt lat="42.34549429222867" lon="-7.933282310649356"><ele>157.0</ele><time>2026-04-01T15:37:14Z</time></trkpt><trkpt lat="42.345623486426206" lon="-7.933065879078263"><ele>157.33333333333334</ele><time>2026-04-01T15:37:15Z</time></trkpt><trkpt lat="42.34573209240942" lon="-7.932823238923395"><ele>157.66666666666666</ele><time>2026-04-01T15:37:16Z</time></trkpt><trkpt lat="42.34582531078053" lon="-7.932576967910603"><ele>158.0</ele><time>2026-04-01T15:37:17Z</time></trkpt><trkpt lat="42.345920362858" lon="-7.932317952246515"><ele>158.0</ele><time>2026-04-01T15:37:18Z</time></trkpt><trkpt lat="42.34601123771497" lon="-7.93207166164033"><ele>158.0</ele><time>2026-04-01T15:37:19Z</time></trkpt><trkpt lat="42.34610475030826" lon="-7.9318226704142205"><ele>158.0</ele><time>2026-04-01T15:37:20Z</time></trkpt><trkpt lat="42.346204118732956" lon="-7.93157571600434"><ele>156.0</ele><time>2026-04-01T15:37:21Z</time></trkpt><trkpt lat="42.34630131918826" lon="-7.931322863381178"><ele>154.0</ele><time>2026-04-01T15:37:22Z</time></trkpt><trkpt lat="42.34639793296981" lon="-7.931072761124278"><ele>152.0</ele><time>2026-04-01T15:37:23Z</time></trkpt><trkpt lat="42.34649616031444" lon="-7.930840144842655"><ele>156.0</ele><time>2026-04-01T15:37:24Z</time></trkpt><trkpt lat="42.34659935807688" lon="-7.930620692547898"><ele>160.0</ele><time>2026-04-01T15:37:25Z</time></trkpt><trkpt lat="42.346713177259254" lon="-7.930402991089117"><ele>164.0</ele><time>2026-04-01T15:37:26Z</time></trkpt><trkpt lat="42.346842671724545" lon="-7.930187924551266"><ele>164.66666666666666</ele><time>2026-04-01T15:37:27Z</time></trkpt><trkpt lat="42.346986882673896" lon="-7.929983118845211"><ele>165.33333333333334</ele><time>2026-04-01T15:37:28Z</time></trkpt><trkpt lat="42.34715325518539" lon="-7.9297957771990735"><ele>166.0</ele><time>2026-04-01T15:37:29Z</time></trkpt><trkpt lat="42.34733117917742" lon="-7.929619395990607"><ele>166.5</ele><time>2026-04-01T15:37:30Z</time></trkpt><trkpt lat="42.34750419886257" lon="-7.929419840817142"><ele>167.0</ele><time>2026-04-01T15:37:31Z</time></trkpt><trkpt lat="42.34768756894542" lon="-7.929237679832138"><ele>168.5</ele><time>2026-04-01T15:37:32Z</time></trkpt><trkpt lat="42.34787625731519" lon="-7.92904647495812"><ele>170.0</ele><time>2026-04-01T15:37:33Z</time></trkpt><trkpt lat="42.34806158189218" lon="-7.928856581943215"><ele>170.0</ele><time>2026-04-01T15:37:34Z</time></trkpt><trkpt lat="42.34825057833844" lon="-7.928659618952383"><ele>170.0</ele><time>2026-04-01T15:37:35Z</time></trkpt><trkpt lat="42.34843945557406" lon="-7.928464758610008"><ele>163.5</ele><time>2026-04-01T15:37:36Z</time></trkpt><trkpt lat="42.34860687989736" lon="-7.928232809870726"><ele>157.0</ele><time>2026-04-01T15:37:37Z</time></trkpt><trkpt lat="42.348765005896915" lon="-7.927987083256613"><ele>156.5</ele><time>2026-04-01T15:37:37.999Z</time></trkpt><trkpt lat="42.3489122407509" lon="-7.927736018050263"><ele>156.0</ele><time>2026-04-01T15:37:38.999Z</time></trkpt><trkpt lat="42.34903869046235" lon="-7.927487483328367"><ele>156.0</ele><time>2026-04-01T15:37:39.999Z</time></trkpt><trkpt lat="42.34913978615796" lon="-7.927204681340698"><ele>156.0</ele><time>2026-04-01T15:37:40.999Z</time></trkpt><trkpt lat="42.34920779922295" lon="-7.9269012682983835"><ele>154.5</ele><time>2026-04-01T15:37:41.999Z</time></trkpt><trkpt lat="42.34924759842217" lon="-7.926589783922959"><ele>153.0</ele><time>2026-04-01T15:37:42.999Z</time></trkpt><trkpt lat="42.34925185180081" lon="-7.926273513083744"><ele>153.0</ele><time>2026-04-01T15:37:43.999Z</time></trkpt><trkpt lat="42.349226130122474" lon="-7.925957000870945"><ele>153.0</ele><time>2026-04-01T15:37:44.999Z</time></trkpt><trkpt lat="42.34917459134414" lon="-7.9256400651155205"><ele>156.0</ele><time>2026-04-01T15:37:45.999Z</time></trkpt><trkpt lat="42.3491019037964" lon="-7.925331648040981"><ele>159.0</ele><time>2026-04-01T15:37:46.999Z</time></trkpt><trkpt lat="42.3490189075259" lon="-7.925028009187921"><ele>155.0</ele><time>2026-04-01T15:37:47.999Z</time></trkpt><trkpt lat="42.34893508833201" lon="-7.924724708309184"><ele>151.0</ele><time>2026-04-01T15:37:49Z</time></trkpt><trkpt lat="42.34886241058939" lon="-7.9244215704727505"><ele>151.66666666666669</ele><time>2026-04-01T15:37:50Z</time></trkpt><trkpt lat="42.34880786846356" lon="-7.9241417736039095"><ele>152.33333333333334</ele><time>2026-04-01T15:37:51Z</time></trkpt><trkpt lat="42.34876315823908" lon="-7.923848291193556"><ele>153.0</ele><time>2026-04-01T15:37:52Z</time></trkpt><trkpt lat="42.3487405043489" lon="-7.923554285894631"><ele>152.66666666666666</ele><time>2026-04-01T15:37:53Z</time></trkpt><trkpt lat="42.34874115347523" lon="-7.9232538758664495"><ele>152.33333333333331</ele><time>2026-04-01T15:37:54Z</time></trkpt><trkpt lat="42.34875633097981" lon="-7.9229501305027386"><ele>152.0</ele><time>2026-04-01T15:37:55Z</time></trkpt><trkpt lat="42.34879160948907" lon="-7.922654657940315"><ele>151.66666666666666</ele><time>2026-04-01T15:37:56Z</time></trkpt><trkpt lat="42.34884129986611" lon="-7.922357735404141"><ele>151.33333333333334</ele><time>2026-04-01T15:37:57Z</time></trkpt><trkpt lat="42.34890201184602" lon="-7.922066799570411"><ele>151.0</ele><time>2026-04-01T15:37:58Z</time></trkpt><trkpt lat="42.348972545364575" lon="-7.921787212814524"><ele>149.66666666666669</ele><time>2026-04-01T15:37:59Z</time></trkpt><trkpt lat="42.34905946684477" lon="-7.921505903316868"><ele>148.33333333333334</ele><time>2026-04-01T15:38:00Z</time></trkpt><trkpt lat="42.349153281528686" lon="-7.921236228268356"><ele>147.0</ele><time>2026-04-01T15:38:01Z</time></trkpt><trkpt lat="42.34925296988273" lon="-7.920957415588613"><ele>144.5</ele><time>2026-04-01T15:38:02Z</time></trkpt><trkpt lat="42.34935382124306" lon="-7.920683479229899"><ele>142.0</ele><time>2026-04-01T15:38:03Z</time></trkpt><trkpt lat="42.34945666015073" lon="-7.920411910698368"><ele>142.0</ele><time>2026-04-01T15:38:04Z</time></trkpt><trkpt lat="42.3495660665111" lon="-7.920136352490299"><ele>142.0</ele><time>2026-04-01T15:38:05Z</time></trkpt><trkpt lat="42.34968202277112" lon="-7.919874169662948"><ele>141.5</ele><time>2026-04-01T15:38:06Z</time></trkpt><trkpt lat="42.349809527276406" lon="-7.919612261500873"><ele>141.0</ele><time>2026-04-01T15:38:07Z</time></trkpt><trkpt lat="42.349943408390985" lon="-7.91935449290926"><ele>139.66666666666666</ele><time>2026-04-01T15:38:08Z</time></trkpt><trkpt lat="42.35007384637831" lon="-7.919107878987805"><ele>138.33333333333331</ele><time>2026-04-01T15:38:09Z</time></trkpt><trkpt lat="42.35019630135227" lon="-7.91887915412337"><ele>137.0</ele><time>2026-04-01T15:38:10Z</time></trkpt><trkpt lat="42.35031236475127" lon="-7.918657102195312"><ele>137.0</ele><time>2026-04-01T15:38:11Z</time></trkpt><trkpt lat="42.350419756991535" lon="-7.918447270244004"><ele>137.0</ele><time>2026-04-01T15:38:12Z</time></trkpt><trkpt lat="42.35052253331343" lon="-7.918241206347066"><ele>137.0</ele><time>2026-04-01T15:38:13Z</time></trkpt><trkpt lat="42.35061791828675" lon="-7.918038123389126"><ele>135.66666666666666</ele><time>2026-04-01T15:38:14Z</time></trkpt><trkpt lat="42.35071039180544" lon="-7.9178354671593825"><ele>134.33333333333334</ele><time>2026-04-01T15:38:15Z</time></trkpt><trkpt lat="42.3507920489051" lon="-7.917641807265629"><ele>133.0</ele><time>2026-04-01T15:38:16Z</time></trkpt><trkpt lat="42.35086367204925" lon="-7.917441039352077"><ele>130.66666666666669</ele><time>2026-04-01T15:38:17Z</time></trkpt><trkpt lat="42.3509162574052" lon="-7.917230860130354"><ele>128.33333333333334</ele><time>2026-04-01T15:38:18Z</time></trkpt><trkpt lat="42.350953552078984" lon="-7.917011860973165"><ele>126.0</ele><time>2026-04-01T15:38:19Z</time></trkpt><trkpt lat="42.3509780250615" lon="-7.916784826590701"><ele>124.66666666666666</ele><time>2026-04-01T15:38:20Z</time></trkpt><trkpt lat="42.35099867099304" lon="-7.916549460017525"><ele>123.33333333333333</ele><time>2026-04-01T15:38:21Z</time></trkpt><trkpt lat="42.35101098061714" lon="-7.916310393035128"><ele>122.0</ele><time>2026-04-01T15:38:22Z</time></trkpt><trkpt lat="42.351023721993876" lon="-7.916069330944244"><ele>119.66666666666666</ele><time>2026-04-01T15:38:23Z</time></trkpt><trkpt lat="42.35104970563818" lon="-7.915821849685887"><ele>117.33333333333334</ele><time>2026-04-01T15:38:24Z</time></trkpt><trkpt lat="42.3510979298703" lon="-7.9155759167387165"><ele>115.0</ele><time>2026-04-01T15:38:25Z</time></trkpt><trkpt lat="42.35116834612436" lon="-7.915338177260183"><ele>115.0</ele><time>2026-04-01T15:38:26Z</time></trkpt><trkpt lat="42.35125731380315" lon="-7.915112891365476"><ele>115.0</ele><time>2026-04-01T15:38:27Z</time></trkpt><trkpt lat="42.35134666349594" lon="-7.914885407898286"><ele>115.0</ele><time>2026-04-01T15:38:28Z</time></trkpt><trkpt lat="42.35142369924483" lon="-7.914655115936044"><ele>116.0</ele><time>2026-04-01T15:38:29Z</time></trkpt><trkpt lat="42.35148766926467" lon="-7.914422009230387"><ele>117.0</ele><time>2026-04-01T15:38:30Z</time></trkpt><trkpt lat="42.351537183248595" lon="-7.914195781333085"><ele>118.0</ele><time>2026-04-01T15:38:31Z</time></trkpt><trkpt lat="42.35157556966431" lon="-7.913975981899297"><ele>114.0</ele><time>2026-04-01T15:38:32Z</time></trkpt><trkpt lat="42.35160673517638" lon="-7.913753442109214"><ele>110.0</ele><time>2026-04-01T15:38:33Z</time></trkpt><trkpt lat="42.35162406575689" lon="-7.913520742545334"><ele>106.0</ele><time>2026-04-01T15:38:34Z</time></trkpt><trkpt lat="42.351631781790175" lon="-7.913284151706496"><ele>104.66666666666667</ele><time>2026-04-01T15:38:35Z</time></trkpt><trkpt lat="42.35163084455861" lon="-7.913040376613904"><ele>103.33333333333334</ele><time>2026-04-01T15:38:36Z</time></trkpt><trkpt lat="42.3516266493641" lon="-7.912791572212908"><ele>102.0</ele><time>2026-04-01T15:38:37Z</time></trkpt><trkpt lat="42.35161669787576" lon="-7.912535131759826"><ele>100.66666666666666</ele><time>2026-04-01T15:38:38Z</time></trkpt><trkpt lat="42.351602134755296" lon="-7.9122669813062245"><ele>99.33333333333333</ele><time>2026-04-01T15:38:39Z</time></trkpt><trkpt lat="42.35158977297386" lon="-7.911987590934584"><ele>98.0</ele><time>2026-04-01T15:38:40Z</time></trkpt><trkpt lat="42.35159786381749" lon="-7.911709613739589"><ele>97.0</ele><time>2026-04-01T15:38:41Z</time></trkpt><trkpt lat="42.35163503431201" lon="-7.911427036766668"><ele>96.0</ele><time>2026-04-01T15:38:42Z</time></trkpt><trkpt lat="42.35169659858704" lon="-7.911148539067189"><ele>95.0</ele><time>2026-04-01T15:38:43Z</time></trkpt><trkpt lat="42.351767574037254" lon="-7.91087457671895"><ele>94.66666666666667</ele><time>2026-04-01T15:38:44Z</time></trkpt><trkpt lat="42.351824738848016" lon="-7.910619335112034"><ele>94.33333333333333</ele><time>2026-04-01T15:38:45Z</time></trkpt><trkpt lat="42.35186630295663" lon="-7.910400009590928"><ele>94.0</ele><time>2026-04-01T15:38:46Z</time></trkpt><trkpt lat="42.35190764026678" lon="-7.910184449067872"><ele>93.66666666666666</ele><time>2026-04-01T15:38:47Z</time></trkpt><trkpt lat="42.35194504444027" lon="-7.909979899269487"><ele>93.33333333333333</ele><time>2026-04-01T15:38:48Z</time></trkpt><trkpt lat="42.35197246198687" lon="-7.909778819006919"><ele>93.0</ele><time>2026-04-01T15:38:49Z</time></trkpt><trkpt lat="42.35199053224496" lon="-7.909585776503366"><ele>93.0</ele><time>2026-04-01T15:38:50Z</time></trkpt><trkpt lat="42.352006056293796" lon="-7.909400943422944"><ele>93.0</ele><time>2026-04-01T15:38:51Z</time></trkpt><trkpt lat="42.35201191837577" lon="-7.909225852362053"><ele>93.0</ele><time>2026-04-01T15:38:52Z</time></trkpt><trkpt lat="42.35201903168386" lon="-7.909044328046245"><ele>93.0</ele><time>2026-04-01T15:38:53Z</time></trkpt><trkpt lat="42.35203407638207" lon="-7.908854453470433"><ele>93.0</ele><time>2026-04-01T15:38:54Z</time></trkpt><trkpt lat="42.35205266650025" lon="-7.908648431355369"><ele>93.0</ele><time>2026-04-01T15:38:55Z</time></trkpt><trkpt lat="42.352075752953176" lon="-7.908441153066744"><ele>93.0</ele><time>2026-04-01T15:38:56Z</time></trkpt><trkpt lat="42.35208044647415" lon="-7.9082154638989115"><ele>93.0</ele><time>2026-04-01T15:38:57Z</time></trkpt><trkpt lat="42.3521053817585" lon="-7.907984378677188"><ele>93.0</ele><time>2026-04-01T15:38:58Z</time></trkpt><trkpt lat="42.352158766939915" lon="-7.907757554448066"><ele>93.0</ele><time>2026-04-01T15:38:59Z</time></trkpt><trkpt lat="42.35219912405376" lon="-7.907520502998902"><ele>95.0</ele><time>2026-04-01T15:39:00Z</time></trkpt><trkpt lat="42.35224043685272" lon="-7.9072810776338445"><ele>97.0</ele><time>2026-04-01T15:39:01Z</time></trkpt><trkpt lat="42.352296922173934" lon="-7.90703349532041"><ele>99.0</ele><time>2026-04-01T15:39:02Z</time></trkpt><trkpt lat="42.35236639071406" lon="-7.906782670224447"><ele>98.33333333333334</ele><time>2026-04-01T15:39:03Z</time></trkpt><trkpt lat="42.35244419284676" lon="-7.906537016207841"><ele>97.66666666666667</ele><time>2026-04-01T15:39:04Z</time></trkpt><trkpt lat="42.35253704467693" lon="-7.90629922174244"><ele>97.0</ele><time>2026-04-01T15:39:05Z</time></trkpt><trkpt lat="42.352637417657085" lon="-7.906056479976865"><ele>96.33333333333334</ele><time>2026-04-01T15:39:06Z</time></trkpt><trkpt lat="42.35275454703255" lon="-7.905819504278483"><ele>95.66666666666667</ele><time>2026-04-01T15:39:07Z</time></trkpt><trkpt lat="42.35287859492998" lon="-7.905583719807282"><ele>95.0</ele><time>2026-04-01T15:39:08Z</time></trkpt><trkpt lat="42.35300060322877" lon="-7.905355485952577"><ele>96.0</ele><time>2026-04-01T15:39:09Z</time></trkpt><trkpt lat="42.353122467461986" lon="-7.905129141289743"><ele>97.0</ele><time>2026-04-01T15:39:10Z</time></trkpt><trkpt lat="42.3532441625935" lon="-7.904896082965133"><ele>98.0</ele><time>2026-04-01T15:39:11Z</time></trkpt><trkpt lat="42.35335603384443" lon="-7.904650485820131"><ele>98.0</ele><time>2026-04-01T15:39:12Z</time></trkpt><trkpt lat="42.353451503125264" lon="-7.904391964262672"><ele>98.0</ele><time>2026-04-01T15:39:13Z</time></trkpt><trkpt lat="42.35353263355603" lon="-7.904120024835611"><ele>98.0</ele><time>2026-04-01T15:39:14Z</time></trkpt><trkpt lat="42.35359748215965" lon="-7.903834393605465"><ele>97.66666666666666</ele><time>2026-04-01T15:39:15Z</time></trkpt><trkpt lat="42.353643674984916" lon="-7.90354287844437"><ele>97.33333333333334</ele><time>2026-04-01T15:39:16Z</time></trkpt><trkpt lat="42.353676312815395" lon="-7.903245007966045"><ele>97.0</ele><time>2026-04-01T15:39:17Z</time></trkpt><trkpt lat="42.35369208480894" lon="-7.902938484737528"><ele>97.0</ele><time>2026-04-01T15:39:18Z</time></trkpt><trkpt lat="42.3537027615346" lon="-7.902633743300962"><ele>97.0</ele><time>2026-04-01T15:39:19Z</time></trkpt><trkpt lat="42.35371397122734" lon="-7.902342344939223"><ele>97.0</ele><time>2026-04-01T15:39:20Z</time></trkpt><trkpt lat="42.35373263632944" lon="-7.902027866007429"><ele>96.0</ele><time>2026-04-01T15:39:21Z</time></trkpt><trkpt lat="42.353756624686106" lon="-7.901718483028832"><ele>95.0</ele><time>2026-04-01T15:39:22Z</time></trkpt><trkpt lat="42.35379214998709" lon="-7.901414162917782"><ele>95.0</ele><time>2026-04-01T15:39:23Z</time></trkpt><trkpt lat="42.353839264915585" lon="-7.901109684461481"><ele>95.0</ele><time>2026-04-01T15:39:24Z</time></trkpt><trkpt lat="42.35389560596287" lon="-7.900805013184903"><ele>97.0</ele><time>2026-04-01T15:39:25Z</time></trkpt><trkpt lat="42.35395463315433" lon="-7.9004978499781915"><ele>99.0</ele><time>2026-04-01T15:39:26Z</time></trkpt><trkpt lat="42.3540085885427" lon="-7.900189859534968"><ele>98.0</ele><time>2026-04-01T15:39:27Z</time></trkpt><trkpt lat="42.3540710053138" lon="-7.899877414597162"><ele>97.0</ele><time>2026-04-01T15:39:28Z</time></trkpt><trkpt lat="42.35413356035482" lon="-7.899564789549355"><ele>96.0</ele><time>2026-04-01T15:39:29Z</time></trkpt><trkpt lat="42.354182972378574" lon="-7.8992500442259885"><ele>95.0</ele><time>2026-04-01T15:39:30Z</time></trkpt><trkpt lat="42.35423686446355" lon="-7.898931142710498"><ele>95.0</ele><time>2026-04-01T15:39:31Z</time></trkpt><trkpt lat="42.35429363768169" lon="-7.898618413135081"><ele>95.0</ele><time>2026-04-01T15:39:32Z</time></trkpt><trkpt lat="42.35436415598383" lon="-7.898303562454906"><ele>95.0</ele><time>2026-04-01T15:39:33Z</time></trkpt><trkpt lat="42.354423172009" lon="-7.897987420177985"><ele>95.0</ele><time>2026-04-01T15:39:34Z</time></trkpt><trkpt lat="42.35446692421467" lon="-7.8976683097683065"><ele>95.0</ele><time>2026-04-01T15:39:35Z</time></trkpt><trkpt lat="42.354503416307324" lon="-7.89734148651169"><ele>95.0</ele><time>2026-04-01T15:39:36Z</time></trkpt><trkpt lat="42.35454814133454" lon="-7.897023622301276"><ele>95.0</ele><time>2026-04-01T15:39:37Z</time></trkpt><trkpt lat="42.35459655841242" lon="-7.89670410597164"><ele>95.0</ele><time>2026-04-01T15:39:38Z</time></trkpt><trkpt lat="42.35464367666119" lon="-7.896378897722281"><ele>95.0</ele><time>2026-04-01T15:39:39Z</time></trkpt><trkpt lat="42.35468136672689" lon="-7.896055460022868"><ele>95.0</ele><time>2026-04-01T15:39:40Z</time></trkpt><trkpt lat="42.35471688240472" lon="-7.895727383957615"><ele>98.0</ele><time>2026-04-01T15:39:41Z</time></trkpt><trkpt lat="42.354747988112315" lon="-7.895398650796952"><ele>101.0</ele><time>2026-04-01T15:39:42Z</time></trkpt><trkpt lat="42.354775344280725" lon="-7.8950715906086595"><ele>101.0</ele><time>2026-04-01T15:39:43Z</time></trkpt><trkpt lat="42.354794882513595" lon="-7.8947743380316595"><ele>101.0</ele><time>2026-04-01T15:39:43.999Z</time></trkpt><trkpt lat="42.354801233482725" lon="-7.894488640962841"><ele>101.0</ele><time>2026-04-01T15:39:44.999Z</time></trkpt><trkpt lat="42.35479909810616" lon="-7.894189264932997"><ele>100.5</ele><time>2026-04-01T15:39:46Z</time></trkpt><trkpt lat="42.354794018494374" lon="-7.893864431676555"><ele>100.0</ele><time>2026-04-01T15:39:47Z</time></trkpt><trkpt lat="42.35479142380576" lon="-7.893562330335071"><ele>100.0</ele><time>2026-04-01T15:39:48Z</time></trkpt><trkpt lat="42.354783286386514" lon="-7.893247659748341"><ele>100.0</ele><time>2026-04-01T15:39:49Z</time></trkpt><trkpt lat="42.35476576533286" lon="-7.892929267609172"><ele>100.0</ele><time>2026-04-01T15:39:50Z</time></trkpt><trkpt lat="42.35474714500692" lon="-7.892609414659207"><ele>100.0</ele><time>2026-04-01T15:39:51Z</time></trkpt><trkpt lat="42.35472295515171" lon="-7.8922880678728955"><ele>98.5</ele><time>2026-04-01T15:39:52Z</time></trkpt><trkpt lat="42.35469720974777" lon="-7.891968514305385"><ele>97.0</ele><time>2026-04-01T15:39:53Z</time></trkpt><trkpt lat="42.354677427297496" lon="-7.891641715077804"><ele>97.0</ele><time>2026-04-01T15:39:54Z</time></trkpt><trkpt lat="42.35465822967392" lon="-7.891316544362087"><ele>97.0</ele><time>2026-04-01T15:39:55Z</time></trkpt><trkpt lat="42.35464640312476" lon="-7.890987765951799"><ele>98.5</ele><time>2026-04-01T15:39:56Z</time></trkpt><trkpt lat="42.354629080607566" lon="-7.890655629922695"><ele>100.0</ele><time>2026-04-01T15:39:57Z</time></trkpt><trkpt lat="42.354614035291924" lon="-7.890325947480244"><ele>99.0</ele><time>2026-04-01T15:39:58Z</time></trkpt><trkpt lat="42.35459395948009" lon="-7.889993399689862"><ele>98.0</ele><time>2026-04-01T15:39:59Z</time></trkpt><trkpt lat="42.35457366991058" lon="-7.889662732193211"><ele>98.0</ele><time>2026-04-01T15:40:00Z</time></trkpt><trkpt lat="42.354555589438895" lon="-7.8893316043729715"><ele>98.0</ele><time>2026-04-01T15:40:01Z</time></trkpt><trkpt lat="42.35454592869387" lon="-7.889003457987666"><ele>99.0</ele><time>2026-04-01T15:40:02Z</time></trkpt><trkpt lat="42.35453925221722" lon="-7.8886796740328355"><ele>100.0</ele><time>2026-04-01T15:40:03Z</time></trkpt><trkpt lat="42.35453753571882" lon="-7.888342710595472"><ele>100.0</ele><time>2026-04-01T15:40:04Z</time></trkpt><trkpt lat="42.3545242305569" lon="-7.888023213237554"><ele>100.0</ele><time>2026-04-01T15:40:05Z</time></trkpt><trkpt lat="42.35450621579811" lon="-7.887694546409582"><ele>100.0</ele><time>2026-04-01T15:40:06Z</time></trkpt><trkpt lat="42.3544758999802" lon="-7.887372194901995"><ele>100.0</ele><time>2026-04-01T15:40:07Z</time></trkpt><trkpt lat="42.35443500011619" lon="-7.887047318539262"><ele>101.5</ele><time>2026-04-01T15:40:08Z</time></trkpt><trkpt lat="42.35437373869498" lon="-7.886732281306895"><ele>103.0</ele><time>2026-04-01T15:40:09Z</time></trkpt><trkpt lat="42.35429602412535" lon="-7.886418128432315"><ele>103.0</ele><time>2026-04-01T15:40:10Z</time></trkpt><trkpt lat="42.35420123436557" lon="-7.886118651061123"><ele>103.0</ele><time>2026-04-01T15:40:11Z</time></trkpt><trkpt lat="42.3540910778408" lon="-7.8858289282856635"><ele>104.5</ele><time>2026-04-01T15:40:12Z</time></trkpt><trkpt lat="42.353974480218625" lon="-7.885549888211855"><ele>106.0</ele><time>2026-04-01T15:40:13Z</time></trkpt><trkpt lat="42.3538510902393" lon="-7.885269790359792"><ele>103.0</ele><time>2026-04-01T15:40:14Z</time></trkpt><trkpt lat="42.353732939866696" lon="-7.8849846686031695"><ele>100.0</ele><time>2026-04-01T15:40:15Z</time></trkpt><trkpt lat="42.35361823471118" lon="-7.884701798362066"><ele>100.0</ele><time>2026-04-01T15:40:16Z</time></trkpt><trkpt lat="42.353505913484" lon="-7.884417275859334"><ele>100.0</ele><time>2026-04-01T15:40:17Z</time></trkpt><trkpt lat="42.353392421477636" lon="-7.884133187448138"><ele>103.5</ele><time>2026-04-01T15:40:18Z</time></trkpt><trkpt lat="42.35327907971469" lon="-7.883848495842346"><ele>107.0</ele><time>2026-04-01T15:40:19Z</time></trkpt><trkpt lat="42.353174132080795" lon="-7.883557664083581"><ele>109.0</ele><time>2026-04-01T15:40:20Z</time></trkpt><trkpt lat="42.35307991074436" lon="-7.88326311794275"><ele>111.0</ele><time>2026-04-01T15:40:21Z</time></trkpt><trkpt lat="42.35298944745281" lon="-7.882966289071888"><ele>107.5</ele><time>2026-04-01T15:40:22Z</time></trkpt><trkpt lat="42.3529064430389" lon="-7.8826645302646785"><ele>104.0</ele><time>2026-04-01T15:40:23Z</time></trkpt><trkpt lat="42.35284141898143" lon="-7.882384143708801"><ele>104.0</ele><time>2026-04-01T15:40:24Z</time></trkpt><trkpt lat="42.352781205867785" lon="-7.882124458181909"><ele>104.0</ele><time>2026-04-01T15:40:25Z</time></trkpt><trkpt lat="42.35271510706459" lon="-7.881879031773952"><ele>104.0</ele><time>2026-04-01T15:40:26Z</time></trkpt><trkpt lat="42.35264786056316" lon="-7.881650650319138"><ele>105.33333333333333</ele><time>2026-04-01T15:40:27Z</time></trkpt><trkpt lat="42.35258016150022" lon="-7.881434847788753"><ele>106.66666666666666</ele><time>2026-04-01T15:40:28Z</time></trkpt><trkpt lat="42.35250314887588" lon="-7.881223643269924"><ele>108.0</ele><time>2026-04-01T15:40:29Z</time></trkpt><trkpt lat="42.352410713374894" lon="-7.881024641017217"><ele>108.33333333333334</ele><time>2026-04-01T15:40:30Z</time></trkpt><trkpt lat="42.352310653558405" lon="-7.880839089299619"><ele>108.66666666666667</ele><time>2026-04-01T15:40:31Z</time></trkpt><trkpt lat="42.352201202320146" lon="-7.880659007889664"><ele>109.0</ele><time>2026-04-01T15:40:32Z</time></trkpt><trkpt lat="42.35208596510732" lon="-7.8804893556494315"><ele>109.66666666666667</ele><time>2026-04-01T15:40:33Z</time></trkpt><trkpt lat="42.3519667982635" lon="-7.880324983675588"><ele>110.33333333333334</ele><time>2026-04-01T15:40:34Z</time></trkpt><trkpt lat="42.3518418315911" lon="-7.8801669854424246"><ele>111.0</ele><time>2026-04-01T15:40:35Z</time></trkpt><trkpt lat="42.35171372944706" lon="-7.880017298838086"><ele>111.0</ele><time>2026-04-01T15:40:36Z</time></trkpt><trkpt lat="42.35158205518502" lon="-7.879870419598553"><ele>111.0</ele><time>2026-04-01T15:40:37Z</time></trkpt><trkpt lat="42.35145232925232" lon="-7.879731040441215"><ele>111.0</ele><time>2026-04-01T15:40:38Z</time></trkpt><trkpt lat="42.35132751265349" lon="-7.879587092897626"><ele>112.0</ele><time>2026-04-01T15:40:39Z</time></trkpt><trkpt lat="42.3512173096621" lon="-7.879443062683522"><ele>113.0</ele><time>2026-04-01T15:40:40Z</time></trkpt><trkpt lat="42.35110208834798" lon="-7.879319470661888"><ele>114.0</ele><time>2026-04-01T15:40:41Z</time></trkpt><trkpt lat="42.350994894931944" lon="-7.879198075642192"><ele>115.0</ele><time>2026-04-01T15:40:42Z</time></trkpt><trkpt lat="42.35090152465122" lon="-7.879071155279004"><ele>115.0</ele><time>2026-04-01T15:40:43Z</time></trkpt><trkpt lat="42.35081843095603" lon="-7.878942220496405"><ele>115.0</ele><time>2026-04-01T15:40:44Z</time></trkpt><trkpt lat="42.350754855454646" lon="-7.878787217800121"><ele>115.0</ele><time>2026-04-01T15:40:45Z</time></trkpt><trkpt lat="42.35071862618655" lon="-7.878617163576861"><ele>115.0</ele><time>2026-04-01T15:40:46Z</time></trkpt><trkpt lat="42.350702738281704" lon="-7.878425317127139"><ele>116.75</ele><time>2026-04-01T15:40:47Z</time></trkpt><trkpt lat="42.35071196885584" lon="-7.878237911524433"><ele>118.5</ele><time>2026-04-01T15:40:48Z</time></trkpt><trkpt lat="42.35074019706227" lon="-7.878054155916063"><ele>120.25</ele><time>2026-04-01T15:40:49Z</time></trkpt><trkpt lat="42.35075378866864" lon="-7.877880923643499"><ele>122.0</ele><time>2026-04-01T15:40:50Z</time></trkpt><trkpt lat="42.35075767506333" lon="-7.8777195549002235"><ele>122.8</ele><time>2026-04-01T15:40:51Z</time></trkpt><trkpt lat="42.35075288144591" lon="-7.8775779576448475"><ele>123.6</ele><time>2026-04-01T15:40:52Z</time></trkpt><trkpt lat="42.35071951064977" lon="-7.877443863929959"><ele>124.39999999999999</ele><time>2026-04-01T15:40:53Z</time></trkpt><trkpt lat="42.35064812768772" lon="-7.877341838240155"><ele>125.19999999999999</ele><time>2026-04-01T15:40:54Z</time></trkpt><trkpt lat="42.35054567330683" lon="-7.877286085737778"><ele>126.0</ele><time>2026-04-01T15:40:55Z</time></trkpt><trkpt lat="42.350436098021895" lon="-7.877311066000708"><ele>126.0</ele><time>2026-04-01T15:40:56Z</time></trkpt><trkpt lat="42.35033693571048" lon="-7.877401444779125"><ele>126.0</ele><time>2026-04-01T15:40:57Z</time></trkpt><trkpt lat="42.35027810029344" lon="-7.877526452627783"><ele>126.0</ele><time>2026-04-01T15:40:58Z</time></trkpt><trkpt lat="42.35026261234088" lon="-7.877652305391702"><ele>126.0</ele><time>2026-04-01T15:40:59Z</time></trkpt><trkpt lat="42.35028738695299" lon="-7.877754901627247"><ele>126.0</ele><time>2026-04-01T15:41:00Z</time></trkpt><trkpt lat="42.35039730663385" lon="-7.877817578301104"><ele>125.19999999999999</ele><time>2026-04-01T15:41:02Z</time></trkpt><trkpt lat="42.350465714764454" lon="-7.877818866652712"><ele>124.39999999999999</ele><time>2026-04-01T15:41:03Z</time></trkpt><trkpt lat="42.35055029512355" lon="-7.877866654974123"><ele>123.6</ele><time>2026-04-01T15:41:04Z</time></trkpt><trkpt lat="42.35065706314622" lon="-7.877873852152121"><ele>122.8</ele><time>2026-04-01T15:41:05Z</time></trkpt><trkpt lat="42.35077488354028" lon="-7.877861767646877"><ele>122.0</ele><time>2026-04-01T15:41:06Z</time></trkpt><trkpt lat="42.350891476276374" lon="-7.877886683545402"><ele>122.0</ele><time>2026-04-01T15:41:07Z</time></trkpt><trkpt lat="42.350993801889835" lon="-7.877885361743699"><ele>121.99999999999999</ele><time>2026-04-01T15:41:08Z</time></trkpt><trkpt lat="42.35108880951181" lon="-7.877889780442629"><ele>121.99999999999999</ele><time>2026-04-01T15:41:09Z</time></trkpt><trkpt lat="42.351179994149064" lon="-7.877878814955299"><ele>122.0</ele><time>2026-04-01T15:41:10Z</time></trkpt><trkpt lat="42.351271516474974" lon="-7.877901125899333"><ele>122.0</ele><time>2026-04-01T15:41:11Z</time></trkpt><trkpt lat="42.351371797595974" lon="-7.877905232769688"><ele>123.0</ele><time>2026-04-01T15:41:12Z</time></trkpt><trkpt lat="42.35147789191614" lon="-7.877862119785214"><ele>124.0</ele><time>2026-04-01T15:41:13Z</time></trkpt><trkpt lat="42.3515996233027" lon="-7.877873606763296"><ele>125.0</ele><time>2026-04-01T15:41:14Z</time></trkpt><trkpt lat="42.35173108208411" lon="-7.877879782736389"><ele>126.0</ele><time>2026-04-01T15:41:15Z</time></trkpt><trkpt lat="42.351844013177974" lon="-7.877892760468609"><ele>126.0</ele><time>2026-04-01T15:41:16Z</time></trkpt><trkpt lat="42.35194969056718" lon="-7.877906883376475"><ele>126.0</ele><time>2026-04-01T15:41:17Z</time></trkpt><trkpt lat="42.35204015884101" lon="-7.877913712429387"><ele>126.0</ele><time>2026-04-01T15:41:18Z</time></trkpt><trkpt lat="42.352130092693706" lon="-7.877913305173714"><ele>126.0</ele><time>2026-04-01T15:41:19Z</time></trkpt><trkpt lat="42.35220054962444" lon="-7.877913006299694"><ele>126.0</ele><time>2026-04-01T15:41:20Z</time></trkpt><trkpt lat="42.35228261056953" lon="-7.8780020252750464"><ele>125.25</ele><time>2026-04-01T15:41:21Z</time></trkpt><trkpt lat="42.352393894330234" lon="-7.878003209770907"><ele>124.5</ele><time>2026-04-01T15:41:22Z</time></trkpt><trkpt lat="42.352517894498355" lon="-7.878039748782336"><ele>123.75</ele><time>2026-04-01T15:41:23Z</time></trkpt><trkpt lat="42.35263756999917" lon="-7.878051835908647"><ele>123.0</ele><time>2026-04-01T15:41:24Z</time></trkpt><trkpt lat="42.35274076275908" lon="-7.878065014348142"><ele>123.0</ele><time>2026-04-01T15:41:25Z</time></trkpt><trkpt lat="42.35283473706146" lon="-7.878074230129136"><ele>123.00000000000001</ele><time>2026-04-01T15:41:26Z</time></trkpt><trkpt lat="42.35292300882468" lon="-7.878077034757692"><ele>123.00000000000001</ele><time>2026-04-01T15:41:27Z</time></trkpt><trkpt lat="42.35300739004091" lon="-7.878054336042942"><ele>123.0</ele><time>2026-04-01T15:41:28Z</time></trkpt><trkpt lat="42.35309842116534" lon="-7.878050896719362"><ele>123.0</ele><time>2026-04-01T15:41:29Z</time></trkpt><trkpt lat="42.35318685836166" lon="-7.878000069395782"><ele>123.75</ele><time>2026-04-01T15:41:30Z</time></trkpt><trkpt lat="42.35328289076461" lon="-7.87801927436456"><ele>124.5</ele><time>2026-04-01T15:41:31Z</time></trkpt><trkpt lat="42.35337368480924" lon="-7.878085657955631"><ele>125.25</ele><time>2026-04-01T15:41:32Z</time></trkpt><trkpt lat="42.353461382639196" lon="-7.878195781764334"><ele>126.0</ele><time>2026-04-01T15:41:33Z</time></trkpt><trkpt lat="42.35356546618912" lon="-7.878304371432217"><ele>126.0</ele><time>2026-04-01T15:41:34Z</time></trkpt><trkpt lat="42.35370821953362" lon="-7.878377669084511"><ele>126.0</ele><time>2026-04-01T15:41:35Z</time></trkpt><trkpt lat="42.353847033230096" lon="-7.8784422847472815"><ele>126.0</ele><time>2026-04-01T15:41:36Z</time></trkpt><trkpt lat="42.3539910670367" lon="-7.878536664062534"><ele>124.66666666666666</ele><time>2026-04-01T15:41:37Z</time></trkpt><trkpt lat="42.35413931301683" lon="-7.878642116717971"><ele>123.33333333333333</ele><time>2026-04-01T15:41:38Z</time></trkpt><trkpt lat="42.35429108173842" lon="-7.878756360460218"><ele>122.0</ele><time>2026-04-01T15:41:39Z</time></trkpt><trkpt lat="42.35443735461757" lon="-7.878885228784645"><ele>122.0</ele><time>2026-04-01T15:41:40Z</time></trkpt><trkpt lat="42.35456695166374" lon="-7.879024729691931"><ele>122.0</ele><time>2026-04-01T15:41:41Z</time></trkpt><trkpt lat="42.35468241508773" lon="-7.879166368379541"><ele>122.0</ele><time>2026-04-01T15:41:42Z</time></trkpt><trkpt lat="42.35479075676849" lon="-7.879307260096579"><ele>122.25</ele><time>2026-04-01T15:41:43Z</time></trkpt><trkpt lat="42.354883011944864" lon="-7.879447938099561"><ele>122.5</ele><time>2026-04-01T15:41:44Z</time></trkpt><trkpt lat="42.354962099394335" lon="-7.879591553875511"><ele>122.75</ele><time>2026-04-01T15:41:45Z</time></trkpt><trkpt lat="42.35502512330551" lon="-7.879734759361069"><ele>123.0</ele><time>2026-04-01T15:41:46Z</time></trkpt><trkpt lat="42.355088566953846" lon="-7.87987595234741"><ele>123.0</ele><time>2026-04-01T15:41:47Z</time></trkpt><trkpt lat="42.35511244644478" lon="-7.879996636293613"><ele>123.0</ele><time>2026-04-01T15:41:48Z</time></trkpt><trkpt lat="42.35516123461868" lon="-7.88010935286748"><ele>123.0</ele><time>2026-04-01T15:41:49Z</time></trkpt><trkpt lat="42.35521622594073" lon="-7.880184575978074"><ele>123.0</ele><time>2026-04-01T15:41:50Z</time></trkpt><trkpt lat="42.355246417873374" lon="-7.880270228597265"><ele>123.0</ele><time>2026-04-01T15:41:52Z</time></trkpt><trkpt lat="42.35528044010642" lon="-7.880369408967855"><ele>123.0</ele><time>2026-04-01T15:41:56Z</time></trkpt><trkpt lat="42.355324983944385" lon="-7.880556711143489"><ele>123.25</ele><time>2026-04-01T15:42:10Z</time></trkpt><trkpt lat="42.35536006991838" lon="-7.880700306022576"><ele>123.5</ele><time>2026-04-01T15:42:11Z</time></trkpt><trkpt lat="42.35539666394912" lon="-7.8808499955312765"><ele>123.75</ele><time>2026-04-01T15:42:12Z</time></trkpt><trkpt lat="42.355428104831105" lon="-7.881021717140217"><ele>124.0</ele><time>2026-04-01T15:42:13Z</time></trkpt><trkpt lat="42.35545188680533" lon="-7.881199963558044"><ele>125.0</ele><time>2026-04-01T15:42:14Z</time></trkpt><trkpt lat="42.35547740821739" lon="-7.881388081797157"><ele>126.0</ele><time>2026-04-01T15:42:15Z</time></trkpt><trkpt lat="42.355501533469194" lon="-7.881582455802261"><ele>127.0</ele><time>2026-04-01T15:42:16Z</time></trkpt><trkpt lat="42.355516460445486" lon="-7.881788324731318"><ele>128.0</ele><time>2026-04-01T15:42:17Z</time></trkpt><trkpt lat="42.355521694044256" lon="-7.8820093469540025"><ele>128.0</ele><time>2026-04-01T15:42:18Z</time></trkpt><trkpt lat="42.35552344391723" lon="-7.882233600511008"><ele>128.0</ele><time>2026-04-01T15:42:19Z</time></trkpt><trkpt lat="42.355528650253014" lon="-7.882459318933353"><ele>128.0</ele><time>2026-04-01T15:42:20Z</time></trkpt><trkpt lat="42.355534532563986" lon="-7.882664516758786"><ele>128.5</ele><time>2026-04-01T15:42:21Z</time></trkpt><trkpt lat="42.355544001333406" lon="-7.882862554963568"><ele>129.0</ele><time>2026-04-01T15:42:22Z</time></trkpt><trkpt lat="42.35555078118022" lon="-7.883053665330987"><ele>129.5</ele><time>2026-04-01T15:42:23Z</time></trkpt><trkpt lat="42.355556001078135" lon="-7.883242593769434"><ele>130.0</ele><time>2026-04-01T15:42:24Z</time></trkpt><trkpt lat="42.3555659820912" lon="-7.883379031087309"><ele>129.5</ele><time>2026-04-01T15:42:25Z</time></trkpt><trkpt lat="42.35556466650617" lon="-7.883507750456017"><ele>129.0</ele><time>2026-04-01T15:42:26Z</time></trkpt><trkpt lat="42.35556975040696" lon="-7.883655173153332"><ele>128.5</ele><time>2026-04-01T15:42:27Z</time></trkpt><trkpt lat="42.355569160904516" lon="-7.88384080469342"><ele>128.0</ele><time>2026-04-01T15:42:28Z</time></trkpt><trkpt lat="42.35557798715627" lon="-7.884061736939418"><ele>127.33333333333333</ele><time>2026-04-01T15:42:29Z</time></trkpt><trkpt lat="42.35558546364104" lon="-7.88427972441506"><ele>126.66666666666666</ele><time>2026-04-01T15:42:30Z</time></trkpt><trkpt lat="42.35558857072929" lon="-7.8845145423597955"><ele>126.0</ele><time>2026-04-01T15:42:31Z</time></trkpt><trkpt lat="42.35558793539135" lon="-7.884760443087409"><ele>126.0</ele><time>2026-04-01T15:42:32Z</time></trkpt><trkpt lat="42.355592034246435" lon="-7.884991267403254"><ele>126.0</ele><time>2026-04-01T15:42:33Z</time></trkpt><trkpt lat="42.3556004948575" lon="-7.88520027168512"><ele>126.0</ele><time>2026-04-01T15:42:34Z</time></trkpt><trkpt lat="42.35560465578718" lon="-7.885374659302464"><ele>125.75</ele><time>2026-04-01T15:42:35Z</time></trkpt><trkpt lat="42.355612953543435" lon="-7.885537672601611"><ele>125.5</ele><time>2026-04-01T15:42:36Z</time></trkpt><trkpt lat="42.35561668351539" lon="-7.885690728144833"><ele>125.25</ele><time>2026-04-01T15:42:37Z</time></trkpt><trkpt lat="42.35561659904922" lon="-7.885852580317842"><ele>125.0</ele><time>2026-04-01T15:42:38Z</time></trkpt><trkpt lat="42.35561895516089" lon="-7.886022570408575"><ele>124.0</ele><time>2026-04-01T15:42:39Z</time></trkpt><trkpt lat="42.35562051167148" lon="-7.886205825514974"><ele>123.0</ele><time>2026-04-01T15:42:40Z</time></trkpt><trkpt lat="42.35562467097999" lon="-7.886387435383389"><ele>122.0</ele><time>2026-04-01T15:42:41Z</time></trkpt><trkpt lat="42.355630180203974" lon="-7.886557141794753"><ele>121.0</ele><time>2026-04-01T15:42:42Z</time></trkpt><trkpt lat="42.355631254521285" lon="-7.886696982967066"><ele>121.0</ele><time>2026-04-01T15:42:43Z</time></trkpt><trkpt lat="42.35563432893642" lon="-7.886801819267881"><ele>121.0</ele><time>2026-04-01T15:42:44Z</time></trkpt><trkpt lat="42.355658972578105" lon="-7.886916158610343"><ele>121.0</ele><time>2026-04-01T15:42:46Z</time></trkpt><trkpt lat="42.3556654548724" lon="-7.887071008308434"><ele>121.0</ele><time>2026-04-01T15:43:23Z</time></trkpt><trkpt lat="42.35566377218339" lon="-7.887185983917832"><ele>121.0</ele><time>2026-04-01T15:43:24Z</time></trkpt><trkpt lat="42.355665784029824" lon="-7.887319166366141"><ele>121.0</ele><time>2026-04-01T15:43:25Z</time></trkpt><trkpt lat="42.35566912466627" lon="-7.887445867820155"><ele>121.0</ele><time>2026-04-01T15:43:26Z</time></trkpt><trkpt lat="42.35567280296625" lon="-7.8875719852927935"><ele>121.0</ele><time>2026-04-01T15:43:27Z</time></trkpt><trkpt lat="42.355675870419454" lon="-7.887701787915571"><ele>121.0</ele><time>2026-04-01T15:43:28Z</time></trkpt><trkpt lat="42.35568065902832" lon="-7.887831097624911"><ele>121.0</ele><time>2026-04-01T15:43:29Z</time></trkpt><trkpt lat="42.35568219041546" lon="-7.8879639131335635"><ele>120.0</ele><time>2026-04-01T15:43:30Z</time></trkpt><trkpt lat="42.355685220258344" lon="-7.8880903597888326"><ele>119.0</ele><time>2026-04-01T15:43:31Z</time></trkpt><trkpt lat="42.355684961034534" lon="-7.888225163803011"><ele>118.0</ele><time>2026-04-01T15:43:32Z</time></trkpt><trkpt lat="42.35568587262095" lon="-7.888349983020558"><ele>117.0</ele><time>2026-04-01T15:43:33Z</time></trkpt><trkpt lat="42.355688087663545" lon="-7.888462628413527"><ele>116.0</ele><time>2026-04-01T15:43:34Z</time></trkpt><trkpt lat="42.35568980004606" lon="-7.8885765584066885"><ele>115.6</ele><time>2026-04-01T15:43:35Z</time></trkpt><trkpt lat="42.355696762095185" lon="-7.888686720873376"><ele>115.19999999999999</ele><time>2026-04-01T15:43:36Z</time></trkpt><trkpt lat="42.35570130580473" lon="-7.888795955890768"><ele>114.80000000000001</ele><time>2026-04-01T15:43:37Z</time></trkpt><trkpt lat="42.355703298069486" lon="-7.888892449706652"><ele>114.4</ele><time>2026-04-01T15:43:38Z</time></trkpt><trkpt lat="42.35570669630568" lon="-7.889052640806792"><ele>114.0</ele><time>2026-04-01T15:43:40Z</time></trkpt><trkpt lat="42.35571202579538" lon="-7.889230322907489"><ele>113.83333333333333</ele><time>2026-04-01T15:43:42.001Z</time></trkpt><trkpt lat="42.35571125388757" lon="-7.889326323692734"><ele>113.66666666666666</ele><time>2026-04-01T15:43:43.001Z</time></trkpt><trkpt lat="42.35571468326727" lon="-7.889423829266821"><ele>113.5</ele><time>2026-04-01T15:43:44.001Z</time></trkpt><trkpt lat="42.355715892762035" lon="-7.889523522635327"><ele>113.33333333333333</ele><time>2026-04-01T15:43:45.001Z</time></trkpt><trkpt lat="42.355718245881114" lon="-7.889628817456431"><ele>113.16666666666666</ele><time>2026-04-01T15:43:46.001Z</time></trkpt><trkpt lat="42.355720428710946" lon="-7.889744144554256"><ele>113.0</ele><time>2026-04-01T15:43:47.001Z</time></trkpt><trkpt lat="42.35572608396864" lon="-7.889857839637749"><ele>112.99999999999999</ele><time>2026-04-01T15:43:48.001Z</time></trkpt><trkpt lat="42.35572669227" lon="-7.889975622816938"><ele>113.0</ele><time>2026-04-01T15:43:49.001Z</time></trkpt><trkpt lat="42.355732511460594" lon="-7.890080660245055"><ele>113.0</ele><time>2026-04-01T15:43:50.001Z</time></trkpt><trkpt lat="42.35573272856976" lon="-7.890171525626933"><ele>113.0</ele><time>2026-04-01T15:43:51.001Z</time></trkpt><trkpt lat="42.35573068002232" lon="-7.890258293645051"><ele>112.99999999999999</ele><time>2026-04-01T15:43:52.001Z</time></trkpt><trkpt lat="42.35574115269884" lon="-7.890369894043234"><ele>113.0</ele><time>2026-04-01T15:43:54.001Z</time></trkpt><trkpt lat="42.35574284000688" lon="-7.890475635950452"><ele>112.0</ele><time>2026-04-01T15:44:10Z</time></trkpt><trkpt lat="42.355744465430384" lon="-7.8905831694227935"><ele>112.0</ele><time>2026-04-01T15:44:17Z</time></trkpt><trkpt lat="42.35590751916449" lon="-7.890630526762942"><ele>112.0</ele><time>2026-04-01T15:44:23Z</time></trkpt></trkseg><trkseg><trkpt lat="42.35591560126633" lon="-7.890605796931814"><ele>112.00000000000001</ele><time>2026-04-01T16:00:22.005Z</time></trkpt><trkpt lat="42.35588883387354" lon="-7.890703790327115"><ele>112.0</ele><time>2026-04-01T16:01:06Z</time></trkpt><trkpt lat="42.35587635821241" lon="-7.890793771874391"><ele>112.0</ele><time>2026-04-01T16:01:10Z</time></trkpt><trkpt lat="42.35582890030818" lon="-7.890877160851549"><ele>112.0</ele><time>2026-04-01T16:01:13Z</time></trkpt><trkpt lat="42.35575652593985" lon="-7.890984519598922"><ele>112.00000000000001</ele><time>2026-04-01T16:01:28Z</time></trkpt><trkpt lat="42.35575015093227" lon="-7.891086264475198"><ele>112.0</ele><time>2026-04-01T16:01:29Z</time></trkpt><trkpt lat="42.355739731529056" lon="-7.891314035352807"><ele>111.33333333333334</ele><time>2026-04-01T16:01:31Z</time></trkpt><trkpt lat="42.35572843908169" lon="-7.891483074265093"><ele>110.66666666666666</ele><time>2026-04-01T16:01:31.999Z</time></trkpt><trkpt lat="42.355727852877244" lon="-7.891700365462435"><ele>110.0</ele><time>2026-04-01T16:01:32.999Z</time></trkpt><trkpt lat="42.35572632346711" lon="-7.89193366808048"><ele>109.33333333333333</ele><time>2026-04-01T16:01:33.999Z</time></trkpt><trkpt lat="42.35572807858915" lon="-7.892027716126279"><ele>108.66666666666666</ele><time>2026-04-01T16:01:34.999Z</time></trkpt><trkpt lat="42.355717981057886" lon="-7.89226933418887"><ele>108.0</ele><time>2026-04-01T16:01:35.999Z</time></trkpt><trkpt lat="42.35572210686297" lon="-7.892554091910519"><ele>107.75</ele><time>2026-04-01T16:01:36.999Z</time></trkpt><trkpt lat="42.35572866558783" lon="-7.892647762015811"><ele>107.5</ele><time>2026-04-01T16:01:37.999Z</time></trkpt><trkpt lat="42.355739601278906" lon="-7.8929252633590625"><ele>107.25</ele><time>2026-04-01T16:01:38.999Z</time></trkpt><trkpt lat="42.355744236013464" lon="-7.8930880272855335"><ele>107.0</ele><time>2026-04-01T16:01:39.999Z</time></trkpt><trkpt lat="42.35575355825962" lon="-7.893397000139104"><ele>107.75</ele><time>2026-04-01T16:01:40.999Z</time></trkpt><trkpt lat="42.35576821492519" lon="-7.893565401891892"><ele>108.5</ele><time>2026-04-01T16:01:41.999Z</time></trkpt><trkpt lat="42.35576158081086" lon="-7.893724924051602"><ele>109.25</ele><time>2026-04-01T16:01:42.999Z</time></trkpt><trkpt lat="42.35579031925486" lon="-7.893910365363427"><ele>110.0</ele><time>2026-04-01T16:01:43.999Z</time></trkpt><trkpt lat="42.355777452659375" lon="-7.894131841047698"><ele>110.33333333333333</ele><time>2026-04-01T16:01:44.999Z</time></trkpt><trkpt lat="42.35577608565397" lon="-7.894338534883643"><ele>110.66666666666666</ele><time>2026-04-01T16:01:45.999Z</time></trkpt><trkpt lat="42.3557759805686" lon="-7.89453937643132"><ele>111.0</ele><time>2026-04-01T16:01:46.999Z</time></trkpt><trkpt lat="42.355783001043015" lon="-7.8947583133558705"><ele>111.0</ele><time>2026-04-01T16:01:47.999Z</time></trkpt><trkpt lat="42.35578890798983" lon="-7.894988715507592"><ele>111.0</ele><time>2026-04-01T16:01:48.999Z</time></trkpt><trkpt lat="42.35579321505712" lon="-7.895220831125168"><ele>111.0</ele><time>2026-04-01T16:01:49.999Z</time></trkpt><trkpt lat="42.35579839823842" lon="-7.89546273714983"><ele>110.0</ele><time>2026-04-01T16:01:50.999Z</time></trkpt><trkpt lat="42.355800949158784" lon="-7.895703342820881"><ele>109.0</ele><time>2026-04-01T16:01:51.999Z</time></trkpt><trkpt lat="42.355792016854416" lon="-7.895952338065792"><ele>108.0</ele><time>2026-04-01T16:01:52.999Z</time></trkpt><trkpt lat="42.355791048697625" lon="-7.896170356717211"><ele>107.66666666666666</ele><time>2026-04-01T16:01:53.999Z</time></trkpt><trkpt lat="42.35579529982627" lon="-7.8963709142172505"><ele>107.33333333333333</ele><time>2026-04-01T16:01:54.999Z</time></trkpt><trkpt lat="42.35579592464863" lon="-7.896578989008862"><ele>107.0</ele><time>2026-04-01T16:01:55.999Z</time></trkpt><trkpt lat="42.3558012902778" lon="-7.89678864140718"><ele>108.0</ele><time>2026-04-01T16:01:56.999Z</time></trkpt><trkpt lat="42.35580301060417" lon="-7.896999012385563"><ele>109.0</ele><time>2026-04-01T16:01:57.999Z</time></trkpt><trkpt lat="42.35581388498467" lon="-7.897209744667516"><ele>110.0</ele><time>2026-04-01T16:01:58.999Z</time></trkpt><trkpt lat="42.35581337335789" lon="-7.897423973566644"><ele>110.33333333333333</ele><time>2026-04-01T16:01:59.999Z</time></trkpt><trkpt lat="42.35580370317566" lon="-7.89765991448869"><ele>110.66666666666666</ele><time>2026-04-01T16:02:00.999Z</time></trkpt><trkpt lat="42.35581012661801" lon="-7.8978981470211505"><ele>111.0</ele><time>2026-04-01T16:02:01.999Z</time></trkpt><trkpt lat="42.355820042234335" lon="-7.89812064238937"><ele>111.0</ele><time>2026-04-01T16:02:02.999Z</time></trkpt><trkpt lat="42.35582581836831" lon="-7.898352410884704"><ele>111.0</ele><time>2026-04-01T16:02:03.999Z</time></trkpt><trkpt lat="42.35582647551637" lon="-7.8985777458607"><ele>111.0</ele><time>2026-04-01T16:02:04.999Z</time></trkpt><trkpt lat="42.355828835072245" lon="-7.8987897625333146"><ele>111.5</ele><time>2026-04-01T16:02:05.999Z</time></trkpt><trkpt lat="42.35584077742402" lon="-7.898992632765527"><ele>112.0</ele><time>2026-04-01T16:02:06.999Z</time></trkpt><trkpt lat="42.35583186042376" lon="-7.899195055829556"><ele>112.5</ele><time>2026-04-01T16:02:07.999Z</time></trkpt><trkpt lat="42.355835924917535" lon="-7.8993842816987705"><ele>113.0</ele><time>2026-04-01T16:02:08.999Z</time></trkpt><trkpt lat="42.35584097460905" lon="-7.899580371114702"><ele>113.75</ele><time>2026-04-01T16:02:09.999Z</time></trkpt><trkpt lat="42.35584542961871" lon="-7.8997793524467825"><ele>114.5</ele><time>2026-04-01T16:02:10.999Z</time></trkpt><trkpt lat="42.3558473906131" lon="-7.899978433063499"><ele>115.25</ele><time>2026-04-01T16:02:11.999Z</time></trkpt><trkpt lat="42.3558518154755" lon="-7.900172870904821"><ele>116.0</ele><time>2026-04-01T16:02:12.999Z</time></trkpt><trkpt lat="42.35585285618525" lon="-7.900363929965782"><ele>117.0</ele><time>2026-04-01T16:02:13.999Z</time></trkpt><trkpt lat="42.35585272820327" lon="-7.900532807605563"><ele>118.0</ele><time>2026-04-01T16:02:14.999Z</time></trkpt><trkpt lat="42.35584705233422" lon="-7.900718303261988"><ele>119.0</ele><time>2026-04-01T16:02:15.999Z</time></trkpt><trkpt lat="42.35584833301492" lon="-7.900894803709482"><ele>120.0</ele><time>2026-04-01T16:02:16.999Z</time></trkpt><trkpt lat="42.35584950347682" lon="-7.9010733920412655"><ele>120.0</ele><time>2026-04-01T16:02:17.999Z</time></trkpt><trkpt lat="42.35585175045674" lon="-7.901246058897563"><ele>120.0</ele><time>2026-04-01T16:02:18.999Z</time></trkpt><trkpt lat="42.35585257703509" lon="-7.901404164171368"><ele>120.0</ele><time>2026-04-01T16:02:19.999Z</time></trkpt><trkpt lat="42.35585469203995" lon="-7.9015419208398825"><ele>120.0</ele><time>2026-04-01T16:02:20.999Z</time></trkpt><trkpt lat="42.35585215018067" lon="-7.9018216097570395"><ele>121.5</ele><time>2026-04-01T16:02:22.999Z</time></trkpt><trkpt lat="42.35585040669684" lon="-7.901964167101825"><ele>123.0</ele><time>2026-04-01T16:02:23.999Z</time></trkpt><trkpt lat="42.35584489901008" lon="-7.902121275266926"><ele>124.5</ele><time>2026-04-01T16:02:24.999Z</time></trkpt><trkpt lat="42.35583804547439" lon="-7.902301042170017"><ele>126.0</ele><time>2026-04-01T16:02:25.999Z</time></trkpt><trkpt lat="42.3558183719996" lon="-7.902522689453866"><ele>126.25</ele><time>2026-04-01T16:02:26.999Z</time></trkpt><trkpt lat="42.35579526410114" lon="-7.902696854855591"><ele>126.5</ele><time>2026-04-01T16:02:27.999Z</time></trkpt><trkpt lat="42.35576131957334" lon="-7.90289352454301"><ele>126.75</ele><time>2026-04-01T16:02:28.999Z</time></trkpt><trkpt lat="42.355732697123486" lon="-7.903117365228011"><ele>127.0</ele><time>2026-04-01T16:02:29.999Z</time></trkpt><trkpt lat="42.355686545128805" lon="-7.903332729181348"><ele>127.33333333333334</ele><time>2026-04-01T16:02:30.999Z</time></trkpt><trkpt lat="42.355624745432976" lon="-7.903555261124544"><ele>127.66666666666666</ele><time>2026-04-01T16:02:31.999Z</time></trkpt><trkpt lat="42.35553444256996" lon="-7.903795661581191"><ele>128.0</ele><time>2026-04-01T16:02:32.998Z</time></trkpt><trkpt lat="42.35547629975931" lon="-7.904008223412137"><ele>125.33333333333333</ele><time>2026-04-01T16:02:33.998Z</time></trkpt><trkpt lat="42.355439520855704" lon="-7.904217455725827"><ele>122.66666666666666</ele><time>2026-04-01T16:02:34.998Z</time></trkpt><trkpt lat="42.35539009123593" lon="-7.904411209991458"><ele>120.0</ele><time>2026-04-01T16:02:35.998Z</time></trkpt><trkpt lat="42.35533929177379" lon="-7.904600485192668"><ele>120.0</ele><time>2026-04-01T16:02:36.998Z</time></trkpt><trkpt lat="42.35528862611324" lon="-7.904782449257221"><ele>120.0</ele><time>2026-04-01T16:02:37.998Z</time></trkpt><trkpt lat="42.355238801690014" lon="-7.904957047308857"><ele>120.0</ele><time>2026-04-01T16:02:38.998Z</time></trkpt><trkpt lat="42.355186279091434" lon="-7.905137881275781"><ele>120.0</ele><time>2026-04-01T16:02:39.998Z</time></trkpt><trkpt lat="42.35513648590646" lon="-7.905330472397062"><ele>119.0</ele><time>2026-04-01T16:02:40.998Z</time></trkpt><trkpt lat="42.35511684880841" lon="-7.905521873653737"><ele>118.0</ele><time>2026-04-01T16:02:41.998Z</time></trkpt><trkpt lat="42.35507897906987" lon="-7.905716556141806"><ele>117.0</ele><time>2026-04-01T16:02:42.998Z</time></trkpt><trkpt lat="42.355009493695995" lon="-7.905935662210952"><ele>117.0</ele><time>2026-04-01T16:02:43.998Z</time></trkpt><trkpt lat="42.35495297635701" lon="-7.906154759940364"><ele>117.0</ele><time>2026-04-01T16:02:44.998Z</time></trkpt><trkpt lat="42.35489613609497" lon="-7.906397765695971"><ele>117.0</ele><time>2026-04-01T16:02:45.998Z</time></trkpt><trkpt lat="42.354812152695615" lon="-7.906638287988237"><ele>116.66666666666666</ele><time>2026-04-01T16:02:46.999Z</time></trkpt><trkpt lat="42.35477227691707" lon="-7.906882322329236"><ele>116.33333333333333</ele><time>2026-04-01T16:02:47.999Z</time></trkpt><trkpt lat="42.35471363003098" lon="-7.90713522680632"><ele>116.0</ele><time>2026-04-01T16:02:48.999Z</time></trkpt><trkpt lat="42.3546540933208" lon="-7.907388610809424"><ele>113.0</ele><time>2026-04-01T16:02:49.999Z</time></trkpt><trkpt lat="42.35456772182699" lon="-7.907663372543913"><ele>110.0</ele><time>2026-04-01T16:02:50.999Z</time></trkpt><trkpt lat="42.35451931693484" lon="-7.907908082808507"><ele>107.0</ele><time>2026-04-01T16:02:51.999Z</time></trkpt><trkpt lat="42.35447299574084" lon="-7.9081645943906285"><ele>106.66666666666666</ele><time>2026-04-01T16:02:52.999Z</time></trkpt><trkpt lat="42.354392010593685" lon="-7.908430390069272"><ele>106.33333333333334</ele><time>2026-04-01T16:02:53.999Z</time></trkpt><trkpt lat="42.354321669514434" lon="-7.9086891375075234"><ele>106.0</ele><time>2026-04-01T16:02:54.999Z</time></trkpt><trkpt lat="42.354257777502525" lon="-7.908954052501406"><ele>106.0</ele><time>2026-04-01T16:02:55.999Z</time></trkpt><trkpt lat="42.35418689028464" lon="-7.909215601883136"><ele>106.0</ele><time>2026-04-01T16:02:56.999Z</time></trkpt><trkpt lat="42.35409202078094" lon="-7.909475769244785"><ele>106.0</ele><time>2026-04-01T16:02:57.999Z</time></trkpt><trkpt lat="42.35404244949626" lon="-7.909729480214669"><ele>106.66666666666667</ele><time>2026-04-01T16:02:58.999Z</time></trkpt><trkpt lat="42.35397674626852" lon="-7.91000355917731"><ele>107.33333333333334</ele><time>2026-04-01T16:02:59.999Z</time></trkpt><trkpt lat="42.35391377523042" lon="-7.910201062929083"><ele>108.0</ele><time>2026-04-01T16:03:00.999Z</time></trkpt><trkpt lat="42.353854845138486" lon="-7.910440201680768"><ele>106.33333333333334</ele><time>2026-04-01T16:03:01.999Z</time></trkpt><trkpt lat="42.353797254383174" lon="-7.910683693992265"><ele>104.66666666666667</ele><time>2026-04-01T16:03:02.999Z</time></trkpt><trkpt lat="42.353735008159" lon="-7.910927882697745"><ele>103.0</ele><time>2026-04-01T16:03:03.999Z</time></trkpt><trkpt lat="42.35367562327954" lon="-7.911168755503229"><ele>103.0</ele><time>2026-04-01T16:03:04.999Z</time></trkpt><trkpt lat="42.35361690863053" lon="-7.91139951124673"><ele>103.0</ele><time>2026-04-01T16:03:05.999Z</time></trkpt><trkpt lat="42.353556722454485" lon="-7.911634003349761"><ele>103.0</ele><time>2026-04-01T16:03:06.999Z</time></trkpt><trkpt lat="42.35349665749459" lon="-7.911873570760078"><ele>101.66666666666667</ele><time>2026-04-01T16:03:07.999Z</time></trkpt><trkpt lat="42.35344004392981" lon="-7.912119738422104"><ele>100.33333333333334</ele><time>2026-04-01T16:03:08.999Z</time></trkpt><trkpt lat="42.35338354813871" lon="-7.912375196860473"><ele>99.0</ele><time>2026-04-01T16:03:09.999Z</time></trkpt><trkpt lat="42.353318204086406" lon="-7.9126139661544155"><ele>98.66666666666666</ele><time>2026-04-01T16:03:10.999Z</time></trkpt><trkpt lat="42.35327445423248" lon="-7.912857405093155"><ele>98.33333333333333</ele><time>2026-04-01T16:03:11.999Z</time></trkpt><trkpt lat="42.35321131464565" lon="-7.913097122372043"><ele>98.0</ele><time>2026-04-01T16:03:12.999Z</time></trkpt><trkpt lat="42.353097092307536" lon="-7.913333990830593"><ele>101.0</ele><time>2026-04-01T16:03:13.999Z</time></trkpt><trkpt lat="42.35297573083244" lon="-7.913559689268494"><ele>104.0</ele><time>2026-04-01T16:03:14.999Z</time></trkpt><trkpt lat="42.35286348791125" lon="-7.913763202790111"><ele>107.0</ele><time>2026-04-01T16:03:15.999Z</time></trkpt><trkpt lat="42.352731813013925" lon="-7.9139545286593185"><ele>107.0</ele><time>2026-04-01T16:03:16.999Z</time></trkpt><trkpt lat="42.35257608668157" lon="-7.914113913243767"><ele>107.0</ele><time>2026-04-01T16:03:17.999Z</time></trkpt><trkpt lat="42.352407424061354" lon="-7.914258232710544"><ele>107.0</ele><time>2026-04-01T16:03:18.999Z</time></trkpt><trkpt lat="42.352233892942174" lon="-7.914396547208853"><ele>110.66666666666666</ele><time>2026-04-01T16:03:19.999Z</time></trkpt><trkpt lat="42.35204576439253" lon="-7.914518990305832"><ele>114.33333333333334</ele><time>2026-04-01T16:03:20.999Z</time></trkpt><trkpt lat="42.351859384108614" lon="-7.914660490396643"><ele>118.0</ele><time>2026-04-01T16:03:21.999Z</time></trkpt><trkpt lat="42.35171105146707" lon="-7.914813182769828"><ele>118.0</ele><time>2026-04-01T16:03:22.999Z</time></trkpt><trkpt lat="42.351561956980234" lon="-7.9149629070724306"><ele>118.0</ele><time>2026-04-01T16:03:23.999Z</time></trkpt><trkpt lat="42.35142742367532" lon="-7.9151311402982065"><ele>118.0</ele><time>2026-04-01T16:03:24.999Z</time></trkpt><trkpt lat="42.351304490933416" lon="-7.915325512198087"><ele>117.0</ele><time>2026-04-01T16:03:25.999Z</time></trkpt><trkpt lat="42.35122949679261" lon="-7.915524287750238"><ele>116.0</ele><time>2026-04-01T16:03:26.999Z</time></trkpt><trkpt lat="42.35116744953708" lon="-7.915777041304363"><ele>115.0</ele><time>2026-04-01T16:03:27.999Z</time></trkpt><trkpt lat="42.351122419143316" lon="-7.9160206577831715"><ele>117.33333333333334</ele><time>2026-04-01T16:03:28.999Z</time></trkpt><trkpt lat="42.35109186054145" lon="-7.916248741821614"><ele>119.66666666666666</ele><time>2026-04-01T16:03:29.999Z</time></trkpt><trkpt lat="42.35107320950636" lon="-7.916488567592969"><ele>122.0</ele><time>2026-04-01T16:03:30.999Z</time></trkpt><trkpt lat="42.35105659678929" lon="-7.91673143611898"><ele>123.33333333333333</ele><time>2026-04-01T16:03:31.999Z</time></trkpt><trkpt lat="42.351032605387" lon="-7.9169721184371555"><ele>124.66666666666666</ele><time>2026-04-01T16:03:32.999Z</time></trkpt><trkpt lat="42.35099245288907" lon="-7.917208017591146"><ele>126.0</ele><time>2026-04-01T16:03:33.999Z</time></trkpt><trkpt lat="42.35093818753125" lon="-7.917438474309329"><ele>128.33333333333334</ele><time>2026-04-01T16:03:34.999Z</time></trkpt><trkpt lat="42.35086236692508" lon="-7.9176575872455395"><ele>130.66666666666669</ele><time>2026-04-01T16:03:35.999Z</time></trkpt><trkpt lat="42.35077408288555" lon="-7.917869982424133"><ele>133.0</ele><time>2026-04-01T16:03:36.999Z</time></trkpt><trkpt lat="42.35067718350192" lon="-7.918082385119662"><ele>133.0</ele><time>2026-04-01T16:03:37.999Z</time></trkpt><trkpt lat="42.35057770829118" lon="-7.918297012718966"><ele>133.0</ele><time>2026-04-01T16:03:38.999Z</time></trkpt><trkpt lat="42.35046966208626" lon="-7.918497419772182"><ele>133.0</ele><time>2026-04-01T16:03:39.999Z</time></trkpt><trkpt lat="42.35036389575382" lon="-7.918708011909035"><ele>134.33333333333334</ele><time>2026-04-01T16:03:40.999Z</time></trkpt><trkpt lat="42.35025041352051" lon="-7.9189185785247735"><ele>135.66666666666666</ele><time>2026-04-01T16:03:41.999Z</time></trkpt><trkpt lat="42.35015094323843" lon="-7.9191267696539915"><ele>137.0</ele><time>2026-04-01T16:03:42.999Z</time></trkpt><trkpt lat="42.35004949174002" lon="-7.919347826442236"><ele>138.33333333333331</ele><time>2026-04-01T16:03:43.999Z</time></trkpt><trkpt lat="42.34993198386727" lon="-7.919569634083939"><ele>139.66666666666666</ele><time>2026-04-01T16:03:44.999Z</time></trkpt><trkpt lat="42.349842311986635" lon="-7.9197978514318"><ele>141.0</ele><time>2026-04-01T16:03:45.999Z</time></trkpt><trkpt lat="42.34972645553154" lon="-7.920024842081425"><ele>141.33333333333334</ele><time>2026-04-01T16:03:46.999Z</time></trkpt><trkpt lat="42.34962987000412" lon="-7.9202539628725575"><ele>141.66666666666669</ele><time>2026-04-01T16:03:47.999Z</time></trkpt><trkpt lat="42.34952832343889" lon="-7.920491507557308"><ele>142.0</ele><time>2026-04-01T16:03:48.999Z</time></trkpt><trkpt lat="42.349426052836854" lon="-7.920731378230788"><ele>143.66666666666669</ele><time>2026-04-01T16:03:49.999Z</time></trkpt><trkpt lat="42.34933139265621" lon="-7.920979728371152"><ele>145.33333333333334</ele><time>2026-04-01T16:03:50.999Z</time></trkpt><trkpt lat="42.34923677353326" lon="-7.921229992583805"><ele>147.0</ele><time>2026-04-01T16:03:51.999Z</time></trkpt><trkpt lat="42.34915053274714" lon="-7.9214815554918"><ele>148.33333333333334</ele><time>2026-04-01T16:03:52.999Z</time></trkpt><trkpt lat="42.349067597534706" lon="-7.921741189819821"><ele>149.66666666666669</ele><time>2026-04-01T16:03:53.999Z</time></trkpt><trkpt lat="42.34899001654763" lon="-7.922003151895042"><ele>151.0</ele><time>2026-04-01T16:03:54.999Z</time></trkpt><trkpt lat="42.34892401621936" lon="-7.922271564868074"><ele>150.66666666666669</ele><time>2026-04-01T16:03:55.999Z</time></trkpt><trkpt lat="42.34884678663368" lon="-7.922519323676307"><ele>150.33333333333334</ele><time>2026-04-01T16:03:56.999Z</time></trkpt><trkpt lat="42.34884554482641" lon="-7.922762765362775"><ele>150.0</ele><time>2026-04-01T16:03:57.999Z</time></trkpt><trkpt lat="42.348864987520734" lon="-7.922996729075796"><ele>151.0</ele><time>2026-04-01T16:03:58.999Z</time></trkpt><trkpt lat="42.348892156064814" lon="-7.923237926642105"><ele>152.0</ele><time>2026-04-01T16:03:59.999Z</time></trkpt><trkpt lat="42.34883915019269" lon="-7.923470579199358"><ele>153.0</ele><time>2026-04-01T16:04:00.999Z</time></trkpt><trkpt lat="42.348840750177736" lon="-7.9237011650808515"><ele>153.0</ele><time>2026-04-01T16:04:01.999Z</time></trkpt><trkpt lat="42.348856739024335" lon="-7.923925818639546"><ele>153.0</ele><time>2026-04-01T16:04:02.999Z</time></trkpt><trkpt lat="42.34889178516729" lon="-7.9241509034486874"><ele>153.0</ele><time>2026-04-01T16:04:03.999Z</time></trkpt><trkpt lat="42.34893962825138" lon="-7.924375362231226"><ele>159.0</ele><time>2026-04-01T16:04:04.999Z</time></trkpt><trkpt lat="42.348998314884334" lon="-7.924597668851197"><ele>165.0</ele><time>2026-04-01T16:04:05.999Z</time></trkpt><trkpt lat="42.3490585807856" lon="-7.924816090306066"><ele>171.0</ele><time>2026-04-01T16:04:06.999Z</time></trkpt><trkpt lat="42.34911940091989" lon="-7.9250400055492545"><ele>167.0</ele><time>2026-04-01T16:04:07.999Z</time></trkpt><trkpt lat="42.349167782694245" lon="-7.925266331210873"><ele>163.0</ele><time>2026-04-01T16:04:08.999Z</time></trkpt><trkpt lat="42.34920912477572" lon="-7.9255007341059365"><ele>159.0</ele><time>2026-04-01T16:04:09.999Z</time></trkpt><trkpt lat="42.34924351392961" lon="-7.925739940219468"><ele>157.0</ele><time>2026-04-01T16:04:10.999Z</time></trkpt><trkpt lat="42.34927382825334" lon="-7.925989011435575"><ele>155.0</ele><time>2026-04-01T16:04:11.999Z</time></trkpt><trkpt lat="42.34928861491005" lon="-7.926237025199889"><ele>153.0</ele><time>2026-04-01T16:04:12.999Z</time></trkpt><trkpt lat="42.34928452994082" lon="-7.926487686057951"><ele>154.0</ele><time>2026-04-01T16:04:13.999Z</time></trkpt><trkpt lat="42.34926148932856" lon="-7.926739490744209"><ele>155.0</ele><time>2026-04-01T16:04:14.999Z</time></trkpt><trkpt lat="42.34922005562716" lon="-7.926984909738897"><ele>156.0</ele><time>2026-04-01T16:04:15.999Z</time></trkpt><trkpt lat="42.34915906887054" lon="-7.927231879376005"><ele>156.0</ele><time>2026-04-01T16:04:16.999Z</time></trkpt><trkpt lat="42.3490828649552" lon="-7.9274642949510845"><ele>156.0</ele><time>2026-04-01T16:04:17.999Z</time></trkpt><trkpt lat="42.34898555684526" lon="-7.927695805724011"><ele>156.0</ele><time>2026-04-01T16:04:18.999Z</time></trkpt><trkpt lat="42.348872445299094" lon="-7.927904601409212"><ele>156.33333333333334</ele><time>2026-04-01T16:04:19.999Z</time></trkpt><trkpt lat="42.34874377880562" lon="-7.928101492773992"><ele>156.66666666666669</ele><time>2026-04-01T16:04:20.999Z</time></trkpt><trkpt lat="42.34860629898859" lon="-7.928288947590716"><ele>157.0</ele><time>2026-04-01T16:04:21.999Z</time></trkpt><trkpt lat="42.34846100708043" lon="-7.92846860758684"><ele>157.0</ele><time>2026-04-01T16:04:22.999Z</time></trkpt><trkpt lat="42.34830538076989" lon="-7.928640269238818"><ele>157.0</ele><time>2026-04-01T16:04:23.999Z</time></trkpt><trkpt lat="42.34814447927319" lon="-7.928809938156563"><ele>157.0</ele><time>2026-04-01T16:04:24.999Z</time></trkpt><trkpt lat="42.347979863702555" lon="-7.928982411649843"><ele>157.0</ele><time>2026-04-01T16:04:25.999Z</time></trkpt><trkpt lat="42.34781089816908" lon="-7.929152182371738"><ele>157.0</ele><time>2026-04-01T16:04:26.999Z</time></trkpt><trkpt lat="42.34763982045155" lon="-7.929324309147186"><ele>157.0</ele><time>2026-04-01T16:04:27.999Z</time></trkpt><trkpt lat="42.347467908300075" lon="-7.929494227807513"><ele>160.0</ele><time>2026-04-01T16:04:28.999Z</time></trkpt><trkpt lat="42.347301115585324" lon="-7.929662724207054"><ele>163.0</ele><time>2026-04-01T16:04:29.999Z</time></trkpt><trkpt lat="42.34715614977131" lon="-7.929854443907325"><ele>166.0</ele><time>2026-04-01T16:04:30.999Z</time></trkpt><trkpt lat="42.34701244200619" lon="-7.930033305197891"><ele>165.33333333333334</ele><time>2026-04-01T16:04:31.999Z</time></trkpt><trkpt lat="42.34686426403654" lon="-7.930206857131855"><ele>164.66666666666666</ele><time>2026-04-01T16:04:32.999Z</time></trkpt><trkpt lat="42.34674516814755" lon="-7.930402989896696"><ele>164.0</ele><time>2026-04-01T16:04:33.999Z</time></trkpt><trkpt lat="42.34663505772079" lon="-7.93060551729816"><ele>164.0</ele><time>2026-04-01T16:04:34.999Z</time></trkpt><trkpt lat="42.34653592411571" lon="-7.930818709159258"><ele>164.0</ele><time>2026-04-01T16:04:35.999Z</time></trkpt><trkpt lat="42.34644491729814" lon="-7.931037344247233"><ele>164.0</ele><time>2026-04-01T16:04:36.999Z</time></trkpt><trkpt lat="42.346360062861386" lon="-7.931261516974842"><ele>162.0</ele><time>2026-04-01T16:04:37.999Z</time></trkpt><trkpt lat="42.346274375245194" lon="-7.9314839576525324"><ele>160.0</ele><time>2026-04-01T16:04:38.998Z</time></trkpt><trkpt lat="42.3461891641933" lon="-7.931696762784102"><ele>158.0</ele><time>2026-04-01T16:04:39.998Z</time></trkpt><trkpt lat="42.346109600465454" lon="-7.931900437773291"><ele>158.0</ele><time>2026-04-01T16:04:40.998Z</time></trkpt><trkpt lat="42.34603570076623" lon="-7.932103725979385"><ele>158.0</ele><time>2026-04-01T16:04:41.998Z</time></trkpt><trkpt lat="42.34596541533476" lon="-7.932301924628869"><ele>158.0</ele><time>2026-04-01T16:04:42.998Z</time></trkpt><trkpt lat="42.3458898465457" lon="-7.93249667354377"><ele>161.0</ele><time>2026-04-01T16:04:43.998Z</time></trkpt><trkpt lat="42.345816301852956" lon="-7.932680973053846"><ele>164.0</ele><time>2026-04-01T16:04:44.998Z</time></trkpt><trkpt lat="42.345737073444845" lon="-7.932877719950387"><ele>167.0</ele><time>2026-04-01T16:04:45.998Z</time></trkpt><trkpt lat="42.345650114785286" lon="-7.933080792517216"><ele>167.0</ele><time>2026-04-01T16:04:46.998Z</time></trkpt><trkpt lat="42.345549539490236" lon="-7.933275824475335"><ele>167.0</ele><time>2026-04-01T16:04:47.998Z</time></trkpt><trkpt lat="42.34542898189833" lon="-7.933458000701008"><ele>167.0</ele><time>2026-04-01T16:04:48.999Z</time></trkpt><trkpt lat="42.34528901864358" lon="-7.933622374091346"><ele>163.66666666666666</ele><time>2026-04-01T16:04:49.999Z</time></trkpt><trkpt lat="42.345141853805686" lon="-7.933769408880185"><ele>160.33333333333334</ele><time>2026-04-01T16:04:50.999Z</time></trkpt><trkpt lat="42.344997845096145" lon="-7.933918847383841"><ele>157.0</ele><time>2026-04-01T16:04:51.999Z</time></trkpt><trkpt lat="42.34487013496549" lon="-7.934085647306282"><ele>153.66666666666669</ele><time>2026-04-01T16:04:52.999Z</time></trkpt><trkpt lat="42.34474079531469" lon="-7.934234832882211"><ele>150.33333333333334</ele><time>2026-04-01T16:04:53.999Z</time></trkpt><trkpt lat="42.34460437365904" lon="-7.934384045818723"><ele>147.0</ele><time>2026-04-01T16:04:54.999Z</time></trkpt><trkpt lat="42.34451274441785" lon="-7.934584822140603"><ele>147.0</ele><time>2026-04-01T16:04:55.999Z</time></trkpt><trkpt lat="42.34439566776195" lon="-7.934789136823427"><ele>147.0</ele><time>2026-04-01T16:04:56.999Z</time></trkpt><trkpt lat="42.34430132360216" lon="-7.935020667667464"><ele>147.0</ele><time>2026-04-01T16:04:57.999Z</time></trkpt><trkpt lat="42.34420267661577" lon="-7.935259426266687"><ele>147.0</ele><time>2026-04-01T16:04:58.999Z</time></trkpt><trkpt lat="42.344111046066814" lon="-7.935476833825012"><ele>147.0</ele><time>2026-04-01T16:04:59.999Z</time></trkpt><trkpt lat="42.34398401400777" lon="-7.935697898570942"><ele>147.0</ele><time>2026-04-01T16:05:00.999Z</time></trkpt><trkpt lat="42.34381271974938" lon="-7.935907039404116"><ele>147.0</ele><time>2026-04-01T16:05:01.999Z</time></trkpt><trkpt lat="42.34367925898237" lon="-7.93611454116346"><ele>147.0</ele><time>2026-04-01T16:05:02.999Z</time></trkpt><trkpt lat="42.34353924998299" lon="-7.9362994454654405"><ele>147.0</ele><time>2026-04-01T16:05:03.999Z</time></trkpt><trkpt lat="42.343402574331336" lon="-7.936481570498246"><ele>147.0</ele><time>2026-04-01T16:05:04.999Z</time></trkpt><trkpt lat="42.34326406521333" lon="-7.936673528007838"><ele>147.0</ele><time>2026-04-01T16:05:05.999Z</time></trkpt><trkpt lat="42.34313657941122" lon="-7.936877991126769"><ele>147.0</ele><time>2026-04-01T16:05:06.999Z</time></trkpt><trkpt lat="42.34302443196328" lon="-7.937104278653417"><ele>145.0</ele><time>2026-04-01T16:05:07.999Z</time></trkpt><trkpt lat="42.34292904380807" lon="-7.93734208507083"><ele>143.0</ele><time>2026-04-01T16:05:08.999Z</time></trkpt><trkpt lat="42.34285797995687" lon="-7.937597761838204"><ele>141.0</ele><time>2026-04-01T16:05:09.999Z</time></trkpt><trkpt lat="42.34277358252876" lon="-7.937855464145206"><ele>141.0</ele><time>2026-04-01T16:05:10.999Z</time></trkpt><trkpt lat="42.342712799750565" lon="-7.938111995659475"><ele>141.0</ele><time>2026-04-01T16:05:11.999Z</time></trkpt><trkpt lat="42.34265046921208" lon="-7.938361470822565"><ele>141.0</ele><time>2026-04-01T16:05:12.999Z</time></trkpt><trkpt lat="42.34258435834006" lon="-7.938603770968239"><ele>142.33333333333334</ele><time>2026-04-01T16:05:13.999Z</time></trkpt><trkpt lat="42.34252134375556" lon="-7.938853754088735"><ele>143.66666666666669</ele><time>2026-04-01T16:05:14.999Z</time></trkpt><trkpt lat="42.342455957558776" lon="-7.939100882921604"><ele>145.0</ele><time>2026-04-01T16:05:15.999Z</time></trkpt><trkpt lat="42.34239433866704" lon="-7.93935179816375"><ele>145.0</ele><time>2026-04-01T16:05:16.999Z</time></trkpt><trkpt lat="42.342328233000146" lon="-7.939600699083799"><ele>145.0</ele><time>2026-04-01T16:05:17.999Z</time></trkpt><trkpt lat="42.34228544117946" lon="-7.939849819319345"><ele>145.0</ele><time>2026-04-01T16:05:18.999Z</time></trkpt><trkpt lat="42.342229253001456" lon="-7.9400886727531805"><ele>140.66666666666669</ele><time>2026-04-01T16:05:19.999Z</time></trkpt><trkpt lat="42.34216384856819" lon="-7.940325948874175"><ele>136.33333333333334</ele><time>2026-04-01T16:05:20.999Z</time></trkpt><trkpt lat="42.342128447799546" lon="-7.940564436254355"><ele>132.0</ele><time>2026-04-01T16:05:21.999Z</time></trkpt><trkpt lat="42.342108466778214" lon="-7.9408138474695225"><ele>132.33333333333334</ele><time>2026-04-01T16:05:22.999Z</time></trkpt><trkpt lat="42.34209391988189" lon="-7.941068615981295"><ele>132.66666666666669</ele><time>2026-04-01T16:05:23.999Z</time></trkpt><trkpt lat="42.34208780853866" lon="-7.941328012531718"><ele>133.0</ele><time>2026-04-01T16:05:24.999Z</time></trkpt><trkpt lat="42.3420959716739" lon="-7.941605249240367"><ele>132.0</ele><time>2026-04-01T16:05:25.999Z</time></trkpt><trkpt lat="42.34210611297119" lon="-7.94187792292797"><ele>131.0</ele><time>2026-04-01T16:05:26.999Z</time></trkpt><trkpt lat="42.34212668625694" lon="-7.942164872871336"><ele>130.0</ele><time>2026-04-01T16:05:28Z</time></trkpt><trkpt lat="42.34214180832916" lon="-7.942454798246926"><ele>130.0</ele><time>2026-04-01T16:05:29Z</time></trkpt><trkpt lat="42.34215503787111" lon="-7.942746835151513"><ele>130.0</ele><time>2026-04-01T16:05:30Z</time></trkpt><trkpt lat="42.34215034910263" lon="-7.943037489702693"><ele>130.0</ele><time>2026-04-01T16:05:31Z</time></trkpt><trkpt lat="42.34213335736577" lon="-7.943308686509996"><ele>131.66666666666669</ele><time>2026-04-01T16:05:32Z</time></trkpt><trkpt lat="42.34210246961196" lon="-7.943564467499348"><ele>133.33333333333334</ele><time>2026-04-01T16:05:33Z</time></trkpt><trkpt lat="42.34206239101527" lon="-7.943810225976106"><ele>135.0</ele><time>2026-04-01T16:05:34Z</time></trkpt><trkpt lat="42.34202774753987" lon="-7.944054532610108"><ele>136.0</ele><time>2026-04-01T16:05:35Z</time></trkpt><trkpt lat="42.34199523631872" lon="-7.944297998101926"><ele>137.0</ele><time>2026-04-01T16:05:36Z</time></trkpt><trkpt lat="42.34197129050564" lon="-7.944519554125153"><ele>138.0</ele><time>2026-04-01T16:05:37Z</time></trkpt><trkpt lat="42.341959566961016" lon="-7.944752385907594"><ele>138.0</ele><time>2026-04-01T16:05:38Z</time></trkpt><trkpt lat="42.34196678623635" lon="-7.94498076467778"><ele>138.0</ele><time>2026-04-01T16:05:39Z</time></trkpt><trkpt lat="42.341978550610946" lon="-7.945210761545953"><ele>138.0</ele><time>2026-04-01T16:05:40Z</time></trkpt><trkpt lat="42.34199578553955" lon="-7.945429080308824"><ele>138.0</ele><time>2026-04-01T16:05:41Z</time></trkpt><trkpt lat="42.34201339806976" lon="-7.945645377628579"><ele>138.0</ele><time>2026-04-01T16:05:42Z</time></trkpt><trkpt lat="42.342033256998945" lon="-7.945864164170412"><ele>138.0</ele><time>2026-04-01T16:05:43Z</time></trkpt><trkpt lat="42.34204975114161" lon="-7.946076524184057"><ele>138.0</ele><time>2026-04-01T16:05:44Z</time></trkpt><trkpt lat="42.34206252240427" lon="-7.94630382697101"><ele>138.0</ele><time>2026-04-01T16:05:45Z</time></trkpt><trkpt lat="42.342071643637944" lon="-7.946532496413857"><ele>138.0</ele><time>2026-04-01T16:05:46Z</time></trkpt><trkpt lat="42.34207597107037" lon="-7.946769345978165"><ele>139.66666666666666</ele><time>2026-04-01T16:05:47Z</time></trkpt><trkpt lat="42.342067450814895" lon="-7.947007855795885"><ele>141.33333333333331</ele><time>2026-04-01T16:05:48Z</time></trkpt><trkpt lat="42.34204336419125" lon="-7.94724572605647"><ele>143.0</ele><time>2026-04-01T16:05:49Z</time></trkpt><trkpt lat="42.34199956081236" lon="-7.947486312812477"><ele>145.33333333333331</ele><time>2026-04-01T16:05:50Z</time></trkpt><trkpt lat="42.34194347026023" lon="-7.947715703455618"><ele>147.66666666666666</ele><time>2026-04-01T16:05:51Z</time></trkpt><trkpt lat="42.3418826006944" lon="-7.947937160784355"><ele>150.0</ele><time>2026-04-01T16:05:52Z</time></trkpt><trkpt lat="42.34181697263775" lon="-7.948149865466461"><ele>150.0</ele><time>2026-04-01T16:05:53Z</time></trkpt><trkpt lat="42.341753666323726" lon="-7.94835121301332"><ele>150.0</ele><time>2026-04-01T16:05:54Z</time></trkpt><trkpt lat="42.341690811539955" lon="-7.94854448675805"><ele>150.0</ele><time>2026-04-01T16:05:55Z</time></trkpt><trkpt lat="42.34163141379873" lon="-7.948744702248257"><ele>151.0</ele><time>2026-04-01T16:05:56Z</time></trkpt><trkpt lat="42.341577179272235" lon="-7.948941351372017"><ele>152.0</ele><time>2026-04-01T16:05:57Z</time></trkpt><trkpt lat="42.34152808596583" lon="-7.94914695640055"><ele>153.0</ele><time>2026-04-01T16:05:58Z</time></trkpt><trkpt lat="42.341481743995416" lon="-7.949346167969329"><ele>154.33333333333334</ele><time>2026-04-01T16:05:59Z</time></trkpt><trkpt lat="42.341433226865334" lon="-7.949544550281673"><ele>155.66666666666669</ele><time>2026-04-01T16:06:00Z</time></trkpt><trkpt lat="42.34138121937066" lon="-7.949751061268877"><ele>157.0</ele><time>2026-04-01T16:06:01Z</time></trkpt><trkpt lat="42.341331856910436" lon="-7.94996318417977"><ele>154.66666666666669</ele><time>2026-04-01T16:06:02Z</time></trkpt><trkpt lat="42.34128030400829" lon="-7.950177492053572"><ele>152.33333333333334</ele><time>2026-04-01T16:06:03Z</time></trkpt><trkpt lat="42.34122396469482" lon="-7.950408498116327"><ele>150.0</ele><time>2026-04-01T16:06:04Z</time></trkpt><trkpt lat="42.341169521014045" lon="-7.9506373937494725"><ele>150.0</ele><time>2026-04-01T16:06:05Z</time></trkpt><trkpt lat="42.341115088767516" lon="-7.950863285968963"><ele>150.0</ele><time>2026-04-01T16:06:06Z</time></trkpt><trkpt lat="42.34106027555506" lon="-7.951090302302668"><ele>150.0</ele><time>2026-04-01T16:06:07Z</time></trkpt><trkpt lat="42.34100565369765" lon="-7.951315142071387"><ele>151.0</ele><time>2026-04-01T16:06:08Z</time></trkpt><trkpt lat="42.3409528216717" lon="-7.951522951871542"><ele>152.0</ele><time>2026-04-01T16:06:09Z</time></trkpt><trkpt lat="42.340906493579595" lon="-7.951716435703078"><ele>153.0</ele><time>2026-04-01T16:06:10Z</time></trkpt><trkpt lat="42.340862328102496" lon="-7.9519136584047665"><ele>153.75</ele><time>2026-04-01T16:06:11Z</time></trkpt><trkpt lat="42.340816884192826" lon="-7.95210819212358"><ele>154.5</ele><time>2026-04-01T16:06:12Z</time></trkpt><trkpt lat="42.34077691187111" lon="-7.952291121588452"><ele>155.25</ele><time>2026-04-01T16:06:13Z</time></trkpt><trkpt lat="42.34074113885783" lon="-7.952466119153239"><ele>156.0</ele><time>2026-04-01T16:06:14Z</time></trkpt><trkpt lat="42.34071171248322" lon="-7.952632660739001"><ele>156.0</ele><time>2026-04-01T16:06:15Z</time></trkpt><trkpt lat="42.34068664839652" lon="-7.952802424452636"><ele>156.0</ele><time>2026-04-01T16:06:16Z</time></trkpt><trkpt lat="42.34066113689273" lon="-7.952978480328047"><ele>156.0</ele><time>2026-04-01T16:06:17Z</time></trkpt><trkpt lat="42.34063207952787" lon="-7.953157377180624"><ele>156.0</ele><time>2026-04-01T16:06:18Z</time></trkpt><trkpt lat="42.34060246789073" lon="-7.953339332307831"><ele>156.25</ele><time>2026-04-01T16:06:19Z</time></trkpt><trkpt lat="42.340571548610214" lon="-7.953533309043222"><ele>156.5</ele><time>2026-04-01T16:06:20Z</time></trkpt><trkpt lat="42.340545172047385" lon="-7.953713221050549"><ele>156.75</ele><time>2026-04-01T16:06:21Z</time></trkpt><trkpt lat="42.34052162655604" lon="-7.95389112894879"><ele>157.0</ele><time>2026-04-01T16:06:22Z</time></trkpt><trkpt lat="42.340495564066714" lon="-7.954074596794827"><ele>155.0</ele><time>2026-04-01T16:06:23Z</time></trkpt><trkpt lat="42.34047357467679" lon="-7.9542317187476925"><ele>153.0</ele><time>2026-04-01T16:06:24Z</time></trkpt><trkpt lat="42.34046037308695" lon="-7.954365712240903"><ele>151.0</ele><time>2026-04-01T16:06:25Z</time></trkpt><trkpt lat="42.34045801172343" lon="-7.95446019989954"><ele>149.0</ele><time>2026-04-01T16:06:26Z</time></trkpt><trkpt lat="42.34045859561371" lon="-7.954553706293675"><ele>147.0</ele><time>2026-04-01T16:06:27Z</time></trkpt><trkpt lat="42.34045716644015" lon="-7.954644993646802"><ele>145.0</ele><time>2026-04-01T16:07:53Z</time></trkpt><trkpt lat="42.34044308701917" lon="-7.954737793736838"><ele>145.0</ele><time>2026-04-01T16:07:54Z</time></trkpt><trkpt lat="42.34040916052084" lon="-7.954858719288958"><ele>145.0</ele><time>2026-04-01T16:07:55Z</time></trkpt><trkpt lat="42.34038953443213" lon="-7.955022370323297"><ele>145.0</ele><time>2026-04-01T16:07:56Z</time></trkpt><trkpt lat="42.34037517730324" lon="-7.955183662416172"><ele>145.0</ele><time>2026-04-01T16:07:57Z</time></trkpt><trkpt lat="42.34035768285153" lon="-7.9553637248717815"><ele>144.66666666666669</ele><time>2026-04-01T16:07:58Z</time></trkpt><trkpt lat="42.34033853454435" lon="-7.955559656245014"><ele>144.33333333333334</ele><time>2026-04-01T16:07:59Z</time></trkpt><trkpt lat="42.34031929580514" lon="-7.955763116753355"><ele>144.0</ele><time>2026-04-01T16:08:00Z</time></trkpt><trkpt lat="42.340299945200364" lon="-7.955981113729393"><ele>144.66666666666666</ele><time>2026-04-01T16:08:01Z</time></trkpt><trkpt lat="42.34027892789626" lon="-7.956205251718529"><ele>145.33333333333331</ele><time>2026-04-01T16:08:02Z</time></trkpt><trkpt lat="42.34025691305128" lon="-7.956437214311357"><ele>146.0</ele><time>2026-04-01T16:08:03Z</time></trkpt><trkpt lat="42.34023370064095" lon="-7.956674750983292"><ele>146.0</ele><time>2026-04-01T16:08:04Z</time></trkpt><trkpt lat="42.34021169474024" lon="-7.956918225637467"><ele>146.0</ele><time>2026-04-01T16:08:05Z</time></trkpt><trkpt lat="42.340197204560305" lon="-7.957171010413597"><ele>146.0</ele><time>2026-04-01T16:08:06Z</time></trkpt><trkpt lat="42.34018799339197" lon="-7.957429828954645"><ele>146.0</ele><time>2026-04-01T16:08:07Z</time></trkpt><trkpt lat="42.34017793534526" lon="-7.957695230925151"><ele>146.0</ele><time>2026-04-01T16:08:08Z</time></trkpt><trkpt lat="42.34016690050544" lon="-7.957961111245549"><ele>146.0</ele><time>2026-04-01T16:08:09Z</time></trkpt><trkpt lat="42.34015418628123" lon="-7.958231831547269"><ele>146.0</ele><time>2026-04-01T16:08:10Z</time></trkpt><trkpt lat="42.34013576666649" lon="-7.958509213572037"><ele>146.0</ele><time>2026-04-01T16:08:11Z</time></trkpt><trkpt lat="42.340111926752996" lon="-7.958792442632034"><ele>146.0</ele><time>2026-04-01T16:08:12Z</time></trkpt><trkpt lat="42.34008876176118" lon="-7.959079964310693"><ele>147.0</ele><time>2026-04-01T16:08:13Z</time></trkpt><trkpt lat="42.34007237540631" lon="-7.9593677700675585"><ele>148.0</ele><time>2026-04-01T16:08:14Z</time></trkpt><trkpt lat="42.34006214981086" lon="-7.959660572691968"><ele>149.0</ele><time>2026-04-01T16:08:15Z</time></trkpt><trkpt lat="42.340071303115806" lon="-7.959960633430956"><ele>146.66666666666666</ele><time>2026-04-01T16:08:16Z</time></trkpt><trkpt lat="42.34010708804667" lon="-7.960259592868416"><ele>144.33333333333334</ele><time>2026-04-01T16:08:17Z</time></trkpt><trkpt lat="42.34016758463473" lon="-7.960549207670255"><ele>142.0</ele><time>2026-04-01T16:08:18Z</time></trkpt><trkpt lat="42.34024672572872" lon="-7.960823331341892"><ele>140.0</ele><time>2026-04-01T16:08:19Z</time></trkpt><trkpt lat="42.3403222154408" lon="-7.961103966444791"><ele>138.0</ele><time>2026-04-01T16:08:20Z</time></trkpt><trkpt lat="42.3403906243024" lon="-7.961387391261281"><ele>136.0</ele><time>2026-04-01T16:08:21Z</time></trkpt><trkpt lat="42.34045455363474" lon="-7.9616777132710626"><ele>137.33333333333334</ele><time>2026-04-01T16:08:22Z</time></trkpt><trkpt lat="42.3405116982514" lon="-7.96196400461884"><ele>138.66666666666666</ele><time>2026-04-01T16:08:23Z</time></trkpt><trkpt lat="42.340564435186494" lon="-7.962251541927753"><ele>140.0</ele><time>2026-04-01T16:08:24Z</time></trkpt><trkpt lat="42.34061033375528" lon="-7.962538394530744"><ele>147.66666666666666</ele><time>2026-04-01T16:08:25Z</time></trkpt><trkpt lat="42.340655820209626" lon="-7.962829804302376"><ele>155.33333333333334</ele><time>2026-04-01T16:08:26Z</time></trkpt><trkpt lat="42.340690703226365" lon="-7.963127611469189"><ele>163.0</ele><time>2026-04-01T16:08:27Z</time></trkpt><trkpt lat="42.34072250663693" lon="-7.9634267442239235"><ele>163.0</ele><time>2026-04-01T16:08:28Z</time></trkpt><trkpt lat="42.340760513953676" lon="-7.9637237012568916"><ele>163.0</ele><time>2026-04-01T16:08:29Z</time></trkpt><trkpt lat="42.3407869349251" lon="-7.964007874147713"><ele>163.0</ele><time>2026-04-01T16:08:30Z</time></trkpt><trkpt lat="42.340787032886425" lon="-7.964268655258487"><ele>167.0</ele><time>2026-04-01T16:08:31Z</time></trkpt><trkpt lat="42.34075298963986" lon="-7.964538914272461"><ele>171.0</ele><time>2026-04-01T16:08:32Z</time></trkpt><trkpt lat="42.34068545400471" lon="-7.96480052514367"><ele>175.0</ele><time>2026-04-01T16:08:33Z</time></trkpt><trkpt lat="42.34059625196963" lon="-7.965052901963569"><ele>167.0</ele><time>2026-04-01T16:08:34Z</time></trkpt><trkpt lat="42.340496158298095" lon="-7.965302819400284"><ele>159.0</ele><time>2026-04-01T16:08:35Z</time></trkpt><trkpt lat="42.34040644585831" lon="-7.96555264924451"><ele>151.0</ele><time>2026-04-01T16:08:36Z</time></trkpt><trkpt lat="42.34034885446958" lon="-7.965820069875719"><ele>151.33333333333334</ele><time>2026-04-01T16:08:37Z</time></trkpt><trkpt lat="42.34032950883926" lon="-7.966097918480646"><ele>151.66666666666666</ele><time>2026-04-01T16:08:38Z</time></trkpt><trkpt lat="42.34035283258652" lon="-7.966378978752359"><ele>152.0</ele><time>2026-04-01T16:08:39Z</time></trkpt><trkpt lat="42.340398320535016" lon="-7.966650310181052"><ele>153.0</ele><time>2026-04-01T16:08:40Z</time></trkpt><trkpt lat="42.340454787513195" lon="-7.966926803624088"><ele>154.0</ele><time>2026-04-01T16:08:41.001Z</time></trkpt><trkpt lat="42.340503842976396" lon="-7.967199227903608"><ele>155.0</ele><time>2026-04-01T16:08:42.001Z</time></trkpt><trkpt lat="42.3405504539825" lon="-7.967467578455334"><ele>159.33333333333331</ele><time>2026-04-01T16:08:43.001Z</time></trkpt><trkpt lat="42.340614070070984" lon="-7.967748586401464"><ele>163.66666666666666</ele><time>2026-04-01T16:08:44.001Z</time></trkpt><trkpt lat="42.34069919487781" lon="-7.968017669796301"><ele>168.0</ele><time>2026-04-01T16:08:45.001Z</time></trkpt><trkpt lat="42.34081361557776" lon="-7.968265632030765"><ele>166.66666666666666</ele><time>2026-04-01T16:08:46.001Z</time></trkpt><trkpt lat="42.340944105775115" lon="-7.968504729334065"><ele>165.33333333333331</ele><time>2026-04-01T16:08:47.001Z</time></trkpt><trkpt lat="42.34108369849461" lon="-7.968717211253236"><ele>164.0</ele><time>2026-04-01T16:08:48.001Z</time></trkpt><trkpt lat="42.34123491120635" lon="-7.968916448907169"><ele>164.0</ele><time>2026-04-01T16:08:49.001Z</time></trkpt><trkpt lat="42.341376693365014" lon="-7.969102326801398"><ele>164.0</ele><time>2026-04-01T16:08:50.001Z</time></trkpt><trkpt lat="42.341507873289196" lon="-7.969289857585554"><ele>164.0</ele><time>2026-04-01T16:08:51.001Z</time></trkpt><trkpt lat="42.34162327529584" lon="-7.969493334079295"><ele>161.0</ele><time>2026-04-01T16:08:52.001Z</time></trkpt><trkpt lat="42.34171030969269" lon="-7.96972454742744"><ele>158.0</ele><time>2026-04-01T16:08:53.001Z</time></trkpt><trkpt lat="42.341784427785356" lon="-7.9699838823658435"><ele>155.0</ele><time>2026-04-01T16:08:54.001Z</time></trkpt><trkpt lat="42.34183844821618" lon="-7.9702424212916165"><ele>154.66666666666666</ele><time>2026-04-01T16:08:55.001Z</time></trkpt><trkpt lat="42.34186876585392" lon="-7.9705034375539645"><ele>154.33333333333334</ele><time>2026-04-01T16:08:56.001Z</time></trkpt><trkpt lat="42.34187047798705" lon="-7.970753397701965"><ele>154.0</ele><time>2026-04-01T16:08:57.001Z</time></trkpt><trkpt lat="42.341852427945156" lon="-7.971010100700449"><ele>154.0</ele><time>2026-04-01T16:08:58.001Z</time></trkpt><trkpt lat="42.34181480859374" lon="-7.971250368877713"><ele>154.0</ele><time>2026-04-01T16:08:59.001Z</time></trkpt><trkpt lat="42.341759360844385" lon="-7.971479078541986"><ele>154.0</ele><time>2026-04-01T16:09:00.001Z</time></trkpt><trkpt lat="42.34168677928821" lon="-7.971710772640411"><ele>157.33333333333334</ele><time>2026-04-01T16:09:01.001Z</time></trkpt><trkpt lat="42.34159522982587" lon="-7.9719448216264075"><ele>160.66666666666666</ele><time>2026-04-01T16:09:02.001Z</time></trkpt><trkpt lat="42.341482913720256" lon="-7.972171047794113"><ele>164.0</ele><time>2026-04-01T16:09:03.001Z</time></trkpt><trkpt lat="42.34135304351059" lon="-7.972394574774432"><ele>161.66666666666666</ele><time>2026-04-01T16:09:04.001Z</time></trkpt><trkpt lat="42.341219509867656" lon="-7.972616233378698"><ele>159.33333333333334</ele><time>2026-04-01T16:09:05.001Z</time></trkpt><trkpt lat="42.341086849025416" lon="-7.972849581188413"><ele>157.0</ele><time>2026-04-01T16:09:06.001Z</time></trkpt><trkpt lat="42.34096459852353" lon="-7.973089434108783"><ele>157.0</ele><time>2026-04-01T16:09:07.001Z</time></trkpt><trkpt lat="42.3408604103286" lon="-7.973335732813843"><ele>157.0</ele><time>2026-04-01T16:09:08.001Z</time></trkpt><trkpt lat="42.34077698987235" lon="-7.973590783787076"><ele>157.0</ele><time>2026-04-01T16:09:09.001Z</time></trkpt><trkpt lat="42.340717976367124" lon="-7.973857454758708"><ele>156.33333333333334</ele><time>2026-04-01T16:09:10.001Z</time></trkpt><trkpt lat="42.34069996473846" lon="-7.974152358705024"><ele>155.66666666666666</ele><time>2026-04-01T16:09:11.001Z</time></trkpt><trkpt lat="42.340719772774705" lon="-7.974454682064997"><ele>155.0</ele><time>2026-04-01T16:09:12.001Z</time></trkpt><trkpt lat="42.340777680868165" lon="-7.974737352356267"><ele>151.5</ele><time>2026-04-01T16:09:13.001Z</time></trkpt><trkpt lat="42.34088789818342" lon="-7.975003874015567"><ele>148.0</ele><time>2026-04-01T16:09:14.001Z</time></trkpt><trkpt lat="42.34101550766444" lon="-7.975252902179635"><ele>144.5</ele><time>2026-04-01T16:09:15.001Z</time></trkpt><trkpt lat="42.341166630313396" lon="-7.9754885484283875"><ele>141.0</ele><time>2026-04-01T16:09:16.001Z</time></trkpt><trkpt lat="42.3413478300823" lon="-7.9756994959339425"><ele>134.5</ele><time>2026-04-01T16:09:17.001Z</time></trkpt><trkpt lat="42.3415425078413" lon="-7.975891690321482"><ele>128.0</ele><time>2026-04-01T16:09:18.001Z</time></trkpt><trkpt lat="42.34175531179168" lon="-7.976065844553452"><ele>128.0</ele><time>2026-04-01T16:09:19.001Z</time></trkpt><trkpt lat="42.34196932624806" lon="-7.976227957028075"><ele>128.0</ele><time>2026-04-01T16:09:20.001Z</time></trkpt><trkpt lat="42.34218951721167" lon="-7.976386755697245"><ele>132.0</ele><time>2026-04-01T16:09:21.001Z</time></trkpt><trkpt lat="42.34240769199212" lon="-7.976543331517976"><ele>136.0</ele><time>2026-04-01T16:09:22.001Z</time></trkpt><trkpt lat="42.34260667397115" lon="-7.976702877332103"><ele>132.0</ele><time>2026-04-01T16:09:23.001Z</time></trkpt><trkpt lat="42.34278355607783" lon="-7.976864501535362"><ele>128.0</ele><time>2026-04-01T16:09:24.001Z</time></trkpt><trkpt lat="42.34294288638832" lon="-7.977050036651798"><ele>124.0</ele><time>2026-04-01T16:09:25.001Z</time></trkpt><trkpt lat="42.3430834672156" lon="-7.977251474563286"><ele>124.0</ele><time>2026-04-01T16:09:26.001Z</time></trkpt><trkpt lat="42.34320821750635" lon="-7.97748651185229"><ele>124.0</ele><time>2026-04-01T16:09:27.001Z</time></trkpt><trkpt lat="42.34330234060554" lon="-7.977745362031495"><ele>124.0</ele><time>2026-04-01T16:09:28.001Z</time></trkpt><trkpt lat="42.34335868524678" lon="-7.978020097965255"><ele>125.0</ele><time>2026-04-01T16:09:29.001Z</time></trkpt><trkpt lat="42.343374517331846" lon="-7.978297884824011"><ele>126.0</ele><time>2026-04-01T16:09:30.001Z</time></trkpt><trkpt lat="42.343368497741615" lon="-7.9785745284993785"><ele>127.0</ele><time>2026-04-01T16:09:31.001Z</time></trkpt><trkpt lat="42.34332881299542" lon="-7.978848581108511"><ele>129.33333333333334</ele><time>2026-04-01T16:09:32.001Z</time></trkpt><trkpt lat="42.34326267365485" lon="-7.979114170342198"><ele>131.66666666666666</ele><time>2026-04-01T16:09:33.001Z</time></trkpt><trkpt lat="42.34318096350725" lon="-7.979361438451102"><ele>134.0</ele><time>2026-04-01T16:09:34.001Z</time></trkpt><trkpt lat="42.34310676531186" lon="-7.979627138124834"><ele>135.66666666666666</ele><time>2026-04-01T16:09:35.001Z</time></trkpt><trkpt lat="42.343062095650495" lon="-7.979885222484008"><ele>137.33333333333334</ele><time>2026-04-01T16:09:36.001Z</time></trkpt><trkpt lat="42.34305384017508" lon="-7.980133357381917"><ele>139.0</ele><time>2026-04-01T16:09:37.001Z</time></trkpt><trkpt lat="42.34307741120403" lon="-7.980372001048277"><ele>140.33333333333334</ele><time>2026-04-01T16:09:38.001Z</time></trkpt><trkpt lat="42.343150524391085" lon="-7.980619891848759"><ele>141.66666666666666</ele><time>2026-04-01T16:09:39.001Z</time></trkpt><trkpt lat="42.34324891490896" lon="-7.980838301895699"><ele>143.0</ele><time>2026-04-01T16:09:40.001Z</time></trkpt><trkpt lat="42.34337232079941" lon="-7.9810370013113525"><ele>143.0</ele><time>2026-04-01T16:09:41.001Z</time></trkpt><trkpt lat="42.34352761353724" lon="-7.981201194120646"><ele>143.0</ele><time>2026-04-01T16:09:42.001Z</time></trkpt><trkpt lat="42.343693753870674" lon="-7.981330366453283"><ele>143.0</ele><time>2026-04-01T16:09:43.001Z</time></trkpt><trkpt lat="42.343872404175706" lon="-7.981419749933905"><ele>144.0</ele><time>2026-04-01T16:09:44.001Z</time></trkpt><trkpt lat="42.34405451587438" lon="-7.981487930558827"><ele>145.0</ele><time>2026-04-01T16:09:45.001Z</time></trkpt><trkpt lat="42.34423770672918" lon="-7.981540647307988"><ele>146.0</ele><time>2026-04-01T16:09:46.001Z</time></trkpt><trkpt lat="42.34442794993543" lon="-7.98158482451241"><ele>146.0</ele><time>2026-04-01T16:09:47.001Z</time></trkpt><trkpt lat="42.34462081169716" lon="-7.981628888468315"><ele>146.0</ele><time>2026-04-01T16:09:48.001Z</time></trkpt><trkpt lat="42.3448109265967" lon="-7.981682884821955"><ele>146.0</ele><time>2026-04-01T16:09:49.001Z</time></trkpt><trkpt lat="42.344985800965624" lon="-7.981750521629675"><ele>142.0</ele><time>2026-04-01T16:09:50.001Z</time></trkpt><trkpt lat="42.34515777672385" lon="-7.981836919210949"><ele>138.0</ele><time>2026-04-01T16:09:51.001Z</time></trkpt><trkpt lat="42.345331780002745" lon="-7.9819462735682345"><ele>134.0</ele><time>2026-04-01T16:09:52.001Z</time></trkpt><trkpt lat="42.34549915144041" lon="-7.982092169086724"><ele>134.0</ele><time>2026-04-01T16:09:53.001Z</time></trkpt><trkpt lat="42.34565353335369" lon="-7.982262627933118"><ele>134.0</ele><time>2026-04-01T16:09:54.001Z</time></trkpt><trkpt lat="42.34579247196976" lon="-7.982460623869592"><ele>134.0</ele><time>2026-04-01T16:09:55.001Z</time></trkpt><trkpt lat="42.345916678314225" lon="-7.982693806871213"><ele>132.33333333333331</ele><time>2026-04-01T16:09:56.001Z</time></trkpt><trkpt lat="42.34601321303378" lon="-7.9829499854916035"><ele>130.66666666666666</ele><time>2026-04-01T16:09:57.001Z</time></trkpt><trkpt lat="42.34608808566092" lon="-7.9832300474953195"><ele>129.0</ele><time>2026-04-01T16:09:58.001Z</time></trkpt><trkpt lat="42.34613740349286" lon="-7.983518180782658"><ele>127.0</ele><time>2026-04-01T16:09:59.001Z</time></trkpt><trkpt lat="42.3461743377691" lon="-7.983824943693499"><ele>125.0</ele><time>2026-04-01T16:10:00.001Z</time></trkpt><trkpt lat="42.346198170579996" lon="-7.984136761208654"><ele>122.5</ele><time>2026-04-01T16:10:01.001Z</time></trkpt><trkpt lat="42.34622140853126" lon="-7.984454734924002"><ele>120.0</ele><time>2026-04-01T16:10:02.001Z</time></trkpt><trkpt lat="42.3462406654189" lon="-7.984782665972458"><ele>119.0</ele><time>2026-04-01T16:10:03.001Z</time></trkpt><trkpt lat="42.34626020076446" lon="-7.985110254048663"><ele>118.0</ele><time>2026-04-01T16:10:04.001Z</time></trkpt><trkpt lat="42.34628461313582" lon="-7.985439718036429"><ele>118.0</ele><time>2026-04-01T16:10:05.001Z</time></trkpt><trkpt lat="42.34631227234975" lon="-7.985774441042617"><ele>118.0</ele><time>2026-04-01T16:10:06.001Z</time></trkpt><trkpt lat="42.34634927048719" lon="-7.986105354236019"><ele>121.5</ele><time>2026-04-01T16:10:07.001Z</time></trkpt><trkpt lat="42.346389442167094" lon="-7.986437153443821"><ele>125.0</ele><time>2026-04-01T16:10:08.001Z</time></trkpt><trkpt lat="42.346438648629" lon="-7.986745316247311"><ele>125.0</ele><time>2026-04-01T16:10:09.001Z</time></trkpt><trkpt lat="42.346505516919166" lon="-7.987035700389007"><ele>125.0</ele><time>2026-04-01T16:10:10.001Z</time></trkpt><trkpt lat="42.34658314583524" lon="-7.9873233747290335"><ele>125.0</ele><time>2026-04-01T16:10:11.001Z</time></trkpt><trkpt lat="42.34666529610259" lon="-7.987617637686014"><ele>125.0</ele><time>2026-04-01T16:10:12.001Z</time></trkpt><trkpt lat="42.3467502505198" lon="-7.987916649394884"><ele>125.0</ele><time>2026-04-01T16:10:13.001Z</time></trkpt><trkpt lat="42.34683041272327" lon="-7.988218013179058"><ele>125.0</ele><time>2026-04-01T16:10:14.001Z</time></trkpt><trkpt lat="42.34691176837468" lon="-7.988527271520911"><ele>125.0</ele><time>2026-04-01T16:10:15.001Z</time></trkpt><trkpt lat="42.346988772679964" lon="-7.988830237799324"><ele>125.0</ele><time>2026-04-01T16:10:16.001Z</time></trkpt><trkpt lat="42.34707247339321" lon="-7.989135464549968"><ele>125.0</ele><time>2026-04-01T16:10:17.001Z</time></trkpt><trkpt lat="42.347159742861365" lon="-7.989439776417329"><ele>125.0</ele><time>2026-04-01T16:10:18.001Z</time></trkpt><trkpt lat="42.34725116571268" lon="-7.989746251603046"><ele>124.5</ele><time>2026-04-01T16:10:19.001Z</time></trkpt><trkpt lat="42.34734113325625" lon="-7.990056477680885"><ele>124.0</ele><time>2026-04-01T16:10:20.001Z</time></trkpt><trkpt lat="42.34743157812291" lon="-7.990369564500241"><ele>124.0</ele><time>2026-04-01T16:10:21.001Z</time></trkpt><trkpt lat="42.3475225994379" lon="-7.990680646343796"><ele>124.0</ele><time>2026-04-01T16:10:22.001Z</time></trkpt><trkpt lat="42.34761221938274" lon="-7.990997678129377"><ele>124.0</ele><time>2026-04-01T16:10:23.001Z</time></trkpt><trkpt lat="42.347694488394254" lon="-7.9913098106013445"><ele>124.0</ele><time>2026-04-01T16:10:24.001Z</time></trkpt><trkpt lat="42.34778022234182" lon="-7.991632777857984"><ele>123.5</ele><time>2026-04-01T16:10:25.001Z</time></trkpt><trkpt lat="42.34786610227759" lon="-7.99194727964813"><ele>123.0</ele><time>2026-04-01T16:10:26.001Z</time></trkpt><trkpt lat="42.347958976973956" lon="-7.992265677511408"><ele>123.0</ele><time>2026-04-01T16:10:27.001Z</time></trkpt><trkpt lat="42.348050442766535" lon="-7.992579458849543"><ele>123.0</ele><time>2026-04-01T16:10:28.001Z</time></trkpt><trkpt lat="42.34814235416109" lon="-7.9928955736267175"><ele>123.0</ele><time>2026-04-01T16:10:29.001Z</time></trkpt><trkpt lat="42.34823248121171" lon="-7.993208280373864"><ele>123.0</ele><time>2026-04-01T16:10:30.001Z</time></trkpt><trkpt lat="42.348322788873176" lon="-7.993514075120531"><ele>122.5</ele><time>2026-04-01T16:10:31.001Z</time></trkpt><trkpt lat="42.34841931315404" lon="-7.993826188293884"><ele>122.0</ele><time>2026-04-01T16:10:32.001Z</time></trkpt><trkpt lat="42.34852157419882" lon="-7.994127939287932"><ele>120.5</ele><time>2026-04-01T16:10:33.001Z</time></trkpt><trkpt lat="42.3486293822905" lon="-7.9944292734700975"><ele>119.0</ele><time>2026-04-01T16:10:34.001Z</time></trkpt><trkpt lat="42.34873464685214" lon="-7.994732484272533"><ele>119.0</ele><time>2026-04-01T16:10:35.001Z</time></trkpt><trkpt lat="42.34883024289929" lon="-7.995021542689007"><ele>119.0</ele><time>2026-04-01T16:10:36.001Z</time></trkpt><trkpt lat="42.34892262372594" lon="-7.995296655704777"><ele>119.0</ele><time>2026-04-01T16:10:37.001Z</time></trkpt><trkpt lat="42.34901492287361" lon="-7.995573854884266"><ele>119.0</ele><time>2026-04-01T16:10:38.001Z</time></trkpt><trkpt lat="42.349098245719155" lon="-7.995851845362416"><ele>119.0</ele><time>2026-04-01T16:10:39.001Z</time></trkpt><trkpt lat="42.349172081851876" lon="-7.996118486923504"><ele>120.0</ele><time>2026-04-01T16:10:40.001Z</time></trkpt><trkpt lat="42.34924235668417" lon="-7.996384286757184"><ele>121.0</ele><time>2026-04-01T16:10:41.001Z</time></trkpt><trkpt lat="42.34929381852645" lon="-7.996643159979352"><ele>122.0</ele><time>2026-04-01T16:10:42.001Z</time></trkpt><trkpt lat="42.34934216728605" lon="-7.9968883559129145"><ele>123.0</ele><time>2026-04-01T16:10:43.001Z</time></trkpt><trkpt lat="42.349384066164184" lon="-7.997127237529326"><ele>124.0</ele><time>2026-04-01T16:10:44.001Z</time></trkpt><trkpt lat="42.349420686221585" lon="-7.997372643871013"><ele>125.0</ele><time>2026-04-01T16:10:45.001Z</time></trkpt><trkpt lat="42.34945837481914" lon="-7.997606071281437"><ele>125.0</ele><time>2026-04-01T16:10:46.001Z</time></trkpt><trkpt lat="42.349487333279185" lon="-7.997834711864927"><ele>125.0</ele><time>2026-04-01T16:10:47.001Z</time></trkpt><trkpt lat="42.34950676176433" lon="-7.998053341416173"><ele>125.0</ele><time>2026-04-01T16:10:48.001Z</time></trkpt><trkpt lat="42.34952524989744" lon="-7.99827120619194"><ele>122.66666666666666</ele><time>2026-04-01T16:10:49.001Z</time></trkpt><trkpt lat="42.34955477207896" lon="-7.998491500419352"><ele>120.33333333333334</ele><time>2026-04-01T16:10:50.001Z</time></trkpt><trkpt lat="42.34958389864744" lon="-7.998716856012136"><ele>118.0</ele><time>2026-04-01T16:10:51.001Z</time></trkpt><trkpt lat="42.34960961350331" lon="-7.998941306690928"><ele>115.66666666666667</ele><time>2026-04-01T16:10:52.001Z</time></trkpt><trkpt lat="42.34963845112752" lon="-7.999168711808558"><ele>113.33333333333334</ele><time>2026-04-01T16:10:53.001Z</time></trkpt><trkpt lat="42.34967164283529" lon="-7.999399393401897"><ele>111.0</ele><time>2026-04-01T16:10:54.001Z</time></trkpt><trkpt lat="42.34970585099769" lon="-7.999639393409921"><ele>112.0</ele><time>2026-04-01T16:10:55.001Z</time></trkpt><trkpt lat="42.349736566524705" lon="-7.9998700039426405"><ele>113.0</ele><time>2026-04-01T16:10:56.001Z</time></trkpt><trkpt lat="42.349764946630025" lon="-8.000093314075581"><ele>114.0</ele><time>2026-04-01T16:10:57.001Z</time></trkpt><trkpt lat="42.34979565917276" lon="-8.000304867118894"><ele>114.0</ele><time>2026-04-01T16:10:58.001Z</time></trkpt><trkpt lat="42.349831482177116" lon="-8.000512692929709"><ele>114.0</ele><time>2026-04-01T16:10:59.001Z</time></trkpt><trkpt lat="42.349874207087296" lon="-8.00071379925999"><ele>114.0</ele><time>2026-04-01T16:11:00.001Z</time></trkpt><trkpt lat="42.34991573624499" lon="-8.000911183290599"><ele>113.0</ele><time>2026-04-01T16:11:01.001Z</time></trkpt><trkpt lat="42.3499594637978" lon="-8.001097026292202"><ele>112.0</ele><time>2026-04-01T16:11:02.001Z</time></trkpt><trkpt lat="42.35000075848633" lon="-8.001281028015596"><ele>111.0</ele><time>2026-04-01T16:11:03.001Z</time></trkpt><trkpt lat="42.35004148736643" lon="-8.001463861795818"><ele>110.0</ele><time>2026-04-01T16:11:04.001Z</time></trkpt><trkpt lat="42.350075661592506" lon="-8.001649191127703"><ele>108.0</ele><time>2026-04-01T16:11:05.001Z</time></trkpt><trkpt lat="42.350099772378286" lon="-8.00184036302556"><ele>106.0</ele><time>2026-04-01T16:11:06.001Z</time></trkpt><trkpt lat="42.350109596174946" lon="-8.002032255692262"><ele>104.0</ele><time>2026-04-01T16:11:07.001Z</time></trkpt><trkpt lat="42.35008528543385" lon="-8.002235552156968"><ele>102.0</ele><time>2026-04-01T16:11:08.001Z</time></trkpt><trkpt lat="42.35002120827138" lon="-8.002436342088414"><ele>99.5</ele><time>2026-04-01T16:11:09.001Z</time></trkpt><trkpt lat="42.349955626758046" lon="-8.002613774447347"><ele>97.0</ele><time>2026-04-01T16:11:10.001Z</time></trkpt><trkpt lat="42.34989395154235" lon="-8.002788367845024"><ele>94.5</ele><time>2026-04-01T16:11:11.001Z</time></trkpt><trkpt lat="42.349845900656064" lon="-8.002944479034067"><ele>92.0</ele><time>2026-04-01T16:11:12.001Z</time></trkpt><trkpt lat="42.34981105459198" lon="-8.003092164019227"><ele>92.0</ele><time>2026-04-01T16:11:13.001Z</time></trkpt><trkpt lat="42.34980958546493" lon="-8.00323020476231"><ele>92.0</ele><time>2026-04-01T16:11:14.001Z</time></trkpt><trkpt lat="42.34984355042613" lon="-8.003367992253018"><ele>92.0</ele><time>2026-04-01T16:11:15.001Z</time></trkpt><trkpt lat="42.349916999474544" lon="-8.003496808584392"><ele>92.0</ele><time>2026-04-01T16:11:16.001Z</time></trkpt><trkpt lat="42.350020062563814" lon="-8.003625125395535"><ele>92.5</ele><time>2026-04-01T16:11:17.001Z</time></trkpt><trkpt lat="42.35012346665858" lon="-8.003756367906167"><ele>93.0</ele><time>2026-04-01T16:11:18.001Z</time></trkpt><trkpt lat="42.35022258598841" lon="-8.003903960983981"><ele>93.5</ele><time>2026-04-01T16:11:19.001Z</time></trkpt><trkpt lat="42.350311770960424" lon="-8.004062701891982"><ele>94.0</ele><time>2026-04-01T16:11:20.001Z</time></trkpt><trkpt lat="42.35040807643849" lon="-8.004222454849112"><ele>94.66666666666666</ele><time>2026-04-01T16:11:21.001Z</time></trkpt><trkpt lat="42.35050881824883" lon="-8.004387919961266"><ele>95.33333333333333</ele><time>2026-04-01T16:11:22.001Z</time></trkpt><trkpt lat="42.35061224526498" lon="-8.004553040913589"><ele>96.0</ele><time>2026-04-01T16:11:23.001Z</time></trkpt><trkpt lat="42.350719219673344" lon="-8.004725135596521"><ele>96.0</ele><time>2026-04-01T16:11:24.001Z</time></trkpt><trkpt lat="42.35083736237243" lon="-8.004892908294115"><ele>96.0</ele><time>2026-04-01T16:11:25.001Z</time></trkpt><trkpt lat="42.35097382187776" lon="-8.005031493233703"><ele>96.0</ele><time>2026-04-01T16:11:26.001Z</time></trkpt><trkpt lat="42.35112113899318" lon="-8.00516023942247"><ele>98.33333333333334</ele><time>2026-04-01T16:11:27.001Z</time></trkpt><trkpt lat="42.35127033063673" lon="-8.005263078614394"><ele>100.66666666666667</ele><time>2026-04-01T16:11:28.001Z</time></trkpt><trkpt lat="42.351443485318775" lon="-8.005334948212347"><ele>103.0</ele><time>2026-04-01T16:11:29.001Z</time></trkpt><trkpt lat="42.351618766197134" lon="-8.005381826289291"><ele>103.0</ele><time>2026-04-01T16:11:30.001Z</time></trkpt><trkpt lat="42.35180064748144" lon="-8.005404971074936"><ele>103.0</ele><time>2026-04-01T16:11:31.001Z</time></trkpt><trkpt lat="42.35198119393899" lon="-8.00540278302231"><ele>103.0</ele><time>2026-04-01T16:11:32.001Z</time></trkpt><trkpt lat="42.35216042428053" lon="-8.005385418589881"><ele>104.0</ele><time>2026-04-01T16:11:33.001Z</time></trkpt><trkpt lat="42.3523507060185" lon="-8.005381339372835"><ele>105.0</ele><time>2026-04-01T16:11:34.001Z</time></trkpt><trkpt lat="42.352537557852415" lon="-8.005382346647508"><ele>106.0</ele><time>2026-04-01T16:11:35Z</time></trkpt><trkpt lat="42.352730779444855" lon="-8.00538092748692"><ele>106.0</ele><time>2026-04-01T16:11:36Z</time></trkpt><trkpt lat="42.35292483200945" lon="-8.00537318223016"><ele>106.0</ele><time>2026-04-01T16:11:37Z</time></trkpt><trkpt lat="42.353120263473116" lon="-8.005368831194756"><ele>106.0</ele><time>2026-04-01T16:11:38Z</time></trkpt><trkpt lat="42.35331822585746" lon="-8.005361889828825"><ele>107.0</ele><time>2026-04-01T16:11:39Z</time></trkpt><trkpt lat="42.35351808074726" lon="-8.00535681232662"><ele>108.0</ele><time>2026-04-01T16:11:40Z</time></trkpt><trkpt lat="42.35372190569477" lon="-8.005352077581955"><ele>109.0</ele><time>2026-04-01T16:11:41Z</time></trkpt><trkpt lat="42.35392534701698" lon="-8.005338327728207"><ele>109.0</ele><time>2026-04-01T16:11:42Z</time></trkpt><trkpt lat="42.35413387869605" lon="-8.005324388913767"><ele>109.0</ele><time>2026-04-01T16:11:43Z</time></trkpt><trkpt lat="42.35434330414744" lon="-8.005312008357937"><ele>109.0</ele><time>2026-04-01T16:11:44Z</time></trkpt><trkpt lat="42.35455664073467" lon="-8.005304646485397"><ele>109.0</ele><time>2026-04-01T16:11:45Z</time></trkpt><trkpt lat="42.354775060507386" lon="-8.005295509505844"><ele>109.0</ele><time>2026-04-01T16:11:46Z</time></trkpt><trkpt lat="42.35499070041627" lon="-8.005276528673283"><ele>109.0</ele><time>2026-04-01T16:11:47Z</time></trkpt><trkpt lat="42.355209418231034" lon="-8.00526024273506"><ele>109.0</ele><time>2026-04-01T16:11:48Z</time></trkpt><trkpt lat="42.35543143835008" lon="-8.005243550046075"><ele>109.0</ele><time>2026-04-01T16:11:49Z</time></trkpt><trkpt lat="42.35565810439679" lon="-8.005233270949306"><ele>109.0</ele><time>2026-04-01T16:11:50Z</time></trkpt><trkpt lat="42.355887329630654" lon="-8.005225669739588"><ele>110.0</ele><time>2026-04-01T16:11:51Z</time></trkpt><trkpt lat="42.35610759540445" lon="-8.005220135718703"><ele>111.0</ele><time>2026-04-01T16:11:52Z</time></trkpt><trkpt lat="42.35631442696873" lon="-8.005222436597336"><ele>112.0</ele><time>2026-04-01T16:11:53Z</time></trkpt><trkpt lat="42.35650860727553" lon="-8.00522394951496"><ele>112.66666666666667</ele><time>2026-04-01T16:11:54Z</time></trkpt><trkpt lat="42.35668992099125" lon="-8.005233098441627"><ele>113.33333333333334</ele><time>2026-04-01T16:11:55Z</time></trkpt><trkpt lat="42.35685715186938" lon="-8.005250616061595"><ele>114.0</ele><time>2026-04-01T16:11:56Z</time></trkpt><trkpt lat="42.35702469657486" lon="-8.005271916435408"><ele>114.0</ele><time>2026-04-01T16:11:57Z</time></trkpt><trkpt lat="42.35719134423535" lon="-8.00529651362819"><ele>114.0</ele><time>2026-04-01T16:11:58Z</time></trkpt><trkpt lat="42.3573558891221" lon="-8.005316297347724"><ele>114.0</ele><time>2026-04-01T16:11:59Z</time></trkpt><trkpt lat="42.35752482072893" lon="-8.005320674270415"><ele>114.66666666666666</ele><time>2026-04-01T16:12:00Z</time></trkpt><trkpt lat="42.35769621156585" lon="-8.005302161119113"><ele>115.33333333333333</ele><time>2026-04-01T16:12:01Z</time></trkpt><trkpt lat="42.35787389037278" lon="-8.00525689096707"><ele>116.0</ele><time>2026-04-01T16:12:02Z</time></trkpt><trkpt lat="42.35804841308727" lon="-8.00518822238812"><ele>116.0</ele><time>2026-04-01T16:12:03Z</time></trkpt><trkpt lat="42.35821544670501" lon="-8.005089378713478"><ele>116.0</ele><time>2026-04-01T16:12:04Z</time></trkpt><trkpt lat="42.35837442326629" lon="-8.004973571727454"><ele>116.0</ele><time>2026-04-01T16:12:05Z</time></trkpt><trkpt lat="42.35852826983064" lon="-8.004854603688653"><ele>117.66666666666666</ele><time>2026-04-01T16:12:06Z</time></trkpt><trkpt lat="42.35868082783073" lon="-8.004740603953888"><ele>119.33333333333334</ele><time>2026-04-01T16:12:07Z</time></trkpt><trkpt lat="42.35883530158049" lon="-8.004635784397555"><ele>121.0</ele><time>2026-04-01T16:12:08Z</time></trkpt><trkpt lat="42.35899355547529" lon="-8.00453002073624"><ele>121.0</ele><time>2026-04-01T16:12:09Z</time></trkpt><trkpt lat="42.35915712810762" lon="-8.004423012932458"><ele>121.0</ele><time>2026-04-01T16:12:10Z</time></trkpt><trkpt lat="42.359321957676755" lon="-8.004321113054079"><ele>121.0</ele><time>2026-04-01T16:12:11Z</time></trkpt><trkpt lat="42.35949034967194" lon="-8.004234009220525"><ele>120.33333333333334</ele><time>2026-04-01T16:12:12Z</time></trkpt><trkpt lat="42.35965919189635" lon="-8.004139861333226"><ele>119.66666666666666</ele><time>2026-04-01T16:12:13Z</time></trkpt><trkpt lat="42.35982127404294" lon="-8.004044689349426"><ele>119.0</ele><time>2026-04-01T16:12:14Z</time></trkpt><trkpt lat="42.35997940261672" lon="-8.003948329049345"><ele>119.0</ele><time>2026-04-01T16:12:15Z</time></trkpt><trkpt lat="42.36014507099932" lon="-8.003875499565934"><ele>119.0</ele><time>2026-04-01T16:12:16Z</time></trkpt><trkpt lat="42.360315881811864" lon="-8.00378655189115"><ele>119.0</ele><time>2026-04-01T16:12:17Z</time></trkpt><trkpt lat="42.36048467108326" lon="-8.003691504638487"><ele>118.33333333333333</ele><time>2026-04-01T16:12:18Z</time></trkpt><trkpt lat="42.36064781118103" lon="-8.003596785765676"><ele>117.66666666666666</ele><time>2026-04-01T16:12:19Z</time></trkpt><trkpt lat="42.360798215467085" lon="-8.003514579846119"><ele>117.0</ele><time>2026-04-01T16:12:20Z</time></trkpt><trkpt lat="42.360941530174124" lon="-8.003427316814403"><ele>117.0</ele><time>2026-04-01T16:12:21Z</time></trkpt><trkpt lat="42.36109270638311" lon="-8.003326255966483"><ele>117.0</ele><time>2026-04-01T16:12:22Z</time></trkpt><trkpt lat="42.36124511827327" lon="-8.003205630619785"><ele>117.0</ele><time>2026-04-01T16:12:23Z</time></trkpt><trkpt lat="42.36139258761645" lon="-8.003060212884144"><ele>117.0</ele><time>2026-04-01T16:12:24Z</time></trkpt><trkpt lat="42.36153378461149" lon="-8.00290730562261"><ele>117.0</ele><time>2026-04-01T16:12:25Z</time></trkpt><trkpt lat="42.36165855313048" lon="-8.00274800883296"><ele>117.0</ele><time>2026-04-01T16:12:26Z</time></trkpt><trkpt lat="42.3617809781268" lon="-8.002586169218837"><ele>117.0</ele><time>2026-04-01T16:12:27Z</time></trkpt><trkpt lat="42.3619026929972" lon="-8.002434488484711"><ele>117.0</ele><time>2026-04-01T16:12:28Z</time></trkpt><trkpt lat="42.3620308015128" lon="-8.002271164526505"><ele>117.0</ele><time>2026-04-01T16:12:29Z</time></trkpt><trkpt lat="42.36215678563881" lon="-8.002110475203647"><ele>118.66666666666666</ele><time>2026-04-01T16:12:30Z</time></trkpt><trkpt lat="42.36229014700171" lon="-8.00197181387831"><ele>120.33333333333333</ele><time>2026-04-01T16:12:31Z</time></trkpt><trkpt lat="42.36241878249345" lon="-8.001870930912819"><ele>122.0</ele><time>2026-04-01T16:12:32Z</time></trkpt><trkpt lat="42.362574374925536" lon="-8.001796481830464"><ele>122.0</ele><time>2026-04-01T16:12:33Z</time></trkpt><trkpt lat="42.362740932653175" lon="-8.001755845981661"><ele>122.0</ele><time>2026-04-01T16:12:34Z</time></trkpt><trkpt lat="42.362912919715605" lon="-8.001739503377898"><ele>122.0</ele><time>2026-04-01T16:12:35Z</time></trkpt><trkpt lat="42.363090317760204" lon="-8.001746037394414"><ele>122.0</ele><time>2026-04-01T16:12:36Z</time></trkpt><trkpt lat="42.36327360257019" lon="-8.00176136637222"><ele>122.0</ele><time>2026-04-01T16:12:37Z</time></trkpt><trkpt lat="42.36346060104525" lon="-8.001780155284187"><ele>122.0</ele><time>2026-04-01T16:12:38Z</time></trkpt><trkpt lat="42.36363712550999" lon="-8.001791357188685"><ele>122.0</ele><time>2026-04-01T16:12:39Z</time></trkpt><trkpt lat="42.363804399065955" lon="-8.001799453384226"><ele>122.0</ele><time>2026-04-01T16:12:40Z</time></trkpt><trkpt lat="42.363974524161705" lon="-8.001808056480247"><ele>122.0</ele><time>2026-04-01T16:12:41Z</time></trkpt><trkpt lat="42.36413621688589" lon="-8.001812646501904"><ele>121.66666666666666</ele><time>2026-04-01T16:12:42Z</time></trkpt><trkpt lat="42.36430812306002" lon="-8.001823956556095"><ele>121.33333333333334</ele><time>2026-04-01T16:12:43Z</time></trkpt><trkpt lat="42.36447813899089" lon="-8.001827910861643"><ele>121.0</ele><time>2026-04-01T16:12:44Z</time></trkpt><trkpt lat="42.364650409821124" lon="-8.001828554436596"><ele>121.66666666666667</ele><time>2026-04-01T16:12:45Z</time></trkpt><trkpt lat="42.36482978054209" lon="-8.001828644397404"><ele>122.33333333333334</ele><time>2026-04-01T16:12:46Z</time></trkpt><trkpt lat="42.365005738877656" lon="-8.001808065337054"><ele>123.0</ele><time>2026-04-01T16:12:47Z</time></trkpt><trkpt lat="42.36518251590953" lon="-8.001761575689926"><ele>123.0</ele><time>2026-04-01T16:12:48Z</time></trkpt><trkpt lat="42.365349043281334" lon="-8.00169247536864"><ele>123.0</ele><time>2026-04-01T16:12:49Z</time></trkpt><trkpt lat="42.36550793761076" lon="-8.001600240557018"><ele>123.0</ele><time>2026-04-01T16:12:50Z</time></trkpt><trkpt lat="42.365654590350786" lon="-8.001491527752485"><ele>125.66666666666666</ele><time>2026-04-01T16:12:51Z</time></trkpt><trkpt lat="42.36579282188809" lon="-8.001372806507797"><ele>128.33333333333331</ele><time>2026-04-01T16:12:52Z</time></trkpt><trkpt lat="42.36592831138234" lon="-8.001253166617053"><ele>131.0</ele><time>2026-04-01T16:12:53Z</time></trkpt><trkpt lat="42.36607226076784" lon="-8.001135536443739"><ele>131.0</ele><time>2026-04-01T16:12:54Z</time></trkpt><trkpt lat="42.366216919095564" lon="-8.001032940812998"><ele>131.0</ele><time>2026-04-01T16:12:55Z</time></trkpt><trkpt lat="42.36637594636423" lon="-8.000956058849074"><ele>131.0</ele><time>2026-04-01T16:12:56Z</time></trkpt><trkpt lat="42.3665345704616" lon="-8.000904442961096"><ele>132.66666666666666</ele><time>2026-04-01T16:12:57Z</time></trkpt><trkpt lat="42.366691424402276" lon="-8.00087082305953"><ele>134.33333333333334</ele><time>2026-04-01T16:12:58Z</time></trkpt><trkpt lat="42.366848370582034" lon="-8.000866622238927"><ele>136.0</ele><time>2026-04-01T16:12:59Z</time></trkpt><trkpt lat="42.36699808228667" lon="-8.000890037782417"><ele>136.0</ele><time>2026-04-01T16:13:00Z</time></trkpt><trkpt lat="42.36713293160617" lon="-8.000917288263073"><ele>136.0</ele><time>2026-04-01T16:13:01Z</time></trkpt><trkpt lat="42.367265944772875" lon="-8.000935672728376"><ele>136.0</ele><time>2026-04-01T16:13:02Z</time></trkpt><trkpt lat="42.367399400979735" lon="-8.000943133706327"><ele>136.0</ele><time>2026-04-01T16:13:03.001Z</time></trkpt><trkpt lat="42.3675386823651" lon="-8.000949027651604"><ele>134.75</ele><time>2026-04-01T16:13:04.001Z</time></trkpt><trkpt lat="42.367669664074654" lon="-8.000933695064964"><ele>133.5</ele><time>2026-04-01T16:13:05.001Z</time></trkpt><trkpt lat="42.367802080566726" lon="-8.0008978096465"><ele>132.25</ele><time>2026-04-01T16:13:06.001Z</time></trkpt><trkpt lat="42.36793887278218" lon="-8.000840175867932"><ele>131.0</ele><time>2026-04-01T16:13:07.001Z</time></trkpt><trkpt lat="42.368073298513266" lon="-8.000766275666548"><ele>130.5</ele><time>2026-04-01T16:13:08.001Z</time></trkpt><trkpt lat="42.36819550331861" lon="-8.000674180412132"><ele>130.0</ele><time>2026-04-01T16:13:09.001Z</time></trkpt><trkpt lat="42.368319602179064" lon="-8.000578332753859"><ele>129.5</ele><time>2026-04-01T16:13:10.001Z</time></trkpt><trkpt lat="42.36844072041372" lon="-8.000476785911856"><ele>129.0</ele><time>2026-04-01T16:13:11.001Z</time></trkpt><trkpt lat="42.36855915281234" lon="-8.000388897654796"><ele>129.0</ele><time>2026-04-01T16:13:12.001Z</time></trkpt><trkpt lat="42.36868038951818" lon="-8.000316621635257"><ele>129.0</ele><time>2026-04-01T16:13:13.001Z</time></trkpt><trkpt lat="42.3688061061089" lon="-8.000271035022624"><ele>129.0</ele><time>2026-04-01T16:13:14.001Z</time></trkpt><trkpt lat="42.36894003409702" lon="-8.000241245705817"><ele>129.0</ele><time>2026-04-01T16:13:15.001Z</time></trkpt><trkpt lat="42.36907114880241" lon="-8.000232132938397"><ele>130.75</ele><time>2026-04-01T16:13:16.001Z</time></trkpt><trkpt lat="42.36919027440588" lon="-8.000242125231969"><ele>132.5</ele><time>2026-04-01T16:13:17.001Z</time></trkpt><trkpt lat="42.36930952242444" lon="-8.000266465233658"><ele>134.25</ele><time>2026-04-01T16:13:18.001Z</time></trkpt><trkpt lat="42.36943886980041" lon="-8.00030592157307"><ele>136.0</ele><time>2026-04-01T16:13:19.001Z</time></trkpt><trkpt lat="42.369567658643554" lon="-8.000360579450122"><ele>136.25</ele><time>2026-04-01T16:13:20.001Z</time></trkpt><trkpt lat="42.36970104566438" lon="-8.000406858254918"><ele>136.5</ele><time>2026-04-01T16:13:21.001Z</time></trkpt><trkpt lat="42.36984170881561" lon="-8.000450854407982"><ele>136.75</ele><time>2026-04-01T16:13:22.001Z</time></trkpt><trkpt lat="42.36999423408981" lon="-8.000499786927323"><ele>137.0</ele><time>2026-04-01T16:13:23.001Z</time></trkpt><trkpt lat="42.37015530803685" lon="-8.00054310934413"><ele>137.0</ele><time>2026-04-01T16:13:24.001Z</time></trkpt><trkpt lat="42.370318876369204" lon="-8.000592871136488"><ele>137.0</ele><time>2026-04-01T16:13:25.001Z</time></trkpt><trkpt lat="42.370492071841205" lon="-8.00064227296416"><ele>137.0</ele><time>2026-04-01T16:13:26.001Z</time></trkpt><trkpt lat="42.37066610187489" lon="-8.000680345277619"><ele>136.33333333333331</ele><time>2026-04-01T16:13:27.001Z</time></trkpt><trkpt lat="42.37084027226576" lon="-8.000716791855279"><ele>135.66666666666666</ele><time>2026-04-01T16:13:28.001Z</time></trkpt><trkpt lat="42.37101897903603" lon="-8.000746310729856"><ele>135.0</ele><time>2026-04-01T16:13:29.001Z</time></trkpt><trkpt lat="42.37119755440503" lon="-8.000773038318261"><ele>137.33333333333334</ele><time>2026-04-01T16:13:30.001Z</time></trkpt><trkpt lat="42.37137557924326" lon="-8.000798456860824"><ele>139.66666666666669</ele><time>2026-04-01T16:13:31Z</time></trkpt><trkpt lat="42.371555935133884" lon="-8.000816476218532"><ele>142.0</ele><time>2026-04-01T16:13:32Z</time></trkpt><trkpt lat="42.371732772744835" lon="-8.000820725593803"><ele>142.0</ele><time>2026-04-01T16:13:33Z</time></trkpt><trkpt lat="42.37191057305831" lon="-8.000822108407114"><ele>142.0</ele><time>2026-04-01T16:13:34Z</time></trkpt><trkpt lat="42.372085882047095" lon="-8.000814910178773"><ele>142.0</ele><time>2026-04-01T16:13:35Z</time></trkpt><trkpt lat="42.37225853843033" lon="-8.000803195680561"><ele>144.0</ele><time>2026-04-01T16:13:36Z</time></trkpt><trkpt lat="42.372434302465386" lon="-8.000793934052252"><ele>146.0</ele><time>2026-04-01T16:13:37Z</time></trkpt><trkpt lat="42.372607696850146" lon="-8.000787840864485"><ele>148.0</ele><time>2026-04-01T16:13:38Z</time></trkpt><trkpt lat="42.372785439007785" lon="-8.000793218441174"><ele>148.0</ele><time>2026-04-01T16:13:39Z</time></trkpt><trkpt lat="42.37296137382541" lon="-8.000794090480479"><ele>148.0</ele><time>2026-04-01T16:13:40Z</time></trkpt><trkpt lat="42.37313876236243" lon="-8.000789254313526"><ele>148.0</ele><time>2026-04-01T16:13:41Z</time></trkpt><trkpt lat="42.37331177819214" lon="-8.000776713166971"><ele>150.0</ele><time>2026-04-01T16:13:42Z</time></trkpt><trkpt lat="42.37349469984719" lon="-8.00077697298709"><ele>152.0</ele><time>2026-04-01T16:13:43Z</time></trkpt><trkpt lat="42.37367413384485" lon="-8.00077320674231"><ele>154.0</ele><time>2026-04-01T16:13:44Z</time></trkpt><trkpt lat="42.373858901213396" lon="-8.000770698618053"><ele>155.33333333333334</ele><time>2026-04-01T16:13:45Z</time></trkpt><trkpt lat="42.37404292227054" lon="-8.000767389045283"><ele>156.66666666666666</ele><time>2026-04-01T16:13:46Z</time></trkpt><trkpt lat="42.374231429754055" lon="-8.0007622457465"><ele>158.0</ele><time>2026-04-01T16:13:47Z</time></trkpt><trkpt lat="42.37442403505457" lon="-8.000759839507994"><ele>158.0</ele><time>2026-04-01T16:13:48Z</time></trkpt><trkpt lat="42.37461700759731" lon="-8.000751421460473"><ele>158.0</ele><time>2026-04-01T16:13:49Z</time></trkpt><trkpt lat="42.37481329787164" lon="-8.000748174614483"><ele>158.0</ele><time>2026-04-01T16:13:50Z</time></trkpt><trkpt lat="42.375009109841876" lon="-8.000752536556071"><ele>157.66666666666666</ele><time>2026-04-01T16:13:51Z</time></trkpt><trkpt lat="42.375217127194965" lon="-8.000754568237808"><ele>157.33333333333334</ele><time>2026-04-01T16:13:52Z</time></trkpt><trkpt lat="42.375418488207714" lon="-8.000744964736441"><ele>157.0</ele><time>2026-04-01T16:13:53Z</time></trkpt><trkpt lat="42.375625697164374" lon="-8.00073792429375"><ele>157.66666666666669</ele><time>2026-04-01T16:13:54Z</time></trkpt><trkpt lat="42.37583618586208" lon="-8.000732883797465"><ele>158.33333333333334</ele><time>2026-04-01T16:13:55Z</time></trkpt><trkpt lat="42.37604457116133" lon="-8.000720359139596"><ele>159.0</ele><time>2026-04-01T16:13:56Z</time></trkpt><trkpt lat="42.376251767477385" lon="-8.000712580639732"><ele>159.66666666666666</ele><time>2026-04-01T16:13:57Z</time></trkpt><trkpt lat="42.37644060399939" lon="-8.00071253274833"><ele>160.33333333333331</ele><time>2026-04-01T16:13:58Z</time></trkpt><trkpt lat="42.37663254275607" lon="-8.000696086479559"><ele>161.0</ele><time>2026-04-01T16:13:59Z</time></trkpt><trkpt lat="42.37682894487948" lon="-8.000641878770802"><ele>161.0</ele><time>2026-04-01T16:14:00Z</time></trkpt><trkpt lat="42.37702151897982" lon="-8.000550373273152"><ele>161.0</ele><time>2026-04-01T16:14:01Z</time></trkpt><trkpt lat="42.37720903880407" lon="-8.000423417162354"><ele>161.0</ele><time>2026-04-01T16:14:02Z</time></trkpt><trkpt lat="42.37738758997973" lon="-8.0002757215891"><ele>163.66666666666666</ele><time>2026-04-01T16:14:03Z</time></trkpt><trkpt lat="42.377564068599895" lon="-8.000125016616796"><ele>166.33333333333334</ele><time>2026-04-01T16:14:04Z</time></trkpt><trkpt lat="42.377756310833185" lon="-7.999992892534852"><ele>169.0</ele><time>2026-04-01T16:14:05Z</time></trkpt><trkpt lat="42.37796361343287" lon="-7.999900437214225"><ele>172.33333333333334</ele><time>2026-04-01T16:14:06Z</time></trkpt><trkpt lat="42.37817808885919" lon="-7.999846346080331"><ele>175.66666666666666</ele><time>2026-04-01T16:14:07Z</time></trkpt><trkpt lat="42.37839683767921" lon="-7.999825599706021"><ele>179.0</ele><time>2026-04-01T16:14:08Z</time></trkpt><trkpt lat="42.378615330717615" lon="-7.999820804833032"><ele>179.0</ele><time>2026-04-01T16:14:09Z</time></trkpt><trkpt lat="42.37883173290958" lon="-7.9998124580094085"><ele>179.0</ele><time>2026-04-01T16:14:10Z</time></trkpt><trkpt lat="42.37904834115456" lon="-7.999796692940319"><ele>179.0</ele><time>2026-04-01T16:14:11Z</time></trkpt><trkpt lat="42.37926454568056" lon="-7.999773153154252"><ele>178.0</ele><time>2026-04-01T16:14:12Z</time></trkpt><trkpt lat="42.37947757264408" lon="-7.999718711651535"><ele>177.0</ele><time>2026-04-01T16:14:13Z</time></trkpt><trkpt lat="42.37968244732583" lon="-7.999636470630854"><ele>176.0</ele><time>2026-04-01T16:14:14Z</time></trkpt><trkpt lat="42.37988211190666" lon="-7.999532072760383"><ele>179.0</ele><time>2026-04-01T16:14:15Z</time></trkpt><trkpt lat="42.38006932922689" lon="-7.999411645181674"><ele>182.0</ele><time>2026-04-01T16:14:16Z</time></trkpt><trkpt lat="42.38025993358302" lon="-7.999283165161781"><ele>185.0</ele><time>2026-04-01T16:14:17Z</time></trkpt><trkpt lat="42.380439471655336" lon="-7.9991644354961275"><ele>186.66666666666666</ele><time>2026-04-01T16:14:18Z</time></trkpt><trkpt lat="42.380626378915565" lon="-7.999058607232135"><ele>188.33333333333334</ele><time>2026-04-01T16:14:19Z</time></trkpt><trkpt lat="42.38081619281936" lon="-7.998969744931149"><ele>190.0</ele><time>2026-04-01T16:14:20Z</time></trkpt><trkpt lat="42.381011506177714" lon="-7.998903333147875"><ele>190.0</ele><time>2026-04-01T16:14:21Z</time></trkpt><trkpt lat="42.381208430988316" lon="-7.998855698454058"><ele>190.0</ele><time>2026-04-01T16:14:22Z</time></trkpt><trkpt lat="42.381410487328594" lon="-7.998825895712083"><ele>190.0</ele><time>2026-04-01T16:14:23Z</time></trkpt><trkpt lat="42.381611349889496" lon="-7.998799818374774"><ele>192.0</ele><time>2026-04-01T16:14:24Z</time></trkpt><trkpt lat="42.3818129818626" lon="-7.998773602392021"><ele>194.0</ele><time>2026-04-01T16:14:25Z</time></trkpt><trkpt lat="42.38201775456334" lon="-7.99875062577619"><ele>196.0</ele><time>2026-04-01T16:14:26Z</time></trkpt><trkpt lat="42.38222146375208" lon="-7.998734836246301"><ele>197.66666666666666</ele><time>2026-04-01T16:14:27Z</time></trkpt><trkpt lat="42.382425550302564" lon="-7.9987250212251535"><ele>199.33333333333331</ele><time>2026-04-01T16:14:28Z</time></trkpt><trkpt lat="42.38263115155577" lon="-7.998721984450216"><ele>201.0</ele><time>2026-04-01T16:14:29Z</time></trkpt><trkpt lat="42.382838625135676" lon="-7.9987225480177955"><ele>203.33333333333331</ele><time>2026-04-01T16:14:30Z</time></trkpt><trkpt lat="42.38304699333101" lon="-7.998710136731926"><ele>205.66666666666666</ele><time>2026-04-01T16:14:31Z</time></trkpt><trkpt lat="42.38324919473281" lon="-7.998667739311415"><ele>208.0</ele><time>2026-04-01T16:14:32Z</time></trkpt><trkpt lat="42.38344884654109" lon="-7.99860138909037"><ele>208.0</ele><time>2026-04-01T16:14:33Z</time></trkpt><trkpt lat="42.383641921511206" lon="-7.998503359150048"><ele>208.0</ele><time>2026-04-01T16:14:34Z</time></trkpt><trkpt lat="42.38382594541043" lon="-7.99838981659494"><ele>208.0</ele><time>2026-04-01T16:14:35Z</time></trkpt><trkpt lat="42.3840018012801" lon="-7.998257088767975"><ele>210.66666666666666</ele><time>2026-04-01T16:14:36Z</time></trkpt><trkpt lat="42.3841792672718" lon="-7.99812538980485"><ele>213.33333333333331</ele><time>2026-04-01T16:14:37Z</time></trkpt><trkpt lat="42.38436274288515" lon="-7.9980131732487125"><ele>216.0</ele><time>2026-04-01T16:14:38Z</time></trkpt><trkpt lat="42.38454964065509" lon="-7.99793078886391"><ele>221.33333333333331</ele><time>2026-04-01T16:14:39Z</time></trkpt><trkpt lat="42.384743966327264" lon="-7.9978695596651"><ele>226.66666666666666</ele><time>2026-04-01T16:14:40Z</time></trkpt><trkpt lat="42.38493877389638" lon="-7.997821785469442"><ele>232.0</ele><time>2026-04-01T16:14:41Z</time></trkpt><trkpt lat="42.38513531218922" lon="-7.997786201156241"><ele>232.0</ele><time>2026-04-01T16:14:42Z</time></trkpt><trkpt lat="42.38533020506367" lon="-7.997752722552301"><ele>232.0</ele><time>2026-04-01T16:14:43Z</time></trkpt><trkpt lat="42.38551900941794" lon="-7.99772223415793"><ele>232.0</ele><time>2026-04-01T16:14:44Z</time></trkpt><trkpt lat="42.38571391698881" lon="-7.997702654909816"><ele>235.33333333333331</ele><time>2026-04-01T16:14:45Z</time></trkpt><trkpt lat="42.38590972517348" lon="-7.997676755985827"><ele>238.66666666666669</ele><time>2026-04-01T16:14:46Z</time></trkpt><trkpt lat="42.38610281760169" lon="-7.997639997935448"><ele>242.0</ele><time>2026-04-01T16:14:47Z</time></trkpt><trkpt lat="42.38629828795612" lon="-7.997606952212514"><ele>243.66666666666669</ele><time>2026-04-01T16:14:48Z</time></trkpt><trkpt lat="42.386491727112315" lon="-7.997573667191516"><ele>245.33333333333331</ele><time>2026-04-01T16:14:49Z</time></trkpt><trkpt lat="42.386686201909626" lon="-7.9975497785378336"><ele>247.0</ele><time>2026-04-01T16:14:50Z</time></trkpt><trkpt lat="42.38688077015959" lon="-7.997557342702003"><ele>247.0</ele><time>2026-04-01T16:14:51Z</time></trkpt><trkpt lat="42.38706993596532" lon="-7.997594989079353"><ele>247.0</ele><time>2026-04-01T16:14:52Z</time></trkpt><trkpt lat="42.387250066220105" lon="-7.997687204699823"><ele>247.0</ele><time>2026-04-01T16:14:53Z</time></trkpt><trkpt lat="42.38741333724607" lon="-7.997814736629023"><ele>246.33333333333331</ele><time>2026-04-01T16:14:54Z</time></trkpt><trkpt lat="42.387556621968415" lon="-7.997976247550126"><ele>245.66666666666669</ele><time>2026-04-01T16:14:55Z</time></trkpt><trkpt lat="42.3876806110118" lon="-7.9981632131107405"><ele>245.0</ele><time>2026-04-01T16:14:56Z</time></trkpt><trkpt lat="42.38778755823904" lon="-7.998369270441032"><ele>244.33333333333334</ele><time>2026-04-01T16:14:57Z</time></trkpt><trkpt lat="42.38788748501091" lon="-7.99857588236526"><ele>243.66666666666669</ele><time>2026-04-01T16:14:58Z</time></trkpt><trkpt lat="42.387996680453334" lon="-7.9987726897093046"><ele>243.0</ele><time>2026-04-01T16:14:59Z</time></trkpt><trkpt lat="42.38811439885842" lon="-7.998946896422094"><ele>243.0</ele><time>2026-04-01T16:15:00Z</time></trkpt><trkpt lat="42.38823796045442" lon="-7.999111926481206"><ele>243.0</ele><time>2026-04-01T16:15:01Z</time></trkpt><trkpt lat="42.388384316755456" lon="-7.999253636459832"><ele>243.0</ele><time>2026-04-01T16:15:02Z</time></trkpt><trkpt lat="42.38854610060793" lon="-7.9993522057049296"><ele>245.66666666666669</ele><time>2026-04-01T16:15:03Z</time></trkpt><trkpt lat="42.38872391984493" lon="-7.999389434148281"><ele>248.33333333333334</ele><time>2026-04-01T16:15:04Z</time></trkpt><trkpt lat="42.38890035666531" lon="-7.999400480108414"><ele>251.0</ele><time>2026-04-01T16:15:05Z</time></trkpt><trkpt lat="42.38907625528193" lon="-7.9993757722099055"><ele>251.0</ele><time>2026-04-01T16:15:06Z</time></trkpt><trkpt lat="42.38924798801957" lon="-7.9993068348796825"><ele>251.0</ele><time>2026-04-01T16:15:07Z</time></trkpt><trkpt lat="42.389410662280966" lon="-7.999202107165038"><ele>251.0</ele><time>2026-04-01T16:15:08Z</time></trkpt><trkpt lat="42.389563248158666" lon="-7.99907423393303"><ele>254.0</ele><time>2026-04-01T16:15:09.001Z</time></trkpt><trkpt lat="42.38972023662171" lon="-7.998956251572864"><ele>257.0</ele><time>2026-04-01T16:15:10Z</time></trkpt><trkpt lat="42.389881444189925" lon="-7.998855055187807"><ele>260.0</ele><time>2026-04-01T16:15:11Z</time></trkpt><trkpt lat="42.39004741760673" lon="-7.998771360258056"><ele>260.0</ele><time>2026-04-01T16:15:12Z</time></trkpt><trkpt lat="42.39022250159544" lon="-7.9987081338545565"><ele>260.0</ele><time>2026-04-01T16:15:13Z</time></trkpt><trkpt lat="42.390406273025555" lon="-7.998686717389736"><ele>260.0</ele><time>2026-04-01T16:15:14Z</time></trkpt><trkpt lat="42.39058881584291" lon="-7.998694854820586"><ele>262.0</ele><time>2026-04-01T16:15:15Z</time></trkpt><trkpt lat="42.39076963465352" lon="-7.998743326726552"><ele>264.0</ele><time>2026-04-01T16:15:16Z</time></trkpt><trkpt lat="42.39094491645616" lon="-7.998807796766651"><ele>266.0</ele><time>2026-04-01T16:15:17Z</time></trkpt><trkpt lat="42.39111300195156" lon="-7.9988993241056505"><ele>266.0</ele><time>2026-04-01T16:15:18Z</time></trkpt><trkpt lat="42.39127344084593" lon="-7.999012534444451"><ele>266.0</ele><time>2026-04-01T16:15:19Z</time></trkpt><trkpt lat="42.39142312482324" lon="-7.99914420688727"><ele>266.0</ele><time>2026-04-01T16:15:20Z</time></trkpt><trkpt lat="42.391572073591796" lon="-7.999293179865553"><ele>267.0</ele><time>2026-04-01T16:15:21Z</time></trkpt><trkpt lat="42.391714244021344" lon="-7.9994504319780955"><ele>268.0</ele><time>2026-04-01T16:15:22Z</time></trkpt><trkpt lat="42.391853136483675" lon="-7.99960914039573"><ele>269.0</ele><time>2026-04-01T16:15:23Z</time></trkpt><trkpt lat="42.392007428398344" lon="-7.999760073347591"><ele>269.0</ele><time>2026-04-01T16:15:24Z</time></trkpt><trkpt lat="42.392153984639265" lon="-7.999905018512008"><ele>269.0</ele><time>2026-04-01T16:15:25Z</time></trkpt><trkpt lat="42.39229476279369" lon="-8.000058624741564"><ele>269.0</ele><time>2026-04-01T16:15:26Z</time></trkpt><trkpt lat="42.39243801637685" lon="-8.00022411727636"><ele>268.6666666666667</ele><time>2026-04-01T16:15:27Z</time></trkpt><trkpt lat="42.39257910737217" lon="-8.000392360317935"><ele>268.3333333333333</ele><time>2026-04-01T16:15:28Z</time></trkpt><trkpt lat="42.39271795529833" lon="-8.00055595241942"><ele>268.0</ele><time>2026-04-01T16:15:29Z</time></trkpt><trkpt lat="42.39285904601972" lon="-8.00072785783021"><ele>268.3333333333333</ele><time>2026-04-01T16:15:30Z</time></trkpt><trkpt lat="42.39299958892444" lon="-8.00090298672423"><ele>268.6666666666667</ele><time>2026-04-01T16:15:31Z</time></trkpt><trkpt lat="42.39314311009337" lon="-8.001080299250232"><ele>269.0</ele><time>2026-04-01T16:15:32Z</time></trkpt><trkpt lat="42.39328348111083" lon="-8.001260161159076"><ele>269.0</ele><time>2026-04-01T16:15:33Z</time></trkpt><trkpt lat="42.39342539919118" lon="-8.001446435690156"><ele>269.0</ele><time>2026-04-01T16:15:34Z</time></trkpt><trkpt lat="42.3935684726683" lon="-8.00162744973429"><ele>269.0</ele><time>2026-04-01T16:15:35Z</time></trkpt><trkpt lat="42.39371751497962" lon="-8.001811270109135"><ele>271.0</ele><time>2026-04-01T16:15:36Z</time></trkpt><trkpt lat="42.393875849470746" lon="-8.001985052531415"><ele>273.0</ele><time>2026-04-01T16:15:37Z</time></trkpt><trkpt lat="42.39404208453016" lon="-8.002141376698772"><ele>275.0</ele><time>2026-04-01T16:15:38Z</time></trkpt><trkpt lat="42.39423630928899" lon="-8.002287812392264"><ele>275.0</ele><time>2026-04-01T16:15:39Z</time></trkpt><trkpt lat="42.394419012969244" lon="-8.002432445159428"><ele>275.0</ele><time>2026-04-01T16:15:40Z</time></trkpt><trkpt lat="42.39457390486987" lon="-8.00257539005403"><ele>275.0</ele><time>2026-04-01T16:15:41Z</time></trkpt><trkpt lat="42.394753843289706" lon="-8.00270451583865"><ele>277.0</ele><time>2026-04-01T16:15:42Z</time></trkpt><trkpt lat="42.39493418063718" lon="-8.002824262489185"><ele>279.0</ele><time>2026-04-01T16:15:43Z</time></trkpt><trkpt lat="42.39512901644206" lon="-8.002927328630177"><ele>281.0</ele><time>2026-04-01T16:15:44Z</time></trkpt><trkpt lat="42.39531778802752" lon="-8.003022568871165"><ele>279.6666666666667</ele><time>2026-04-01T16:15:45Z</time></trkpt><trkpt lat="42.395509259694634" lon="-8.003118021759049"><ele>278.3333333333333</ele><time>2026-04-01T16:15:46Z</time></trkpt><trkpt lat="42.39570087082636" lon="-8.003208849701737"><ele>277.0</ele><time>2026-04-01T16:15:47Z</time></trkpt><trkpt lat="42.39589012613875" lon="-8.003305535614158"><ele>279.3333333333333</ele><time>2026-04-01T16:15:48Z</time></trkpt><trkpt lat="42.39607491595125" lon="-8.003404305037202"><ele>281.6666666666667</ele><time>2026-04-01T16:15:49Z</time></trkpt><trkpt lat="42.39625956094091" lon="-8.003513705476982"><ele>284.0</ele><time>2026-04-01T16:15:50Z</time></trkpt><trkpt lat="42.39643217283921" lon="-8.003646343321792"><ele>284.0</ele><time>2026-04-01T16:15:51Z</time></trkpt><trkpt lat="42.39659359567308" lon="-8.00379953284634"><ele>284.0</ele><time>2026-04-01T16:15:52Z</time></trkpt><trkpt lat="42.39674522189275" lon="-8.003968703272712"><ele>284.0</ele><time>2026-04-01T16:15:53Z</time></trkpt><trkpt lat="42.39688102189927" lon="-8.004163381324263"><ele>286.6666666666667</ele><time>2026-04-01T16:15:54Z</time></trkpt><trkpt lat="42.39700402771491" lon="-8.00437147282296"><ele>289.3333333333333</ele><time>2026-04-01T16:15:55Z</time></trkpt><trkpt lat="42.397119955607586" lon="-8.004592319724416"><ele>292.0</ele><time>2026-04-01T16:15:56Z</time></trkpt><trkpt lat="42.3972415178158" lon="-8.004799193376725"><ele>295.0</ele><time>2026-04-01T16:15:57Z</time></trkpt><trkpt lat="42.39737758847265" lon="-8.004996831920684"><ele>298.0</ele><time>2026-04-01T16:15:58Z</time></trkpt><trkpt lat="42.39751639999026" lon="-8.005163232555706"><ele>301.0</ele><time>2026-04-01T16:15:59Z</time></trkpt><trkpt lat="42.397660521145795" lon="-8.005289242982212"><ele>301.0</ele><time>2026-04-01T16:16:00Z</time></trkpt><trkpt lat="42.3978198608865" lon="-8.005373790500316"><ele>301.0</ele><time>2026-04-01T16:16:01Z</time></trkpt><trkpt lat="42.398001131371764" lon="-8.00539656364936"><ele>301.0</ele><time>2026-04-01T16:16:02Z</time></trkpt><trkpt lat="42.39817700668989" lon="-8.005414588703767"><ele>301.66666666666663</ele><time>2026-04-01T16:16:03Z</time></trkpt><trkpt lat="42.39833908609328" lon="-8.005438878868286"><ele>302.3333333333333</ele><time>2026-04-01T16:16:04Z</time></trkpt><trkpt lat="42.398491715225845" lon="-8.005487509322036"><ele>303.0</ele><time>2026-04-01T16:16:05Z</time></trkpt><trkpt lat="42.398636233471" lon="-8.005568708002146"><ele>303.0</ele><time>2026-04-01T16:16:06Z</time></trkpt><trkpt lat="42.39876958363312" lon="-8.00569915928985"><ele>303.0</ele><time>2026-04-01T16:16:07Z</time></trkpt><trkpt lat="42.398882776562495" lon="-8.005858195917815"><ele>303.0</ele><time>2026-04-01T16:16:08Z</time></trkpt><trkpt lat="42.39898505640325" lon="-8.00603939235608"><ele>305.6666666666667</ele><time>2026-04-01T16:16:09Z</time></trkpt><trkpt lat="42.39906776983012" lon="-8.00624504006338"><ele>308.33333333333337</ele><time>2026-04-01T16:16:10Z</time></trkpt><trkpt lat="42.39912376654388" lon="-8.006466353214966"><ele>311.0</ele><time>2026-04-01T16:16:11Z</time></trkpt><trkpt lat="42.39915621837798" lon="-8.006704047484797"><ele>311.33333333333337</ele><time>2026-04-01T16:16:12Z</time></trkpt><trkpt lat="42.399177662263156" lon="-8.006951105114988"><ele>311.6666666666667</ele><time>2026-04-01T16:16:13Z</time></trkpt><trkpt lat="42.39917398682777" lon="-8.007203026427753"><ele>312.0</ele><time>2026-04-01T16:16:14Z</time></trkpt><trkpt lat="42.399153475824555" lon="-8.007454235963383"><ele>312.0</ele><time>2026-04-01T16:16:15Z</time></trkpt><trkpt lat="42.39913913354889" lon="-8.007718549527803"><ele>312.0</ele><time>2026-04-01T16:16:16Z</time></trkpt><trkpt lat="42.39915063490801" lon="-8.007982807946805"><ele>312.0</ele><time>2026-04-01T16:16:17Z</time></trkpt><trkpt lat="42.39917693388099" lon="-8.008253675661873"><ele>312.6666666666667</ele><time>2026-04-01T16:16:18Z</time></trkpt><trkpt lat="42.39923751150299" lon="-8.00851893449005"><ele>313.33333333333337</ele><time>2026-04-01T16:16:19Z</time></trkpt><trkpt lat="42.39933151039801" lon="-8.00877289700152"><ele>314.0</ele><time>2026-04-01T16:16:20Z</time></trkpt><trkpt lat="42.39944891142844" lon="-8.009011283768329"><ele>314.0</ele><time>2026-04-01T16:16:21Z</time></trkpt><trkpt lat="42.39959643041369" lon="-8.00923623950706"><ele>314.0</ele><time>2026-04-01T16:16:22Z</time></trkpt><trkpt lat="42.39976728210757" lon="-8.009427776549051"><ele>314.0</ele><time>2026-04-01T16:16:23Z</time></trkpt><trkpt lat="42.399953541574135" lon="-8.009588576842527"><ele>314.0</ele><time>2026-04-01T16:16:24Z</time></trkpt><trkpt lat="42.400156101108024" lon="-8.00971449001547"><ele>314.0</ele><time>2026-04-01T16:16:25Z</time></trkpt><trkpt lat="42.40035902723266" lon="-8.009844816746634"><ele>314.0</ele><time>2026-04-01T16:16:26Z</time></trkpt><trkpt lat="42.40056191530995" lon="-8.009985073117887"><ele>313.5</ele><time>2026-04-01T16:16:27Z</time></trkpt><trkpt lat="42.400765260091525" lon="-8.01012386633658"><ele>313.0</ele><time>2026-04-01T16:16:28Z</time></trkpt><trkpt lat="42.40097264159704" lon="-8.01025134035131"><ele>313.0</ele><time>2026-04-01T16:16:29Z</time></trkpt><trkpt lat="42.40117823006436" lon="-8.010372660423302"><ele>313.0</ele><time>2026-04-01T16:16:30Z</time></trkpt><trkpt lat="42.40138504755701" lon="-8.010497821112521"><ele>313.5</ele><time>2026-04-01T16:16:31Z</time></trkpt><trkpt lat="42.40159350256765" lon="-8.01061632672385"><ele>314.0</ele><time>2026-04-01T16:16:32Z</time></trkpt><trkpt lat="42.40180287538558" lon="-8.010722296809051"><ele>314.0</ele><time>2026-04-01T16:16:33Z</time></trkpt><trkpt lat="42.40201680587921" lon="-8.010821976606199"><ele>314.0</ele><time>2026-04-01T16:16:34Z</time></trkpt><trkpt lat="42.402233234409344" lon="-8.010917038059446"><ele>315.33333333333337</ele><time>2026-04-01T16:16:35Z</time></trkpt><trkpt lat="42.40244273945547" lon="-8.01101251826967"><ele>316.6666666666667</ele><time>2026-04-01T16:16:36Z</time></trkpt><trkpt lat="42.40265750303246" lon="-8.011099887147164"><ele>318.0</ele><time>2026-04-01T16:16:37Z</time></trkpt><trkpt lat="42.402866748491626" lon="-8.01119451469415"><ele>318.3333333333333</ele><time>2026-04-01T16:16:38Z</time></trkpt><trkpt lat="42.40308381860479" lon="-8.011277863343398"><ele>318.66666666666663</ele><time>2026-04-01T16:16:39Z</time></trkpt><trkpt lat="42.40329407398685" lon="-8.01137220375705"><ele>319.0</ele><time>2026-04-01T16:16:40Z</time></trkpt><trkpt lat="42.403514178431784" lon="-8.011482968969107"><ele>319.0</ele><time>2026-04-01T16:16:41Z</time></trkpt><trkpt lat="42.40370680551431" lon="-8.011622063662895"><ele>319.0</ele><time>2026-04-01T16:16:42Z</time></trkpt><trkpt lat="42.403888066202086" lon="-8.011791822775118"><ele>319.0</ele><time>2026-04-01T16:16:43Z</time></trkpt><trkpt lat="42.40404384304513" lon="-8.011991291384929"><ele>319.0</ele><time>2026-04-01T16:16:44Z</time></trkpt><trkpt lat="42.4041506932677" lon="-8.01222390753843"><ele>319.0</ele><time>2026-04-01T16:16:45Z</time></trkpt><trkpt lat="42.40424639314037" lon="-8.012482738785447"><ele>319.0</ele><time>2026-04-01T16:16:46Z</time></trkpt><trkpt lat="42.40430921401845" lon="-8.012749411248977"><ele>320.3333333333333</ele><time>2026-04-01T16:16:47Z</time></trkpt><trkpt lat="42.40435196463345" lon="-8.013036434562164"><ele>321.6666666666667</ele><time>2026-04-01T16:16:48Z</time></trkpt><trkpt lat="42.404372855550676" lon="-8.01332909742555"><ele>323.0</ele><time>2026-04-01T16:16:49Z</time></trkpt><trkpt lat="42.40439603415191" lon="-8.01362277593707"><ele>324.33333333333337</ele><time>2026-04-01T16:16:50Z</time></trkpt><trkpt lat="42.40444202968491" lon="-8.013911964528567"><ele>325.6666666666667</ele><time>2026-04-01T16:16:51Z</time></trkpt><trkpt lat="42.40451710755592" lon="-8.014201284234371"><ele>327.0</ele><time>2026-04-01T16:16:52Z</time></trkpt><trkpt lat="42.40462154180552" lon="-8.014460913815258"><ele>324.0</ele><time>2026-04-01T16:16:53Z</time></trkpt><trkpt lat="42.40476615314541" lon="-8.014682652878617"><ele>321.0</ele><time>2026-04-01T16:16:54Z</time></trkpt><trkpt lat="42.40493971502338" lon="-8.01485574324267"><ele>318.0</ele><time>2026-04-01T16:16:55Z</time></trkpt><trkpt lat="42.40512633430175" lon="-8.014984921201664"><ele>319.3333333333333</ele><time>2026-04-01T16:16:56Z</time></trkpt><trkpt lat="42.40533353077995" lon="-8.015080544979703"><ele>320.66666666666663</ele><time>2026-04-01T16:16:57Z</time></trkpt><trkpt lat="42.40554541475924" lon="-8.015148951785276"><ele>322.0</ele><time>2026-04-01T16:16:58Z</time></trkpt><trkpt lat="42.405763536282485" lon="-8.015197891810603"><ele>322.0</ele><time>2026-04-01T16:16:59Z</time></trkpt><trkpt lat="42.40597530569405" lon="-8.01525850014335"><ele>322.0</ele><time>2026-04-01T16:17:00Z</time></trkpt><trkpt lat="42.40618355443125" lon="-8.015346866829056"><ele>322.0</ele><time>2026-04-01T16:17:01Z</time></trkpt><trkpt lat="42.406387007676486" lon="-8.015465644703067"><ele>321.3333333333333</ele><time>2026-04-01T16:17:02Z</time></trkpt><trkpt lat="42.406580225430616" lon="-8.015607318746799"><ele>320.6666666666667</ele><time>2026-04-01T16:17:03Z</time></trkpt><trkpt lat="42.40676316608122" lon="-8.015779831500259"><ele>320.0</ele><time>2026-04-01T16:17:04Z</time></trkpt><trkpt lat="42.406933339766496" lon="-8.01596574263694"><ele>322.0</ele><time>2026-04-01T16:17:05Z</time></trkpt><trkpt lat="42.40710593447939" lon="-8.016165486755066"><ele>324.0</ele><time>2026-04-01T16:17:06Z</time></trkpt><trkpt lat="42.40729503052949" lon="-8.016356251517907"><ele>324.5</ele><time>2026-04-01T16:17:07Z</time></trkpt><trkpt lat="42.4074947085498" lon="-8.016505631168071"><ele>325.0</ele><time>2026-04-01T16:17:08Z</time></trkpt><trkpt lat="42.407695306352466" lon="-8.01669871164204"><ele>325.66666666666663</ele><time>2026-04-01T16:17:09Z</time></trkpt><trkpt lat="42.407834878981525" lon="-8.016913234709854"><ele>326.3333333333333</ele><time>2026-04-01T16:17:10Z</time></trkpt><trkpt lat="42.40801443963225" lon="-8.017105960255567"><ele>327.0</ele><time>2026-04-01T16:17:11Z</time></trkpt><trkpt lat="42.40818924297813" lon="-8.017296687019941"><ele>327.6666666666667</ele><time>2026-04-01T16:17:12Z</time></trkpt><trkpt lat="42.408362701297705" lon="-8.017487695601439"><ele>328.33333333333337</ele><time>2026-04-01T16:17:13Z</time></trkpt><trkpt lat="42.40853323547239" lon="-8.01767129686471"><ele>329.0</ele><time>2026-04-01T16:17:14Z</time></trkpt><trkpt lat="42.40870678814429" lon="-8.017857693676259"><ele>329.6666666666667</ele><time>2026-04-01T16:17:15.001Z</time></trkpt><trkpt lat="42.40887535219058" lon="-8.018032747616147"><ele>330.3333333333333</ele><time>2026-04-01T16:17:16.001Z</time></trkpt><trkpt lat="42.409043409068886" lon="-8.018212067629912"><ele>331.0</ele><time>2026-04-01T16:17:17.001Z</time></trkpt><trkpt lat="42.40920973548987" lon="-8.018395538096826"><ele>332.0</ele><time>2026-04-01T16:17:18.001Z</time></trkpt><trkpt lat="42.40937380984233" lon="-8.01857862493445"><ele>333.0</ele><time>2026-04-01T16:17:19.001Z</time></trkpt><trkpt lat="42.40953938983876" lon="-8.018756314981024"><ele>334.0</ele><time>2026-04-01T16:17:20.001Z</time></trkpt><trkpt lat="42.40969938351854" lon="-8.01892649836614"><ele>335.66666666666663</ele><time>2026-04-01T16:17:21Z</time></trkpt><trkpt lat="42.40985780890793" lon="-8.019098221239977"><ele>337.3333333333333</ele><time>2026-04-01T16:17:22Z</time></trkpt><trkpt lat="42.41001426704436" lon="-8.019265157311175"><ele>339.0</ele><time>2026-04-01T16:17:23Z</time></trkpt><trkpt lat="42.410171958216154" lon="-8.019435348611626"><ele>339.6666666666667</ele><time>2026-04-01T16:17:24Z</time></trkpt><trkpt lat="42.41032871621591" lon="-8.019604830979905"><ele>340.33333333333337</ele><time>2026-04-01T16:17:25Z</time></trkpt><trkpt lat="42.41048047075618" lon="-8.019768051954237"><ele>341.0</ele><time>2026-04-01T16:17:26Z</time></trkpt><trkpt lat="42.4106303296871" lon="-8.019932782381957"><ele>344.33333333333337</ele><time>2026-04-01T16:17:27Z</time></trkpt><trkpt lat="42.4107798355172" lon="-8.02009006345328"><ele>347.6666666666667</ele><time>2026-04-01T16:17:28Z</time></trkpt><trkpt lat="42.41093333004588" lon="-8.020245243160764"><ele>351.0</ele><time>2026-04-01T16:17:29Z</time></trkpt><trkpt lat="42.41109033243893" lon="-8.02039488632597"><ele>351.0</ele><time>2026-04-01T16:17:30Z</time></trkpt><trkpt lat="42.41125239433402" lon="-8.020540243816036"><ele>351.0</ele><time>2026-04-01T16:17:31Z</time></trkpt><trkpt lat="42.411419758003966" lon="-8.020672715701622"><ele>351.0</ele><time>2026-04-01T16:17:32Z</time></trkpt><trkpt lat="42.41159496537193" lon="-8.020780594461415"><ele>353.0</ele><time>2026-04-01T16:17:33Z</time></trkpt><trkpt lat="42.41177802684392" lon="-8.020869393205098"><ele>355.0</ele><time>2026-04-01T16:17:34Z</time></trkpt><trkpt lat="42.41196219529731" lon="-8.0209500818272"><ele>357.0</ele><time>2026-04-01T16:17:35Z</time></trkpt><trkpt lat="42.41215275060145" lon="-8.021021049687626"><ele>357.6666666666667</ele><time>2026-04-01T16:17:36Z</time></trkpt><trkpt lat="42.41234256147674" lon="-8.021087592001345"><ele>358.33333333333337</ele><time>2026-04-01T16:17:37Z</time></trkpt><trkpt lat="42.412535874718024" lon="-8.021142842589013"><ele>359.0</ele><time>2026-04-01T16:17:38Z</time></trkpt><trkpt lat="42.41272192623621" lon="-8.021202208886491"><ele>359.0</ele><time>2026-04-01T16:17:39Z</time></trkpt><trkpt lat="42.41291533999509" lon="-8.021277279664863"><ele>359.0</ele><time>2026-04-01T16:17:40Z</time></trkpt><trkpt lat="42.41310905884995" lon="-8.021363839857726"><ele>359.0</ele><time>2026-04-01T16:17:41Z</time></trkpt><trkpt lat="42.41329584729349" lon="-8.021458311253841"><ele>360.0</ele><time>2026-04-01T16:17:42Z</time></trkpt><trkpt lat="42.41348153457393" lon="-8.02156445903746"><ele>361.0</ele><time>2026-04-01T16:17:43Z</time></trkpt><trkpt lat="42.41366500742217" lon="-8.021690210820795"><ele>362.0</ele><time>2026-04-01T16:17:44Z</time></trkpt><trkpt lat="42.41384184103908" lon="-8.02183250092138"><ele>362.33333333333337</ele><time>2026-04-01T16:17:45Z</time></trkpt><trkpt lat="42.4140045207854" lon="-8.021991488837713"><ele>362.6666666666667</ele><time>2026-04-01T16:17:46Z</time></trkpt><trkpt lat="42.41416610276331" lon="-8.02216316942721"><ele>363.0</ele><time>2026-04-01T16:17:47Z</time></trkpt><trkpt lat="42.4143136029131" lon="-8.022349726177465"><ele>364.6666666666667</ele><time>2026-04-01T16:17:48Z</time></trkpt><trkpt lat="42.41445370235221" lon="-8.022546714823754"><ele>366.33333333333337</ele><time>2026-04-01T16:17:49Z</time></trkpt><trkpt lat="42.41458139790394" lon="-8.02275160860236"><ele>368.0</ele><time>2026-04-01T16:17:50Z</time></trkpt><trkpt lat="42.41469817449913" lon="-8.022968299579208"><ele>368.6666666666667</ele><time>2026-04-01T16:17:51Z</time></trkpt><trkpt lat="42.41480864868244" lon="-8.023191752789323"><ele>369.3333333333333</ele><time>2026-04-01T16:17:52Z</time></trkpt><trkpt lat="42.414908438244694" lon="-8.02341354265656"><ele>370.0</ele><time>2026-04-01T16:17:53Z</time></trkpt><trkpt lat="42.41499397195384" lon="-8.023647394158933"><ele>371.66666666666663</ele><time>2026-04-01T16:17:54Z</time></trkpt><trkpt lat="42.41506298520634" lon="-8.023886764390294"><ele>373.3333333333333</ele><time>2026-04-01T16:17:55Z</time></trkpt><trkpt lat="42.415129455685545" lon="-8.024131414499204"><ele>375.0</ele><time>2026-04-01T16:17:56Z</time></trkpt><trkpt lat="42.41518586154404" lon="-8.024379560244553"><ele>377.3333333333333</ele><time>2026-04-01T16:17:57Z</time></trkpt><trkpt lat="42.4152271362396" lon="-8.024630801230341"><ele>379.66666666666663</ele><time>2026-04-01T16:17:58Z</time></trkpt><trkpt lat="42.415256911799396" lon="-8.024884186011022"><ele>382.0</ele><time>2026-04-01T16:17:59Z</time></trkpt><trkpt lat="42.41527049662802" lon="-8.025137485079371"><ele>384.0</ele><time>2026-04-01T16:18:00Z</time></trkpt><trkpt lat="42.41527661111969" lon="-8.025394617741904"><ele>386.0</ele><time>2026-04-01T16:18:01Z</time></trkpt><trkpt lat="42.41527789960812" lon="-8.025652243990745"><ele>388.0</ele><time>2026-04-01T16:18:02Z</time></trkpt><trkpt lat="42.41526525195695" lon="-8.02590789187841"><ele>390.0</ele><time>2026-04-01T16:18:03Z</time></trkpt><trkpt lat="42.415237108933496" lon="-8.026162087688308"><ele>392.0</ele><time>2026-04-01T16:18:04Z</time></trkpt><trkpt lat="42.415200841676025" lon="-8.026415607385275"><ele>394.0</ele><time>2026-04-01T16:18:05Z</time></trkpt><trkpt lat="42.41515801628566" lon="-8.026664953156596"><ele>395.33333333333337</ele><time>2026-04-01T16:18:06Z</time></trkpt><trkpt lat="42.41513974352908" lon="-8.026902313545751"><ele>396.66666666666663</ele><time>2026-04-01T16:18:07Z</time></trkpt><trkpt lat="42.41509624471754" lon="-8.027154261165695"><ele>398.0</ele><time>2026-04-01T16:18:08Z</time></trkpt><trkpt lat="42.415027407711065" lon="-8.02740371104096"><ele>400.0</ele><time>2026-04-01T16:18:09Z</time></trkpt><trkpt lat="42.414966799260526" lon="-8.027651896605562"><ele>402.0</ele><time>2026-04-01T16:18:10Z</time></trkpt><trkpt lat="42.414906295111145" lon="-8.027904580090535"><ele>404.0</ele><time>2026-04-01T16:18:11Z</time></trkpt><trkpt lat="42.41484817112855" lon="-8.028155439101605"><ele>405.0</ele><time>2026-04-01T16:18:12Z</time></trkpt><trkpt lat="42.41478712510107" lon="-8.02841283293278"><ele>406.0</ele><time>2026-04-01T16:18:13Z</time></trkpt><trkpt lat="42.41472524867826" lon="-8.028672891807615"><ele>407.0</ele><time>2026-04-01T16:18:14Z</time></trkpt><trkpt lat="42.41465669396248" lon="-8.028921580634856"><ele>406.66666666666663</ele><time>2026-04-01T16:18:15Z</time></trkpt><trkpt lat="42.41458252618997" lon="-8.029183857065414"><ele>406.33333333333337</ele><time>2026-04-01T16:18:16Z</time></trkpt><trkpt lat="42.41450544815084" lon="-8.029442720777558"><ele>406.0</ele><time>2026-04-01T16:18:17Z</time></trkpt><trkpt lat="42.41442187657543" lon="-8.029703157951305"><ele>406.0</ele><time>2026-04-01T16:18:18Z</time></trkpt><trkpt lat="42.41433797741344" lon="-8.029967576613455"><ele>406.0</ele><time>2026-04-01T16:18:19Z</time></trkpt><trkpt lat="42.414257897953426" lon="-8.030235352121966"><ele>406.0</ele><time>2026-04-01T16:18:20Z</time></trkpt><trkpt lat="42.41418452068084" lon="-8.030509571043458"><ele>407.33333333333337</ele><time>2026-04-01T16:18:21Z</time></trkpt><trkpt lat="42.41411701557453" lon="-8.030789823871105"><ele>408.66666666666663</ele><time>2026-04-01T16:18:22Z</time></trkpt><trkpt lat="42.414055563945745" lon="-8.031074245738205"><ele>410.0</ele><time>2026-04-01T16:18:23Z</time></trkpt><trkpt lat="42.41401051375024" lon="-8.031367885186636"><ele>411.0</ele><time>2026-04-01T16:18:24Z</time></trkpt><trkpt lat="42.41398636034441" lon="-8.031663884969747"><ele>412.0</ele><time>2026-04-01T16:18:25Z</time></trkpt><trkpt lat="42.41399110871747" lon="-8.031960680716594"><ele>413.0</ele><time>2026-04-01T16:18:26Z</time></trkpt><trkpt lat="42.414017231780825" lon="-8.032254928011994"><ele>414.3333333333333</ele><time>2026-04-01T16:18:27Z</time></trkpt><trkpt lat="42.41406616666676" lon="-8.032539157340711"><ele>415.66666666666663</ele><time>2026-04-01T16:18:28Z</time></trkpt><trkpt lat="42.41413696427598" lon="-8.032812802823164"><ele>417.0</ele><time>2026-04-01T16:18:29Z</time></trkpt><trkpt lat="42.41422253581357" lon="-8.03307852840195"><ele>417.66666666666663</ele><time>2026-04-01T16:18:30Z</time></trkpt><trkpt lat="42.414323838019776" lon="-8.033331436395335"><ele>418.3333333333333</ele><time>2026-04-01T16:18:31Z</time></trkpt><trkpt lat="42.41443557281165" lon="-8.033570715747977"><ele>419.0</ele><time>2026-04-01T16:18:32Z</time></trkpt><trkpt lat="42.41455569352919" lon="-8.03380017068857"><ele>421.0</ele><time>2026-04-01T16:18:33Z</time></trkpt><trkpt lat="42.414677712821" lon="-8.034032962922515"><ele>423.0</ele><time>2026-04-01T16:18:34Z</time></trkpt><trkpt lat="42.41479546426881" lon="-8.03426016958927"><ele>425.0</ele><time>2026-04-01T16:18:35Z</time></trkpt><trkpt lat="42.41490904026496" lon="-8.034474462924203"><ele>425.66666666666663</ele><time>2026-04-01T16:18:36Z</time></trkpt><trkpt lat="42.41501439836424" lon="-8.034675568887813"><ele>426.33333333333337</ele><time>2026-04-01T16:18:37Z</time></trkpt><trkpt lat="42.41510791520066" lon="-8.034858377979797"><ele>427.0</ele><time>2026-04-01T16:18:38Z</time></trkpt><trkpt lat="42.415193427127576" lon="-8.035033608846922"><ele>428.0</ele><time>2026-04-01T16:18:39Z</time></trkpt><trkpt lat="42.41527152915461" lon="-8.035208190371788"><ele>429.0</ele><time>2026-04-01T16:18:40Z</time></trkpt><trkpt lat="42.41534930143735" lon="-8.03538790135803"><ele>430.0</ele><time>2026-04-01T16:18:41Z</time></trkpt><trkpt lat="42.41542747150368" lon="-8.035565499372396"><ele>431.0</ele><time>2026-04-01T16:18:42Z</time></trkpt><trkpt lat="42.41550760959602" lon="-8.035742589959108"><ele>432.0</ele><time>2026-04-01T16:18:43Z</time></trkpt><trkpt lat="42.41558397782159" lon="-8.035921818107738"><ele>433.0</ele><time>2026-04-01T16:18:44Z</time></trkpt><trkpt lat="42.41567154457815" lon="-8.036089141190882"><ele>433.6666666666667</ele><time>2026-04-01T16:18:45Z</time></trkpt><trkpt lat="42.41576565822813" lon="-8.036258120499744"><ele>434.33333333333337</ele><time>2026-04-01T16:18:46Z</time></trkpt><trkpt lat="42.415869869047434" lon="-8.036425218120648"><ele>435.0</ele><time>2026-04-01T16:18:47Z</time></trkpt><trkpt lat="42.41598109916729" lon="-8.036584418064498"><ele>434.66666666666663</ele><time>2026-04-01T16:18:48Z</time></trkpt><trkpt lat="42.41609640105895" lon="-8.036743137748722"><ele>434.3333333333333</ele><time>2026-04-01T16:18:49Z</time></trkpt><trkpt lat="42.416214230588544" lon="-8.036897137084928"><ele>434.0</ele><time>2026-04-01T16:18:50Z</time></trkpt><trkpt lat="42.41633125858558" lon="-8.037057887201712"><ele>434.0</ele><time>2026-04-01T16:18:51Z</time></trkpt><trkpt lat="42.4164467512877" lon="-8.037221564666627"><ele>434.0</ele><time>2026-04-01T16:18:52Z</time></trkpt><trkpt lat="42.4165607973168" lon="-8.03738584580566"><ele>434.0</ele><time>2026-04-01T16:18:53Z</time></trkpt><trkpt lat="42.4166728458688" lon="-8.037552161779658"><ele>432.66666666666663</ele><time>2026-04-01T16:18:54Z</time></trkpt><trkpt lat="42.416786624448456" lon="-8.037714625088126"><ele>431.33333333333337</ele><time>2026-04-01T16:18:55Z</time></trkpt><trkpt lat="42.416898007775636" lon="-8.037881381957579"><ele>430.0</ele><time>2026-04-01T16:18:56Z</time></trkpt><trkpt lat="42.417007951861535" lon="-8.038043785336212"><ele>430.0</ele><time>2026-04-01T16:18:57Z</time></trkpt><trkpt lat="42.41710152032718" lon="-8.038206295182793"><ele>430.0</ele><time>2026-04-01T16:18:58Z</time></trkpt><trkpt lat="42.41718005564726" lon="-8.038378709580956"><ele>430.0</ele><time>2026-04-01T16:18:59Z</time></trkpt><trkpt lat="42.41724856133709" lon="-8.038552469736748"><ele>430.0</ele><time>2026-04-01T16:19:00Z</time></trkpt><trkpt lat="42.4173082233821" lon="-8.038734698804177"><ele>428.6666666666667</ele><time>2026-04-01T16:19:01Z</time></trkpt><trkpt lat="42.41737325117285" lon="-8.038915479661629"><ele>427.33333333333337</ele><time>2026-04-01T16:19:02Z</time></trkpt><trkpt lat="42.41742923222608" lon="-8.039113329748472"><ele>426.0</ele><time>2026-04-01T16:19:03Z</time></trkpt><trkpt lat="42.41748760192678" lon="-8.039304996099474"><ele>424.33333333333337</ele><time>2026-04-01T16:19:04Z</time></trkpt><trkpt lat="42.41754678179688" lon="-8.039494330510434"><ele>422.6666666666667</ele><time>2026-04-01T16:19:05Z</time></trkpt><trkpt lat="42.41760786603997" lon="-8.039694603518909"><ele>421.0</ele><time>2026-04-01T16:19:06Z</time></trkpt><trkpt lat="42.41766606082227" lon="-8.039889498575112"><ele>419.6666666666667</ele><time>2026-04-01T16:19:07Z</time></trkpt><trkpt lat="42.41773663156954" lon="-8.040078023855292"><ele>418.33333333333337</ele><time>2026-04-01T16:19:08Z</time></trkpt><trkpt lat="42.41781230995903" lon="-8.040254965545817"><ele>417.0</ele><time>2026-04-01T16:19:09Z</time></trkpt><trkpt lat="42.41789946079257" lon="-8.040425486677206"><ele>417.66666666666663</ele><time>2026-04-01T16:19:10Z</time></trkpt><trkpt lat="42.41800258138889" lon="-8.04057343910929"><ele>418.3333333333333</ele><time>2026-04-01T16:19:11Z</time></trkpt><trkpt lat="42.418126602256066" lon="-8.04070321465297"><ele>419.0</ele><time>2026-04-01T16:19:12Z</time></trkpt><trkpt lat="42.418246093923685" lon="-8.04081842047629"><ele>419.0</ele><time>2026-04-01T16:19:13Z</time></trkpt><trkpt lat="42.418366055342446" lon="-8.040931115559872"><ele>419.0</ele><time>2026-04-01T16:19:14Z</time></trkpt><trkpt lat="42.41848239177162" lon="-8.0410411301999"><ele>419.0</ele><time>2026-04-01T16:19:15Z</time></trkpt><trkpt lat="42.41860436709571" lon="-8.04115555334024"><ele>419.0</ele><time>2026-04-01T16:19:16Z</time></trkpt><trkpt lat="42.418732201000815" lon="-8.041260696533415"><ele>419.25</ele><time>2026-04-01T16:19:16.999Z</time></trkpt><trkpt lat="42.41886279630017" lon="-8.041358850180478"><ele>419.5</ele><time>2026-04-01T16:19:17.999Z</time></trkpt><trkpt lat="42.419003815091465" lon="-8.0414332279003"><ele>419.75</ele><time>2026-04-01T16:19:18.999Z</time></trkpt><trkpt lat="42.419144428417" lon="-8.041489573935369"><ele>420.0</ele><time>2026-04-01T16:19:19.999Z</time></trkpt><trkpt lat="42.41928331674714" lon="-8.041522461779913"><ele>420.0</ele><time>2026-04-01T16:19:21Z</time></trkpt><trkpt lat="42.41940467449349" lon="-8.041549410629278"><ele>420.0</ele><time>2026-04-01T16:19:22Z</time></trkpt><trkpt lat="42.419498830097595" lon="-8.041570711601745"><ele>420.0</ele><time>2026-04-01T16:19:23Z</time></trkpt><trkpt lat="42.41956202107263" lon="-8.041576861120863"><ele>420.0</ele><time>2026-04-01T16:19:26Z</time></trkpt><trkpt lat="42.4196349738257" lon="-8.041557243399229"><ele>420.0</ele><time>2026-04-01T16:23:14.999Z</time></trkpt><trkpt lat="42.419697861169084" lon="-8.041510693822612"><ele>420.0</ele><time>2026-04-01T16:23:15.999Z</time></trkpt><trkpt lat="42.41982851949605" lon="-8.041625284980128"><ele>418.25</ele><time>2026-04-01T16:23:16.999Z</time></trkpt><trkpt lat="42.41994973602731" lon="-8.041668789598056"><ele>416.5</ele><time>2026-04-01T16:23:17.999Z</time></trkpt><trkpt lat="42.420055872871856" lon="-8.041822540517323"><ele>414.75</ele><time>2026-04-01T16:23:18.999Z</time></trkpt><trkpt lat="42.42018938349404" lon="-8.041881638911333"><ele>413.0</ele><time>2026-04-01T16:23:19.999Z</time></trkpt><trkpt lat="42.42032615468862" lon="-8.041949003785955"><ele>413.0</ele><time>2026-04-01T16:23:20.999Z</time></trkpt><trkpt lat="42.420469841854036" lon="-8.04202676241495"><ele>413.0</ele><time>2026-04-01T16:23:21.999Z</time></trkpt><trkpt lat="42.42061323594678" lon="-8.04211552671919"><ele>413.0</ele><time>2026-04-01T16:23:22.999Z</time></trkpt><trkpt lat="42.42075803794509" lon="-8.042218349230694"><ele>413.66666666666663</ele><time>2026-04-01T16:23:23.999Z</time></trkpt><trkpt lat="42.420897284467976" lon="-8.042342363388073"><ele>414.33333333333337</ele><time>2026-04-01T16:23:24.999Z</time></trkpt><trkpt lat="42.42103823555476" lon="-8.0424852878687"><ele>415.0</ele><time>2026-04-01T16:23:25.999Z</time></trkpt><trkpt lat="42.4211796280303" lon="-8.042647457247375"><ele>414.33333333333337</ele><time>2026-04-01T16:23:26.999Z</time></trkpt><trkpt lat="42.421312504777454" lon="-8.042826263902606"><ele>413.66666666666663</ele><time>2026-04-01T16:23:27.999Z</time></trkpt><trkpt lat="42.421435743034024" lon="-8.04301538294067"><ele>413.0</ele><time>2026-04-01T16:23:28.999Z</time></trkpt><trkpt lat="42.421557788826064" lon="-8.043213880599817"><ele>411.66666666666663</ele><time>2026-04-01T16:23:29.999Z</time></trkpt><trkpt lat="42.421677379337474" lon="-8.043420240985888"><ele>410.33333333333337</ele><time>2026-04-01T16:23:30.999Z</time></trkpt><trkpt lat="42.42178570660256" lon="-8.043616082463489"><ele>409.0</ele><time>2026-04-01T16:23:31.999Z</time></trkpt><trkpt lat="42.42197002028654" lon="-8.043964524751928"><ele>409.0</ele><time>2026-04-01T16:23:34Z</time></trkpt><trkpt lat="42.42204333107285" lon="-8.044121018214165"><ele>409.0</ele><time>2026-04-01T16:23:35Z</time></trkpt><trkpt lat="42.422102695909956" lon="-8.044274889390273"><ele>409.0</ele><time>2026-04-01T16:23:36Z</time></trkpt><trkpt lat="42.42215252285197" lon="-8.044434675217246"><ele>409.0</ele><time>2026-04-01T16:23:37Z</time></trkpt><trkpt lat="42.42217982473873" lon="-8.044596792395637"><ele>409.5</ele><time>2026-04-01T16:23:38Z</time></trkpt><trkpt lat="42.422190042820596" lon="-8.044761743020503"><ele>410.0</ele><time>2026-04-01T16:23:39Z</time></trkpt><trkpt lat="42.422159412146044" lon="-8.044938078401819"><ele>410.5</ele><time>2026-04-01T16:23:40Z</time></trkpt><trkpt lat="42.42215484667493" lon="-8.0450961350457"><ele>411.0</ele><time>2026-04-01T16:23:41Z</time></trkpt><trkpt lat="42.422133340307894" lon="-8.0452621898091"><ele>411.0</ele><time>2026-04-01T16:23:42Z</time></trkpt><trkpt lat="42.42209234781323" lon="-8.045444706680506"><ele>411.0</ele><time>2026-04-01T16:23:43Z</time></trkpt><trkpt lat="42.422051085571944" lon="-8.045635852990577"><ele>411.0</ele><time>2026-04-01T16:23:44Z</time></trkpt><trkpt lat="42.42201459610026" lon="-8.045835399741915"><ele>411.0</ele><time>2026-04-01T16:23:45Z</time></trkpt><trkpt lat="42.42198225886898" lon="-8.046040048631328"><ele>412.0</ele><time>2026-04-01T16:23:46Z</time></trkpt><trkpt lat="42.42196531052877" lon="-8.04624322160966"><ele>413.0</ele><time>2026-04-01T16:23:47Z</time></trkpt><trkpt lat="42.42196678283426" lon="-8.046464029804623"><ele>414.0</ele><time>2026-04-01T16:23:48Z</time></trkpt><trkpt lat="42.4219898818927" lon="-8.046695495898522"><ele>414.66666666666663</ele><time>2026-04-01T16:23:49Z</time></trkpt><trkpt lat="42.42202293135005" lon="-8.046922537907827"><ele>415.3333333333333</ele><time>2026-04-01T16:23:50Z</time></trkpt><trkpt lat="42.42208404390788" lon="-8.047129495713577"><ele>416.0</ele><time>2026-04-01T16:23:51Z</time></trkpt><trkpt lat="42.422108566631564" lon="-8.047305530318395"><ele>416.0</ele><time>2026-04-01T16:23:52Z</time></trkpt><trkpt lat="42.422066811316796" lon="-8.047452397101535"><ele>416.0</ele><time>2026-04-01T16:23:53Z</time></trkpt><trkpt lat="42.4220666701735" lon="-8.047596379683858"><ele>416.0</ele><time>2026-04-01T16:23:54Z</time></trkpt><trkpt lat="42.42208173585954" lon="-8.047737566710518"><ele>416.0</ele><time>2026-04-01T16:23:55Z</time></trkpt><trkpt lat="42.42209721868223" lon="-8.047868151884987"><ele>416.0</ele><time>2026-04-01T16:23:56Z</time></trkpt><trkpt lat="42.42210575377619" lon="-8.047988545909575"><ele>415.99999999999994</ele><time>2026-04-01T16:23:57Z</time></trkpt><trkpt lat="42.42211287768751" lon="-8.048103451221406"><ele>416.0</ele><time>2026-04-01T16:23:58Z</time></trkpt><trkpt lat="42.422117907255846" lon="-8.04820790641761"><ele>416.0</ele><time>2026-04-01T16:23:59Z</time></trkpt><trkpt lat="42.42212691449544" lon="-8.04832761347249"><ele>416.0</ele><time>2026-04-01T16:24:00Z</time></trkpt><trkpt lat="42.42213852857101" lon="-8.048447141935869"><ele>415.99999999999994</ele><time>2026-04-01T16:24:01Z</time></trkpt><trkpt lat="42.42214619352119" lon="-8.048561426259406"><ele>416.0</ele><time>2026-04-01T16:24:02Z</time></trkpt><trkpt lat="42.42215385979767" lon="-8.048670381914341"><ele>418.75</ele><time>2026-04-01T16:24:03Z</time></trkpt><trkpt lat="42.42215952625203" lon="-8.048770846805184"><ele>421.5</ele><time>2026-04-01T16:24:04Z</time></trkpt><trkpt lat="42.42216790771387" lon="-8.048903849296847"><ele>424.25</ele><time>2026-04-01T16:24:06Z</time></trkpt><trkpt lat="42.422182955162924" lon="-8.049128307541169"><ele>427.0</ele><time>2026-04-01T16:24:08Z</time></trkpt><trkpt lat="42.422209494749595" lon="-8.049289322632427"><ele>427.0</ele><time>2026-04-01T16:24:09Z</time></trkpt><trkpt lat="42.422220158491605" lon="-8.04946147322893"><ele>427.0</ele><time>2026-04-01T16:24:10Z</time></trkpt><trkpt lat="42.42223069020691" lon="-8.049632096047802"><ele>427.0</ele><time>2026-04-01T16:24:11Z</time></trkpt><trkpt lat="42.4222429607498" lon="-8.049808702094225"><ele>427.0</ele><time>2026-04-01T16:24:12Z</time></trkpt><trkpt lat="42.42226006031462" lon="-8.04999910470239"><ele>428.0</ele><time>2026-04-01T16:24:13Z</time></trkpt><trkpt lat="42.42226608455513" lon="-8.050204867360012"><ele>429.0</ele><time>2026-04-01T16:24:14Z</time></trkpt><trkpt lat="42.422280219241564" lon="-8.050407546736228"><ele>430.0</ele><time>2026-04-01T16:24:15Z</time></trkpt><trkpt lat="42.42229356546184" lon="-8.050576922289427"><ele>431.0</ele><time>2026-04-01T16:24:16Z</time></trkpt><trkpt lat="42.42232545320482" lon="-8.05073686522861"><ele>430.0</ele><time>2026-04-01T16:24:17Z</time></trkpt><trkpt lat="42.42239145134263" lon="-8.050897496643644"><ele>429.0</ele><time>2026-04-01T16:24:18Z</time></trkpt><trkpt lat="42.42249078786165" lon="-8.0510335642166"><ele>428.0</ele><time>2026-04-01T16:24:19Z</time></trkpt><trkpt lat="42.42261778229596" lon="-8.051153999371554"><ele>427.0</ele><time>2026-04-01T16:24:20Z</time></trkpt><trkpt lat="42.42274782907018" lon="-8.051265489916911"><ele>427.0</ele><time>2026-04-01T16:24:21Z</time></trkpt><trkpt lat="42.42288576316167" lon="-8.051379066803962"><ele>427.0</ele><time>2026-04-01T16:24:22Z</time></trkpt><trkpt lat="42.42301880837072" lon="-8.051517804696347"><ele>427.0</ele><time>2026-04-01T16:24:23Z</time></trkpt><trkpt lat="42.42314859796673" lon="-8.051664593569184"><ele>425.0</ele><time>2026-04-01T16:24:24Z</time></trkpt><trkpt lat="42.42327291319598" lon="-8.051822025266237"><ele>423.0</ele><time>2026-04-01T16:24:25Z</time></trkpt><trkpt lat="42.42338898879486" lon="-8.052003959341004"><ele>421.0</ele><time>2026-04-01T16:24:26Z</time></trkpt><trkpt lat="42.42347885719743" lon="-8.05222264313584"><ele>419.6666666666667</ele><time>2026-04-01T16:24:27Z</time></trkpt><trkpt lat="42.42354518106566" lon="-8.052466641527463"><ele>418.33333333333337</ele><time>2026-04-01T16:24:28Z</time></trkpt><trkpt lat="42.42358093121111" lon="-8.052712202808861"><ele>417.0</ele><time>2026-04-01T16:24:29Z</time></trkpt><trkpt lat="42.423597492661855" lon="-8.05296629133497"><ele>417.0</ele><time>2026-04-01T16:24:30Z</time></trkpt><trkpt lat="42.423612086447854" lon="-8.053192254511751"><ele>417.0</ele><time>2026-04-01T16:24:31Z</time></trkpt><trkpt lat="42.42364067176566" lon="-8.053401777331525"><ele>417.0</ele><time>2026-04-01T16:24:32Z</time></trkpt><trkpt lat="42.42368376028095" lon="-8.053615574013731"><ele>417.33333333333337</ele><time>2026-04-01T16:24:33Z</time></trkpt><trkpt lat="42.42375143523548" lon="-8.053817639409216"><ele>417.6666666666667</ele><time>2026-04-01T16:24:34Z</time></trkpt><trkpt lat="42.42384052466648" lon="-8.0540055697643"><ele>418.0</ele><time>2026-04-01T16:24:35Z</time></trkpt><trkpt lat="42.423930919371315" lon="-8.054194611486245"><ele>419.0</ele><time>2026-04-01T16:24:36Z</time></trkpt><trkpt lat="42.42401241639807" lon="-8.05438363593715"><ele>420.0</ele><time>2026-04-01T16:24:37Z</time></trkpt><trkpt lat="42.424090911168946" lon="-8.054569376499852"><ele>421.0</ele><time>2026-04-01T16:24:38Z</time></trkpt><trkpt lat="42.4241625851651" lon="-8.054746035001312"><ele>421.0</ele><time>2026-04-01T16:24:39Z</time></trkpt><trkpt lat="42.424230661817916" lon="-8.05491971198046"><ele>421.0</ele><time>2026-04-01T16:24:40Z</time></trkpt><trkpt lat="42.42430300996692" lon="-8.055096131343497"><ele>421.0</ele><time>2026-04-01T16:24:41Z</time></trkpt><trkpt lat="42.42436608868946" lon="-8.05527588709362"><ele>421.0</ele><time>2026-04-01T16:24:42Z</time></trkpt><trkpt lat="42.424432514877964" lon="-8.055458866190541"><ele>420.0</ele><time>2026-04-01T16:24:43Z</time></trkpt><trkpt lat="42.42449717351204" lon="-8.055644717227253"><ele>419.0</ele><time>2026-04-01T16:24:44Z</time></trkpt><trkpt lat="42.42456313209078" lon="-8.055830008103749"><ele>418.0</ele><time>2026-04-01T16:24:45Z</time></trkpt><trkpt lat="42.42462638582982" lon="-8.056018920167826"><ele>418.33333333333337</ele><time>2026-04-01T16:24:46Z</time></trkpt><trkpt lat="42.424693982527906" lon="-8.056226341013794"><ele>418.66666666666663</ele><time>2026-04-01T16:24:47Z</time></trkpt><trkpt lat="42.4247643487181" lon="-8.056442040034428"><ele>419.0</ele><time>2026-04-01T16:24:48Z</time></trkpt><trkpt lat="42.42483649407651" lon="-8.056648255534157"><ele>418.0</ele><time>2026-04-01T16:24:49Z</time></trkpt><trkpt lat="42.42490843474875" lon="-8.056838846191654"><ele>417.0</ele><time>2026-04-01T16:24:50Z</time></trkpt><trkpt lat="42.42498334111426" lon="-8.057025950010567"><ele>416.0</ele><time>2026-04-01T16:24:51Z</time></trkpt><trkpt lat="42.425062292349445" lon="-8.057226196847333"><ele>416.0</ele><time>2026-04-01T16:24:52Z</time></trkpt><trkpt lat="42.42514527516408" lon="-8.057443512099935"><ele>416.0</ele><time>2026-04-01T16:24:53Z</time></trkpt><trkpt lat="42.42525449668145" lon="-8.05764679061968"><ele>416.0</ele><time>2026-04-01T16:24:54Z</time></trkpt><trkpt lat="42.42535546949843" lon="-8.057868279220825"><ele>414.66666666666663</ele><time>2026-04-01T16:24:54.999Z</time></trkpt><trkpt lat="42.42545984660028" lon="-8.058096616016796"><ele>413.33333333333337</ele><time>2026-04-01T16:24:55.999Z</time></trkpt><trkpt lat="42.425568752876686" lon="-8.05833581269732"><ele>412.0</ele><time>2026-04-01T16:24:56.999Z</time></trkpt><trkpt lat="42.42566418604573" lon="-8.058591904720902"><ele>410.6666666666667</ele><time>2026-04-01T16:24:57.999Z</time></trkpt><trkpt lat="42.42578649340059" lon="-8.058835471614188"><ele>409.33333333333337</ele><time>2026-04-01T16:24:58.999Z</time></trkpt><trkpt lat="42.4259064764557" lon="-8.05908118582412"><ele>408.0</ele><time>2026-04-01T16:24:59.999Z</time></trkpt><trkpt lat="42.42601543561256" lon="-8.05932067944186"><ele>408.0</ele><time>2026-04-01T16:25:00.999Z</time></trkpt><trkpt lat="42.4261181742365" lon="-8.05954530138674"><ele>408.0</ele><time>2026-04-01T16:25:01.999Z</time></trkpt><trkpt lat="42.42621939487563" lon="-8.059762351790983"><ele>408.0</ele><time>2026-04-01T16:25:02.999Z</time></trkpt><trkpt lat="42.42631717795957" lon="-8.059973244650005"><ele>406.33333333333337</ele><time>2026-04-01T16:25:03.999Z</time></trkpt><trkpt lat="42.4264094939166" lon="-8.060173019146744"><ele>404.6666666666667</ele><time>2026-04-01T16:25:04.999Z</time></trkpt><trkpt lat="42.42648621026799" lon="-8.060356698510633"><ele>403.0</ele><time>2026-04-01T16:25:05.999Z</time></trkpt><trkpt lat="42.426568297909505" lon="-8.060528486153386"><ele>403.0</ele><time>2026-04-01T16:25:06.999Z</time></trkpt><trkpt lat="42.42667440843112" lon="-8.060741637245947"><ele>403.0</ele><time>2026-04-01T16:25:07.999Z</time></trkpt><trkpt lat="42.426763671627455" lon="-8.060927500026155"><ele>403.0</ele><time>2026-04-01T16:25:08.999Z</time></trkpt><trkpt lat="42.426844281122854" lon="-8.061106644908223"><ele>401.75</ele><time>2026-04-01T16:25:09.999Z</time></trkpt><trkpt lat="42.426923300714975" lon="-8.061279981596766"><ele>400.5</ele><time>2026-04-01T16:25:10.999Z</time></trkpt><trkpt lat="42.4270054339309" lon="-8.061449624065254"><ele>399.25</ele><time>2026-04-01T16:25:11.999Z</time></trkpt><trkpt lat="42.42708284936521" lon="-8.061609360520013"><ele>398.0</ele><time>2026-04-01T16:25:12.999Z</time></trkpt><trkpt lat="42.42714800181116" lon="-8.061755735054103"><ele>396.0</ele><time>2026-04-01T16:25:13.999Z</time></trkpt><trkpt lat="42.42721328306183" lon="-8.061885939566752"><ele>394.0</ele><time>2026-04-01T16:25:14.999Z</time></trkpt><trkpt lat="42.42727865841741" lon="-8.062011160608385"><ele>392.0</ele><time>2026-04-01T16:25:15.999Z</time></trkpt><trkpt lat="42.427346678197075" lon="-8.062132287907268"><ele>390.0</ele><time>2026-04-01T16:25:16.999Z</time></trkpt><trkpt lat="42.427416879668904" lon="-8.062245056772031"><ele>390.0</ele><time>2026-04-01T16:25:17.999Z</time></trkpt><trkpt lat="42.427475423691305" lon="-8.062332911178467"><ele>390.0</ele><time>2026-04-01T16:25:18.999Z</time></trkpt><trkpt lat="42.42752515119448" lon="-8.062399598216597"><ele>390.0</ele><time>2026-04-01T16:25:19.999Z</time></trkpt><trkpt lat="42.427572041971146" lon="-8.062458209732519"><ele>390.0</ele><time>2026-04-01T16:25:20.999Z</time></trkpt><trkpt lat="42.427625155859744" lon="-8.062514845118013"><ele>390.0</ele><time>2026-04-01T16:25:23.999Z</time></trkpt><trkpt lat="42.42767324613746" lon="-8.062571138015123"><ele>390.0</ele><time>2026-04-01T16:25:25.999Z</time></trkpt><trkpt lat="42.42771795519976" lon="-8.06263498695875"><ele>390.0</ele><time>2026-04-01T16:25:26.999Z</time></trkpt><trkpt lat="42.42776086743756" lon="-8.062698239712692"><ele>390.0</ele><time>2026-04-01T16:25:27.999Z</time></trkpt><trkpt lat="42.42783631093063" lon="-8.062804189872839"><ele>390.0</ele><time>2026-04-01T16:25:29.999Z</time></trkpt><trkpt lat="42.427894621075815" lon="-8.062873519007022"><ele>390.0</ele><time>2026-04-01T16:25:31.999Z</time></trkpt><trkpt lat="42.42800176701928" lon="-8.062932116525793"><ele>390.0</ele><time>2026-04-01T16:25:34.999Z</time></trkpt><trkpt lat="42.42808906023215" lon="-8.062905041390955"><ele>390.0</ele><time>2026-04-01T16:25:35.999Z</time></trkpt><trkpt lat="42.4281706276306" lon="-8.062865427581022"><ele>390.0</ele><time>2026-04-01T16:25:36.999Z</time></trkpt><trkpt lat="42.4282358867522" lon="-8.062868538211507"><ele>390.0</ele><time>2026-04-01T16:25:37.999Z</time></trkpt><trkpt lat="42.42830157188538" lon="-8.062908131929772"><ele>390.0</ele><time>2026-04-01T16:25:38.999Z</time></trkpt><trkpt lat="42.42836555937589" lon="-8.062973356955245"><ele>390.0</ele><time>2026-04-01T16:25:39.999Z</time></trkpt><trkpt lat="42.42841718067185" lon="-8.063061724335789"><ele>390.0</ele><time>2026-04-01T16:25:40.999Z</time></trkpt><trkpt lat="42.428447692909806" lon="-8.063171364119496"><ele>390.0</ele><time>2026-04-01T16:25:41.999Z</time></trkpt><trkpt lat="42.42847826569026" lon="-8.063308523022883"><ele>389.75</ele><time>2026-04-01T16:25:42.999Z</time></trkpt><trkpt lat="42.42850702172751" lon="-8.063464340757907"><ele>389.5</ele><time>2026-04-01T16:25:43.999Z</time></trkpt><trkpt lat="42.42856469048708" lon="-8.063629193942218"><ele>389.25</ele><time>2026-04-01T16:25:44.999Z</time></trkpt><trkpt lat="42.428643978601684" lon="-8.063792991994315"><ele>389.0</ele><time>2026-04-01T16:25:45.999Z</time></trkpt><trkpt lat="42.428734018257714" lon="-8.063959130441999"><ele>390.66666666666663</ele><time>2026-04-01T16:25:46.999Z</time></trkpt><trkpt lat="42.42882064211609" lon="-8.064131115443441"><ele>392.33333333333337</ele><time>2026-04-01T16:25:47.999Z</time></trkpt><trkpt lat="42.42890764585864" lon="-8.06431199418502"><ele>394.0</ele><time>2026-04-01T16:25:48.999Z</time></trkpt><trkpt lat="42.4289924800646" lon="-8.064505391908574"><ele>394.0</ele><time>2026-04-01T16:25:49.999Z</time></trkpt><trkpt lat="42.429080326587325" lon="-8.064705020826114"><ele>394.0</ele><time>2026-04-01T16:25:50.999Z</time></trkpt><trkpt lat="42.42916958847497" lon="-8.064907199704011"><ele>394.0</ele><time>2026-04-01T16:25:51.999Z</time></trkpt><trkpt lat="42.429261910993134" lon="-8.06511203188668"><ele>393.33333333333337</ele><time>2026-04-01T16:25:52.999Z</time></trkpt><trkpt lat="42.42935336702711" lon="-8.065322580282897"><ele>392.66666666666663</ele><time>2026-04-01T16:25:53.999Z</time></trkpt><trkpt lat="42.429440366926436" lon="-8.06552485003504"><ele>392.0</ele><time>2026-04-01T16:25:54.999Z</time></trkpt><trkpt lat="42.42952439140245" lon="-8.065706729331987"><ele>391.5</ele><time>2026-04-01T16:25:55.999Z</time></trkpt><trkpt lat="42.42960029454544" lon="-8.065876908857689"><ele>391.0</ele><time>2026-04-01T16:25:56.999Z</time></trkpt><trkpt lat="42.42967144351482" lon="-8.066033956420902"><ele>390.5</ele><time>2026-04-01T16:25:58Z</time></trkpt><trkpt lat="42.429738565198896" lon="-8.066183356029862"><ele>390.0</ele><time>2026-04-01T16:25:59Z</time></trkpt><trkpt lat="42.429802484484426" lon="-8.066322250004308"><ele>391.0</ele><time>2026-04-01T16:26:00Z</time></trkpt><trkpt lat="42.42986629747506" lon="-8.06645050440802"><ele>392.0</ele><time>2026-04-01T16:26:01Z</time></trkpt><trkpt lat="42.4299162631103" lon="-8.066577704104455"><ele>393.0</ele><time>2026-04-01T16:26:02Z</time></trkpt><trkpt lat="42.42997237606963" lon="-8.066711349827152"><ele>394.0</ele><time>2026-04-01T16:26:03Z</time></trkpt><trkpt lat="42.430032828756666" lon="-8.066847141359021"><ele>394.0</ele><time>2026-04-01T16:26:04Z</time></trkpt><trkpt lat="42.430089550782476" lon="-8.06698150796074"><ele>394.0</ele><time>2026-04-01T16:26:05Z</time></trkpt><trkpt lat="42.43014481502938" lon="-8.067112074572414"><ele>394.0</ele><time>2026-04-01T16:26:06Z</time></trkpt><trkpt lat="42.43019785432392" lon="-8.067224847406091"><ele>394.0</ele><time>2026-04-01T16:26:07Z</time></trkpt><trkpt lat="42.430243225623435" lon="-8.067317493976534"><ele>394.0</ele><time>2026-04-01T16:26:08Z</time></trkpt><trkpt lat="42.430298342656606" lon="-8.067379571518696"><ele>394.0</ele><time>2026-04-01T16:26:09Z</time></trkpt><trkpt lat="42.430435912317435" lon="-8.067291997643688"><ele>394.0</ele><time>2026-04-01T16:26:12Z</time></trkpt><trkpt lat="42.43060351560971" lon="-8.067569916870527"><ele>394.0</ele><time>2026-04-01T16:26:21Z</time></trkpt><trkpt lat="42.430632999866965" lon="-8.067646102607664"><ele>396.0</ele><time>2026-04-01T16:26:24Z</time></trkpt><trkpt lat="42.430644917025944" lon="-8.06773512074627"><ele>396.0</ele><time>2026-04-01T16:26:26Z</time></trkpt><trkpt lat="42.43085560467761" lon="-8.067601152878657"><ele>396.0</ele><time>2026-04-01T16:26:27Z</time></trkpt></trkseg><trkseg><trkpt lat="42.43045542616421" lon="-8.068708749882488"><ele>389.0</ele><time>2026-04-01T16:38:56.999Z</time></trkpt><trkpt lat="42.43037612518013" lon="-8.068737768418849"><ele>389.0</ele><time>2026-04-01T16:38:57.999Z</time></trkpt><trkpt lat="42.43028273663984" lon="-8.06876574867086"><ele>389.0</ele><time>2026-04-01T16:38:58.999Z</time></trkpt><trkpt lat="42.430188021911036" lon="-8.068793704432846"><ele>389.0</ele><time>2026-04-01T16:38:59.999Z</time></trkpt><trkpt lat="42.43009094465408" lon="-8.06882224920655"><ele>389.0</ele><time>2026-04-01T16:39:00.999Z</time></trkpt><trkpt lat="42.429988313092736" lon="-8.068857350405718"><ele>388.99999999999994</ele><time>2026-04-01T16:39:01.999Z</time></trkpt><trkpt lat="42.42988835226287" lon="-8.068891478244538"><ele>389.0</ele><time>2026-04-01T16:39:03Z</time></trkpt><trkpt lat="42.4297904707182" lon="-8.06892286231934"><ele>389.0</ele><time>2026-04-01T16:39:04Z</time></trkpt><trkpt lat="42.42971292219088" lon="-8.068939855158364"><ele>389.0</ele><time>2026-04-01T16:39:05Z</time></trkpt><trkpt lat="42.42965159018306" lon="-8.068964221183984"><ele>388.99999999999994</ele><time>2026-04-01T16:39:06Z</time></trkpt><trkpt lat="42.42958957881308" lon="-8.068883581105863"><ele>389.0</ele><time>2026-04-01T16:39:10Z</time></trkpt><trkpt lat="42.42957103511882" lon="-8.068775751228673"><ele>388.99999999999994</ele><time>2026-04-01T16:39:11Z</time></trkpt><trkpt lat="42.429571867482345" lon="-8.068647243614874"><ele>389.0</ele><time>2026-04-01T16:39:12Z</time></trkpt><trkpt lat="42.42957757624045" lon="-8.068526566809958"><ele>389.0</ele><time>2026-04-01T16:39:13Z</time></trkpt><trkpt lat="42.429581650873" lon="-8.068424190098039"><ele>389.0</ele><time>2026-04-01T16:39:14Z</time></trkpt><trkpt lat="42.429585291807264" lon="-8.068298877545436"><ele>388.99999999999994</ele><time>2026-04-01T16:39:16Z</time></trkpt><trkpt lat="42.42965348037182" lon="-8.068328955070745"><ele>389.0</ele><time>2026-04-01T16:39:18Z</time></trkpt><trkpt lat="42.42962420045112" lon="-8.068499099698007"><ele>387.5</ele><time>2026-04-01T16:42:02Z</time></trkpt><trkpt lat="42.42962568647414" lon="-8.068697682118124"><ele>386.0</ele><time>2026-04-01T16:42:04Z</time></trkpt><trkpt lat="42.42963271043221" lon="-8.068827406726115"><ele>384.5</ele><time>2026-04-01T16:42:05Z</time></trkpt><trkpt lat="42.42963683637295" lon="-8.06898575397534"><ele>383.0</ele><time>2026-04-01T16:42:06Z</time></trkpt><trkpt lat="42.42962622852738" lon="-8.069127990924303"><ele>383.0</ele><time>2026-04-01T16:42:07Z</time></trkpt><trkpt lat="42.42962701243958" lon="-8.069244368650532"><ele>383.0</ele><time>2026-04-01T16:42:08Z</time></trkpt><trkpt lat="42.42962869391954" lon="-8.069409757053931"><ele>383.0</ele><time>2026-04-01T16:42:09.999Z</time></trkpt><trkpt lat="42.4296253761912" lon="-8.069547655581948"><ele>383.0</ele><time>2026-04-01T16:42:10.999Z</time></trkpt><trkpt lat="42.42964078290689" lon="-8.069668380466124"><ele>383.0</ele><time>2026-04-01T16:42:11.999Z</time></trkpt><trkpt lat="42.429625751870404" lon="-8.069756206163506"><ele>383.0</ele><time>2026-04-01T16:42:12.999Z</time></trkpt><trkpt lat="42.42963278877616" lon="-8.06988488327671"><ele>383.0</ele><time>2026-04-01T16:42:14.999Z</time></trkpt><trkpt lat="42.429641687635154" lon="-8.069996652908184"><ele>383.0</ele><time>2026-04-01T16:42:17.999Z</time></trkpt><trkpt lat="42.42964250581668" lon="-8.070152535649395"><ele>383.0</ele><time>2026-04-01T16:42:20.999Z</time></trkpt><trkpt lat="42.42964553478267" lon="-8.070288891496046"><ele>383.0</ele><time>2026-04-01T16:42:22.999Z</time></trkpt><trkpt lat="42.42966094224744" lon="-8.070469674442991"><ele>384.5</ele><time>2026-04-01T16:42:24.999Z</time></trkpt><trkpt lat="42.42966523744682" lon="-8.070615711015403"><ele>386.0</ele><time>2026-04-01T16:42:25.999Z</time></trkpt><trkpt lat="42.429686814572676" lon="-8.070750548904718"><ele>387.5</ele><time>2026-04-01T16:42:26.999Z</time></trkpt><trkpt lat="42.42971791349231" lon="-8.070915106905996"><ele>389.0</ele><time>2026-04-01T16:42:27.999Z</time></trkpt><trkpt lat="42.429756459210395" lon="-8.071084905733619"><ele>388.99999999999994</ele><time>2026-04-01T16:42:28.999Z</time></trkpt><trkpt lat="42.42978283548284" lon="-8.071219084312398"><ele>389.0</ele><time>2026-04-01T16:42:29.999Z</time></trkpt><trkpt lat="42.42979900247181" lon="-8.071337547718375"><ele>389.0</ele><time>2026-04-01T16:42:30.999Z</time></trkpt><trkpt lat="42.429813290950406" lon="-8.071442266068138"><ele>389.0</ele><time>2026-04-01T16:42:31.999Z</time></trkpt><trkpt lat="42.42983122254406" lon="-8.071544273594219"><ele>388.99999999999994</ele><time>2026-04-01T16:42:32.999Z</time></trkpt><trkpt lat="42.42985538827929" lon="-8.071634993893506"><ele>389.0</ele><time>2026-04-01T16:42:33.999Z</time></trkpt><trkpt lat="42.429871918335046" lon="-8.071717405618015"><ele>389.16666666666663</ele><time>2026-04-01T16:42:34.999Z</time></trkpt><trkpt lat="42.42989272973938" lon="-8.071801808031461"><ele>389.3333333333333</ele><time>2026-04-01T16:42:35.999Z</time></trkpt><trkpt lat="42.429908063873526" lon="-8.07188483740453"><ele>389.5</ele><time>2026-04-01T16:42:36.999Z</time></trkpt><trkpt lat="42.429955235652066" lon="-8.072038358870882"><ele>389.66666666666663</ele><time>2026-04-01T16:42:38.999Z</time></trkpt><trkpt lat="42.42999019752782" lon="-8.072114442408099"><ele>389.8333333333333</ele><time>2026-04-01T16:42:39.999Z</time></trkpt><trkpt lat="42.430024007644946" lon="-8.072231960327576"><ele>390.0</ele><time>2026-04-01T16:42:40.999Z</time></trkpt><trkpt lat="42.430035536974614" lon="-8.072367966489725"><ele>390.8</ele><time>2026-04-01T16:42:41.999Z</time></trkpt><trkpt lat="42.43003475876552" lon="-8.07252529600491"><ele>391.6</ele><time>2026-04-01T16:42:42.999Z</time></trkpt><trkpt lat="42.43007814222867" lon="-8.07265852095348"><ele>392.4</ele><time>2026-04-01T16:42:43.999Z</time></trkpt><trkpt lat="42.43010549485955" lon="-8.07278242726816"><ele>393.2</ele><time>2026-04-01T16:42:44.999Z</time></trkpt><trkpt lat="42.430116033504405" lon="-8.07291258052505"><ele>394.0</ele><time>2026-04-01T16:42:45.999Z</time></trkpt><trkpt lat="42.4301519106313" lon="-8.073032368565825"><ele>394.0</ele><time>2026-04-01T16:42:46.999Z</time></trkpt><trkpt lat="42.43016751114616" lon="-8.073155818321089"><ele>394.0</ele><time>2026-04-01T16:42:47.999Z</time></trkpt><trkpt lat="42.43020713056373" lon="-8.073281831963882"><ele>394.0</ele><time>2026-04-01T16:42:48.999Z</time></trkpt><trkpt lat="42.430242035716375" lon="-8.07341422174849"><ele>394.0</ele><time>2026-04-01T16:42:49.999Z</time></trkpt><trkpt lat="42.43026714170766" lon="-8.073536642916668"><ele>394.0</ele><time>2026-04-01T16:42:50.999Z</time></trkpt><trkpt lat="42.43029395274996" lon="-8.073637869592298"><ele>394.6</ele><time>2026-04-01T16:42:51.999Z</time></trkpt><trkpt lat="42.43031313404545" lon="-8.073719150887479"><ele>395.2</ele><time>2026-04-01T16:42:52.999Z</time></trkpt><trkpt lat="42.43033784483587" lon="-8.07384835684877"><ele>395.8</ele><time>2026-04-01T16:42:54.999Z</time></trkpt><trkpt lat="42.430390357036245" lon="-8.07399265567895"><ele>396.40000000000003</ele><time>2026-04-01T16:42:56.999Z</time></trkpt><trkpt lat="42.4303979489252" lon="-8.074112930285981"><ele>397.0</ele><time>2026-04-01T16:42:57.999Z</time></trkpt><trkpt lat="42.430422557493586" lon="-8.074232015493694"><ele>397.00000000000006</ele><time>2026-04-01T16:42:58.999Z</time></trkpt><trkpt lat="42.43044257034572" lon="-8.074329636251687"><ele>397.0</ele><time>2026-04-01T16:42:59.999Z</time></trkpt><trkpt lat="42.43046421900724" lon="-8.074477935431554"><ele>397.0</ele><time>2026-04-01T16:43:01.999Z</time></trkpt><trkpt lat="42.43048193911985" lon="-8.074561010860851"><ele>397.0</ele><time>2026-04-01T16:43:02.999Z</time></trkpt><trkpt lat="42.430498792661574" lon="-8.074644924899182"><ele>397.00000000000006</ele><time>2026-04-01T16:43:03.999Z</time></trkpt><trkpt lat="42.43053017803319" lon="-8.074794674386698"><ele>397.0</ele><time>2026-04-01T16:43:05.999Z</time></trkpt><trkpt lat="42.430566894985645" lon="-8.07495868273087"><ele>398.40000000000003</ele><time>2026-04-01T16:43:07.999Z</time></trkpt><trkpt lat="42.430599678541455" lon="-8.075052858202575"><ele>399.8</ele><time>2026-04-01T16:43:08.999Z</time></trkpt><trkpt lat="42.4306290961743" lon="-8.07520249959308"><ele>401.2</ele><time>2026-04-01T16:43:10.999Z</time></trkpt><trkpt lat="42.43066410169929" lon="-8.07536660084767"><ele>402.6</ele><time>2026-04-01T16:43:12.999Z</time></trkpt><trkpt lat="42.430688905165276" lon="-8.07545649893609"><ele>404.0</ele><time>2026-04-01T16:43:13.999Z</time></trkpt><trkpt lat="42.43070386568356" lon="-8.0755461377219"><ele>403.99999999999994</ele><time>2026-04-01T16:43:15Z</time></trkpt><trkpt lat="42.43073945732165" lon="-8.075697767911533"><ele>404.0</ele><time>2026-04-01T16:43:17Z</time></trkpt><trkpt lat="42.430766907553426" lon="-8.07583116321999"><ele>404.0</ele><time>2026-04-01T16:43:19Z</time></trkpt><trkpt lat="42.43078323843607" lon="-8.07592255327163"><ele>404.0</ele><time>2026-04-01T16:43:21Z</time></trkpt><trkpt lat="42.43079470978995" lon="-8.076018841415495"><ele>403.99999999999994</ele><time>2026-04-01T16:43:23Z</time></trkpt><trkpt lat="42.43082870552987" lon="-8.076108074834856"><ele>404.0</ele><time>2026-04-01T16:43:24Z</time></trkpt><trkpt lat="42.43072051398106" lon="-8.07630191769258"><ele>404.0</ele><time>2026-04-01T16:43:26Z</time></trkpt><trkpt lat="42.4306566765271" lon="-8.076372587510132"><ele>404.0</ele><time>2026-04-01T16:43:37Z</time></trkpt><trkpt lat="42.43063578308752" lon="-8.076457184490737"><ele>404.0</ele><time>2026-04-01T16:43:38Z</time></trkpt><trkpt lat="42.430587793542315" lon="-8.07655532245338"><ele>404.0</ele><time>2026-04-01T16:43:39Z</time></trkpt><trkpt lat="42.43053082791272" lon="-8.07666990410354"><ele>404.0</ele><time>2026-04-01T16:43:40Z</time></trkpt><trkpt lat="42.43045567488289" lon="-8.07678427388667"><ele>403.2</ele><time>2026-04-01T16:43:41Z</time></trkpt><trkpt lat="42.43037653215345" lon="-8.076883270398909"><ele>402.4</ele><time>2026-04-01T16:43:42Z</time></trkpt><trkpt lat="42.430320772598414" lon="-8.076976655618047"><ele>401.6</ele><time>2026-04-01T16:43:43Z</time></trkpt><trkpt lat="42.43027853262013" lon="-8.077049512835844"><ele>400.8</ele><time>2026-04-01T16:43:44Z</time></trkpt><trkpt lat="42.43019210592107" lon="-8.077174972358986"><ele>400.0</ele><time>2026-04-01T16:43:46Z</time></trkpt><trkpt lat="42.430126427041046" lon="-8.077269790676892"><ele>400.00000000000006</ele><time>2026-04-01T16:43:48Z</time></trkpt><trkpt lat="42.43001831988693" lon="-8.077277754713672"><ele>400.0</ele><time>2026-04-01T16:43:50Z</time></trkpt><trkpt lat="42.42995249708173" lon="-8.077357398702304"><ele>400.0</ele><time>2026-04-01T16:43:53Z</time></trkpt><trkpt lat="42.42992137162681" lon="-8.077434998080394"><ele>400.0</ele><time>2026-04-01T16:43:55Z</time></trkpt><trkpt lat="42.42986092365974" lon="-8.077488685797993"><ele>400.00000000000006</ele><time>2026-04-01T16:43:57Z</time></trkpt><trkpt lat="42.42979989777903" lon="-8.077544858192182"><ele>400.0</ele><time>2026-04-01T16:43:59Z</time></trkpt><trkpt lat="42.429744603271295" lon="-8.077596209270459"><ele>400.4</ele><time>2026-04-01T16:44:01Z</time></trkpt><trkpt lat="42.42966900242769" lon="-8.077666418495694"><ele>400.8</ele><time>2026-04-01T16:44:04Z</time></trkpt><trkpt lat="42.42960979264601" lon="-8.077718772587053"><ele>401.20000000000005</ele><time>2026-04-01T16:44:06Z</time></trkpt><trkpt lat="42.429524318134575" lon="-8.077776969834932"><ele>401.6</ele><time>2026-04-01T16:44:08Z</time></trkpt><trkpt lat="42.42942759445066" lon="-8.077892104781762"><ele>402.0</ele><time>2026-04-01T16:44:10Z</time></trkpt><trkpt lat="42.42936436638942" lon="-8.07795341032306"><ele>402.0</ele><time>2026-04-01T16:44:11Z</time></trkpt><trkpt lat="42.42930066573301" lon="-8.078015174030748"><ele>402.0</ele><time>2026-04-01T16:44:12Z</time></trkpt><trkpt lat="42.429244169087646" lon="-8.078058643132879"><ele>402.0</ele><time>2026-04-01T16:44:13Z</time></trkpt><trkpt lat="42.42915418927878" lon="-8.078175372097032"><ele>402.0</ele><time>2026-04-01T16:44:15Z</time></trkpt><trkpt lat="42.42910033155516" lon="-8.078235239537287"><ele>402.0</ele><time>2026-04-01T16:44:16Z</time></trkpt><trkpt lat="42.429049657262624" lon="-8.078291505882863"><ele>402.0</ele><time>2026-04-01T16:44:17Z</time></trkpt><trkpt lat="42.42898940869846" lon="-8.078421698024732"><ele>402.0</ele><time>2026-04-01T16:44:18.999Z</time></trkpt><trkpt lat="42.42893264721252" lon="-8.078528672066867"><ele>402.0</ele><time>2026-04-01T16:44:20.999Z</time></trkpt><trkpt lat="42.428896376155066" lon="-8.078598929957598"><ele>402.0</ele><time>2026-04-01T16:44:21.999Z</time></trkpt><trkpt lat="42.42884728585058" lon="-8.078694018777234"><ele>402.0</ele><time>2026-04-01T16:44:22.999Z</time></trkpt><trkpt lat="42.42878839043748" lon="-8.078807289287802"><ele>402.0</ele><time>2026-04-01T16:44:23.999Z</time></trkpt><trkpt lat="42.42872105402576" lon="-8.078925661679907"><ele>401.5</ele><time>2026-04-01T16:44:24.999Z</time></trkpt><trkpt lat="42.4286550503949" lon="-8.079030577297894"><ele>401.0</ele><time>2026-04-01T16:44:25.999Z</time></trkpt><trkpt lat="42.42860331432277" lon="-8.079106597658877"><ele>400.5</ele><time>2026-04-01T16:44:26.999Z</time></trkpt><trkpt lat="42.428547987881196" lon="-8.079176881915831"><ele>400.0</ele><time>2026-04-01T16:44:27.999Z</time></trkpt><trkpt lat="42.42847290615773" lon="-8.079248793214749"><ele>399.5</ele><time>2026-04-01T16:44:28.999Z</time></trkpt><trkpt lat="42.42840553966554" lon="-8.079310089637003"><ele>399.0</ele><time>2026-04-01T16:44:29.999Z</time></trkpt><trkpt lat="42.42831372834675" lon="-8.07933639176297"><ele>399.0</ele><time>2026-04-01T16:44:30.999Z</time></trkpt><trkpt lat="42.428246283447976" lon="-8.07937461851882"><ele>399.0</ele><time>2026-04-01T16:44:31.999Z</time></trkpt><trkpt lat="42.428187634174705" lon="-8.079421084083114"><ele>399.0</ele><time>2026-04-01T16:44:32.999Z</time></trkpt><trkpt lat="42.42812643845013" lon="-8.079459363044897"><ele>399.0</ele><time>2026-04-01T16:44:33.999Z</time></trkpt><trkpt lat="42.42803572828058" lon="-8.079561318758756"><ele>399.0</ele><time>2026-04-01T16:44:35.999Z</time></trkpt><trkpt lat="42.42815633487993" lon="-8.079705246427643"><ele>399.0</ele><time>2026-04-01T16:44:45.999Z</time></trkpt><trkpt lat="42.42819150737369" lon="-8.07982451766178"><ele>399.0</ele><time>2026-04-01T16:44:47.999Z</time></trkpt><trkpt lat="42.428149411820286" lon="-8.080031559048653"><ele>399.0</ele><time>2026-04-01T16:44:50.999Z</time></trkpt><trkpt lat="42.42805241377343" lon="-8.080122301652757"><ele>399.0</ele><time>2026-04-01T16:44:52.999Z</time></trkpt><trkpt lat="42.4279956462715" lon="-8.08017451523199"><ele>399.0</ele><time>2026-04-01T16:44:53.999Z</time></trkpt><trkpt lat="42.42793885371019" lon="-8.080226751822071"><ele>398.57142857142856</ele><time>2026-04-01T16:44:54.999Z</time></trkpt><trkpt lat="42.42787776273747" lon="-8.0802836722669"><ele>398.1428571428571</ele><time>2026-04-01T16:44:55.999Z</time></trkpt><trkpt lat="42.427810077728694" lon="-8.080348425108944"><ele>397.7142857142857</ele><time>2026-04-01T16:44:56.999Z</time></trkpt><trkpt lat="42.42775503717178" lon="-8.080403885758045"><ele>397.2857142857143</ele><time>2026-04-01T16:44:57.999Z</time></trkpt><trkpt lat="42.427699663233774" lon="-8.080459682467975"><ele>396.85714285714283</ele><time>2026-04-01T16:44:58.999Z</time></trkpt><trkpt lat="42.427638450242846" lon="-8.080522032161378"><ele>396.42857142857144</ele><time>2026-04-01T16:44:59.999Z</time></trkpt><trkpt lat="42.427579932185964" lon="-8.080583157941772"><ele>396.0</ele><time>2026-04-01T16:45:00.999Z</time></trkpt><trkpt lat="42.427519593802494" lon="-8.08062043278264"><ele>396.0</ele><time>2026-04-01T16:45:01.999Z</time></trkpt><trkpt lat="42.427466827660766" lon="-8.080700143432964"><ele>396.0</ele><time>2026-04-01T16:45:02.999Z</time></trkpt><trkpt lat="42.42741027592932" lon="-8.080760802773527"><ele>396.0</ele><time>2026-04-01T16:45:03.999Z</time></trkpt><trkpt lat="42.42735486164517" lon="-8.08082333191049"><ele>396.0</ele><time>2026-04-01T16:45:04.999Z</time></trkpt><trkpt lat="42.42730062648242" lon="-8.080886636074975"><ele>396.0</ele><time>2026-04-01T16:45:05.999Z</time></trkpt><trkpt lat="42.42724995837523" lon="-8.080944421618623"><ele>396.0</ele><time>2026-04-01T16:45:06.999Z</time></trkpt><trkpt lat="42.4272167952548" lon="-8.081030639854678"><ele>396.0</ele><time>2026-04-01T16:45:07.999Z</time></trkpt><trkpt lat="42.42717507345552" lon="-8.081098506072262"><ele>395.8</ele><time>2026-04-01T16:45:08.999Z</time></trkpt><trkpt lat="42.42713334042428" lon="-8.08117014886044"><ele>395.6</ele><time>2026-04-01T16:45:09.999Z</time></trkpt><trkpt lat="42.42706570069551" lon="-8.081290453078449"><ele>395.4</ele><time>2026-04-01T16:45:11.999Z</time></trkpt><trkpt lat="42.42699982904938" lon="-8.081388486828626"><ele>395.2</ele><time>2026-04-01T16:45:13.999Z</time></trkpt><trkpt lat="42.42696545897381" lon="-8.081482345529118"><ele>395.0</ele><time>2026-04-01T16:45:14.999Z</time></trkpt><trkpt lat="42.42689791714091" lon="-8.081622111481563"><ele>395.0</ele><time>2026-04-01T16:45:16.999Z</time></trkpt><trkpt lat="42.42683023529718" lon="-8.081764049426777"><ele>395.0</ele><time>2026-04-01T16:45:18.999Z</time></trkpt><trkpt lat="42.42678696767961" lon="-8.081881617315378"><ele>395.0</ele><time>2026-04-01T16:45:20.999Z</time></trkpt><trkpt lat="42.426762779714124" lon="-8.081961002042519"><ele>395.0</ele><time>2026-04-01T16:45:22.999Z</time></trkpt><trkpt lat="42.42674884698545" lon="-8.082067409646683"><ele>395.0</ele><time>2026-04-01T16:45:24.999Z</time></trkpt><trkpt lat="42.426760534221145" lon="-8.082228049465275"><ele>394.99999999999994</ele><time>2026-04-01T16:45:26.999Z</time></trkpt><trkpt lat="42.42676460321028" lon="-8.08232767166358"><ele>395.0</ele><time>2026-04-01T16:45:27.999Z</time></trkpt><trkpt lat="42.42676774777639" lon="-8.082415064194603"><ele>395.0</ele><time>2026-04-01T16:45:28.999Z</time></trkpt><trkpt lat="42.42678338410413" lon="-8.082592311592084"><ele>395.0</ele><time>2026-04-01T16:45:30.999Z</time></trkpt><trkpt lat="42.42679326302229" lon="-8.0826991936411"><ele>394.99999999999994</ele><time>2026-04-01T16:45:31.999Z</time></trkpt><trkpt lat="42.42680379263484" lon="-8.082804436363269"><ele>395.0</ele><time>2026-04-01T16:45:33Z</time></trkpt><trkpt lat="42.42680444080036" lon="-8.082903262473863"><ele>395.0</ele><time>2026-04-01T16:45:34Z</time></trkpt><trkpt lat="42.426822029529816" lon="-8.083062999244442"><ele>395.0</ele><time>2026-04-01T16:45:36Z</time></trkpt><trkpt lat="42.42683667145304" lon="-8.083180494126356"><ele>395.0</ele><time>2026-04-01T16:45:38Z</time></trkpt><trkpt lat="42.42680157942624" lon="-8.08325524832047"><ele>395.0</ele><time>2026-04-01T16:45:40Z</time></trkpt><trkpt lat="42.426815609582384" lon="-8.083351713347719"><ele>395.0</ele><time>2026-04-01T16:45:44Z</time></trkpt><trkpt lat="42.42681181191744" lon="-8.083501590868794"><ele>395.8</ele><time>2026-04-01T16:45:47Z</time></trkpt><trkpt lat="42.42679978586281" lon="-8.08364601103285"><ele>396.6</ele><time>2026-04-01T16:45:49Z</time></trkpt><trkpt lat="42.426775712681646" lon="-8.083776694536235"><ele>397.4</ele><time>2026-04-01T16:45:51Z</time></trkpt><trkpt lat="42.42674636419805" lon="-8.083953922544865"><ele>398.2</ele><time>2026-04-01T16:45:53Z</time></trkpt><trkpt lat="42.426737909343785" lon="-8.084058300499407"><ele>399.0</ele><time>2026-04-01T16:45:54Z</time></trkpt><trkpt lat="42.42672159851242" lon="-8.084161393436005"><ele>399.3333333333333</ele><time>2026-04-01T16:45:55Z</time></trkpt><trkpt lat="42.42670565522812" lon="-8.084267904946975"><ele>399.66666666666663</ele><time>2026-04-01T16:45:56Z</time></trkpt><trkpt lat="42.42668992416419" lon="-8.084385049752939"><ele>400.0</ele><time>2026-04-01T16:45:57Z</time></trkpt><trkpt lat="42.42668025471075" lon="-8.084489614595656"><ele>400.3333333333333</ele><time>2026-04-01T16:45:58Z</time></trkpt><trkpt lat="42.42667694726963" lon="-8.084579669113047"><ele>400.66666666666663</ele><time>2026-04-01T16:45:59Z</time></trkpt><trkpt lat="42.426647971536205" lon="-8.084722407746707"><ele>401.0</ele><time>2026-04-01T16:46:01Z</time></trkpt><trkpt lat="42.42662948479236" lon="-8.084824898914817"><ele>400.99999999999994</ele><time>2026-04-01T16:46:03Z</time></trkpt><trkpt lat="42.426488078353216" lon="-8.084784765249"><ele>401.0</ele><time>2026-04-01T16:46:04Z</time></trkpt><trkpt lat="42.42639891992955" lon="-8.084739731958381"><ele>401.0</ele><time>2026-04-01T16:46:05Z</time></trkpt><trkpt lat="42.426334105948314" lon="-8.084711248523394"><ele>401.0</ele><time>2026-04-01T16:46:06Z</time></trkpt><trkpt lat="42.42626622537577" lon="-8.084685702982842"><ele>400.99999999999994</ele><time>2026-04-01T16:46:07Z</time></trkpt><trkpt lat="42.426200267295364" lon="-8.084661736178234"><ele>401.0</ele><time>2026-04-01T16:46:08Z</time></trkpt><trkpt lat="42.426085580039214" lon="-8.084609823200022"><ele>401.0</ele><time>2026-04-01T16:46:10Z</time></trkpt><trkpt lat="42.42602583514267" lon="-8.084579502422983"><ele>401.0</ele><time>2026-04-01T16:46:11Z</time></trkpt><trkpt lat="42.42591709968238" lon="-8.084558746817539"><ele>401.0</ele><time>2026-04-01T16:46:13Z</time></trkpt><trkpt lat="42.42585144503688" lon="-8.084515407726746"><ele>401.0</ele><time>2026-04-01T16:46:16Z</time></trkpt><trkpt lat="42.425762675296085" lon="-8.084720921846058"><ele>401.0</ele><time>2026-04-01T16:46:18Z</time></trkpt><trkpt lat="42.4257134006329" lon="-8.084817282849759"><ele>400.99999999999994</ele><time>2026-04-01T16:46:19Z</time></trkpt><trkpt lat="42.4256783966705" lon="-8.084912671239215"><ele>401.0</ele><time>2026-04-01T16:46:20Z</time></trkpt><trkpt lat="42.42566369406256" lon="-8.085023290236945"><ele>401.0</ele><time>2026-04-01T16:46:21Z</time></trkpt><trkpt lat="42.42561225906613" lon="-8.085126903107557"><ele>401.0</ele><time>2026-04-01T16:46:22Z</time></trkpt><trkpt lat="42.425584260244364" lon="-8.085236525453142"><ele>400.99999999999994</ele><time>2026-04-01T16:46:23Z</time></trkpt><trkpt lat="42.42554992734737" lon="-8.085348768449611"><ele>401.0</ele><time>2026-04-01T16:46:24Z</time></trkpt><trkpt lat="42.42551420400636" lon="-8.08546502036753"><ele>401.4</ele><time>2026-04-01T16:46:25Z</time></trkpt><trkpt lat="42.42546894554731" lon="-8.085577328414608"><ele>401.8</ele><time>2026-04-01T16:46:26Z</time></trkpt><trkpt lat="42.42541972701662" lon="-8.085690425837036"><ele>402.2</ele><time>2026-04-01T16:46:27Z</time></trkpt><trkpt lat="42.42537620664586" lon="-8.085818579375422"><ele>402.59999999999997</ele><time>2026-04-01T16:46:28Z</time></trkpt><trkpt lat="42.42532291349161" lon="-8.085937869429614"><ele>403.0</ele><time>2026-04-01T16:46:29Z</time></trkpt><trkpt lat="42.42526265245472" lon="-8.086050417731961"><ele>403.0</ele><time>2026-04-01T16:46:30Z</time></trkpt><trkpt lat="42.425187097644496" lon="-8.08614845900889"><ele>403.0</ele><time>2026-04-01T16:46:31Z</time></trkpt><trkpt lat="42.42510761450642" lon="-8.08624106385151"><ele>403.0</ele><time>2026-04-01T16:46:32Z</time></trkpt><trkpt lat="42.42501795564749" lon="-8.086347680227847"><ele>403.0</ele><time>2026-04-01T16:46:33Z</time></trkpt><trkpt lat="42.424928172549926" lon="-8.08645620426008"><ele>403.0</ele><time>2026-04-01T16:46:33.999Z</time></trkpt><trkpt lat="42.42484659412936" lon="-8.086548545659358"><ele>403.2</ele><time>2026-04-01T16:46:34.999Z</time></trkpt><trkpt lat="42.424771795550676" lon="-8.086648540677782"><ele>403.4</ele><time>2026-04-01T16:46:35.999Z</time></trkpt><trkpt lat="42.42469438218748" lon="-8.086743323502331"><ele>403.59999999999997</ele><time>2026-04-01T16:46:36.999Z</time></trkpt><trkpt lat="42.424618569437804" lon="-8.086833158564696"><ele>403.79999999999995</ele><time>2026-04-01T16:46:37.999Z</time></trkpt><trkpt lat="42.4245555319788" lon="-8.086928238240146"><ele>404.0</ele><time>2026-04-01T16:46:38.999Z</time></trkpt><trkpt lat="42.42447956094396" lon="-8.086986436596959"><ele>408.0</ele><time>2026-04-01T16:46:39.999Z</time></trkpt><trkpt lat="42.42441727741469" lon="-8.087063005073915"><ele>408.0</ele><time>2026-04-01T16:46:40.999Z</time></trkpt><trkpt lat="42.42436652596019" lon="-8.087126107879675"><ele>408.0</ele><time>2026-04-01T16:46:41.999Z</time></trkpt><trkpt lat="42.42431684522014" lon="-8.08718084013874"><ele>408.0</ele><time>2026-04-01T16:46:42.999Z</time></trkpt><trkpt lat="42.42427251886987" lon="-8.087241491236458"><ele>408.0</ele><time>2026-04-01T16:46:43.999Z</time></trkpt><trkpt lat="42.42420680957921" lon="-8.08733478475826"><ele>408.0</ele><time>2026-04-01T16:46:45.999Z</time></trkpt></trkseg><trkseg><trkpt lat="42.42127651005942" lon="-8.089599313287126"><ele>409.0</ele><time>2026-04-01T16:49:51Z</time></trkpt><trkpt lat="42.42112872587216" lon="-8.089753734586383"><ele>409.0</ele><time>2026-04-01T16:49:52Z</time></trkpt><trkpt lat="42.42098335183433" lon="-8.089926447215767"><ele>409.0</ele><time>2026-04-01T16:49:53Z</time></trkpt><trkpt lat="42.420841918515606" lon="-8.090096335330252"><ele>408.0</ele><time>2026-04-01T16:49:54Z</time></trkpt><trkpt lat="42.42069798085791" lon="-8.090271285871655"><ele>407.0</ele><time>2026-04-01T16:49:55Z</time></trkpt><trkpt lat="42.42055855578325" lon="-8.090456860434763"><ele>406.0</ele><time>2026-04-01T16:49:56Z</time></trkpt><trkpt lat="42.42043210728907" lon="-8.09065662935278"><ele>405.33333333333337</ele><time>2026-04-01T16:49:57Z</time></trkpt><trkpt lat="42.420296375912706" lon="-8.090861621495751"><ele>404.66666666666663</ele><time>2026-04-01T16:49:58Z</time></trkpt><trkpt lat="42.42015788308377" lon="-8.09103575957432"><ele>404.0</ele><time>2026-04-01T16:49:59Z</time></trkpt><trkpt lat="42.41999281243726" lon="-8.09123760071774"><ele>404.0</ele><time>2026-04-01T16:50:00Z</time></trkpt><trkpt lat="42.41983669543607" lon="-8.091427381422172"><ele>404.0</ele><time>2026-04-01T16:50:01Z</time></trkpt><trkpt lat="42.41968803671125" lon="-8.091609062361687"><ele>404.0</ele><time>2026-04-01T16:50:02Z</time></trkpt><trkpt lat="42.419557732214685" lon="-8.091790496703757"><ele>405.0</ele><time>2026-04-01T16:50:03Z</time></trkpt><trkpt lat="42.419444647869575" lon="-8.091966198082694"><ele>406.0</ele><time>2026-04-01T16:50:04Z</time></trkpt><trkpt lat="42.41933779713566" lon="-8.092136193142151"><ele>407.0</ele><time>2026-04-01T16:50:05Z</time></trkpt><trkpt lat="42.419246433823176" lon="-8.092305241117046"><ele>407.5</ele><time>2026-04-01T16:50:06Z</time></trkpt><trkpt lat="42.41915154470742" lon="-8.092463906863744"><ele>408.0</ele><time>2026-04-01T16:50:07Z</time></trkpt><trkpt lat="42.419109100730935" lon="-8.092646741432066"><ele>408.5</ele><time>2026-04-01T16:50:08Z</time></trkpt><trkpt lat="42.419058484983196" lon="-8.092784613057207"><ele>409.0</ele><time>2026-04-01T16:50:09Z</time></trkpt><trkpt lat="42.418995591089555" lon="-8.092939154731996"><ele>409.0</ele><time>2026-04-01T16:50:10Z</time></trkpt><trkpt lat="42.41893834795168" lon="-8.093058118609578"><ele>409.0</ele><time>2026-04-01T16:50:11Z</time></trkpt><trkpt lat="42.4188719843442" lon="-8.093159038089338"><ele>409.0</ele><time>2026-04-01T16:50:12Z</time></trkpt><trkpt lat="42.41879552248453" lon="-8.093255042364241"><ele>409.0</ele><time>2026-04-01T16:50:13Z</time></trkpt><trkpt lat="42.4186985059351" lon="-8.093364741170946"><ele>409.0</ele><time>2026-04-01T16:50:14Z</time></trkpt><trkpt lat="42.41859947381317" lon="-8.093477850361753"><ele>409.0</ele><time>2026-04-01T16:50:15Z</time></trkpt><trkpt lat="42.418506239902854" lon="-8.09363673159099"><ele>409.0</ele><time>2026-04-01T16:50:16Z</time></trkpt><trkpt lat="42.41838868480722" lon="-8.09377666114321"><ele>409.0</ele><time>2026-04-01T16:50:17Z</time></trkpt><trkpt lat="42.41827251811643" lon="-8.093918039928782"><ele>409.0</ele><time>2026-04-01T16:50:18Z</time></trkpt><trkpt lat="42.41816058736854" lon="-8.094066007606182"><ele>409.0</ele><time>2026-04-01T16:50:19Z</time></trkpt><trkpt lat="42.41807064451465" lon="-8.094218887663315"><ele>409.0</ele><time>2026-04-01T16:50:20Z</time></trkpt><trkpt lat="42.41799775943575" lon="-8.094392567436921"><ele>409.0</ele><time>2026-04-01T16:50:21Z</time></trkpt><trkpt lat="42.417916109706084" lon="-8.094597725060229"><ele>407.33333333333337</ele><time>2026-04-01T16:50:22Z</time></trkpt><trkpt lat="42.41780208924589" lon="-8.094783551012265"><ele>405.66666666666663</ele><time>2026-04-01T16:50:23Z</time></trkpt><trkpt lat="42.41771052562278" lon="-8.094963711506272"><ele>404.0</ele><time>2026-04-01T16:50:24Z</time></trkpt><trkpt lat="42.417619140369275" lon="-8.095166900746808"><ele>403.3333333333333</ele><time>2026-04-01T16:50:25Z</time></trkpt><trkpt lat="42.41756433074962" lon="-8.095364088602444"><ele>402.66666666666663</ele><time>2026-04-01T16:50:26Z</time></trkpt><trkpt lat="42.41750016749804" lon="-8.095560563085867"><ele>402.0</ele><time>2026-04-01T16:50:27Z</time></trkpt><trkpt lat="42.41740945823399" lon="-8.095759234377002"><ele>402.33333333333337</ele><time>2026-04-01T16:50:28Z</time></trkpt><trkpt lat="42.41728681765907" lon="-8.095926751145367"><ele>402.6666666666667</ele><time>2026-04-01T16:50:29Z</time></trkpt><trkpt lat="42.417169765942525" lon="-8.096095945798455"><ele>403.0</ele><time>2026-04-01T16:50:30Z</time></trkpt><trkpt lat="42.41706292269072" lon="-8.096265497744634"><ele>403.0</ele><time>2026-04-01T16:50:31Z</time></trkpt><trkpt lat="42.416980461487334" lon="-8.09644264076988"><ele>403.0</ele><time>2026-04-01T16:50:32Z</time></trkpt><trkpt lat="42.416920654399284" lon="-8.096661758499462"><ele>403.0</ele><time>2026-04-01T16:50:33Z</time></trkpt><trkpt lat="42.41685238161345" lon="-8.096891623818692"><ele>404.0</ele><time>2026-04-01T16:50:34Z</time></trkpt><trkpt lat="42.416773172486344" lon="-8.097101151853938"><ele>405.0</ele><time>2026-04-01T16:50:35Z</time></trkpt><trkpt lat="42.41671474519126" lon="-8.097329810539284"><ele>406.0</ele><time>2026-04-01T16:50:36Z</time></trkpt><trkpt lat="42.41662790817068" lon="-8.097536917759493"><ele>406.0</ele><time>2026-04-01T16:50:37Z</time></trkpt><trkpt lat="42.416530424437816" lon="-8.097745115095417"><ele>406.0</ele><time>2026-04-01T16:50:38Z</time></trkpt><trkpt lat="42.416431430797964" lon="-8.097968275395127"><ele>406.0</ele><time>2026-04-01T16:50:39Z</time></trkpt><trkpt lat="42.41633222196292" lon="-8.09819572683105"><ele>404.6666666666667</ele><time>2026-04-01T16:50:40Z</time></trkpt><trkpt lat="42.41624510698775" lon="-8.098398754987008"><ele>403.33333333333337</ele><time>2026-04-01T16:50:41Z</time></trkpt><trkpt lat="42.41616222684688" lon="-8.09860644387601"><ele>402.0</ele><time>2026-04-01T16:50:42Z</time></trkpt><trkpt lat="42.4161116859223" lon="-8.098814844372622"><ele>402.0</ele><time>2026-04-01T16:50:43Z</time></trkpt><trkpt lat="42.41606707906715" lon="-8.099030239611434"><ele>402.0</ele><time>2026-04-01T16:50:44Z</time></trkpt><trkpt lat="42.41601296334722" lon="-8.099260624292143"><ele>402.0</ele><time>2026-04-01T16:50:45Z</time></trkpt><trkpt lat="42.415980422584674" lon="-8.099489822037478"><ele>403.33333333333337</ele><time>2026-04-01T16:50:46Z</time></trkpt><trkpt lat="42.41592735407093" lon="-8.099734132192024"><ele>404.6666666666667</ele><time>2026-04-01T16:50:47Z</time></trkpt><trkpt lat="42.415885505276044" lon="-8.099951065707787"><ele>406.0</ele><time>2026-04-01T16:50:48Z</time></trkpt><trkpt lat="42.415850460742995" lon="-8.100148134932724"><ele>406.0</ele><time>2026-04-01T16:50:49Z</time></trkpt><trkpt lat="42.41581159779642" lon="-8.10034640655924"><ele>406.0</ele><time>2026-04-01T16:50:50Z</time></trkpt><trkpt lat="42.415767941659766" lon="-8.100515293154004"><ele>406.0</ele><time>2026-04-01T16:50:51Z</time></trkpt><trkpt lat="42.41571118222183" lon="-8.100661600866715"><ele>406.0</ele><time>2026-04-01T16:50:52Z</time></trkpt><trkpt lat="42.41566433996707" lon="-8.10078356558014"><ele>407.0</ele><time>2026-04-01T16:50:53Z</time></trkpt><trkpt lat="42.415706970446394" lon="-8.100898379935073"><ele>408.0</ele><time>2026-04-01T16:50:54Z</time></trkpt><trkpt lat="42.41574778504058" lon="-8.101055868782357"><ele>409.0</ele><time>2026-04-01T16:50:55Z</time></trkpt><trkpt lat="42.415774779181625" lon="-8.101190413915967"><ele>410.0</ele><time>2026-04-01T16:50:56Z</time></trkpt><trkpt lat="42.41581996574866" lon="-8.101351870490252"><ele>411.0</ele><time>2026-04-01T16:50:57Z</time></trkpt><trkpt lat="42.415871192195915" lon="-8.101519951001151"><ele>411.6</ele><time>2026-04-01T16:50:58Z</time></trkpt><trkpt lat="42.41593577043554" lon="-8.10166795729102"><ele>412.20000000000005</ele><time>2026-04-01T16:50:59Z</time></trkpt><trkpt lat="42.416003813858495" lon="-8.101797330967921"><ele>412.79999999999995</ele><time>2026-04-01T16:51:00Z</time></trkpt><trkpt lat="42.41606188982888" lon="-8.10191223384032"><ele>413.4</ele><time>2026-04-01T16:51:01Z</time></trkpt><trkpt lat="42.41612315347963" lon="-8.102002038191841"><ele>414.0</ele><time>2026-04-01T16:51:02Z</time></trkpt><trkpt lat="42.41617845336046" lon="-8.102088313604424"><ele>414.0</ele><time>2026-04-01T16:51:03Z</time></trkpt><trkpt lat="42.41622717240052" lon="-8.102156721773312"><ele>414.0</ele><time>2026-04-01T16:51:04Z</time></trkpt><trkpt lat="42.41627590989962" lon="-8.102211096518577"><ele>414.0</ele><time>2026-04-01T16:51:05Z</time></trkpt><trkpt lat="42.41636070605201" lon="-8.102296295810328"><ele>414.0</ele><time>2026-04-01T16:51:07Z</time></trkpt><trkpt lat="42.416403553491264" lon="-8.102362608665384"><ele>414.0</ele><time>2026-04-01T16:51:11Z</time></trkpt><trkpt lat="42.41628572109669" lon="-8.102463521142274"><ele>414.0</ele><time>2026-04-01T16:51:45Z</time></trkpt><trkpt lat="42.416258615621246" lon="-8.10254431538893"><ele>414.0</ele><time>2026-04-01T16:51:47Z</time></trkpt><trkpt lat="42.416198337237745" lon="-8.102631219216052"><ele>414.0</ele><time>2026-04-01T16:51:49Z</time></trkpt><trkpt lat="42.41626682330973" lon="-8.102593385100747"><ele>414.0</ele><time>2026-04-01T17:00:39Z</time></trkpt><trkpt lat="42.41630097386063" lon="-8.102519238383865"><ele>414.0</ele><time>2026-04-01T17:00:43Z</time></trkpt><trkpt lat="42.416358235837194" lon="-8.102453508349456"><ele>414.0</ele><time>2026-04-01T17:00:47Z</time></trkpt><trkpt lat="42.41639932849429" lon="-8.102380554835573"><ele>414.0</ele><time>2026-04-01T17:00:55Z</time></trkpt><trkpt lat="42.416337059680465" lon="-8.10227482543876"><ele>414.0</ele><time>2026-04-01T17:01:03Z</time></trkpt><trkpt lat="42.416276425226904" lon="-8.102189885419993"><ele>414.0</ele><time>2026-04-01T17:01:04Z</time></trkpt><trkpt lat="42.41620673288665" lon="-8.10209318973154"><ele>414.0</ele><time>2026-04-01T17:01:05Z</time></trkpt><trkpt lat="42.41609781597725" lon="-8.101979404358387"><ele>414.0</ele><time>2026-04-01T17:01:06Z</time></trkpt><trkpt lat="42.41604846714497" lon="-8.10188633012623"><ele>414.0</ele><time>2026-04-01T17:01:07Z</time></trkpt><trkpt lat="42.4159799022818" lon="-8.101832077806458"><ele>414.0</ele><time>2026-04-01T17:01:09Z</time></trkpt><trkpt lat="42.415921290123165" lon="-8.101902741934344"><ele>414.0</ele><time>2026-04-01T17:01:11Z</time></trkpt><trkpt lat="42.41588732637481" lon="-8.101997727633675"><ele>414.0</ele><time>2026-04-01T17:01:12Z</time></trkpt><trkpt lat="42.415822932577875" lon="-8.102146961249357"><ele>414.0</ele><time>2026-04-01T17:01:14Z</time></trkpt><trkpt lat="42.415761278262146" lon="-8.102228346682827"><ele>414.0</ele><time>2026-04-01T17:01:14.999Z</time></trkpt><trkpt lat="42.41570132277199" lon="-8.102336880525533"><ele>414.4</ele><time>2026-04-01T17:01:15.999Z</time></trkpt><trkpt lat="42.41563673397864" lon="-8.102441284410814"><ele>414.79999999999995</ele><time>2026-04-01T17:01:16.999Z</time></trkpt><trkpt lat="42.41560479908821" lon="-8.102521377127793"><ele>415.20000000000005</ele><time>2026-04-01T17:01:17.999Z</time></trkpt><trkpt lat="42.415578913817555" lon="-8.102684836675447"><ele>415.6</ele><time>2026-04-01T17:01:19.999Z</time></trkpt><trkpt lat="42.41556029907646" lon="-8.102817817709777"><ele>416.0</ele><time>2026-04-01T17:01:21.999Z</time></trkpt><trkpt lat="42.4157308911047" lon="-8.102793589850325"><ele>415.99999999999994</ele><time>2026-04-01T17:01:23.999Z</time></trkpt><trkpt lat="42.41583984569164" lon="-8.1027617727042"><ele>416.0</ele><time>2026-04-01T17:01:25.999Z</time></trkpt><trkpt lat="42.41591850403991" lon="-8.102753771157975"><ele>416.0</ele><time>2026-04-01T17:01:27.999Z</time></trkpt><trkpt lat="42.415980651412916" lon="-8.102733560880877"><ele>416.0</ele><time>2026-04-01T17:01:43.999Z</time></trkpt><trkpt lat="42.41592019839905" lon="-8.102780159176481"><ele>415.99999999999994</ele><time>2026-04-01T17:02:24Z</time></trkpt><trkpt lat="42.415842853363316" lon="-8.102786436216043"><ele>416.0</ele><time>2026-04-01T17:02:26Z</time></trkpt><trkpt lat="42.41571663108547" lon="-8.1027894248313"><ele>415.99999999999994</ele><time>2026-04-01T17:02:28Z</time></trkpt><trkpt lat="42.415630538152925" lon="-8.102810515053768"><ele>416.0</ele><time>2026-04-01T17:02:29Z</time></trkpt><trkpt lat="42.41554402295396" lon="-8.102862365324519"><ele>416.0</ele><time>2026-04-01T17:02:32Z</time></trkpt><trkpt lat="42.41555665045817" lon="-8.10297267222456"><ele>416.0</ele><time>2026-04-01T17:02:34Z</time></trkpt><trkpt lat="42.41554474378578" lon="-8.103097078048734"><ele>415.99999999999994</ele><time>2026-04-01T17:02:36Z</time></trkpt><trkpt lat="42.41555485334823" lon="-8.103210263460841"><ele>416.0</ele><time>2026-04-01T17:02:38Z</time></trkpt><trkpt lat="42.4155478710943" lon="-8.103324759607947"><ele>416.4</ele><time>2026-04-01T17:02:40Z</time></trkpt><trkpt lat="42.41556273795039" lon="-8.103415683419184"><ele>416.8</ele><time>2026-04-01T17:02:42Z</time></trkpt><trkpt lat="42.41555525667585" lon="-8.103553592526945"><ele>417.2</ele><time>2026-04-01T17:02:45Z</time></trkpt><trkpt lat="42.415571415167584" lon="-8.103649713941689"><ele>417.59999999999997</ele><time>2026-04-01T17:02:48Z</time></trkpt><trkpt lat="42.415703509398796" lon="-8.103723952896274"><ele>418.0</ele><time>2026-04-01T17:02:51Z</time></trkpt><trkpt lat="42.41579697729599" lon="-8.103669767401632"><ele>418.0</ele><time>2026-04-01T17:02:53Z</time></trkpt><trkpt lat="42.41591027281616" lon="-8.10362368359174"><ele>418.0</ele><time>2026-04-01T17:02:55Z</time></trkpt><trkpt lat="42.41598938096174" lon="-8.103591608794819"><ele>418.0</ele><time>2026-04-01T17:02:57Z</time></trkpt><trkpt lat="42.4160774061253" lon="-8.103555087142535"><ele>418.0</ele><time>2026-04-01T17:02:58.999Z</time></trkpt><trkpt lat="42.41616770876668" lon="-8.103523816504351"><ele>418.0</ele><time>2026-04-01T17:03:00.999Z</time></trkpt><trkpt lat="42.41625767526445" lon="-8.103463463856484"><ele>417.4</ele><time>2026-04-01T17:03:02.999Z</time></trkpt><trkpt lat="42.416373765741966" lon="-8.103388347645955"><ele>416.79999999999995</ele><time>2026-04-01T17:03:04.999Z</time></trkpt><trkpt lat="42.416436712410075" lon="-8.103345577964763"><ele>416.2</ele><time>2026-04-01T17:03:05.999Z</time></trkpt><trkpt lat="42.41651868210858" lon="-8.1032898823944"><ele>415.6</ele><time>2026-04-01T17:03:06.999Z</time></trkpt><trkpt lat="42.41661296639006" lon="-8.103244392940601"><ele>415.0</ele><time>2026-04-01T17:03:08.999Z</time></trkpt><trkpt lat="42.41667803961574" lon="-8.103198766756822"><ele>414.75</ele><time>2026-04-01T17:03:09.999Z</time></trkpt><trkpt lat="42.41675929565725" lon="-8.103149158687124"><ele>414.5</ele><time>2026-04-01T17:03:11.999Z</time></trkpt><trkpt lat="42.41684292023664" lon="-8.10310970968425"><ele>414.25</ele><time>2026-04-01T17:03:13.999Z</time></trkpt><trkpt lat="42.41678119375568" lon="-8.102999999092"><ele>414.0</ele><time>2026-04-01T17:03:14.999Z</time></trkpt><trkpt lat="42.41690408686904" lon="-8.102823367242184"><ele>414.0</ele><time>2026-04-01T17:03:18.999Z</time></trkpt><trkpt lat="42.416890751541985" lon="-8.102956558006664"><ele>414.0</ele><time>2026-04-01T17:06:35Z</time></trkpt><trkpt lat="42.416969662059685" lon="-8.10289691575024"><ele>414.0</ele><time>2026-04-01T17:06:41Z</time></trkpt><trkpt lat="42.416954961402475" lon="-8.102804471807794"><ele>414.0</ele><time>2026-04-01T17:06:44Z</time></trkpt><trkpt lat="42.416891785900496" lon="-8.102793119649657"><ele>414.0</ele><time>2026-04-01T17:06:46Z</time></trkpt><trkpt lat="42.416818048439126" lon="-8.102832295594224"><ele>414.0</ele><time>2026-04-01T17:06:49Z</time></trkpt><trkpt lat="42.41675076216571" lon="-8.102810505844323"><ele>414.0</ele><time>2026-04-01T17:06:51Z</time></trkpt><trkpt lat="42.41668010848226" lon="-8.102732350590108"><ele>414.0</ele><time>2026-04-01T17:06:53Z</time></trkpt><trkpt lat="42.416636735503" lon="-8.102653625456938"><ele>414.0</ele><time>2026-04-01T17:06:54Z</time></trkpt><trkpt lat="42.41656759038594" lon="-8.102553361748159"><ele>414.0</ele><time>2026-04-01T17:06:55Z</time></trkpt><trkpt lat="42.41645859499841" lon="-8.102436816242223"><ele>414.0</ele><time>2026-04-01T17:06:57Z</time></trkpt><trkpt lat="42.41637230471713" lon="-8.102400007161162"><ele>414.0</ele><time>2026-04-01T17:06:59Z</time></trkpt><trkpt lat="42.416213429572664" lon="-8.102163439624107"><ele>414.0</ele><time>2026-04-01T17:07:43.999Z</time></trkpt><trkpt lat="42.41603066354504" lon="-8.101787166437369"><ele>414.0</ele><time>2026-04-01T17:07:46.999Z</time></trkpt><trkpt lat="42.415982340261166" lon="-8.101727758952125"><ele>414.0</ele><time>2026-04-01T17:07:47.999Z</time></trkpt><trkpt lat="42.415913941765474" lon="-8.101467941610569"><ele>414.0</ele><time>2026-04-01T17:07:48.999Z</time></trkpt><trkpt lat="42.416309520902686" lon="-8.102278724776687"><ele>414.0</ele><time>2026-04-01T17:07:49.999Z</time></trkpt><trkpt lat="42.41626428063686" lon="-8.102159058715966"><ele>414.0</ele><time>2026-04-01T17:07:50.999Z</time></trkpt><trkpt lat="42.41619546728972" lon="-8.101931863488867"><ele>414.0</ele><time>2026-04-01T17:07:52.999Z</time></trkpt><trkpt lat="42.41589264756068" lon="-8.101828320950135"><ele>413.0</ele><time>2026-04-01T17:07:53.999Z</time></trkpt><trkpt lat="42.41575379777952" lon="-8.10152700384358"><ele>412.0</ele><time>2026-04-01T17:07:54.999Z</time></trkpt><trkpt lat="42.415698530186816" lon="-8.101375840516834"><ele>411.0</ele><time>2026-04-01T17:07:55.999Z</time></trkpt><trkpt lat="42.415662613946196" lon="-8.101049971218357"><ele>411.0</ele><time>2026-04-01T17:07:56.999Z</time></trkpt><trkpt lat="42.415616340013806" lon="-8.100927967675412"><ele>411.0</ele><time>2026-04-01T17:07:57.999Z</time></trkpt><trkpt lat="42.41564432161164" lon="-8.100840517919268"><ele>411.0</ele><time>2026-04-01T17:07:58.999Z</time></trkpt><trkpt lat="42.415665916257524" lon="-8.101002852938603"><ele>411.0</ele><time>2026-04-01T17:08:01.999Z</time></trkpt><trkpt lat="42.41563865177848" lon="-8.100669702572983"><ele>409.75</ele><time>2026-04-01T17:08:06.999Z</time></trkpt><trkpt lat="42.41575637086214" lon="-8.100484020125878"><ele>408.5</ele><time>2026-04-01T17:08:07.999Z</time></trkpt><trkpt lat="42.415786825003515" lon="-8.100370473273221"><ele>407.25</ele><time>2026-04-01T17:08:08.999Z</time></trkpt><trkpt lat="42.41580321193879" lon="-8.100279953168622"><ele>406.0</ele><time>2026-04-01T17:08:09.999Z</time></trkpt><trkpt lat="42.415833018769376" lon="-8.1001208946826"><ele>406.0</ele><time>2026-04-01T17:08:11.999Z</time></trkpt><trkpt lat="42.41585944600778" lon="-8.099965835394979"><ele>406.0</ele><time>2026-04-01T17:08:13.999Z</time></trkpt><trkpt lat="42.41588180123851" lon="-8.099862349331566"><ele>406.0</ele><time>2026-04-01T17:08:14.999Z</time></trkpt><trkpt lat="42.41591644634837" lon="-8.099716351511706"><ele>406.0</ele><time>2026-04-01T17:08:15.999Z</time></trkpt><trkpt lat="42.415929106889024" lon="-8.099584506621516"><ele>406.0</ele><time>2026-04-01T17:08:16.999Z</time></trkpt><trkpt lat="42.41595014116092" lon="-8.099471923703682"><ele>406.0</ele><time>2026-04-01T17:08:17.999Z</time></trkpt><trkpt lat="42.41599303736936" lon="-8.099317487036942"><ele>406.0</ele><time>2026-04-01T17:08:18.999Z</time></trkpt><trkpt lat="42.41600384187823" lon="-8.099184499746679"><ele>406.0</ele><time>2026-04-01T17:08:19.999Z</time></trkpt><trkpt lat="42.41602497382913" lon="-8.099071394550041"><ele>406.0</ele><time>2026-04-01T17:08:20.999Z</time></trkpt><trkpt lat="42.41606337521249" lon="-8.098944142404418"><ele>406.0</ele><time>2026-04-01T17:08:21.999Z</time></trkpt><trkpt lat="42.41607578649176" lon="-8.098799321229384"><ele>405.0</ele><time>2026-04-01T17:08:22.999Z</time></trkpt><trkpt lat="42.416170162294875" lon="-8.098513624515219"><ele>404.0</ele><time>2026-04-01T17:08:23.999Z</time></trkpt><trkpt lat="42.41622666147649" lon="-8.098379037287238"><ele>403.0</ele><time>2026-04-01T17:08:24.999Z</time></trkpt><trkpt lat="42.41628218397784" lon="-8.098250958230746"><ele>403.75</ele><time>2026-04-01T17:08:25.999Z</time></trkpt><trkpt lat="42.41634475812957" lon="-8.098107075603995"><ele>404.5</ele><time>2026-04-01T17:08:27Z</time></trkpt><trkpt lat="42.41639539625575" lon="-8.097992506883479"><ele>405.25</ele><time>2026-04-01T17:08:28Z</time></trkpt><trkpt lat="42.416471352119196" lon="-8.097863866619631"><ele>406.0</ele><time>2026-04-01T17:08:29Z</time></trkpt><trkpt lat="42.41652558554509" lon="-8.09772705338369"><ele>406.0</ele><time>2026-04-01T17:08:30Z</time></trkpt><trkpt lat="42.416592097675654" lon="-8.09758087384884"><ele>406.0</ele><time>2026-04-01T17:08:31Z</time></trkpt><trkpt lat="42.416644198989964" lon="-8.09742329963101"><ele>406.0</ele><time>2026-04-01T17:08:32Z</time></trkpt><trkpt lat="42.416702674901046" lon="-8.097275424497951"><ele>406.0</ele><time>2026-04-01T17:08:33Z</time></trkpt><trkpt lat="42.41674424211723" lon="-8.09716253019291"><ele>406.0</ele><time>2026-04-01T17:08:34Z</time></trkpt><trkpt lat="42.4167928697211" lon="-8.097018247139435"><ele>406.0</ele><time>2026-04-01T17:08:35Z</time></trkpt><trkpt lat="42.41683034040212" lon="-8.096901742055854"><ele>406.0</ele><time>2026-04-01T17:08:36Z</time></trkpt><trkpt lat="42.41687699830878" lon="-8.096760078385222"><ele>406.0</ele><time>2026-04-01T17:08:37Z</time></trkpt><trkpt lat="42.41693112887321" lon="-8.096598354133699"><ele>405.25</ele><time>2026-04-01T17:08:38Z</time></trkpt><trkpt lat="42.416972785114275" lon="-8.096475827961989"><ele>404.5</ele><time>2026-04-01T17:08:39Z</time></trkpt><trkpt lat="42.4170071249998" lon="-8.096377108365132"><ele>403.75</ele><time>2026-04-01T17:08:40Z</time></trkpt><trkpt lat="42.41707547177332" lon="-8.096199306757992"><ele>403.0</ele><time>2026-04-01T17:08:41Z</time></trkpt><trkpt lat="42.41714681152227" lon="-8.096062692088196"><ele>402.75</ele><time>2026-04-01T17:08:42Z</time></trkpt><trkpt lat="42.417195054121194" lon="-8.095925286249765"><ele>402.5</ele><time>2026-04-01T17:08:43Z</time></trkpt><trkpt lat="42.41727523991112" lon="-8.095813151996303"><ele>402.25</ele><time>2026-04-01T17:08:44Z</time></trkpt><trkpt lat="42.41736190650278" lon="-8.095680988240629"><ele>402.0</ele><time>2026-04-01T17:08:45Z</time></trkpt><trkpt lat="42.41742104825339" lon="-8.09555054786335"><ele>402.0</ele><time>2026-04-01T17:08:46Z</time></trkpt><trkpt lat="42.417479007899956" lon="-8.095377019859784"><ele>402.0</ele><time>2026-04-01T17:08:47Z</time></trkpt><trkpt lat="42.41755449220023" lon="-8.095236961549013"><ele>402.0</ele><time>2026-04-01T17:08:48Z</time></trkpt><trkpt lat="42.41760636629709" lon="-8.095108472000213"><ele>402.0</ele><time>2026-04-01T17:08:49Z</time></trkpt><trkpt lat="42.41764166026857" lon="-8.094980926449976"><ele>402.5</ele><time>2026-04-01T17:08:50Z</time></trkpt><trkpt lat="42.41769146812795" lon="-8.094859666797701"><ele>403.0</ele><time>2026-04-01T17:08:51Z</time></trkpt><trkpt lat="42.41777190953236" lon="-8.094689579461628"><ele>403.5</ele><time>2026-04-01T17:08:53Z</time></trkpt><trkpt lat="42.417835082133486" lon="-8.094567444179965"><ele>404.0</ele><time>2026-04-01T17:08:54Z</time></trkpt><trkpt lat="42.41789157650673" lon="-8.094441370445463"><ele>404.0</ele><time>2026-04-01T17:08:55Z</time></trkpt><trkpt lat="42.417948756161216" lon="-8.094313653299162"><ele>404.0</ele><time>2026-04-01T17:08:56Z</time></trkpt><trkpt lat="42.41800097824128" lon="-8.094181414498973"><ele>404.0</ele><time>2026-04-01T17:08:57Z</time></trkpt><trkpt lat="42.41806896099942" lon="-8.094070357288095"><ele>404.0</ele><time>2026-04-01T17:08:58Z</time></trkpt><trkpt lat="42.41811654925502" lon="-8.093974087719888"><ele>404.0</ele><time>2026-04-01T17:08:59Z</time></trkpt><trkpt lat="42.4181948151228" lon="-8.09387776562611"><ele>405.25</ele><time>2026-04-01T17:09:00Z</time></trkpt><trkpt lat="42.418271840251556" lon="-8.093780198389418"><ele>406.5</ele><time>2026-04-01T17:09:01Z</time></trkpt><trkpt lat="42.418385634838515" lon="-8.093646016354628"><ele>407.75</ele><time>2026-04-01T17:09:02Z</time></trkpt><trkpt lat="42.4184843551577" lon="-8.09352974705662"><ele>409.0</ele><time>2026-04-01T17:09:03Z</time></trkpt><trkpt lat="42.418532601272986" lon="-8.093438943812538"><ele>409.0</ele><time>2026-04-01T17:09:05Z</time></trkpt><trkpt lat="42.418637623247825" lon="-8.09336098641175"><ele>409.0</ele><time>2026-04-01T17:09:06Z</time></trkpt><trkpt lat="42.418729231043216" lon="-8.093264628540785"><ele>409.0</ele><time>2026-04-01T17:09:07Z</time></trkpt><trkpt lat="42.418826045018804" lon="-8.093158994649785"><ele>409.0</ele><time>2026-04-01T17:09:08Z</time></trkpt><trkpt lat="42.41891489286416" lon="-8.093040675789407"><ele>409.0</ele><time>2026-04-01T17:09:09Z</time></trkpt><trkpt lat="42.41897965737181" lon="-8.09292313754512"><ele>409.0</ele><time>2026-04-01T17:09:10Z</time></trkpt><trkpt lat="42.41908511103391" lon="-8.092610308785074"><ele>409.0</ele><time>2026-04-01T17:09:11Z</time></trkpt><trkpt lat="42.419115276566345" lon="-8.092525465810674"><ele>409.0</ele><time>2026-04-01T17:09:12Z</time></trkpt><trkpt lat="42.41917186135261" lon="-8.092381153663817"><ele>408.5</ele><time>2026-04-01T17:09:13Z</time></trkpt><trkpt lat="42.41925812566062" lon="-8.092203971995959"><ele>408.0</ele><time>2026-04-01T17:09:14Z</time></trkpt><trkpt lat="42.41934510633706" lon="-8.092052538596565"><ele>407.5</ele><time>2026-04-01T17:09:15Z</time></trkpt><trkpt lat="42.4194170817616" lon="-8.091940496560065"><ele>407.0</ele><time>2026-04-01T17:09:16Z</time></trkpt><trkpt lat="42.41952095731555" lon="-8.091778411868997"><ele>407.0</ele><time>2026-04-01T17:09:17Z</time></trkpt><trkpt lat="42.41959354734673" lon="-8.091588957994626"><ele>407.0</ele><time>2026-04-01T17:09:19Z</time></trkpt><trkpt lat="42.41968838118956" lon="-8.091467248208362"><ele>407.0</ele><time>2026-04-01T17:09:20Z</time></trkpt><trkpt lat="42.41981047581167" lon="-8.091323134908295"><ele>406.0</ele><time>2026-04-01T17:09:21Z</time></trkpt><trkpt lat="42.419958001897506" lon="-8.091121114343814"><ele>405.0</ele><time>2026-04-01T17:09:22Z</time></trkpt><trkpt lat="42.42008593186183" lon="-8.091064974345562"><ele>404.0</ele><time>2026-04-01T17:09:23Z</time></trkpt><trkpt lat="42.420212462347926" lon="-8.090924182912318"><ele>404.0</ele><time>2026-04-01T17:09:23.999Z</time></trkpt><trkpt lat="42.42025240970465" lon="-8.090784124067877"><ele>404.0</ele><time>2026-04-01T17:09:24.999Z</time></trkpt><trkpt lat="42.420338136130354" lon="-8.090666099519996"><ele>404.0</ele><time>2026-04-01T17:09:25.999Z</time></trkpt><trkpt lat="42.4204051305522" lon="-8.090564876218092"><ele>404.0</ele><time>2026-04-01T17:09:26.999Z</time></trkpt><trkpt lat="42.420487514334305" lon="-8.090449260642488"><ele>404.5</ele><time>2026-04-01T17:09:27.999Z</time></trkpt><trkpt lat="42.42057811008584" lon="-8.090293700875229"><ele>405.0</ele><time>2026-04-01T17:09:28.999Z</time></trkpt><trkpt lat="42.42068700551948" lon="-8.090166110040007"><ele>405.5</ele><time>2026-04-01T17:09:29.999Z</time></trkpt><trkpt lat="42.42078112801036" lon="-8.090043743877507"><ele>406.0</ele><time>2026-04-01T17:09:30.999Z</time></trkpt><trkpt lat="42.42086288401395" lon="-8.089945867832059"><ele>406.6</ele><time>2026-04-01T17:09:31.999Z</time></trkpt><trkpt lat="42.42092659997208" lon="-8.089874722002056"><ele>407.20000000000005</ele><time>2026-04-01T17:09:32.999Z</time></trkpt><trkpt lat="42.42103438278875" lon="-8.08975592709677"><ele>407.79999999999995</ele><time>2026-04-01T17:09:33.999Z</time></trkpt><trkpt lat="42.421131356165056" lon="-8.089649382485975"><ele>408.4</ele><time>2026-04-01T17:09:34.999Z</time></trkpt><trkpt lat="42.421216836869306" lon="-8.089573259403581"><ele>409.0</ele><time>2026-04-01T17:09:35.999Z</time></trkpt><trkpt lat="42.42133991702881" lon="-8.089464582876861"><ele>409.6666666666667</ele><time>2026-04-01T17:09:36.999Z</time></trkpt><trkpt lat="42.42144723650178" lon="-8.089373164615838"><ele>410.33333333333337</ele><time>2026-04-01T17:09:37.999Z</time></trkpt><trkpt lat="42.42160321215904" lon="-8.089243852597392"><ele>411.0</ele><time>2026-04-01T17:09:38.999Z</time></trkpt><trkpt lat="42.421767532917514" lon="-8.089050917689478"><ele>412.66666666666663</ele><time>2026-04-01T17:09:39.999Z</time></trkpt><trkpt lat="42.42190139120967" lon="-8.088916394641455"><ele>414.3333333333333</ele><time>2026-04-01T17:09:40.999Z</time></trkpt><trkpt lat="42.422092621532876" lon="-8.088751903472955"><ele>416.0</ele><time>2026-04-01T17:09:41.999Z</time></trkpt><trkpt lat="42.42230603732803" lon="-8.08858599493787"><ele>417.0</ele><time>2026-04-01T17:09:42.999Z</time></trkpt><trkpt lat="42.42244119208466" lon="-8.088483790673752"><ele>418.0</ele><time>2026-04-01T17:09:43.999Z</time></trkpt><trkpt lat="42.422568164657704" lon="-8.088387773862749"><ele>419.0</ele><time>2026-04-01T17:09:44.999Z</time></trkpt><trkpt lat="42.422702626568025" lon="-8.088296689851452"><ele>418.75</ele><time>2026-04-01T17:09:45.999Z</time></trkpt><trkpt lat="42.42282677897921" lon="-8.08819732863871"><ele>418.5</ele><time>2026-04-01T17:09:46.999Z</time></trkpt><trkpt lat="42.42292386178063" lon="-8.08811434178498"><ele>418.25</ele><time>2026-04-01T17:09:47.999Z</time></trkpt><trkpt lat="42.42303337442389" lon="-8.088029735904929"><ele>418.0</ele><time>2026-04-01T17:09:48.999Z</time></trkpt><trkpt lat="42.423157914713805" lon="-8.087982267639907"><ele>416.75</ele><time>2026-04-01T17:09:49.999Z</time></trkpt><trkpt lat="42.42327261704044" lon="-8.087936090102948"><ele>415.5</ele><time>2026-04-01T17:09:50.999Z</time></trkpt><trkpt lat="42.42335593534245" lon="-8.087899115175901"><ele>414.25</ele><time>2026-04-01T17:09:51.999Z</time></trkpt><trkpt lat="42.42349714121994" lon="-8.08783476956847"><ele>413.0</ele><time>2026-04-01T17:09:52.999Z</time></trkpt><trkpt lat="42.42362248756145" lon="-8.087774639258226"><ele>413.0</ele><time>2026-04-01T17:09:53.999Z</time></trkpt><trkpt lat="42.42373185931831" lon="-8.087701581180308"><ele>413.0</ele><time>2026-04-01T17:09:54.999Z</time></trkpt><trkpt lat="42.42389164514955" lon="-8.08768964475676"><ele>413.0</ele><time>2026-04-01T17:09:55.999Z</time></trkpt><trkpt lat="42.42393775760878" lon="-8.087624911729039"><ele>413.0</ele><time>2026-04-01T17:09:56.999Z</time></trkpt><trkpt lat="42.423988975657885" lon="-8.08755349363466"><ele>413.0</ele><time>2026-04-01T17:09:57.999Z</time></trkpt><trkpt lat="42.42404285192467" lon="-8.087485245940364"><ele>412.0</ele><time>2026-04-01T17:09:58.999Z</time></trkpt><trkpt lat="42.42410832371517" lon="-8.087402518176798"><ele>411.0</ele><time>2026-04-01T17:09:59.999Z</time></trkpt><trkpt lat="42.424183459980505" lon="-8.087306146778928"><ele>410.0</ele><time>2026-04-01T17:10:01.999Z</time></trkpt><trkpt lat="42.424239942357694" lon="-8.087234581673448"><ele>409.0</ele><time>2026-04-01T17:10:02.999Z</time></trkpt><trkpt lat="42.424326947227776" lon="-8.087156010877063"><ele>408.0</ele><time>2026-04-01T17:10:03.999Z</time></trkpt><trkpt lat="42.42455752576059" lon="-8.08685514271371"><ele>408.0</ele><time>2026-04-01T17:10:04.999Z</time></trkpt><trkpt lat="42.424613454631285" lon="-8.08677756868877"><ele>408.0</ele><time>2026-04-01T17:10:05.999Z</time></trkpt><trkpt lat="42.42469207239299" lon="-8.086663202247863"><ele>408.0</ele><time>2026-04-01T17:10:06.999Z</time></trkpt><trkpt lat="42.42485705649222" lon="-8.086447545841379"><ele>408.0</ele><time>2026-04-01T17:10:08.999Z</time></trkpt><trkpt lat="42.4249295666957" lon="-8.086366200191026"><ele>406.75</ele><time>2026-04-01T17:10:09.999Z</time></trkpt><trkpt lat="42.42505628854059" lon="-8.086224749161174"><ele>405.5</ele><time>2026-04-01T17:10:10.999Z</time></trkpt><trkpt lat="42.42512577422345" lon="-8.086151021671432"><ele>404.25</ele><time>2026-04-01T17:10:11.999Z</time></trkpt><trkpt lat="42.425228287668794" lon="-8.086012468287706"><ele>403.0</ele><time>2026-04-01T17:10:12.999Z</time></trkpt><trkpt lat="42.42532190966018" lon="-8.08585151226033"><ele>402.5</ele><time>2026-04-01T17:10:13.999Z</time></trkpt><trkpt lat="42.42538901944026" lon="-8.085704998705065"><ele>402.0</ele><time>2026-04-01T17:10:14.999Z</time></trkpt><trkpt lat="42.42545464082676" lon="-8.085525455904607"><ele>401.5</ele><time>2026-04-01T17:10:15.999Z</time></trkpt><trkpt lat="42.42552121835036" lon="-8.085331217629172"><ele>401.0</ele><time>2026-04-01T17:10:16.999Z</time></trkpt><trkpt lat="42.42558151154402" lon="-8.08515337890203"><ele>401.0</ele><time>2026-04-01T17:10:17.999Z</time></trkpt><trkpt lat="42.42561721317044" lon="-8.085044483336882"><ele>401.0</ele><time>2026-04-01T17:10:18.999Z</time></trkpt><trkpt lat="42.42564408117072" lon="-8.08496021712147"><ele>401.0</ele><time>2026-04-01T17:10:19.999Z</time></trkpt><trkpt lat="42.42568350277334" lon="-8.084842796883795"><ele>401.0</ele><time>2026-04-01T17:10:20.999Z</time></trkpt><trkpt lat="42.4257350801138" lon="-8.084650736616581"><ele>401.0</ele><time>2026-04-01T17:10:21.999Z</time></trkpt><trkpt lat="42.42577231287007" lon="-8.084487504362354"><ele>401.0</ele><time>2026-04-01T17:10:22.999Z</time></trkpt><trkpt lat="42.42584911056362" lon="-8.084345145053746"><ele>401.0</ele><time>2026-04-01T17:10:23.999Z</time></trkpt><trkpt lat="42.42590031995649" lon="-8.084183954241878"><ele>401.0</ele><time>2026-04-01T17:10:24.999Z</time></trkpt><trkpt lat="42.4259314765228" lon="-8.08408588277712"><ele>401.0</ele><time>2026-04-01T17:10:25.999Z</time></trkpt><trkpt lat="42.4259854936189" lon="-8.083915854109451"><ele>401.0</ele><time>2026-04-01T17:10:27.999Z</time></trkpt><trkpt lat="42.426029489295836" lon="-8.083779570627392"><ele>401.0</ele><time>2026-04-01T17:10:29.999Z</time></trkpt><trkpt lat="42.42605464171054" lon="-8.083648106855506"><ele>401.0</ele><time>2026-04-01T17:10:30.999Z</time></trkpt><trkpt lat="42.42609520864943" lon="-8.083543923690247"><ele>401.0</ele><time>2026-04-01T17:10:32.999Z</time></trkpt><trkpt lat="42.426140235197195" lon="-8.083444296170741"><ele>401.0</ele><time>2026-04-01T17:10:33.999Z</time></trkpt><trkpt lat="42.426189521508896" lon="-8.083296597240347"><ele>400.0</ele><time>2026-04-01T17:10:34.999Z</time></trkpt><trkpt lat="42.426215998856435" lon="-8.083175555550708"><ele>399.0</ele><time>2026-04-01T17:10:35.999Z</time></trkpt><trkpt lat="42.42627342243511" lon="-8.083074131418227"><ele>398.0</ele><time>2026-04-01T17:10:36.999Z</time></trkpt><trkpt lat="42.42631965402276" lon="-8.082972405166915"><ele>397.0</ele><time>2026-04-01T17:10:37.999Z</time></trkpt><trkpt lat="42.426362971547675" lon="-8.082876901531"><ele>396.0</ele><time>2026-04-01T17:10:38.999Z</time></trkpt><trkpt lat="42.42639579590782" lon="-8.08273723552005"><ele>395.8</ele><time>2026-04-01T17:10:39.999Z</time></trkpt><trkpt lat="42.42646366009652" lon="-8.082536804837703"><ele>395.6</ele><time>2026-04-01T17:10:41.999Z</time></trkpt><trkpt lat="42.42649951851167" lon="-8.082430900302851"><ele>395.4</ele><time>2026-04-01T17:10:42.999Z</time></trkpt><trkpt lat="42.42654659815509" lon="-8.082314914844627"><ele>395.2</ele><time>2026-04-01T17:10:43.999Z</time></trkpt><trkpt lat="42.42656661697122" lon="-8.082214254199684"><ele>395.0</ele><time>2026-04-01T17:10:44.999Z</time></trkpt><trkpt lat="42.42660090739495" lon="-8.082098448763496"><ele>395.0</ele><time>2026-04-01T17:10:46.999Z</time></trkpt><trkpt lat="42.426614256424386" lon="-8.08195374368284"><ele>395.0</ele><time>2026-04-01T17:10:48.999Z</time></trkpt><trkpt lat="42.426699981524465" lon="-8.081920241379779"><ele>395.0</ele><time>2026-04-01T17:10:49.999Z</time></trkpt><trkpt lat="42.426552875335354" lon="-8.082153182685053"><ele>395.0</ele><time>2026-04-01T17:10:50.999Z</time></trkpt><trkpt lat="42.42666636276897" lon="-8.08203201337978"><ele>395.0</ele><time>2026-04-01T17:10:57.999Z</time></trkpt><trkpt lat="42.4267438053712" lon="-8.0820068577002"><ele>395.0</ele><time>2026-04-01T17:11:00.999Z</time></trkpt><trkpt lat="42.42677647055748" lon="-8.08182334579598"><ele>395.0</ele><time>2026-04-01T17:11:02.999Z</time></trkpt><trkpt lat="42.42682029161737" lon="-8.081706712712162"><ele>395.0</ele><time>2026-04-01T17:11:03.999Z</time></trkpt><trkpt lat="42.42700224286596" lon="-8.081668405430076"><ele>395.0</ele><time>2026-04-01T17:11:05.999Z</time></trkpt><trkpt lat="42.42704267149122" lon="-8.081599476720372"><ele>395.0</ele><time>2026-04-01T17:11:06.999Z</time></trkpt><trkpt lat="42.426971947533225" lon="-8.081388255682743"><ele>395.0</ele><time>2026-04-01T17:11:07.999Z</time></trkpt><trkpt lat="42.42701148126308" lon="-8.08131374257064"><ele>395.0</ele><time>2026-04-01T17:11:08.999Z</time></trkpt><trkpt lat="42.42706133967021" lon="-8.08122285380761"><ele>395.0</ele><time>2026-04-01T17:11:09.999Z</time></trkpt><trkpt lat="42.427105028541064" lon="-8.081146029422836"><ele>395.2</ele><time>2026-04-01T17:11:10.999Z</time></trkpt><trkpt lat="42.42717601514216" lon="-8.081023720895216"><ele>395.4</ele><time>2026-04-01T17:11:11.999Z</time></trkpt><trkpt lat="42.42723018322968" lon="-8.080938460386397"><ele>395.6</ele><time>2026-04-01T17:11:12.999Z</time></trkpt><trkpt lat="42.42731258661136" lon="-8.080824081965224"><ele>395.8</ele><time>2026-04-01T17:11:14.999Z</time></trkpt><trkpt lat="42.427360109690895" lon="-8.080764774131854"><ele>396.0</ele><time>2026-04-01T17:11:16.999Z</time></trkpt><trkpt lat="42.42751549252441" lon="-8.080562358076989"><ele>396.0</ele><time>2026-04-01T17:11:18.999Z</time></trkpt><trkpt lat="42.42758724109923" lon="-8.080506495601437"><ele>396.0</ele><time>2026-04-01T17:11:20.999Z</time></trkpt><trkpt lat="42.427687034413374" lon="-8.080420116697656"><ele>396.0</ele><time>2026-04-01T17:11:22.999Z</time></trkpt><trkpt lat="42.42778376557639" lon="-8.080329667852679"><ele>396.0</ele><time>2026-04-01T17:11:24.999Z</time></trkpt><trkpt lat="42.42784103488623" lon="-8.080281643313292"><ele>396.0</ele><time>2026-04-01T17:11:25.999Z</time></trkpt><trkpt lat="42.42790349733776" lon="-8.08020486887208"><ele>396.6</ele><time>2026-04-01T17:11:27.999Z</time></trkpt><trkpt lat="42.42802259078191" lon="-8.080095329107571"><ele>397.20000000000005</ele><time>2026-04-01T17:11:29.999Z</time></trkpt><trkpt lat="42.42809271473272" lon="-8.08005211255482"><ele>397.79999999999995</ele><time>2026-04-01T17:11:30.999Z</time></trkpt><trkpt lat="42.4281528020097" lon="-8.079973570286679"><ele>398.4</ele><time>2026-04-01T17:11:32.999Z</time></trkpt><trkpt lat="42.42826173107412" lon="-8.079891628561878"><ele>399.0</ele><time>2026-04-01T17:11:33.999Z</time></trkpt><trkpt lat="42.42835363233697" lon="-8.079819505532846"><ele>399.0</ele><time>2026-04-01T17:11:36.999Z</time></trkpt><trkpt lat="42.42821804539091" lon="-8.079801935294393"><ele>399.0</ele><time>2026-04-01T17:11:42.999Z</time></trkpt><trkpt lat="42.428137878780035" lon="-8.079742388324357"><ele>399.0</ele><time>2026-04-01T17:11:44.999Z</time></trkpt><trkpt lat="42.428014918908715" lon="-8.079703658457161"><ele>399.0</ele><time>2026-04-01T17:11:50.999Z</time></trkpt><trkpt lat="42.42794706967149" lon="-8.079644164822323"><ele>399.0</ele><time>2026-04-01T17:11:52.999Z</time></trkpt><trkpt lat="42.42791239391742" lon="-8.079556406186533"><ele>397.75</ele><time>2026-04-01T17:11:53.999Z</time></trkpt><trkpt lat="42.42772811744647" lon="-8.079442467506382"><ele>396.5</ele><time>2026-04-01T17:11:56.999Z</time></trkpt><trkpt lat="42.42763531140954" lon="-8.079393164404896"><ele>395.25</ele><time>2026-04-01T17:11:57.999Z</time></trkpt><trkpt lat="42.42754211398079" lon="-8.079540687521051"><ele>394.0</ele><time>2026-04-01T17:11:58.999Z</time></trkpt><trkpt lat="42.42740572156136" lon="-8.07947318448676"><ele>394.0</ele><time>2026-04-01T17:12:00.999Z</time></trkpt><trkpt lat="42.42733625571746" lon="-8.079451907272254"><ele>394.0</ele><time>2026-04-01T17:12:01.999Z</time></trkpt><trkpt lat="42.42721231970471" lon="-8.079425026941777"><ele>394.0</ele><time>2026-04-01T17:12:03.999Z</time></trkpt><trkpt lat="42.42712335269814" lon="-8.079404386328637"><ele>394.0</ele><time>2026-04-01T17:12:04.999Z</time></trkpt><trkpt lat="42.427053916374454" lon="-8.079365156829185"><ele>394.0</ele><time>2026-04-01T17:12:05.999Z</time></trkpt><trkpt lat="42.42696421708816" lon="-8.079320721598917"><ele>392.33333333333337</ele><time>2026-04-01T17:12:06.999Z</time></trkpt><trkpt lat="42.426862171279325" lon="-8.079322530355316"><ele>390.6666666666667</ele><time>2026-04-01T17:12:08.999Z</time></trkpt><trkpt lat="42.426783046636416" lon="-8.079312362397843"><ele>389.0</ele><time>2026-04-01T17:12:10.999Z</time></trkpt><trkpt lat="42.42667717347038" lon="-8.079280058221407"><ele>387.33333333333337</ele><time>2026-04-01T17:12:12.999Z</time></trkpt><trkpt lat="42.42660415390918" lon="-8.079263972283748"><ele>385.6666666666667</ele><time>2026-04-01T17:12:14.999Z</time></trkpt><trkpt lat="42.4265382590615" lon="-8.079218765131678"><ele>384.0</ele><time>2026-04-01T17:12:16.999Z</time></trkpt><trkpt lat="42.42659127516639" lon="-8.078935839516753"><ele>382.2</ele><time>2026-04-01T17:12:21.999Z</time></trkpt><trkpt lat="42.42666036124408" lon="-8.078872293343775"><ele>380.4</ele><time>2026-04-01T17:12:24.999Z</time></trkpt><trkpt lat="42.426697686596825" lon="-8.078751311744753"><ele>378.6</ele><time>2026-04-01T17:12:25.999Z</time></trkpt><trkpt lat="42.4267634721917" lon="-8.078624112124857"><ele>376.8</ele><time>2026-04-01T17:12:26.999Z</time></trkpt><trkpt lat="42.42686146813898" lon="-8.078511995194475"><ele>375.0</ele><time>2026-04-01T17:12:28.999Z</time></trkpt><trkpt lat="42.42691658548523" lon="-8.078433557495599"><ele>375.0</ele><time>2026-04-01T17:12:29.999Z</time></trkpt><trkpt lat="42.426957632139356" lon="-8.078341324981167"><ele>375.0</ele><time>2026-04-01T17:12:30.999Z</time></trkpt><trkpt lat="42.42700970321452" lon="-8.07825480519254"><ele>375.0</ele><time>2026-04-01T17:12:31.999Z</time></trkpt><trkpt lat="42.42705328569882" lon="-8.078184086402493"><ele>375.0</ele><time>2026-04-01T17:12:32.999Z</time></trkpt><trkpt lat="42.42709937019512" lon="-8.078111697587842"><ele>375.0</ele><time>2026-04-01T17:12:33.999Z</time></trkpt><trkpt lat="42.42718854721841" lon="-8.077983185848822"><ele>375.0</ele><time>2026-04-01T17:12:35.999Z</time></trkpt><trkpt lat="42.42724483115345" lon="-8.077936952880226"><ele>375.8333333333333</ele><time>2026-04-01T17:12:36.999Z</time></trkpt><trkpt lat="42.427292265985464" lon="-8.077845720548375"><ele>376.6666666666667</ele><time>2026-04-01T17:12:38.999Z</time></trkpt><trkpt lat="42.42736271598469" lon="-8.077782771162529"><ele>377.5</ele><time>2026-04-01T17:12:39.999Z</time></trkpt><trkpt lat="42.427415239512" lon="-8.077713557968076"><ele>378.33333333333337</ele><time>2026-04-01T17:12:40.999Z</time></trkpt><trkpt lat="42.427496094106836" lon="-8.077616546847594"><ele>379.1666666666667</ele><time>2026-04-01T17:12:41.999Z</time></trkpt><trkpt lat="42.42754687117664" lon="-8.077557528653266"><ele>380.0</ele><time>2026-04-01T17:12:42.999Z</time></trkpt><trkpt lat="42.42764043098385" lon="-8.077492309441643"><ele>380.0</ele><time>2026-04-01T17:12:44.999Z</time></trkpt><trkpt lat="42.42756312261207" lon="-8.077554931045247"><ele>380.0</ele><time>2026-04-01T17:12:47.999Z</time></trkpt><trkpt lat="42.427417613629494" lon="-8.077398412103141"><ele>380.0</ele><time>2026-04-01T17:12:55.999Z</time></trkpt><trkpt lat="42.427399926466876" lon="-8.077302704280584"><ele>380.0</ele><time>2026-04-01T17:12:56.999Z</time></trkpt><trkpt lat="42.42728998730644" lon="-8.077158924619534"><ele>379.5</ele><time>2026-04-01T17:12:58.999Z</time></trkpt><trkpt lat="42.42713237416028" lon="-8.07715368645724"><ele>379.0</ele><time>2026-04-01T17:13:00.999Z</time></trkpt><trkpt lat="42.42699116122438" lon="-8.077075752919471"><ele>378.5</ele><time>2026-04-01T17:13:01.999Z</time></trkpt><trkpt lat="42.426869047892005" lon="-8.077021628076299"><ele>378.0</ele><time>2026-04-01T17:13:02.999Z</time></trkpt><trkpt lat="42.42676810757739" lon="-8.07696798663781"><ele>378.0</ele><time>2026-04-01T17:13:03.999Z</time></trkpt><trkpt lat="42.42666967413709" lon="-8.076915852188122"><ele>378.0</ele><time>2026-04-01T17:13:04.999Z</time></trkpt><trkpt lat="42.426520490702096" lon="-8.07680761110246"><ele>378.0</ele><time>2026-04-01T17:13:05.999Z</time></trkpt><trkpt lat="42.42642413354326" lon="-8.076725128656182"><ele>378.0</ele><time>2026-04-01T17:13:06.999Z</time></trkpt><trkpt lat="42.4263141094802" lon="-8.076673942747552"><ele>378.59999999999997</ele><time>2026-04-01T17:13:07.999Z</time></trkpt><trkpt lat="42.42622116118085" lon="-8.076613743335082"><ele>379.2</ele><time>2026-04-01T17:13:08.999Z</time></trkpt><trkpt lat="42.426134513319646" lon="-8.076557591171156"><ele>379.8</ele><time>2026-04-01T17:13:09.999Z</time></trkpt><trkpt lat="42.426043714174575" lon="-8.076498762096481"><ele>380.4</ele><time>2026-04-01T17:13:10.999Z</time></trkpt><trkpt lat="42.4259492843535" lon="-8.076436615762255"><ele>381.0</ele><time>2026-04-01T17:13:11.999Z</time></trkpt><trkpt lat="42.425877945463235" lon="-8.076364594563"><ele>381.20000000000005</ele><time>2026-04-01T17:13:12.999Z</time></trkpt><trkpt lat="42.42578827181841" lon="-8.076306556462574"><ele>381.40000000000003</ele><time>2026-04-01T17:13:13.999Z</time></trkpt><trkpt lat="42.42569911341377" lon="-8.076244519124986"><ele>381.6</ele><time>2026-04-01T17:13:14.999Z</time></trkpt><trkpt lat="42.42559983023002" lon="-8.076181452425796"><ele>381.8</ele><time>2026-04-01T17:13:15.999Z</time></trkpt><trkpt lat="42.42551604606613" lon="-8.076117119812007"><ele>382.0</ele><time>2026-04-01T17:13:16.999Z</time></trkpt><trkpt lat="42.425437492469946" lon="-8.076060757266285"><ele>383.0</ele><time>2026-04-01T17:13:17.999Z</time></trkpt><trkpt lat="42.42537578665474" lon="-8.076007218050732"><ele>384.0</ele><time>2026-04-01T17:13:18.999Z</time></trkpt><trkpt lat="42.42526812267136" lon="-8.075926847456032"><ele>385.0</ele><time>2026-04-01T17:13:19.999Z</time></trkpt><trkpt lat="42.42520090035796" lon="-8.075859021826133"><ele>386.0</ele><time>2026-04-01T17:13:20.999Z</time></trkpt><trkpt lat="42.42511147256966" lon="-8.075757428640607"><ele>387.0</ele><time>2026-04-01T17:13:21.999Z</time></trkpt><trkpt lat="42.42503502480569" lon="-8.075694150291156"><ele>387.40000000000003</ele><time>2026-04-01T17:13:22.999Z</time></trkpt><trkpt lat="42.424942652163935" lon="-8.07559069267377"><ele>387.8</ele><time>2026-04-01T17:13:23.999Z</time></trkpt><trkpt lat="42.424867538438576" lon="-8.075484908941432"><ele>388.2</ele><time>2026-04-01T17:13:24.999Z</time></trkpt><trkpt lat="42.424778176984745" lon="-8.075401353354797"><ele>388.6</ele><time>2026-04-01T17:13:25.999Z</time></trkpt><trkpt lat="42.42472798840132" lon="-8.0753421052749"><ele>389.0</ele><time>2026-04-01T17:13:26.999Z</time></trkpt><trkpt lat="42.42460456153028" lon="-8.075232973379292"><ele>389.6</ele><time>2026-04-01T17:13:28.999Z</time></trkpt><trkpt lat="42.42454709727465" lon="-8.075188165851705"><ele>390.2</ele><time>2026-04-01T17:13:29.999Z</time></trkpt><trkpt lat="42.424430710399605" lon="-8.075125380101921"><ele>390.8</ele><time>2026-04-01T17:13:31.999Z</time></trkpt><trkpt lat="42.424368549991975" lon="-8.07503724173074"><ele>391.40000000000003</ele><time>2026-04-01T17:13:32.999Z</time></trkpt><trkpt lat="42.42432726960598" lon="-8.074912075833964"><ele>392.0</ele><time>2026-04-01T17:13:33.999Z</time></trkpt><trkpt lat="42.42420763087721" lon="-8.074777304637026"><ele>392.40000000000003</ele><time>2026-04-01T17:13:35.999Z</time></trkpt><trkpt lat="42.42413094614461" lon="-8.074683137973265"><ele>392.8</ele><time>2026-04-01T17:13:36.999Z</time></trkpt><trkpt lat="42.424059446614066" lon="-8.07462496081256"><ele>393.2</ele><time>2026-04-01T17:13:37.999Z</time></trkpt><trkpt lat="42.423979328722744" lon="-8.074538789784764"><ele>393.6</ele><time>2026-04-01T17:13:38.999Z</time></trkpt><trkpt lat="42.42390484677595" lon="-8.07445827795599"><ele>394.0</ele><time>2026-04-01T17:13:39.999Z</time></trkpt><trkpt lat="42.42382796576989" lon="-8.074375172914564"><ele>394.6</ele><time>2026-04-01T17:13:40.999Z</time></trkpt><trkpt lat="42.42374474456696" lon="-8.074283213544472"><ele>395.2</ele><time>2026-04-01T17:13:41.999Z</time></trkpt><trkpt lat="42.42367088750506" lon="-8.074201472125456"><ele>395.8</ele><time>2026-04-01T17:13:42.999Z</time></trkpt><trkpt lat="42.423574118936365" lon="-8.074082267545439"><ele>396.40000000000003</ele><time>2026-04-01T17:13:44.999Z</time></trkpt><trkpt lat="42.42351811015599" lon="-8.073978961664455"><ele>397.0</ele><time>2026-04-01T17:13:45.999Z</time></trkpt><trkpt lat="42.42348976352097" lon="-8.073834595886176"><ele>398.0</ele><time>2026-04-01T17:13:46.999Z</time></trkpt><trkpt lat="42.42345819660801" lon="-8.073726477835661"><ele>399.0</ele><time>2026-04-01T17:13:47.999Z</time></trkpt><trkpt lat="42.42345619901594" lon="-8.073600771011355"><ele>400.0</ele><time>2026-04-01T17:13:48.999Z</time></trkpt><trkpt lat="42.423424344819836" lon="-8.07346178526571"><ele>401.0</ele><time>2026-04-01T17:13:49.999Z</time></trkpt><trkpt lat="42.42340223417664" lon="-8.073337397166018"><ele>402.0</ele><time>2026-04-01T17:13:50.999Z</time></trkpt><trkpt lat="42.42337768594342" lon="-8.073158020606984"><ele>403.0</ele><time>2026-04-01T17:13:52.999Z</time></trkpt><trkpt lat="42.42334833629631" lon="-8.073068610778881"><ele>404.0</ele><time>2026-04-01T17:13:53.999Z</time></trkpt><trkpt lat="42.42331869893084" lon="-8.07290199657684"><ele>405.0</ele><time>2026-04-01T17:13:55.999Z</time></trkpt><trkpt lat="42.423294547528485" lon="-8.072766223106182"><ele>406.0</ele><time>2026-04-01T17:13:57.999Z</time></trkpt><trkpt lat="42.42327869780973" lon="-8.072677119269462"><ele>407.0</ele><time>2026-04-01T17:13:58.999Z</time></trkpt><trkpt lat="42.423263490849955" lon="-8.072592887494343"><ele>408.0</ele><time>2026-04-01T17:13:59.999Z</time></trkpt><trkpt lat="42.423244767601396" lon="-8.072489867446066"><ele>408.6666666666667</ele><time>2026-04-01T17:14:00.999Z</time></trkpt><trkpt lat="42.42326061405831" lon="-8.072402494946536"><ele>409.33333333333337</ele><time>2026-04-01T17:14:01.999Z</time></trkpt><trkpt lat="42.423238260000815" lon="-8.072311516364241"><ele>410.0</ele><time>2026-04-01T17:14:02.999Z</time></trkpt><trkpt lat="42.423223668003686" lon="-8.072169677062643"><ele>410.6666666666667</ele><time>2026-04-01T17:14:04.999Z</time></trkpt><trkpt lat="42.4231578079938" lon="-8.072115857834568"><ele>411.33333333333337</ele><time>2026-04-01T17:14:05.999Z</time></trkpt><trkpt lat="42.42311955971423" lon="-8.07199891447971"><ele>412.0</ele><time>2026-04-01T17:14:07.999Z</time></trkpt><trkpt lat="42.42305832429331" lon="-8.071863157328742"><ele>412.00000000000006</ele><time>2026-04-01T17:14:09.999Z</time></trkpt><trkpt lat="42.423007960561684" lon="-8.071777609445476"><ele>412.0</ele><time>2026-04-01T17:14:10.999Z</time></trkpt><trkpt lat="42.42295176136331" lon="-8.071687927342477"><ele>412.0</ele><time>2026-04-01T17:14:11.999Z</time></trkpt><trkpt lat="42.422892422771625" lon="-8.071599416606722"><ele>412.0</ele><time>2026-04-01T17:14:12.999Z</time></trkpt><trkpt lat="42.42282580237135" lon="-8.071506778791749"><ele>412.00000000000006</ele><time>2026-04-01T17:14:14.999Z</time></trkpt><trkpt lat="42.42277844545244" lon="-8.071440818554944"><ele>412.0</ele><time>2026-04-01T17:14:15.999Z</time></trkpt><trkpt lat="42.422734482134054" lon="-8.07137954670003"><ele>413.20000000000005</ele><time>2026-04-01T17:14:16.999Z</time></trkpt><trkpt lat="42.422697536971974" lon="-8.071295875333881"><ele>414.4</ele><time>2026-04-01T17:14:17.999Z</time></trkpt><trkpt lat="42.422624327355784" lon="-8.071238253066339"><ele>415.6</ele><time>2026-04-01T17:14:18.999Z</time></trkpt><trkpt lat="42.42256186324493" lon="-8.071174470433336"><ele>416.79999999999995</ele><time>2026-04-01T17:14:19.999Z</time></trkpt><trkpt lat="42.42249162018101" lon="-8.071092918863105"><ele>418.0</ele><time>2026-04-01T17:14:21.999Z</time></trkpt><trkpt lat="42.42239308787683" lon="-8.070918306153025"><ele>418.00000000000006</ele><time>2026-04-01T17:14:23.999Z</time></trkpt><trkpt lat="42.42232641739039" lon="-8.070843527365458"><ele>418.0</ele><time>2026-04-01T17:14:24.999Z</time></trkpt><trkpt lat="42.42225836448747" lon="-8.070776583531599"><ele>418.0</ele><time>2026-04-01T17:14:25.999Z</time></trkpt><trkpt lat="42.42219926128185" lon="-8.070725215652315"><ele>418.0</ele><time>2026-04-01T17:14:26.999Z</time></trkpt><trkpt lat="42.42212394104139" lon="-8.070667129763418"><ele>418.00000000000006</ele><time>2026-04-01T17:14:28.999Z</time></trkpt><trkpt lat="42.422064700837716" lon="-8.070621733043579"><ele>418.0</ele><time>2026-04-01T17:14:30.999Z</time></trkpt><trkpt lat="42.422109685047474" lon="-8.070479783899081"><ele>418.00000000000006</ele><time>2026-04-01T17:14:31.999Z</time></trkpt><trkpt lat="42.42214651774226" lon="-8.07038597577107"><ele>418.0</ele><time>2026-04-01T17:14:34.999Z</time></trkpt><trkpt lat="42.42224167992555" lon="-8.070405156943828"><ele>418.0</ele><time>2026-04-01T17:14:37.999Z</time></trkpt><trkpt lat="42.422313051151725" lon="-8.070352339490475"><ele>418.0</ele><time>2026-04-01T17:14:39.999Z</time></trkpt><trkpt lat="42.422360175810155" lon="-8.07028354593999"><ele>418.00000000000006</ele><time>2026-04-01T17:14:41.999Z</time></trkpt><trkpt lat="42.42240925854647" lon="-8.070197087060576"><ele>418.0</ele><time>2026-04-01T17:14:43.999Z</time></trkpt><trkpt lat="42.42251764305156" lon="-8.07009656453136"><ele>418.00000000000006</ele><time>2026-04-01T17:14:45.999Z</time></trkpt><trkpt lat="42.422595397623105" lon="-8.07008122493192"><ele>418.0</ele><time>2026-04-01T17:14:48.999Z</time></trkpt><trkpt lat="42.422664170456514" lon="-8.070004463759238"><ele>418.0</ele><time>2026-04-01T17:14:50.999Z</time></trkpt><trkpt lat="42.42269238161344" lon="-8.069916048702753"><ele>418.0</ele><time>2026-04-01T17:14:52.999Z</time></trkpt><trkpt lat="42.42276930030627" lon="-8.069865849216848"><ele>418.00000000000006</ele><time>2026-04-01T17:14:54.999Z</time></trkpt><trkpt lat="42.42268891602794" lon="-8.069975340901165"><ele>418.0</ele><time>2026-04-01T17:14:56.999Z</time></trkpt><trkpt lat="42.422831164958865" lon="-8.06997373389059"><ele>418.0</ele><time>2026-04-01T17:17:01.999Z</time></trkpt><trkpt lat="42.422920683773626" lon="-8.070255399939823"><ele>418.0</ele><time>2026-04-01T17:18:02Z</time></trkpt><trkpt lat="42.42303084246242" lon="-8.070346303646122"><ele>418.0</ele><time>2026-04-01T17:18:22Z</time></trkpt><trkpt lat="42.422970230418436" lon="-8.070391339612812"><ele>418.0</ele><time>2026-04-01T17:19:43Z</time></trkpt><trkpt lat="42.42304328227203" lon="-8.070407726207192"><ele>420.0</ele><time>2026-04-01T17:20:01Z</time></trkpt><trkpt lat="42.42310445957341" lon="-8.070387326562491"><ele>420.0</ele><time>2026-04-01T17:22:10Z</time></trkpt></trkseg><trkseg><trkpt lat="42.41659607952664" lon="-8.09753683254044"><ele>406.0</ele><time>2026-04-01T17:48:46Z</time></trkpt><trkpt lat="42.41663262967625" lon="-8.097450831991177"><ele>406.0</ele><time>2026-04-01T17:48:47Z</time></trkpt><trkpt lat="42.4166766162051" lon="-8.097346154641906"><ele>406.0</ele><time>2026-04-01T17:48:48Z</time></trkpt><trkpt lat="42.4167258869918" lon="-8.097212989129947"><ele>406.0</ele><time>2026-04-01T17:48:49Z</time></trkpt><trkpt lat="42.41677287182132" lon="-8.097079864491104"><ele>406.0</ele><time>2026-04-01T17:48:50Z</time></trkpt><trkpt lat="42.416815901088896" lon="-8.096947290571775"><ele>406.0</ele><time>2026-04-01T17:48:51Z</time></trkpt><trkpt lat="42.41686226135029" lon="-8.096804823292313"><ele>406.0</ele><time>2026-04-01T17:48:52Z</time></trkpt><trkpt lat="42.416911028603344" lon="-8.096657476390458"><ele>406.0</ele><time>2026-04-01T17:48:53Z</time></trkpt><trkpt lat="42.41696216226594" lon="-8.096507073464009"><ele>406.0</ele><time>2026-04-01T17:48:54Z</time></trkpt><trkpt lat="42.41701369619803" lon="-8.096359090552227"><ele>406.0</ele><time>2026-04-01T17:48:55Z</time></trkpt><trkpt lat="42.41707052743184" lon="-8.09621142832476"><ele>406.0</ele><time>2026-04-01T17:48:56Z</time></trkpt><trkpt lat="42.41714719253398" lon="-8.096080775987053"><ele>406.0</ele><time>2026-04-01T17:48:57Z</time></trkpt><trkpt lat="42.417242742806565" lon="-8.0959743963831"><ele>406.0</ele><time>2026-04-01T17:48:58Z</time></trkpt><trkpt lat="42.4173278652576" lon="-8.095851232328064"><ele>405.0</ele><time>2026-04-01T17:48:59Z</time></trkpt><trkpt lat="42.417408341379954" lon="-8.09572305022639"><ele>404.0</ele><time>2026-04-01T17:49:00Z</time></trkpt><trkpt lat="42.4174623711549" lon="-8.095566476413127"><ele>403.0</ele><time>2026-04-01T17:49:01Z</time></trkpt><trkpt lat="42.41751246527709" lon="-8.095412125265385"><ele>402.0</ele><time>2026-04-01T17:49:02Z</time></trkpt><trkpt lat="42.41755387981554" lon="-8.095266688015629"><ele>402.0</ele><time>2026-04-01T17:49:03Z</time></trkpt><trkpt lat="42.41760400119318" lon="-8.095105942978028"><ele>402.0</ele><time>2026-04-01T17:49:04Z</time></trkpt><trkpt lat="42.417674709294474" lon="-8.094997697708493"><ele>402.0</ele><time>2026-04-01T17:49:05Z</time></trkpt><trkpt lat="42.417742013047906" lon="-8.094835824735904"><ele>402.0</ele><time>2026-04-01T17:49:06Z</time></trkpt><trkpt lat="42.41782856661075" lon="-8.09467257621524"><ele>402.0</ele><time>2026-04-01T17:49:07Z</time></trkpt><trkpt lat="42.41793361247348" lon="-8.094507503485222"><ele>402.0</ele><time>2026-04-01T17:49:08Z</time></trkpt><trkpt lat="42.41801066164698" lon="-8.094303433764916"><ele>402.0</ele><time>2026-04-01T17:49:09Z</time></trkpt><trkpt lat="42.4180861639415" lon="-8.094110679204485"><ele>404.33333333333337</ele><time>2026-04-01T17:49:10Z</time></trkpt><trkpt lat="42.418192257959944" lon="-8.093936511902495"><ele>406.6666666666667</ele><time>2026-04-01T17:49:11Z</time></trkpt><trkpt lat="42.41832198727325" lon="-8.093779865775645"><ele>409.0</ele><time>2026-04-01T17:49:12Z</time></trkpt><trkpt lat="42.41845868161726" lon="-8.093629499084189"><ele>409.0</ele><time>2026-04-01T17:49:13Z</time></trkpt><trkpt lat="42.418583605328735" lon="-8.093481087748117"><ele>409.0</ele><time>2026-04-01T17:49:14Z</time></trkpt><trkpt lat="42.41868840344266" lon="-8.093344425822732"><ele>409.0</ele><time>2026-04-01T17:49:15Z</time></trkpt><trkpt lat="42.41879148537775" lon="-8.093230341179357"><ele>409.0</ele><time>2026-04-01T17:49:16Z</time></trkpt><trkpt lat="42.41888327691623" lon="-8.093117633925123"><ele>409.0</ele><time>2026-04-01T17:49:17Z</time></trkpt><trkpt lat="42.418948921271365" lon="-8.093013205531143"><ele>409.0</ele><time>2026-04-01T17:49:18Z</time></trkpt><trkpt lat="42.419000518519695" lon="-8.09288464533496"><ele>409.0</ele><time>2026-04-01T17:49:19Z</time></trkpt><trkpt lat="42.41904636633974" lon="-8.092730791965804"><ele>409.0</ele><time>2026-04-01T17:49:20Z</time></trkpt><trkpt lat="42.41910008641736" lon="-8.092559337965175"><ele>408.33333333333337</ele><time>2026-04-01T17:49:21Z</time></trkpt><trkpt lat="42.41917290435065" lon="-8.092372715682739"><ele>407.66666666666663</ele><time>2026-04-01T17:49:22Z</time></trkpt><trkpt lat="42.419257855178444" lon="-8.092179545164688"><ele>407.0</ele><time>2026-04-01T17:49:23Z</time></trkpt><trkpt lat="42.419365000764984" lon="-8.092000083615483"><ele>407.0</ele><time>2026-04-01T17:49:24Z</time></trkpt><trkpt lat="42.4194851923905" lon="-8.091825800323186"><ele>407.0</ele><time>2026-04-01T17:49:25Z</time></trkpt><trkpt lat="42.41960914052306" lon="-8.091647703295953"><ele>407.0</ele><time>2026-04-01T17:49:26Z</time></trkpt><trkpt lat="42.41974186272178" lon="-8.091470785191815"><ele>406.0</ele><time>2026-04-01T17:49:27Z</time></trkpt><trkpt lat="42.41988218712342" lon="-8.091299179519652"><ele>405.0</ele><time>2026-04-01T17:49:28Z</time></trkpt><trkpt lat="42.42002628344249" lon="-8.091124295687726"><ele>404.0</ele><time>2026-04-01T17:49:29Z</time></trkpt><trkpt lat="42.420170503841085" lon="-8.09094868982655"><ele>404.0</ele><time>2026-04-01T17:49:30Z</time></trkpt><trkpt lat="42.4203140934642" lon="-8.090763620080786"><ele>404.0</ele><time>2026-04-01T17:49:31Z</time></trkpt><trkpt lat="42.42045560564364" lon="-8.090573085703422"><ele>404.0</ele><time>2026-04-01T17:49:32Z</time></trkpt><trkpt lat="42.42059289730385" lon="-8.090380895045307"><ele>404.66666666666663</ele><time>2026-04-01T17:49:33Z</time></trkpt><trkpt lat="42.42072785304205" lon="-8.090188333960269"><ele>405.33333333333337</ele><time>2026-04-01T17:49:34Z</time></trkpt><trkpt lat="42.420876387659916" lon="-8.089988517673767"><ele>406.0</ele><time>2026-04-01T17:49:35Z</time></trkpt><trkpt lat="42.421026749754475" lon="-8.089791714524853"><ele>407.0</ele><time>2026-04-01T17:49:36Z</time></trkpt><trkpt lat="42.42120357270886" lon="-8.089627838814634"><ele>408.0</ele><time>2026-04-01T17:49:37Z</time></trkpt><trkpt lat="42.42136968034309" lon="-8.089462750594747"><ele>409.0</ele><time>2026-04-01T17:49:38Z</time></trkpt><trkpt lat="42.421537947626604" lon="-8.089295913123646"><ele>409.6666666666667</ele><time>2026-04-01T17:49:39Z</time></trkpt><trkpt lat="42.4217030296931" lon="-8.089125390715148"><ele>410.33333333333337</ele><time>2026-04-01T17:49:40Z</time></trkpt><trkpt lat="42.42187377499965" lon="-8.088955817747918"><ele>411.0</ele><time>2026-04-01T17:49:41Z</time></trkpt><trkpt lat="42.422042379899985" lon="-8.08881144673877"><ele>413.66666666666663</ele><time>2026-04-01T17:49:42Z</time></trkpt><trkpt lat="42.42220760165237" lon="-8.088662395279362"><ele>416.3333333333333</ele><time>2026-04-01T17:49:43Z</time></trkpt><trkpt lat="42.42238292740741" lon="-8.088527850498386"><ele>419.0</ele><time>2026-04-01T17:49:44Z</time></trkpt><trkpt lat="42.42254492998956" lon="-8.088405344065192"><ele>419.0</ele><time>2026-04-01T17:49:45Z</time></trkpt><trkpt lat="42.42268828341653" lon="-8.088296939795796"><ele>419.0</ele><time>2026-04-01T17:49:46Z</time></trkpt><trkpt lat="42.42283158238885" lon="-8.088198224355677"><ele>419.0</ele><time>2026-04-01T17:49:47Z</time></trkpt><trkpt lat="42.422971322232264" lon="-8.08811227798525"><ele>417.5</ele><time>2026-04-01T17:49:48Z</time></trkpt><trkpt lat="42.42311296162093" lon="-8.088051856482531"><ele>416.0</ele><time>2026-04-01T17:49:49Z</time></trkpt><trkpt lat="42.42325274868753" lon="-8.088018194290024"><ele>414.5</ele><time>2026-04-01T17:49:50Z</time></trkpt><trkpt lat="42.42338667641376" lon="-8.087964141752959"><ele>413.0</ele><time>2026-04-01T17:49:51Z</time></trkpt><trkpt lat="42.423514748737375" lon="-8.087906191544329"><ele>413.0</ele><time>2026-04-01T17:49:52Z</time></trkpt><trkpt lat="42.423636963851486" lon="-8.08784631183334"><ele>413.0</ele><time>2026-04-01T17:49:53Z</time></trkpt><trkpt lat="42.423753231192656" lon="-8.087782372285544"><ele>413.0</ele><time>2026-04-01T17:49:54Z</time></trkpt><trkpt lat="42.4238702695214" lon="-8.087704888062799"><ele>413.0</ele><time>2026-04-01T17:49:55Z</time></trkpt><trkpt lat="42.423956809107764" lon="-8.087590385354023"><ele>412.0</ele><time>2026-04-01T17:49:56Z</time></trkpt><trkpt lat="42.4240573294322" lon="-8.087467493598885"><ele>411.0</ele><time>2026-04-01T17:49:57Z</time></trkpt><trkpt lat="42.424167857210016" lon="-8.087326159119982"><ele>410.0</ele><time>2026-04-01T17:49:58Z</time></trkpt><trkpt lat="42.424287970471845" lon="-8.087177917294094"><ele>409.3333333333333</ele><time>2026-04-01T17:49:59Z</time></trkpt><trkpt lat="42.42442473144783" lon="-8.087045726715566"><ele>408.66666666666663</ele><time>2026-04-01T17:50:00Z</time></trkpt><trkpt lat="42.424561335945896" lon="-8.086887300986621"><ele>408.0</ele><time>2026-04-01T17:50:01Z</time></trkpt><trkpt lat="42.424695324269464" lon="-8.086723896987122"><ele>406.33333333333337</ele><time>2026-04-01T17:50:02Z</time></trkpt><trkpt lat="42.42482168961658" lon="-8.086538366576695"><ele>404.6666666666667</ele><time>2026-04-01T17:50:03Z</time></trkpt><trkpt lat="42.424956682397664" lon="-8.086365028309686"><ele>403.0</ele><time>2026-04-01T17:50:04Z</time></trkpt><trkpt lat="42.42510711015319" lon="-8.086188075236704"><ele>403.0</ele><time>2026-04-01T17:50:05Z</time></trkpt><trkpt lat="42.425235296173774" lon="-8.08602103874161"><ele>403.0</ele><time>2026-04-01T17:50:06Z</time></trkpt><trkpt lat="42.425342594724285" lon="-8.085824219716843"><ele>403.0</ele><time>2026-04-01T17:50:07Z</time></trkpt><trkpt lat="42.42543239873658" lon="-8.085589163131244"><ele>402.33333333333337</ele><time>2026-04-01T17:50:08Z</time></trkpt><trkpt lat="42.42551521645744" lon="-8.085348728026018"><ele>401.66666666666663</ele><time>2026-04-01T17:50:09Z</time></trkpt><trkpt lat="42.42559718591799" lon="-8.085106874836027"><ele>401.0</ele><time>2026-04-01T17:50:10Z</time></trkpt><trkpt lat="42.4256718438872" lon="-8.084873144380495"><ele>401.0</ele><time>2026-04-01T17:50:11Z</time></trkpt><trkpt lat="42.42574237817625" lon="-8.084651926367718"><ele>401.0</ele><time>2026-04-01T17:50:12Z</time></trkpt><trkpt lat="42.42583757454654" lon="-8.084451636535393"><ele>401.0</ele><time>2026-04-01T17:50:13Z</time></trkpt><trkpt lat="42.425908814856655" lon="-8.08422811861327"><ele>401.0</ele><time>2026-04-01T17:50:14Z</time></trkpt><trkpt lat="42.425972349165754" lon="-8.083983606369177"><ele>401.0</ele><time>2026-04-01T17:50:15Z</time></trkpt><trkpt lat="42.42606235293341" lon="-8.083752658194042"><ele>401.0</ele><time>2026-04-01T17:50:16Z</time></trkpt><trkpt lat="42.42614433431946" lon="-8.08350274297628"><ele>399.3333333333333</ele><time>2026-04-01T17:50:17Z</time></trkpt><trkpt lat="42.42622772514752" lon="-8.083242766560662"><ele>397.66666666666663</ele><time>2026-04-01T17:50:18Z</time></trkpt><trkpt lat="42.42630111378429" lon="-8.082994192493018"><ele>396.0</ele><time>2026-04-01T17:50:19Z</time></trkpt><trkpt lat="42.4263845175732" lon="-8.082763085357662"><ele>395.75</ele><time>2026-04-01T17:50:20Z</time></trkpt><trkpt lat="42.426460950430545" lon="-8.082545819159003"><ele>395.5</ele><time>2026-04-01T17:50:21Z</time></trkpt><trkpt lat="42.42651794398271" lon="-8.082372514565177"><ele>395.25</ele><time>2026-04-01T17:50:22Z</time></trkpt><trkpt lat="42.42655961105309" lon="-8.082231087889335"><ele>395.0</ele><time>2026-04-01T17:50:23Z</time></trkpt><trkpt lat="42.426593260357826" lon="-8.082141931520841"><ele>394.99999999999994</ele><time>2026-04-01T17:50:24Z</time></trkpt><trkpt lat="42.42666328477312" lon="-8.0820815262368"><ele>395.0</ele><time>2026-04-01T17:50:26Z</time></trkpt><trkpt lat="42.42671817593202" lon="-8.082026453229487"><ele>395.0</ele><time>2026-04-01T17:52:40Z</time></trkpt><trkpt lat="42.426771795803084" lon="-8.081972523497125"><ele>395.0</ele><time>2026-04-01T17:52:44Z</time></trkpt><trkpt lat="42.426796724218484" lon="-8.081765077201645"><ele>394.99999999999994</ele><time>2026-04-01T17:52:46Z</time></trkpt><trkpt lat="42.42683140056678" lon="-8.081680724500272"><ele>395.0</ele><time>2026-04-01T17:52:47Z</time></trkpt><trkpt lat="42.42688554044574" lon="-8.081560530958958"><ele>394.66666666666663</ele><time>2026-04-01T17:52:49Z</time></trkpt><trkpt lat="42.4269365165405" lon="-8.08145638858427"><ele>394.3333333333333</ele><time>2026-04-01T17:52:51Z</time></trkpt><trkpt lat="42.42698413028703" lon="-8.081364828628177"><ele>394.0</ele><time>2026-04-01T17:52:53Z</time></trkpt><trkpt lat="42.42703138538995" lon="-8.081277458710359"><ele>393.66666666666663</ele><time>2026-04-01T17:52:55Z</time></trkpt><trkpt lat="42.42707738029727" lon="-8.081193665638246"><ele>393.3333333333333</ele><time>2026-04-01T17:52:58Z</time></trkpt><trkpt lat="42.42712903487005" lon="-8.081104667612347"><ele>393.0</ele><time>2026-04-01T17:53:02Z</time></trkpt><trkpt lat="42.42717573283193" lon="-8.081024207152648"><ele>393.0</ele><time>2026-04-01T17:53:03Z</time></trkpt><trkpt lat="42.42724108307112" lon="-8.080922500280758"><ele>393.0</ele><time>2026-04-01T17:53:04Z</time></trkpt><trkpt lat="42.42731744097926" lon="-8.080818023661468"><ele>393.0</ele><time>2026-04-01T17:53:05Z</time></trkpt><trkpt lat="42.427399642489" lon="-8.080718795962808"><ele>393.0</ele><time>2026-04-01T17:53:06Z</time></trkpt><trkpt lat="42.42749379330224" lon="-8.080616288133735"><ele>393.0</ele><time>2026-04-01T17:53:07Z</time></trkpt><trkpt lat="42.42758075198561" lon="-8.080525454372781"><ele>393.59999999999997</ele><time>2026-04-01T17:53:08Z</time></trkpt><trkpt lat="42.42767001549184" lon="-8.080433453548633"><ele>394.2</ele><time>2026-04-01T17:53:09Z</time></trkpt><trkpt lat="42.4277517476677" lon="-8.080351097389089"><ele>394.8</ele><time>2026-04-01T17:53:10Z</time></trkpt><trkpt lat="42.42784695344862" lon="-8.080285052419208"><ele>395.4</ele><time>2026-04-01T17:53:11Z</time></trkpt><trkpt lat="42.42791609755879" lon="-8.080211330520124"><ele>396.0</ele><time>2026-04-01T17:53:12Z</time></trkpt><trkpt lat="42.42798610643548" lon="-8.080131814989883"><ele>396.6</ele><time>2026-04-01T17:53:13Z</time></trkpt><trkpt lat="42.42805540654438" lon="-8.080085552487484"><ele>397.20000000000005</ele><time>2026-04-01T17:53:14Z</time></trkpt><trkpt lat="42.428106671774515" lon="-8.080029416243981"><ele>397.79999999999995</ele><time>2026-04-01T17:53:15Z</time></trkpt><trkpt lat="42.42816514969151" lon="-8.079966306025796"><ele>398.4</ele><time>2026-04-01T17:53:16Z</time></trkpt><trkpt lat="42.428216272285056" lon="-8.079839132300881"><ele>399.0</ele><time>2026-04-01T17:53:18Z</time></trkpt><trkpt lat="42.428090040690094" lon="-8.079741648408511"><ele>399.0</ele><time>2026-04-01T17:53:20Z</time></trkpt><trkpt lat="42.428019960638856" lon="-8.07972208972248"><ele>399.0</ele><time>2026-04-01T17:53:21Z</time></trkpt><trkpt lat="42.42796253678437" lon="-8.07966006957985"><ele>399.0</ele><time>2026-04-01T17:53:24Z</time></trkpt><trkpt lat="42.42797880992661" lon="-8.079475654906402"><ele>399.0</ele><time>2026-04-01T17:53:26Z</time></trkpt><trkpt lat="42.428024369992826" lon="-8.079364533976486"><ele>399.0</ele><time>2026-04-01T17:53:27Z</time></trkpt><trkpt lat="42.42807917604804" lon="-8.079208532529098"><ele>397.25</ele><time>2026-04-01T17:53:28Z</time></trkpt><trkpt lat="42.42815066876138" lon="-8.07906207675833"><ele>395.5</ele><time>2026-04-01T17:53:29Z</time></trkpt><trkpt lat="42.42820664416144" lon="-8.078894367934701"><ele>393.75</ele><time>2026-04-01T17:53:30Z</time></trkpt><trkpt lat="42.42826358335762" lon="-8.078745555078246"><ele>392.0</ele><time>2026-04-01T17:53:31Z</time></trkpt><trkpt lat="42.42830951327823" lon="-8.078610730481802"><ele>392.0</ele><time>2026-04-01T17:53:32Z</time></trkpt><trkpt lat="42.42833905321939" lon="-8.078509753996816"><ele>392.0</ele><time>2026-04-01T17:53:33Z</time></trkpt><trkpt lat="42.42838069691592" lon="-8.078441451118097"><ele>392.0</ele><time>2026-04-01T17:53:34Z</time></trkpt><trkpt lat="42.42842322204441" lon="-8.078375370569002"><ele>392.0</ele><time>2026-04-01T17:53:36Z</time></trkpt><trkpt lat="42.42855222369246" lon="-8.07847372610882"><ele>392.0</ele><time>2026-04-01T17:53:38Z</time></trkpt><trkpt lat="42.42862877706151" lon="-8.078548148339143"><ele>392.0</ele><time>2026-04-01T17:53:39Z</time></trkpt><trkpt lat="42.42869550314543" lon="-8.078628325176368"><ele>392.0</ele><time>2026-04-01T17:53:40Z</time></trkpt><trkpt lat="42.42875644052932" lon="-8.078690601890836"><ele>392.0</ele><time>2026-04-01T17:53:41Z</time></trkpt><trkpt lat="42.428811411995916" lon="-8.078740732320545"><ele>392.0</ele><time>2026-04-01T17:53:44Z</time></trkpt><trkpt lat="42.428873413300245" lon="-8.078775931599697"><ele>392.0</ele><time>2026-04-01T17:53:48Z</time></trkpt><trkpt lat="42.42906392974686" lon="-8.078536711439364"><ele>393.20000000000005</ele><time>2026-04-01T17:53:50Z</time></trkpt><trkpt lat="42.42911669612097" lon="-8.07844315816736"><ele>394.4</ele><time>2026-04-01T17:53:51Z</time></trkpt><trkpt lat="42.42918759387583" lon="-8.078361673692177"><ele>395.6</ele><time>2026-04-01T17:53:52Z</time></trkpt><trkpt lat="42.429265377191214" lon="-8.078285618136011"><ele>396.79999999999995</ele><time>2026-04-01T17:53:53Z</time></trkpt><trkpt lat="42.429350177269356" lon="-8.078236254399409"><ele>398.0</ele><time>2026-04-01T17:53:54Z</time></trkpt><trkpt lat="42.42942063451607" lon="-8.078170485421598"><ele>397.99999999999994</ele><time>2026-04-01T17:53:55Z</time></trkpt><trkpt lat="42.42949221611407" lon="-8.078104447981204"><ele>398.0</ele><time>2026-04-01T17:53:56Z</time></trkpt><trkpt lat="42.42956582292963" lon="-8.078039471518126"><ele>398.0</ele><time>2026-04-01T17:53:57Z</time></trkpt><trkpt lat="42.4296361149036" lon="-8.077979309860101"><ele>398.0</ele><time>2026-04-01T17:53:58Z</time></trkpt><trkpt lat="42.4296935210758" lon="-8.077928124098035"><ele>397.99999999999994</ele><time>2026-04-01T17:53:59Z</time></trkpt><trkpt lat="42.42973147574154" lon="-8.077833511140991"><ele>398.0</ele><time>2026-04-01T17:54:01Z</time></trkpt><trkpt lat="42.42969575214252" lon="-8.077755148143547"><ele>397.99999999999994</ele><time>2026-04-01T17:54:03Z</time></trkpt><trkpt lat="42.42965791464321" lon="-8.077679964508063"><ele>398.0</ele><time>2026-04-01T17:54:05Z</time></trkpt><trkpt lat="42.42959426264475" lon="-8.077636781620757"><ele>398.0</ele><time>2026-04-01T17:54:09Z</time></trkpt><trkpt lat="42.42953499736233" lon="-8.077576036818472"><ele>398.0</ele><time>2026-04-01T17:54:13Z</time></trkpt><trkpt lat="42.42947696122771" lon="-8.07745112810843"><ele>397.99999999999994</ele><time>2026-04-01T17:54:15Z</time></trkpt><trkpt lat="42.42949027846263" lon="-8.07736365389922"><ele>398.0</ele><time>2026-04-01T17:54:16Z</time></trkpt><trkpt lat="42.42951880744383" lon="-8.077285443263527"><ele>396.59999999999997</ele><time>2026-04-01T17:54:17Z</time></trkpt><trkpt lat="42.42954857342853" lon="-8.077182689677615"><ele>395.2</ele><time>2026-04-01T17:54:18Z</time></trkpt><trkpt lat="42.429522770897115" lon="-8.076997199575978"><ele>393.8</ele><time>2026-04-01T17:54:20Z</time></trkpt><trkpt lat="42.42946258463767" lon="-8.076889292319997"><ele>392.4</ele><time>2026-04-01T17:54:21Z</time></trkpt><trkpt lat="42.42944527938645" lon="-8.076756276725146"><ele>391.0</ele><time>2026-04-01T17:54:22Z</time></trkpt><trkpt lat="42.429410477924456" lon="-8.076610145290493"><ele>391.0</ele><time>2026-04-01T17:54:23Z</time></trkpt><trkpt lat="42.42937515930899" lon="-8.07647177227044"><ele>391.0</ele><time>2026-04-01T17:54:24Z</time></trkpt><trkpt lat="42.42933211466835" lon="-8.076329008092614"><ele>391.0</ele><time>2026-04-01T17:54:25Z</time></trkpt><trkpt lat="42.42929921675657" lon="-8.076194260173525"><ele>391.0</ele><time>2026-04-01T17:54:26Z</time></trkpt><trkpt lat="42.42927335256543" lon="-8.076069913684712"><ele>391.0</ele><time>2026-04-01T17:54:27Z</time></trkpt><trkpt lat="42.429250139820994" lon="-8.07595807574233"><ele>391.0</ele><time>2026-04-01T17:54:28Z</time></trkpt><trkpt lat="42.42921366622069" lon="-8.075856136135084"><ele>391.0</ele><time>2026-04-01T17:54:29Z</time></trkpt><trkpt lat="42.429192418308766" lon="-8.075753102549058"><ele>391.0</ele><time>2026-04-01T17:54:30Z</time></trkpt><trkpt lat="42.42919938048802" lon="-8.075613000814922"><ele>391.0</ele><time>2026-04-01T17:54:32Z</time></trkpt><trkpt lat="42.42939770820774" lon="-8.075629343656392"><ele>390.8</ele><time>2026-04-01T17:54:34Z</time></trkpt><trkpt lat="42.42950347059834" lon="-8.075638111636252"><ele>390.6</ele><time>2026-04-01T17:54:35Z</time></trkpt><trkpt lat="42.42960524251547" lon="-8.07564364438672"><ele>390.4</ele><time>2026-04-01T17:54:36Z</time></trkpt><trkpt lat="42.42971281327498" lon="-8.075637504490066"><ele>390.2</ele><time>2026-04-01T17:54:37Z</time></trkpt><trkpt lat="42.42981466332566" lon="-8.075597804206724"><ele>390.0</ele><time>2026-04-01T17:54:38Z</time></trkpt><trkpt lat="42.42991350337672" lon="-8.075572203437039"><ele>392.0</ele><time>2026-04-01T17:54:39.001Z</time></trkpt><trkpt lat="42.430002984050375" lon="-8.07553188438783"><ele>394.0</ele><time>2026-04-01T17:54:40.001Z</time></trkpt><trkpt lat="42.43005652014549" lon="-8.075486893488621"><ele>396.0</ele><time>2026-04-01T17:54:41.001Z</time></trkpt><trkpt lat="42.430158285678225" lon="-8.075442336782645"><ele>398.0</ele><time>2026-04-01T17:54:43.001Z</time></trkpt><trkpt lat="42.43017316926682" lon="-8.075265489674356"><ele>400.0</ele><time>2026-04-01T17:54:48.001Z</time></trkpt><trkpt lat="42.43014159156119" lon="-8.075096354662831"><ele>400.0</ele><time>2026-04-01T17:55:07.001Z</time></trkpt><trkpt lat="42.43011964887385" lon="-8.074971398821427"><ele>400.0</ele><time>2026-04-01T17:55:09.001Z</time></trkpt><trkpt lat="42.43019959477242" lon="-8.074905749666833"><ele>400.0</ele><time>2026-04-01T17:55:12.001Z</time></trkpt><trkpt lat="42.43026346101536" lon="-8.074895064828041"><ele>400.0</ele><time>2026-04-01T17:55:17Z</time></trkpt><trkpt lat="42.430372245424664" lon="-8.074257790747888"><ele>399.50000000000006</ele><time>2026-04-01T17:58:45Z</time></trkpt><trkpt lat="42.430355601431465" lon="-8.074156896269733"><ele>399.0</ele><time>2026-04-01T17:58:46Z</time></trkpt><trkpt lat="42.43033838911099" lon="-8.074050001649573"><ele>398.5</ele><time>2026-04-01T17:58:47Z</time></trkpt><trkpt lat="42.430319258761074" lon="-8.073951058601606"><ele>398.0</ele><time>2026-04-01T17:58:48Z</time></trkpt><trkpt lat="42.43030613234684" lon="-8.07384965464536"><ele>397.50000000000006</ele><time>2026-04-01T17:58:49Z</time></trkpt><trkpt lat="42.43027264597163" lon="-8.07374609501847"><ele>397.0</ele><time>2026-04-01T17:58:50Z</time></trkpt><trkpt lat="42.43025704231552" lon="-8.073623667952882"><ele>397.0</ele><time>2026-04-01T17:58:51.001Z</time></trkpt><trkpt lat="42.43022493921858" lon="-8.073493439938249"><ele>397.0</ele><time>2026-04-01T17:58:52.001Z</time></trkpt><trkpt lat="42.43019438342204" lon="-8.073369202991156"><ele>397.0</ele><time>2026-04-01T17:58:53.001Z</time></trkpt><trkpt lat="42.43017000672257" lon="-8.073237283892412"><ele>397.0</ele><time>2026-04-01T17:58:54.001Z</time></trkpt><trkpt lat="42.430149841315874" lon="-8.073120610706464"><ele>397.0</ele><time>2026-04-01T17:58:55.001Z</time></trkpt><trkpt lat="42.43012088627899" lon="-8.073015603567537"><ele>396.50000000000006</ele><time>2026-04-01T17:58:56.001Z</time></trkpt><trkpt lat="42.43009956009486" lon="-8.072896631223713"><ele>396.0</ele><time>2026-04-01T17:58:57.001Z</time></trkpt><trkpt lat="42.43008417912166" lon="-8.072786600598624"><ele>395.5</ele><time>2026-04-01T17:58:58.001Z</time></trkpt><trkpt lat="42.43006191501629" lon="-8.072681482124658"><ele>395.0</ele><time>2026-04-01T17:58:59.001Z</time></trkpt><trkpt lat="42.43003514515922" lon="-8.072591897232634"><ele>394.50000000000006</ele><time>2026-04-01T17:59:00.001Z</time></trkpt><trkpt lat="42.43001249597114" lon="-8.07249440693103"><ele>394.0</ele><time>2026-04-01T17:59:01.001Z</time></trkpt><trkpt lat="42.4299564971898" lon="-8.072334160937546"><ele>393.2</ele><time>2026-04-01T17:59:03.001Z</time></trkpt><trkpt lat="42.42993242880016" lon="-8.07222724275499"><ele>392.4</ele><time>2026-04-01T17:59:04.001Z</time></trkpt><trkpt lat="42.42991732152565" lon="-8.072101884961013"><ele>391.6</ele><time>2026-04-01T17:59:05.001Z</time></trkpt><trkpt lat="42.429901864045625" lon="-8.07196566629386"><ele>390.8</ele><time>2026-04-01T17:59:06.001Z</time></trkpt><trkpt lat="42.429872459452405" lon="-8.071817766812845"><ele>390.0</ele><time>2026-04-01T17:59:07.001Z</time></trkpt><trkpt lat="42.42984159812584" lon="-8.07166998867466"><ele>389.8</ele><time>2026-04-01T17:59:08.001Z</time></trkpt><trkpt lat="42.429807246259834" lon="-8.07151548273111"><ele>389.6</ele><time>2026-04-01T17:59:09.001Z</time></trkpt><trkpt lat="42.42977778413872" lon="-8.071373313582324"><ele>389.4</ele><time>2026-04-01T17:59:10.001Z</time></trkpt><trkpt lat="42.42975216242945" lon="-8.071254164391481"><ele>389.2</ele><time>2026-04-01T17:59:11.001Z</time></trkpt><trkpt lat="42.42972930099633" lon="-8.071143582262609"><ele>389.0</ele><time>2026-04-01T17:59:12.001Z</time></trkpt><trkpt lat="42.429709220101834" lon="-8.071044322443582"><ele>389.0</ele><time>2026-04-01T17:59:13.001Z</time></trkpt><trkpt lat="42.42969130926157" lon="-8.070921761912869"><ele>389.0</ele><time>2026-04-01T17:59:14.001Z</time></trkpt><trkpt lat="42.42966267559242" lon="-8.07080467103743"><ele>389.0</ele><time>2026-04-01T17:59:15.001Z</time></trkpt><trkpt lat="42.42965440656803" lon="-8.070702322006678"><ele>389.0</ele><time>2026-04-01T17:59:16.001Z</time></trkpt><trkpt lat="42.429644506941344" lon="-8.070579588254928"><ele>389.0</ele><time>2026-04-01T17:59:17.001Z</time></trkpt><trkpt lat="42.42962092236849" lon="-8.070444010497557"><ele>388.0</ele><time>2026-04-01T17:59:18.001Z</time></trkpt><trkpt lat="42.42961603364892" lon="-8.070324703990142"><ele>387.0</ele><time>2026-04-01T17:59:19.001Z</time></trkpt><trkpt lat="42.429624474803354" lon="-8.07019865158239"><ele>386.0</ele><time>2026-04-01T17:59:20Z</time></trkpt><trkpt lat="42.42960326866235" lon="-8.070065586412731"><ele>385.0</ele><time>2026-04-01T17:59:21Z</time></trkpt><trkpt lat="42.42960692563928" lon="-8.069932344604322"><ele>384.0</ele><time>2026-04-01T17:59:22Z</time></trkpt><trkpt lat="42.429611954834506" lon="-8.069791843482125"><ele>383.79999999999995</ele><time>2026-04-01T17:59:23Z</time></trkpt><trkpt lat="42.4296102627164" lon="-8.069651951434873"><ele>383.59999999999997</ele><time>2026-04-01T17:59:24Z</time></trkpt><trkpt lat="42.42961283152038" lon="-8.06951175296778"><ele>383.4</ele><time>2026-04-01T17:59:25Z</time></trkpt><trkpt lat="42.42961527525857" lon="-8.069360810935466"><ele>383.2</ele><time>2026-04-01T17:59:26Z</time></trkpt><trkpt lat="42.42960988783417" lon="-8.069217720871038"><ele>383.0</ele><time>2026-04-01T17:59:27Z</time></trkpt><trkpt lat="42.429607307814535" lon="-8.0690720154989"><ele>383.0</ele><time>2026-04-01T17:59:28Z</time></trkpt><trkpt lat="42.42959073649009" lon="-8.068941214412847"><ele>383.0</ele><time>2026-04-01T17:59:29Z</time></trkpt><trkpt lat="42.42958905657642" lon="-8.068788440769348"><ele>383.0</ele><time>2026-04-01T17:59:30Z</time></trkpt><trkpt lat="42.42958758805011" lon="-8.068652051445902"><ele>383.0</ele><time>2026-04-01T17:59:31Z</time></trkpt><trkpt lat="42.4295847437404" lon="-8.068526252777069"><ele>383.0</ele><time>2026-04-01T17:59:32Z</time></trkpt><trkpt lat="42.42958075096446" lon="-8.068394813790986"><ele>383.2</ele><time>2026-04-01T17:59:33Z</time></trkpt><trkpt lat="42.42957664013142" lon="-8.068259489059068"><ele>383.4</ele><time>2026-04-01T17:59:34Z</time></trkpt><trkpt lat="42.429570270705184" lon="-8.068132232168784"><ele>383.59999999999997</ele><time>2026-04-01T17:59:35Z</time></trkpt><trkpt lat="42.42955561419177" lon="-8.06798469273815"><ele>383.79999999999995</ele><time>2026-04-01T17:59:36Z</time></trkpt><trkpt lat="42.4295275949666" lon="-8.067831107283451"><ele>384.0</ele><time>2026-04-01T17:59:37Z</time></trkpt><trkpt lat="42.42948624885011" lon="-8.067675979152726"><ele>384.0</ele><time>2026-04-01T17:59:38Z</time></trkpt><trkpt lat="42.42943531275965" lon="-8.067522797468209"><ele>384.0</ele><time>2026-04-01T17:59:39Z</time></trkpt><trkpt lat="42.429380946235696" lon="-8.06736972869606"><ele>384.0</ele><time>2026-04-01T17:59:40Z</time></trkpt><trkpt lat="42.42932771065284" lon="-8.067227135471011"><ele>384.0</ele><time>2026-04-01T17:59:41Z</time></trkpt><trkpt lat="42.42927346390994" lon="-8.06708376639662"><ele>385.0</ele><time>2026-04-01T17:59:42Z</time></trkpt><trkpt lat="42.42922743313551" lon="-8.066964270991079"><ele>386.0</ele><time>2026-04-01T17:59:43Z</time></trkpt><trkpt lat="42.429164489811285" lon="-8.066800973285778"><ele>387.0</ele><time>2026-04-01T17:59:44Z</time></trkpt><trkpt lat="42.429104446844754" lon="-8.066647337329165"><ele>388.0</ele><time>2026-04-01T17:59:45Z</time></trkpt><trkpt lat="42.42905600065346" lon="-8.066476079236512"><ele>388.6666666666667</ele><time>2026-04-01T17:59:46Z</time></trkpt><trkpt lat="42.42898315589645" lon="-8.066318417974184"><ele>389.33333333333337</ele><time>2026-04-01T17:59:47Z</time></trkpt><trkpt lat="42.42886134291993" lon="-8.065993143495557"><ele>390.0</ele><time>2026-04-01T17:59:49Z</time></trkpt><trkpt lat="42.42877955294928" lon="-8.065812828345791"><ele>389.25</ele><time>2026-04-01T17:59:50Z</time></trkpt><trkpt lat="42.4287125906538" lon="-8.065633581752358"><ele>388.5</ele><time>2026-04-01T17:59:51Z</time></trkpt><trkpt lat="42.42865037074873" lon="-8.065453432120686"><ele>387.75</ele><time>2026-04-01T17:59:52Z</time></trkpt><trkpt lat="42.42859127326027" lon="-8.065283419108116"><ele>387.0</ele><time>2026-04-01T17:59:53Z</time></trkpt><trkpt lat="42.428529314313614" lon="-8.06513811523186"><ele>387.0</ele><time>2026-04-01T17:59:54Z</time></trkpt><trkpt lat="42.42848664907979" lon="-8.064997715187248"><ele>387.0</ele><time>2026-04-01T17:59:55Z</time></trkpt><trkpt lat="42.4284395143709" lon="-8.064854890371588"><ele>387.0</ele><time>2026-04-01T17:59:56Z</time></trkpt><trkpt lat="42.42837953081022" lon="-8.064734514833697"><ele>387.0</ele><time>2026-04-01T17:59:57Z</time></trkpt><trkpt lat="42.4283331781156" lon="-8.064604873305129"><ele>387.0</ele><time>2026-04-01T17:59:58Z</time></trkpt><trkpt lat="42.428304248482796" lon="-8.064478445407762"><ele>387.1666666666667</ele><time>2026-04-01T17:59:59Z</time></trkpt><trkpt lat="42.42826782571859" lon="-8.064365688549062"><ele>387.33333333333337</ele><time>2026-04-01T18:00:00Z</time></trkpt><trkpt lat="42.42823658572718" lon="-8.064264969416541"><ele>387.5</ele><time>2026-04-01T18:00:01Z</time></trkpt><trkpt lat="42.42820314092058" lon="-8.064163890978158"><ele>387.6666666666667</ele><time>2026-04-01T18:00:02Z</time></trkpt><trkpt lat="42.42816770718158" lon="-8.064077438449463"><ele>387.83333333333337</ele><time>2026-04-01T18:00:03Z</time></trkpt><trkpt lat="42.42814882293359" lon="-8.063987753802182"><ele>388.0</ele><time>2026-04-01T18:00:04Z</time></trkpt><trkpt lat="42.42811895947952" lon="-8.063852205159789"><ele>388.1666666666667</ele><time>2026-04-01T18:00:06Z</time></trkpt><trkpt lat="42.42809124462195" lon="-8.063773045577792"><ele>388.33333333333337</ele><time>2026-04-01T18:00:08Z</time></trkpt><trkpt lat="42.42802411438514" lon="-8.063644699505874"><ele>388.5</ele><time>2026-04-01T18:00:10Z</time></trkpt><trkpt lat="42.42796896452992" lon="-8.06357490227528"><ele>388.66666666666663</ele><time>2026-04-01T18:00:11Z</time></trkpt><trkpt lat="42.42791923555228" lon="-8.063492363891697"><ele>388.8333333333333</ele><time>2026-04-01T18:00:12Z</time></trkpt><trkpt lat="42.42789087764583" lon="-8.063380536640867"><ele>389.0</ele><time>2026-04-01T18:00:13Z</time></trkpt><trkpt lat="42.427880212982075" lon="-8.063265847707441"><ele>389.2</ele><time>2026-04-01T18:00:14Z</time></trkpt><trkpt lat="42.42790752641604" lon="-8.063136919242018"><ele>389.4</ele><time>2026-04-01T18:00:15Z</time></trkpt><trkpt lat="42.427947453082396" lon="-8.063040485843835"><ele>389.6</ele><time>2026-04-01T18:00:16Z</time></trkpt><trkpt lat="42.42800092132722" lon="-8.062960178925023"><ele>389.8</ele><time>2026-04-01T18:00:17Z</time></trkpt><trkpt lat="42.42804614894998" lon="-8.062891100528152"><ele>390.0</ele><time>2026-04-01T18:00:18Z</time></trkpt><trkpt lat="42.428010905989034" lon="-8.062714367031472"><ele>390.0</ele><time>2026-04-01T18:00:20Z</time></trkpt><trkpt lat="42.427948161356774" lon="-8.062651453774723"><ele>390.0</ele><time>2026-04-01T18:00:21Z</time></trkpt><trkpt lat="42.42788599717172" lon="-8.062548193352914"><ele>390.0</ele><time>2026-04-01T18:00:22Z</time></trkpt><trkpt lat="42.42781893006745" lon="-8.062481154389506"><ele>390.0</ele><time>2026-04-01T18:00:23Z</time></trkpt><trkpt lat="42.42776171126438" lon="-8.062407994955517"><ele>390.0</ele><time>2026-04-01T18:00:24Z</time></trkpt><trkpt lat="42.42771531145902" lon="-8.062348448444746"><ele>390.0</ele><time>2026-04-01T18:00:25Z</time></trkpt><trkpt lat="42.42767654474208" lon="-8.062249180148376"><ele>390.0</ele><time>2026-04-01T18:00:27Z</time></trkpt></trkseg><trkseg><trkpt lat="42.42790374170844" lon="-8.062927341651955"><ele>390.0</ele><time>2026-04-01T18:16:15Z</time></trkpt><trkpt lat="42.42803662641221" lon="-8.062923906449498"><ele>390.0</ele><time>2026-04-01T18:16:17Z</time></trkpt><trkpt lat="42.42812300286288" lon="-8.062899579401966"><ele>390.0</ele><time>2026-04-01T18:16:18Z</time></trkpt><trkpt lat="42.428216916054325" lon="-8.06289310046236"><ele>390.0</ele><time>2026-04-01T18:16:19Z</time></trkpt><trkpt lat="42.42830998233603" lon="-8.062917598310305"><ele>390.0</ele><time>2026-04-01T18:16:20Z</time></trkpt><trkpt lat="42.4283791728953" lon="-8.062994425403977"><ele>390.0</ele><time>2026-04-01T18:16:21Z</time></trkpt><trkpt lat="42.428444058595744" lon="-8.06307725560085"><ele>390.0</ele><time>2026-04-01T18:16:22Z</time></trkpt><trkpt lat="42.42847114139657" lon="-8.063219741174066"><ele>390.0</ele><time>2026-04-01T18:16:23Z</time></trkpt><trkpt lat="42.4284773794356" lon="-8.063360781097831"><ele>390.0</ele><time>2026-04-01T18:16:24Z</time></trkpt><trkpt lat="42.42854069795046" lon="-8.063497872733764"><ele>390.0</ele><time>2026-04-01T18:16:25Z</time></trkpt><trkpt lat="42.428579365299655" lon="-8.063638317125735"><ele>389.75</ele><time>2026-04-01T18:16:26Z</time></trkpt><trkpt lat="42.42865545417294" lon="-8.06375296789117"><ele>389.5</ele><time>2026-04-01T18:16:27Z</time></trkpt><trkpt lat="42.428694983898055" lon="-8.063901740873586"><ele>389.25</ele><time>2026-04-01T18:16:28Z</time></trkpt><trkpt lat="42.4287792464671" lon="-8.064007448319483"><ele>389.0</ele><time>2026-04-01T18:16:29Z</time></trkpt><trkpt lat="42.428850278401136" lon="-8.064132491392499"><ele>390.0</ele><time>2026-04-01T18:16:30Z</time></trkpt><trkpt lat="42.42890707090973" lon="-8.064255721383343"><ele>391.0</ele><time>2026-04-01T18:16:31Z</time></trkpt><trkpt lat="42.42895848114831" lon="-8.064389763699538"><ele>392.0</ele><time>2026-04-01T18:16:32Z</time></trkpt><trkpt lat="42.42901774064032" lon="-8.064516413176605"><ele>393.0</ele><time>2026-04-01T18:16:33Z</time></trkpt><trkpt lat="42.42907549930496" lon="-8.064639364534171"><ele>394.0</ele><time>2026-04-01T18:16:34Z</time></trkpt><trkpt lat="42.42913061585556" lon="-8.064764706817638"><ele>394.00000000000006</ele><time>2026-04-01T18:16:35Z</time></trkpt><trkpt lat="42.4291825038251" lon="-8.06488542959958"><ele>394.0</ele><time>2026-04-01T18:16:36Z</time></trkpt><trkpt lat="42.429231408561705" lon="-8.064985819645344"><ele>394.0</ele><time>2026-04-01T18:16:37Z</time></trkpt><trkpt lat="42.429269231365694" lon="-8.065098787825258"><ele>394.0</ele><time>2026-04-01T18:16:38Z</time></trkpt><trkpt lat="42.429313648796956" lon="-8.065180587396092"><ele>394.00000000000006</ele><time>2026-04-01T18:16:39Z</time></trkpt><trkpt lat="42.429353370159546" lon="-8.065273536452507"><ele>394.0</ele><time>2026-04-01T18:16:40Z</time></trkpt><trkpt lat="42.42939287050335" lon="-8.065356664773033"><ele>393.6666666666667</ele><time>2026-04-01T18:16:41Z</time></trkpt><trkpt lat="42.4294276140282" lon="-8.06544305687815"><ele>393.33333333333337</ele><time>2026-04-01T18:16:42Z</time></trkpt><trkpt lat="42.42946906990194" lon="-8.065535467745901"><ele>393.0</ele><time>2026-04-01T18:16:43Z</time></trkpt><trkpt lat="42.429509165733904" lon="-8.06562865388812"><ele>392.66666666666663</ele><time>2026-04-01T18:16:44Z</time></trkpt><trkpt lat="42.429548342405894" lon="-8.065714480982948"><ele>392.3333333333333</ele><time>2026-04-01T18:16:45Z</time></trkpt><trkpt lat="42.42958471808639" lon="-8.065864019137038"><ele>392.0</ele><time>2026-04-01T18:16:47Z</time></trkpt><trkpt lat="42.429652419831555" lon="-8.0660074626446"><ele>392.3333333333333</ele><time>2026-04-01T18:16:49Z</time></trkpt><trkpt lat="42.429720093546614" lon="-8.066151422644419"><ele>392.66666666666663</ele><time>2026-04-01T18:16:51Z</time></trkpt><trkpt lat="42.4297558943659" lon="-8.066236473687583"><ele>393.0</ele><time>2026-04-01T18:16:52Z</time></trkpt><trkpt lat="42.4297895159086" lon="-8.066318442291085"><ele>393.33333333333337</ele><time>2026-04-01T18:16:53Z</time></trkpt><trkpt lat="42.42983134625873" lon="-8.066408885465416"><ele>393.6666666666667</ele><time>2026-04-01T18:16:54Z</time></trkpt><trkpt lat="42.42987484820102" lon="-8.066501001431563"><ele>394.0</ele><time>2026-04-01T18:16:55Z</time></trkpt><trkpt lat="42.429920574681994" lon="-8.066618594459946"><ele>394.00000000000006</ele><time>2026-04-01T18:16:56Z</time></trkpt><trkpt lat="42.4299601394354" lon="-8.06671104468195"><ele>394.0</ele><time>2026-04-01T18:16:57Z</time></trkpt><trkpt lat="42.42999949156653" lon="-8.066807601825275"><ele>394.0</ele><time>2026-04-01T18:16:58Z</time></trkpt><trkpt lat="42.43003972664648" lon="-8.066898102567913"><ele>394.0</ele><time>2026-04-01T18:16:59Z</time></trkpt><trkpt lat="42.43008582730069" lon="-8.066997081339975"><ele>394.00000000000006</ele><time>2026-04-01T18:17:00Z</time></trkpt><trkpt lat="42.43013352971388" lon="-8.067097356644299"><ele>394.0</ele><time>2026-04-01T18:17:01Z</time></trkpt><trkpt lat="42.43018572489167" lon="-8.067209050302663"><ele>394.0</ele><time>2026-04-01T18:17:02Z</time></trkpt><trkpt lat="42.430226581616274" lon="-8.067306857267559"><ele>394.0</ele><time>2026-04-01T18:17:03Z</time></trkpt><trkpt lat="42.43026844781191" lon="-8.067392929495798"><ele>394.0</ele><time>2026-04-01T18:17:04Z</time></trkpt><trkpt lat="42.43030848700343" lon="-8.067476923170446"><ele>394.0</ele><time>2026-04-01T18:17:05Z</time></trkpt><trkpt lat="42.430338683789365" lon="-8.067554333043914"><ele>394.0</ele><time>2026-04-01T18:17:06Z</time></trkpt><trkpt lat="42.430374947083976" lon="-8.0676439705015"><ele>394.0</ele><time>2026-04-01T18:17:07Z</time></trkpt><trkpt lat="42.430413218517536" lon="-8.067717188918026"><ele>394.0</ele><time>2026-04-01T18:17:08Z</time></trkpt><trkpt lat="42.430455706793175" lon="-8.06780285475434"><ele>394.33333333333337</ele><time>2026-04-01T18:17:08.999Z</time></trkpt><trkpt lat="42.43049509043442" lon="-8.0678854612897"><ele>394.6666666666667</ele><time>2026-04-01T18:17:09.999Z</time></trkpt><trkpt lat="42.43053834820126" lon="-8.06797891971149"><ele>395.0</ele><time>2026-04-01T18:17:10.999Z</time></trkpt><trkpt lat="42.43058102631951" lon="-8.068074962395924"><ele>395.33333333333337</ele><time>2026-04-01T18:17:11.999Z</time></trkpt><trkpt lat="42.43062161427819" lon="-8.068172470618618"><ele>395.6666666666667</ele><time>2026-04-01T18:17:12.999Z</time></trkpt><trkpt lat="42.430668334491074" lon="-8.068264837622934"><ele>396.0</ele><time>2026-04-01T18:17:13.999Z</time></trkpt><trkpt lat="42.43070913961777" lon="-8.068360470062661"><ele>396.0</ele><time>2026-04-01T18:17:14.999Z</time></trkpt><trkpt lat="42.43075130746" lon="-8.068442654026713"><ele>396.0</ele><time>2026-04-01T18:17:15.999Z</time></trkpt><trkpt lat="42.430787973449185" lon="-8.068524379492175"><ele>396.0</ele><time>2026-04-01T18:17:16.999Z</time></trkpt><trkpt lat="42.430844005381665" lon="-8.068652986216685"><ele>396.0</ele><time>2026-04-01T18:17:18.999Z</time></trkpt><trkpt lat="42.43088126882417" lon="-8.068727781166476"><ele>396.0</ele><time>2026-04-01T18:17:19.999Z</time></trkpt><trkpt lat="42.43092012381697" lon="-8.068799979665576"><ele>396.0</ele><time>2026-04-01T18:17:20.999Z</time></trkpt><trkpt lat="42.43095597808234" lon="-8.068870456400763"><ele>396.0</ele><time>2026-04-01T18:17:21.999Z</time></trkpt><trkpt lat="42.43101371002595" lon="-8.069004821928063"><ele>396.0</ele><time>2026-04-01T18:17:23.999Z</time></trkpt><trkpt lat="42.43104662228687" lon="-8.06908338974767"><ele>396.0</ele><time>2026-04-01T18:17:24.999Z</time></trkpt><trkpt lat="42.4310768342604" lon="-8.069161620126351"><ele>396.0</ele><time>2026-04-01T18:17:25.999Z</time></trkpt><trkpt lat="42.43111477710967" lon="-8.069240905411432"><ele>396.0</ele><time>2026-04-01T18:17:26.999Z</time></trkpt><trkpt lat="42.431152717466674" lon="-8.069322365872791"><ele>396.0</ele><time>2026-04-01T18:17:27.999Z</time></trkpt><trkpt lat="42.431189677758596" lon="-8.069403740840706"><ele>396.0</ele><time>2026-04-01T18:17:28.999Z</time></trkpt><trkpt lat="42.43122952515038" lon="-8.069486971542105"><ele>396.0</ele><time>2026-04-01T18:17:29.999Z</time></trkpt><trkpt lat="42.43126349417991" lon="-8.069563461711903"><ele>396.0</ele><time>2026-04-01T18:17:30.999Z</time></trkpt><trkpt lat="42.431300431431154" lon="-8.06964061587115"><ele>396.0</ele><time>2026-04-01T18:17:31.999Z</time></trkpt><trkpt lat="42.43133422189352" lon="-8.069714805632486"><ele>396.0</ele><time>2026-04-01T18:17:32.999Z</time></trkpt><trkpt lat="42.43136735134947" lon="-8.0697979570905"><ele>396.0</ele><time>2026-04-01T18:17:33.999Z</time></trkpt><trkpt lat="42.431401583625465" lon="-8.06988960750467"><ele>396.0</ele><time>2026-04-01T18:17:34.999Z</time></trkpt><trkpt lat="42.431440336379" lon="-8.069986876080216"><ele>396.0</ele><time>2026-04-01T18:17:35.999Z</time></trkpt><trkpt lat="42.431479400590014" lon="-8.070087814947348"><ele>396.0</ele><time>2026-04-01T18:17:36.999Z</time></trkpt><trkpt lat="42.431525519094336" lon="-8.070189195815143"><ele>396.0</ele><time>2026-04-01T18:17:37.999Z</time></trkpt><trkpt lat="42.43157033667653" lon="-8.070288331383347"><ele>396.0</ele><time>2026-04-01T18:17:38.999Z</time></trkpt><trkpt lat="42.43161549683418" lon="-8.070390320524536"><ele>396.0</ele><time>2026-04-01T18:17:39.999Z</time></trkpt><trkpt lat="42.43165992076345" lon="-8.070486471961052"><ele>396.0</ele><time>2026-04-01T18:17:40.999Z</time></trkpt><trkpt lat="42.43170032174218" lon="-8.07058541711482"><ele>396.0</ele><time>2026-04-01T18:17:41.999Z</time></trkpt><trkpt lat="42.4317391446367" lon="-8.070678515237965"><ele>396.0</ele><time>2026-04-01T18:17:42.999Z</time></trkpt><trkpt lat="42.43178214891369" lon="-8.070771445102977"><ele>396.0</ele><time>2026-04-01T18:17:43.999Z</time></trkpt><trkpt lat="42.43182857651009" lon="-8.070871426246317"><ele>396.0</ele><time>2026-04-01T18:17:44.999Z</time></trkpt><trkpt lat="42.43187033209022" lon="-8.070966105185938"><ele>396.0</ele><time>2026-04-01T18:17:45.999Z</time></trkpt><trkpt lat="42.431915606889994" lon="-8.07106780370408"><ele>396.0</ele><time>2026-04-01T18:17:46.999Z</time></trkpt><trkpt lat="42.43195804576118" lon="-8.07116231395131"><ele>396.0</ele><time>2026-04-01T18:17:47.999Z</time></trkpt><trkpt lat="42.43199784187774" lon="-8.07123645214426"><ele>396.0</ele><time>2026-04-01T18:17:48.999Z</time></trkpt><trkpt lat="42.43204880168869" lon="-8.071355061009912"><ele>396.0</ele><time>2026-04-01T18:17:50.999Z</time></trkpt><trkpt lat="42.432101665578664" lon="-8.071481810016989"><ele>396.0</ele><time>2026-04-01T18:17:52.999Z</time></trkpt><trkpt lat="42.43213111432757" lon="-8.071557200960422"><ele>396.0</ele><time>2026-04-01T18:17:54.999Z</time></trkpt><trkpt lat="42.43218222412057" lon="-8.071668565636086"><ele>396.0</ele><time>2026-04-01T18:17:56.999Z</time></trkpt><trkpt lat="42.43222564489248" lon="-8.07177043615101"><ele>396.4</ele><time>2026-04-01T18:17:57.999Z</time></trkpt><trkpt lat="42.43227308681614" lon="-8.071873983528038"><ele>396.8</ele><time>2026-04-01T18:17:58.999Z</time></trkpt><trkpt lat="42.43231416157374" lon="-8.071969997992197"><ele>397.2</ele><time>2026-04-01T18:17:59.999Z</time></trkpt><trkpt lat="42.43235051071272" lon="-8.072054407633118"><ele>397.59999999999997</ele><time>2026-04-01T18:18:00.999Z</time></trkpt><trkpt lat="42.43241794385739" lon="-8.072217221698207"><ele>398.0</ele><time>2026-04-01T18:18:02.999Z</time></trkpt><trkpt lat="42.43246445446701" lon="-8.072317919177493"><ele>397.99999999999994</ele><time>2026-04-01T18:18:03.999Z</time></trkpt><trkpt lat="42.43251213307948" lon="-8.07242936459443"><ele>398.0</ele><time>2026-04-01T18:18:04.999Z</time></trkpt><trkpt lat="42.432564977291044" lon="-8.072538382548686"><ele>398.0</ele><time>2026-04-01T18:18:05.999Z</time></trkpt><trkpt lat="42.432606702758754" lon="-8.072648549126422"><ele>398.0</ele><time>2026-04-01T18:18:06.999Z</time></trkpt><trkpt lat="42.43265230669012" lon="-8.072749661361787"><ele>397.99999999999994</ele><time>2026-04-01T18:18:07.999Z</time></trkpt><trkpt lat="42.43269256630524" lon="-8.072825350044631"><ele>398.0</ele><time>2026-04-01T18:18:08.999Z</time></trkpt><trkpt lat="42.43273307385886" lon="-8.072925722646271"><ele>398.5</ele><time>2026-04-01T18:18:10.999Z</time></trkpt><trkpt lat="42.43276735653367" lon="-8.073006398562036"><ele>399.0</ele><time>2026-04-01T18:18:16.999Z</time></trkpt><trkpt lat="42.43281933282155" lon="-8.073086324905287"><ele>399.5</ele><time>2026-04-01T18:18:39Z</time></trkpt><trkpt lat="42.4328729469254" lon="-8.073206175609794"><ele>400.0</ele><time>2026-04-01T18:18:41Z</time></trkpt><trkpt lat="42.43268385426457" lon="-8.073300651113598"><ele>400.4</ele><time>2026-04-01T18:18:42Z</time></trkpt><trkpt lat="42.43259615127636" lon="-8.073374584566931"><ele>400.8</ele><time>2026-04-01T18:18:44Z</time></trkpt><trkpt lat="42.432505267748276" lon="-8.073450990062085"><ele>401.20000000000005</ele><time>2026-04-01T18:18:46Z</time></trkpt><trkpt lat="42.4324368390393" lon="-8.07353333161364"><ele>401.6</ele><time>2026-04-01T18:18:48Z</time></trkpt><trkpt lat="42.4323684301459" lon="-8.073569778140175"><ele>402.0</ele><time>2026-04-01T18:18:50Z</time></trkpt><trkpt lat="42.43229572225102" lon="-8.073624743894442"><ele>402.0</ele><time>2026-04-01T18:18:52Z</time></trkpt><trkpt lat="42.43222775989803" lon="-8.073691094682443"><ele>402.0</ele><time>2026-04-01T18:18:54Z</time></trkpt><trkpt lat="42.43215472421072" lon="-8.073758647353394"><ele>402.0</ele><time>2026-04-01T18:18:56Z</time></trkpt><trkpt lat="42.432054842906496" lon="-8.073807482600785"><ele>402.0</ele><time>2026-04-01T18:18:58Z</time></trkpt><trkpt lat="42.4319892767698" lon="-8.073887173269966"><ele>402.0</ele><time>2026-04-01T18:18:59Z</time></trkpt><trkpt lat="42.43192062932114" lon="-8.073945727943812"><ele>402.0</ele><time>2026-04-01T18:18:59.999Z</time></trkpt><trkpt lat="42.431851436588325" lon="-8.073978632279964"><ele>402.0</ele><time>2026-04-01T18:19:00.999Z</time></trkpt><trkpt lat="42.43179055329491" lon="-8.074028077679863"><ele>402.0</ele><time>2026-04-01T18:19:01.999Z</time></trkpt><trkpt lat="42.43173567421278" lon="-8.074074482769257"><ele>402.0</ele><time>2026-04-01T18:19:02.999Z</time></trkpt><trkpt lat="42.43165049145905" lon="-8.074145546470186"><ele>402.0</ele><time>2026-04-01T18:19:04.999Z</time></trkpt><trkpt lat="42.4315944562901" lon="-8.074203881244046"><ele>402.0</ele><time>2026-04-01T18:19:06.999Z</time></trkpt><trkpt lat="42.43151918485003" lon="-8.074257239047771"><ele>402.0</ele><time>2026-04-01T18:19:09.999Z</time></trkpt><trkpt lat="42.4314354471843" lon="-8.074309337889208"><ele>402.0</ele><time>2026-04-01T18:19:12.999Z</time></trkpt><trkpt lat="42.43135881218869" lon="-8.07437179053138"><ele>402.0</ele><time>2026-04-01T18:19:15.999Z</time></trkpt><trkpt lat="42.431293856662876" lon="-8.074411053904788"><ele>402.0</ele><time>2026-04-01T18:19:18.999Z</time></trkpt><trkpt lat="42.431232321708585" lon="-8.074437839524537"><ele>402.0</ele><time>2026-04-01T18:19:20.999Z</time></trkpt><trkpt lat="42.43114552225923" lon="-8.07448901994126"><ele>402.0</ele><time>2026-04-01T18:19:23.999Z</time></trkpt><trkpt lat="42.43106358971915" lon="-8.074544949082298"><ele>402.0</ele><time>2026-04-01T18:19:25.999Z</time></trkpt><trkpt lat="42.430972104496824" lon="-8.07457837508408"><ele>401.8333333333333</ele><time>2026-04-01T18:19:27.999Z</time></trkpt><trkpt lat="42.43089302071735" lon="-8.074631333557184"><ele>401.66666666666663</ele><time>2026-04-01T18:19:29.999Z</time></trkpt><trkpt lat="42.430783699937216" lon="-8.074671874015788"><ele>401.5</ele><time>2026-04-01T18:19:31.999Z</time></trkpt><trkpt lat="42.43069251780257" lon="-8.074722903349665"><ele>401.3333333333333</ele><time>2026-04-01T18:19:33.999Z</time></trkpt><trkpt lat="42.430623971058054" lon="-8.074752683180916"><ele>401.16666666666663</ele><time>2026-04-01T18:19:53.999Z</time></trkpt><trkpt lat="42.430558074741654" lon="-8.074779538747714"><ele>401.0</ele><time>2026-04-01T18:19:57.999Z</time></trkpt><trkpt lat="42.43055775733105" lon="-8.074901326367808"><ele>401.6</ele><time>2026-04-01T18:20:05.999Z</time></trkpt><trkpt lat="42.430569278018275" lon="-8.07502927264088"><ele>402.20000000000005</ele><time>2026-04-01T18:20:07.999Z</time></trkpt><trkpt lat="42.430613764308184" lon="-8.075160113744644"><ele>402.79999999999995</ele><time>2026-04-01T18:20:09.999Z</time></trkpt><trkpt lat="42.43063527514634" lon="-8.075259291036625"><ele>403.4</ele><time>2026-04-01T18:20:11.999Z</time></trkpt><trkpt lat="42.43064778658019" lon="-8.075394093611655"><ele>404.0</ele><time>2026-04-01T18:20:16.999Z</time></trkpt><trkpt lat="42.43068446003189" lon="-8.075477810378763"><ele>404.0</ele><time>2026-04-01T18:20:17.999Z</time></trkpt><trkpt lat="42.43071021017436" lon="-8.075590322954762"><ele>404.0</ele><time>2026-04-01T18:20:18.999Z</time></trkpt><trkpt lat="42.43073874494343" lon="-8.075715002859642"><ele>404.0</ele><time>2026-04-01T18:20:19.999Z</time></trkpt><trkpt lat="42.4307649366947" lon="-8.075829444860938"><ele>404.0</ele><time>2026-04-01T18:20:20.999Z</time></trkpt><trkpt lat="42.430789638997744" lon="-8.075937379066655"><ele>404.0</ele><time>2026-04-01T18:20:21.999Z</time></trkpt><trkpt lat="42.4308196452358" lon="-8.076068488736485"><ele>404.0</ele><time>2026-04-01T18:20:22.999Z</time></trkpt><trkpt lat="42.43085341303745" lon="-8.076217575252118"><ele>404.0</ele><time>2026-04-01T18:20:23.999Z</time></trkpt><trkpt lat="42.4308877239246" lon="-8.07637787990138"><ele>404.0</ele><time>2026-04-01T18:20:24.999Z</time></trkpt><trkpt lat="42.43091759803705" lon="-8.076515317299025"><ele>404.0</ele><time>2026-04-01T18:20:25.999Z</time></trkpt><trkpt lat="42.430943576301466" lon="-8.076634831339154"><ele>404.0</ele><time>2026-04-01T18:20:26.999Z</time></trkpt><trkpt lat="42.43096347365992" lon="-8.076727319551253"><ele>404.2857142857143</ele><time>2026-04-01T18:20:27.999Z</time></trkpt><trkpt lat="42.430983372578346" lon="-8.076820298188593"><ele>404.57142857142856</ele><time>2026-04-01T18:20:29.999Z</time></trkpt><trkpt lat="42.43100095790454" lon="-8.076902466546747"><ele>404.8571428571429</ele><time>2026-04-01T18:20:39Z</time></trkpt><trkpt lat="42.4310034911845" lon="-8.076988700777033"><ele>405.1428571428571</ele><time>2026-04-01T18:20:42Z</time></trkpt><trkpt lat="42.43103268737097" lon="-8.07709322894928"><ele>405.42857142857144</ele><time>2026-04-01T18:20:46Z</time></trkpt><trkpt lat="42.43106107037284" lon="-8.077192390326168"><ele>405.7142857142857</ele><time>2026-04-01T18:20:49Z</time></trkpt><trkpt lat="42.43111191662706" lon="-8.077290666948763"><ele>406.0</ele><time>2026-04-01T18:20:51Z</time></trkpt><trkpt lat="42.43116062421537" lon="-8.077412422072715"><ele>406.33333333333337</ele><time>2026-04-01T18:20:53Z</time></trkpt><trkpt lat="42.431187389932596" lon="-8.077493528547642"><ele>406.6666666666667</ele><time>2026-04-01T18:20:56Z</time></trkpt><trkpt lat="42.43124070122093" lon="-8.077572531819477"><ele>407.0</ele><time>2026-04-01T18:20:58Z</time></trkpt><trkpt lat="42.43134112078965" lon="-8.077652240474421"><ele>407.33333333333337</ele><time>2026-04-01T18:21:00Z</time></trkpt><trkpt lat="42.43136836313308" lon="-8.077744022342756"><ele>407.6666666666667</ele><time>2026-04-01T18:21:01Z</time></trkpt><trkpt lat="42.43138773326826" lon="-8.077869196477016"><ele>408.0</ele><time>2026-04-01T18:21:02Z</time></trkpt><trkpt lat="42.43141006019625" lon="-8.077961904610053"><ele>408.2</ele><time>2026-04-01T18:21:03Z</time></trkpt><trkpt lat="42.43142858042094" lon="-8.078050218563284"><ele>408.4</ele><time>2026-04-01T18:21:04Z</time></trkpt><trkpt lat="42.431456713186755" lon="-8.078192067953836"><ele>408.59999999999997</ele><time>2026-04-01T18:21:06Z</time></trkpt><trkpt lat="42.43145334203452" lon="-8.078362452069205"><ele>408.79999999999995</ele><time>2026-04-01T18:21:08Z</time></trkpt><trkpt lat="42.43142396194012" lon="-8.078485280020693"><ele>409.0</ele><time>2026-04-01T18:21:09Z</time></trkpt><trkpt lat="42.43137396933944" lon="-8.078594347253906"><ele>409.00000000000006</ele><time>2026-04-01T18:21:10Z</time></trkpt><trkpt lat="42.431309185893795" lon="-8.078686507838201"><ele>409.0</ele><time>2026-04-01T18:21:11Z</time></trkpt><trkpt lat="42.43123424319376" lon="-8.07876988912644"><ele>409.0</ele><time>2026-04-01T18:21:12Z</time></trkpt><trkpt lat="42.431166906972535" lon="-8.078828370390543"><ele>409.0</ele><time>2026-04-01T18:21:13Z</time></trkpt><trkpt lat="42.43110731828254" lon="-8.078879838198226"><ele>409.00000000000006</ele><time>2026-04-01T18:21:14Z</time></trkpt><trkpt lat="42.43103017594629" lon="-8.078938292197074"><ele>409.0</ele><time>2026-04-01T18:21:15Z</time></trkpt><trkpt lat="42.430953036405356" lon="-8.0790156655664"><ele>408.1666666666667</ele><time>2026-04-01T18:21:16Z</time></trkpt><trkpt lat="42.43088238231782" lon="-8.07910531737005"><ele>407.33333333333337</ele><time>2026-04-01T18:21:17Z</time></trkpt><trkpt lat="42.430796755373" lon="-8.07915626896534"><ele>406.5</ele><time>2026-04-01T18:21:18Z</time></trkpt><trkpt lat="42.43072686926127" lon="-8.079224454757922"><ele>405.66666666666663</ele><time>2026-04-01T18:21:19Z</time></trkpt><trkpt lat="42.4306585642494" lon="-8.079277237458784"><ele>404.8333333333333</ele><time>2026-04-01T18:21:20Z</time></trkpt><trkpt lat="42.43060025568831" lon="-8.07932604036243"><ele>404.0</ele><time>2026-04-01T18:21:21Z</time></trkpt><trkpt lat="42.430551307995124" lon="-8.079422853678084"><ele>404.0</ele><time>2026-04-01T18:21:23Z</time></trkpt><trkpt lat="42.430475582735575" lon="-8.079446696016399"><ele>404.0</ele><time>2026-04-01T18:23:22Z</time></trkpt><trkpt lat="42.430394201778306" lon="-8.079475841909847"><ele>404.0</ele><time>2026-04-01T18:23:27Z</time></trkpt><trkpt lat="42.43045897040568" lon="-8.079454784005813"><ele>404.0</ele><time>2026-04-01T18:23:31Z</time></trkpt><trkpt lat="42.4305754794258" lon="-8.079330458178655"><ele>404.0</ele><time>2026-04-01T18:23:39.018Z</time></trkpt><trkpt lat="42.43052976897585" lon="-8.079094454411086"><ele>403.66666666666663</ele><time>2026-04-01T18:23:42.021Z</time></trkpt><trkpt lat="42.43045787074952" lon="-8.07916224711978"><ele>403.33333333333337</ele><time>2026-04-01T18:23:59.999Z</time></trkpt><trkpt lat="42.43045625280836" lon="-8.078887481249943"><ele>403.0</ele><time>2026-04-01T18:24:09.999Z</time></trkpt><trkpt lat="42.43046944057393" lon="-8.079176533625775"><ele>403.0</ele><time>2026-04-01T18:24:13.999Z</time></trkpt><trkpt lat="42.43052636765776" lon="-8.07921539239063"><ele>403.0</ele><time>2026-04-01T18:24:25.999Z</time></trkpt><trkpt lat="42.43042922437431" lon="-8.079001441039475"><ele>403.0</ele><time>2026-04-01T18:24:44Z</time></trkpt><trkpt lat="42.43042045210394" lon="-8.079279401525186"><ele>403.0</ele><time>2026-04-01T18:24:49Z</time></trkpt><trkpt lat="42.430490198128744" lon="-8.079193710341354"><ele>403.0</ele><time>2026-04-01T18:25:06Z</time></trkpt><trkpt lat="42.43037644155596" lon="-8.07908709608075"><ele>403.0</ele><time>2026-04-01T18:25:25Z</time></trkpt><trkpt lat="42.43039633462686" lon="-8.07919693234404"><ele>403.0</ele><time>2026-04-01T18:25:54.416Z</time></trkpt><trkpt lat="42.43048622783141" lon="-8.079362086540687"><ele>403.0</ele><time>2026-04-01T18:26:06.415Z</time></trkpt><trkpt lat="42.43028653256252" lon="-8.079232208343003"><ele>403.0</ele><time>2026-04-01T18:27:26.998Z</time></trkpt><trkpt lat="42.430371401505795" lon="-8.079262664672257"><ele>403.0</ele><time>2026-04-01T18:27:37Z</time></trkpt><trkpt lat="42.43041751817153" lon="-8.079200882350262"><ele>403.0</ele><time>2026-04-01T18:28:07Z</time></trkpt><trkpt lat="42.43049004332227" lon="-8.079242300369817"><ele>403.14285714285717</ele><time>2026-04-01T18:28:54.999Z</time></trkpt><trkpt lat="42.430571934166" lon="-8.079289133664714"><ele>403.2857142857143</ele><time>2026-04-01T18:28:55.999Z</time></trkpt><trkpt lat="42.43054589875166" lon="-8.07937472701851"><ele>403.42857142857144</ele><time>2026-04-01T18:30:39.999Z</time></trkpt><trkpt lat="42.43057886914889" lon="-8.079475834299434"><ele>403.57142857142856</ele><time>2026-04-01T18:33:18.999Z</time></trkpt><trkpt lat="42.43064629753326" lon="-8.07947590147234"><ele>403.71428571428567</ele><time>2026-04-01T18:33:22.999Z</time></trkpt><trkpt lat="42.430698587937755" lon="-8.079541983579023"><ele>403.85714285714283</ele><time>2026-04-01T18:33:52Z</time></trkpt><trkpt lat="42.43067654368722" lon="-8.079455920624007"><ele>404.0</ele><time>2026-04-01T18:35:10.999Z</time></trkpt><trkpt lat="42.430620084571736" lon="-8.079407109956186"><ele>403.99999999999994</ele><time>2026-04-01T18:35:17.999Z</time></trkpt><trkpt lat="42.43054295045402" lon="-8.079432878387589"><ele>404.0</ele><time>2026-04-01T18:35:26.999Z</time></trkpt><trkpt lat="42.430504092815944" lon="-8.0793361389399"><ele>404.0</ele><time>2026-04-01T18:35:34.999Z</time></trkpt><trkpt lat="42.43045793144125" lon="-8.079198282513275"><ele>404.0</ele><time>2026-04-01T18:35:36.999Z</time></trkpt><trkpt lat="42.43041463818128" lon="-8.079115483512533"><ele>403.99999999999994</ele><time>2026-04-01T18:35:38.999Z</time></trkpt><trkpt lat="42.43035116496108" lon="-8.079026510204969"><ele>404.0</ele><time>2026-04-01T18:35:41.999Z</time></trkpt><trkpt lat="42.43031084490728" lon="-8.078948636777957"><ele>403.5</ele><time>2026-04-01T18:35:43.999Z</time></trkpt><trkpt lat="42.430443541221216" lon="-8.07937228252601"><ele>403.0</ele><time>2026-04-01T18:35:47.999Z</time></trkpt><trkpt lat="42.43031969607403" lon="-8.07907175942553"><ele>403.0</ele><time>2026-04-01T18:35:52.998Z</time></trkpt><trkpt lat="42.430475516123174" lon="-8.079334449852736"><ele>403.0</ele><time>2026-04-01T18:36:17.413Z</time></trkpt><trkpt lat="42.43032895854834" lon="-8.079210262381501"><ele>403.0</ele><time>2026-04-01T18:36:30.998Z</time></trkpt><trkpt lat="42.43025558984138" lon="-8.079197389224365"><ele>403.00000000000006</ele><time>2026-04-01T18:36:39Z</time></trkpt><trkpt lat="42.43034767541717" lon="-8.079239445333311"><ele>403.0</ele><time>2026-04-01T18:36:44Z</time></trkpt><trkpt lat="42.43042559045129" lon="-8.07921140448612"><ele>403.0</ele><time>2026-04-01T18:36:45Z</time></trkpt><trkpt lat="42.430515355263346" lon="-8.07928520876953"><ele>403.0</ele><time>2026-04-01T18:36:47Z</time></trkpt><trkpt lat="42.43054916703135" lon="-8.07936476232439"><ele>403.00000000000006</ele><time>2026-04-01T18:36:48Z</time></trkpt><trkpt lat="42.43050501946253" lon="-8.079462150304327"><ele>403.0</ele><time>2026-04-01T18:37:08Z</time></trkpt><trkpt lat="42.43046866346156" lon="-8.079365407141792"><ele>403.1666666666667</ele><time>2026-04-01T18:37:11Z</time></trkpt><trkpt lat="42.43048972115647" lon="-8.079277272042981"><ele>403.33333333333337</ele><time>2026-04-01T18:37:14Z</time></trkpt><trkpt lat="42.430583857403256" lon="-8.079255030606262"><ele>403.5</ele><time>2026-04-01T18:37:16Z</time></trkpt><trkpt lat="42.43057562513629" lon="-8.079388346869717"><ele>403.66666666666663</ele><time>2026-04-01T18:37:18Z</time></trkpt><trkpt lat="42.43058365060687" lon="-8.079283852177772"><ele>403.8333333333333</ele><time>2026-04-01T18:38:14.999Z</time></trkpt><trkpt lat="42.43065317366693" lon="-8.079225635315765"><ele>404.0</ele><time>2026-04-01T18:38:15.999Z</time></trkpt><trkpt lat="42.43072084420184" lon="-8.079169996496553"><ele>404.79999999999995</ele><time>2026-04-01T18:38:16.999Z</time></trkpt><trkpt lat="42.43079677549225" lon="-8.07909262173306"><ele>405.59999999999997</ele><time>2026-04-01T18:38:18.999Z</time></trkpt><trkpt lat="42.43088784068645" lon="-8.079007289546478"><ele>406.4</ele><time>2026-04-01T18:38:20.999Z</time></trkpt><trkpt lat="42.43094932774593" lon="-8.078970772989532"><ele>407.2</ele><time>2026-04-01T18:38:21.999Z</time></trkpt><trkpt lat="42.431045157292836" lon="-8.078915753044033"><ele>408.0</ele><time>2026-04-01T18:38:23.999Z</time></trkpt><trkpt lat="42.43110797760271" lon="-8.07885095733478"><ele>408.0</ele><time>2026-04-01T18:38:25.999Z</time></trkpt><trkpt lat="42.431183651676136" lon="-8.07879497012398"><ele>408.0</ele><time>2026-04-01T18:38:27.999Z</time></trkpt><trkpt lat="42.43124185915459" lon="-8.078731971104368"><ele>408.0</ele><time>2026-04-01T18:38:29.999Z</time></trkpt><trkpt lat="42.43130138848908" lon="-8.078688740828039"><ele>408.0</ele><time>2026-04-01T18:38:31.999Z</time></trkpt><trkpt lat="42.43136395160528" lon="-8.078629764202073"><ele>408.0</ele><time>2026-04-01T18:38:34.999Z</time></trkpt><trkpt lat="42.43142219356003" lon="-8.07848370552192"><ele>408.0</ele><time>2026-04-01T18:38:37.999Z</time></trkpt><trkpt lat="42.43145953396063" lon="-8.078387694443489"><ele>408.1666666666667</ele><time>2026-04-01T18:38:40Z</time></trkpt><trkpt lat="42.43148239300747" lon="-8.07830485199984"><ele>408.33333333333337</ele><time>2026-04-01T18:38:42Z</time></trkpt><trkpt lat="42.431468095378534" lon="-8.078190511680077"><ele>408.5</ele><time>2026-04-01T18:38:44Z</time></trkpt><trkpt lat="42.43143477556474" lon="-8.07808410748932"><ele>408.6666666666667</ele><time>2026-04-01T18:38:47Z</time></trkpt><trkpt lat="42.431424224437215" lon="-8.077989250287745"><ele>408.83333333333337</ele><time>2026-04-01T18:38:50Z</time></trkpt><trkpt lat="42.4313841511319" lon="-8.077875078302077"><ele>409.0</ele><time>2026-04-01T18:38:53Z</time></trkpt><trkpt lat="42.43131080713932" lon="-8.077805407921103"><ele>408.79999999999995</ele><time>2026-04-01T18:38:56Z</time></trkpt><trkpt lat="42.43124915027779" lon="-8.07771188485559"><ele>408.59999999999997</ele><time>2026-04-01T18:38:59Z</time></trkpt><trkpt lat="42.431226143275175" lon="-8.077598318436724"><ele>408.4</ele><time>2026-04-01T18:39:01Z</time></trkpt><trkpt lat="42.431173487365434" lon="-8.077460465060655"><ele>408.2</ele><time>2026-04-01T18:39:03Z</time></trkpt><trkpt lat="42.431131733061804" lon="-8.077391688793995"><ele>408.0</ele><time>2026-04-01T18:39:05Z</time></trkpt><trkpt lat="42.43110736724539" lon="-8.077219328522661"><ele>407.59999999999997</ele><time>2026-04-01T18:39:25.999Z</time></trkpt><trkpt lat="42.43106117626397" lon="-8.077124009774515"><ele>407.2</ele><time>2026-04-01T18:39:26.999Z</time></trkpt><trkpt lat="42.431024767094684" lon="-8.076976722262147"><ele>406.8</ele><time>2026-04-01T18:39:27.999Z</time></trkpt><trkpt lat="42.430957964585744" lon="-8.076874363451061"><ele>406.4</ele><time>2026-04-01T18:39:28.999Z</time></trkpt><trkpt lat="42.430934074072766" lon="-8.076751939935855"><ele>406.0</ele><time>2026-04-01T18:39:29.999Z</time></trkpt><trkpt lat="42.43090792525509" lon="-8.07663050634251"><ele>405.6</ele><time>2026-04-01T18:39:30.999Z</time></trkpt><trkpt lat="42.43088841894558" lon="-8.076540766643433"><ele>405.20000000000005</ele><time>2026-04-01T18:39:31.999Z</time></trkpt><trkpt lat="42.43087060690395" lon="-8.076458821582914"><ele>404.79999999999995</ele><time>2026-04-01T18:39:32.999Z</time></trkpt><trkpt lat="42.43085178944415" lon="-8.076372251012229"><ele>404.4</ele><time>2026-04-01T18:39:33.999Z</time></trkpt><trkpt lat="42.430825471727864" lon="-8.076251175144929"><ele>404.0</ele><time>2026-04-01T18:39:35.999Z</time></trkpt><trkpt lat="42.430680680332635" lon="-8.076372890844137"><ele>404.0</ele><time>2026-04-01T18:39:40.999Z</time></trkpt><trkpt lat="42.43062214112558" lon="-8.076493742601233"><ele>404.0</ele><time>2026-04-01T18:39:42.999Z</time></trkpt><trkpt lat="42.430561791933194" lon="-8.076619658893632"><ele>404.0</ele><time>2026-04-01T18:39:44.999Z</time></trkpt><trkpt lat="42.43048871341744" lon="-8.076707782687796"><ele>404.0</ele><time>2026-04-01T18:39:46.999Z</time></trkpt><trkpt lat="42.43040929627877" lon="-8.076600364097722"><ele>404.0</ele><time>2026-04-01T18:39:54.999Z</time></trkpt><trkpt lat="42.430414284825645" lon="-8.076506247409393"><ele>403.3333333333333</ele><time>2026-04-01T18:39:55.999Z</time></trkpt><trkpt lat="42.43039050086307" lon="-8.076402403283392"><ele>402.66666666666663</ele><time>2026-04-01T18:39:56.999Z</time></trkpt><trkpt lat="42.43037244898516" lon="-8.076273119432308"><ele>402.0</ele><time>2026-04-01T18:39:57.999Z</time></trkpt><trkpt lat="42.430342158183215" lon="-8.076169328454712"><ele>401.33333333333337</ele><time>2026-04-01T18:39:58.999Z</time></trkpt><trkpt lat="42.43032742102912" lon="-8.076062902998164"><ele>400.6666666666667</ele><time>2026-04-01T18:39:59.999Z</time></trkpt><trkpt lat="42.43031343606198" lon="-8.075963154202631"><ele>400.0</ele><time>2026-04-01T18:40:00.999Z</time></trkpt><trkpt lat="42.43029375822" lon="-8.07586496862094"><ele>400.00000000000006</ele><time>2026-04-01T18:40:01.999Z</time></trkpt><trkpt lat="42.43027342806682" lon="-8.07577289759857"><ele>400.0</ele><time>2026-04-01T18:40:02.999Z</time></trkpt><trkpt lat="42.430253149657965" lon="-8.07567339367803"><ele>400.0</ele><time>2026-04-01T18:40:03.999Z</time></trkpt><trkpt lat="42.43023530610314" lon="-8.075590667364217"><ele>400.0</ele><time>2026-04-01T18:40:04.999Z</time></trkpt><trkpt lat="42.43021254247094" lon="-8.0754427187958"><ele>400.00000000000006</ele><time>2026-04-01T18:40:06.999Z</time></trkpt><trkpt lat="42.43019196780152" lon="-8.075310819583745"><ele>400.0</ele><time>2026-04-01T18:40:08.999Z</time></trkpt><trkpt lat="42.43015929437472" lon="-8.075189764830881"><ele>400.0</ele><time>2026-04-01T18:40:10.999Z</time></trkpt><trkpt lat="42.43013401439973" lon="-8.075053205176461"><ele>400.0</ele><time>2026-04-01T18:40:12.999Z</time></trkpt><trkpt lat="42.43011727107477" lon="-8.074957857346432"><ele>400.0</ele><time>2026-04-01T18:40:14.999Z</time></trkpt><trkpt lat="42.43023989680873" lon="-8.074904388568076"><ele>400.0</ele><time>2026-04-01T18:40:18.999Z</time></trkpt><trkpt lat="42.43031824950061" lon="-8.074914654965"><ele>400.0</ele><time>2026-04-01T18:41:07Z</time></trkpt><trkpt lat="42.43037749082023" lon="-8.074873367899654"><ele>399.25</ele><time>2026-04-01T18:41:18Z</time></trkpt><trkpt lat="42.43044442700877" lon="-8.074846880643163"><ele>398.5</ele><time>2026-04-01T18:41:24Z</time></trkpt><trkpt lat="42.43040559993189" lon="-8.07449301308807"><ele>397.75</ele><time>2026-04-01T18:41:30Z</time></trkpt><trkpt lat="42.43039348254789" lon="-8.074344221578874"><ele>397.0</ele><time>2026-04-01T18:41:32Z</time></trkpt><trkpt lat="42.4303989640501" lon="-8.074251590706211"><ele>397.00000000000006</ele><time>2026-04-01T18:41:33Z</time></trkpt><trkpt lat="42.43037807126919" lon="-8.074162082178566"><ele>397.0</ele><time>2026-04-01T18:41:33.999Z</time></trkpt><trkpt lat="42.43033860811586" lon="-8.074005151454896"><ele>397.0</ele><time>2026-04-01T18:41:35.999Z</time></trkpt><trkpt lat="42.43032066879857" lon="-8.073916871700158"><ele>397.0</ele><time>2026-04-01T18:41:36.999Z</time></trkpt><trkpt lat="42.43030151717789" lon="-8.073818949793365"><ele>397.00000000000006</ele><time>2026-04-01T18:41:37.999Z</time></trkpt><trkpt lat="42.43028178609648" lon="-8.073716888349418"><ele>397.0</ele><time>2026-04-01T18:41:38.999Z</time></trkpt><trkpt lat="42.430255114568936" lon="-8.073613399738258"><ele>397.00000000000006</ele><time>2026-04-01T18:41:39.999Z</time></trkpt><trkpt lat="42.430232616908086" lon="-8.07350525659084"><ele>397.0</ele><time>2026-04-01T18:41:40.999Z</time></trkpt><trkpt lat="42.43021323933998" lon="-8.07339945037016"><ele>397.0</ele><time>2026-04-01T18:41:41.999Z</time></trkpt><trkpt lat="42.43018049040972" lon="-8.073304913545773"><ele>397.0</ele><time>2026-04-01T18:41:42.999Z</time></trkpt><trkpt lat="42.43016930982024" lon="-8.073208253053762"><ele>397.00000000000006</ele><time>2026-04-01T18:41:43.999Z</time></trkpt><trkpt lat="42.4301475016476" lon="-8.073109795204624"><ele>397.0</ele><time>2026-04-01T18:41:44.999Z</time></trkpt><trkpt lat="42.43012873591828" lon="-8.073018161689605"><ele>396.50000000000006</ele><time>2026-04-01T18:41:45.999Z</time></trkpt><trkpt lat="42.43011387480032" lon="-8.072919377053248"><ele>396.0</ele><time>2026-04-01T18:41:46.999Z</time></trkpt><trkpt lat="42.430089772210415" lon="-8.072836559254462"><ele>395.5</ele><time>2026-04-01T18:41:47.999Z</time></trkpt><trkpt lat="42.43007383763503" lon="-8.07274195981398"><ele>395.0</ele><time>2026-04-01T18:41:48.999Z</time></trkpt><trkpt lat="42.43005221018976" lon="-8.072651084122045"><ele>394.50000000000006</ele><time>2026-04-01T18:41:49.999Z</time></trkpt><trkpt lat="42.430019047076414" lon="-8.072491241729855"><ele>394.0</ele><time>2026-04-01T18:41:51.999Z</time></trkpt><trkpt lat="42.42996491756802" lon="-8.072345764232402"><ele>394.00000000000006</ele><time>2026-04-01T18:41:53.999Z</time></trkpt><trkpt lat="42.429861060157165" lon="-8.072336132159254"><ele>394.0</ele><time>2026-04-01T18:41:55.999Z</time></trkpt><trkpt lat="42.4298099446787" lon="-8.072397982858556"><ele>394.0</ele><time>2026-04-01T18:41:56.999Z</time></trkpt><trkpt lat="42.429766135617086" lon="-8.07246850596227"><ele>394.0</ele><time>2026-04-01T18:41:57.999Z</time></trkpt><trkpt lat="42.42971889786339" lon="-8.0725327486625"><ele>394.00000000000006</ele><time>2026-04-01T18:41:58.999Z</time></trkpt><trkpt lat="42.42965563458011" lon="-8.072602844341866"><ele>394.0</ele><time>2026-04-01T18:42:00.999Z</time></trkpt><trkpt lat="42.429521864496515" lon="-8.072466186613365"><ele>392.4</ele><time>2026-04-01T18:42:05.999Z</time></trkpt><trkpt lat="42.42946119982137" lon="-8.07237693773932"><ele>390.79999999999995</ele><time>2026-04-01T18:42:06.999Z</time></trkpt><trkpt lat="42.4294199705406" lon="-8.072288178823094"><ele>389.20000000000005</ele><time>2026-04-01T18:42:07.999Z</time></trkpt><trkpt lat="42.42937263760714" lon="-8.072186279823308"><ele>387.6</ele><time>2026-04-01T18:42:08.999Z</time></trkpt><trkpt lat="42.429319831577075" lon="-8.07207272113592"><ele>386.0</ele><time>2026-04-01T18:42:09.999Z</time></trkpt><trkpt lat="42.42926401478041" lon="-8.071952747734098"><ele>386.0</ele><time>2026-04-01T18:42:10.999Z</time></trkpt><trkpt lat="42.42921331591588" lon="-8.071840985185728"><ele>386.0</ele><time>2026-04-01T18:42:11.999Z</time></trkpt><trkpt lat="42.42916386102136" lon="-8.071728627185772"><ele>386.0</ele><time>2026-04-01T18:42:12.999Z</time></trkpt><trkpt lat="42.42911217715571" lon="-8.071602521218717"><ele>386.0</ele><time>2026-04-01T18:42:13.999Z</time></trkpt><trkpt lat="42.429051560738365" lon="-8.07145239896912"><ele>386.0</ele><time>2026-04-01T18:42:14.999Z</time></trkpt><trkpt lat="42.429003988961924" lon="-8.071333389308709"><ele>385.6</ele><time>2026-04-01T18:42:15.999Z</time></trkpt><trkpt lat="42.42896505097967" lon="-8.07123597878175"><ele>385.20000000000005</ele><time>2026-04-01T18:42:16.999Z</time></trkpt><trkpt lat="42.428916824364336" lon="-8.071115327780696"><ele>384.79999999999995</ele><time>2026-04-01T18:42:17.999Z</time></trkpt><trkpt lat="42.42887166149866" lon="-8.070995873257322"><ele>384.4</ele><time>2026-04-01T18:42:18.999Z</time></trkpt><trkpt lat="42.428831590875525" lon="-8.070879458447859"><ele>384.0</ele><time>2026-04-01T18:42:19.999Z</time></trkpt><trkpt lat="42.428789174485274" lon="-8.07075042249035"><ele>383.8333333333333</ele><time>2026-04-01T18:42:20.999Z</time></trkpt><trkpt lat="42.42876133183105" lon="-8.070623844340053"><ele>383.6666666666667</ele><time>2026-04-01T18:42:21.999Z</time></trkpt><trkpt lat="42.42873156402948" lon="-8.070503437012595"><ele>383.5</ele><time>2026-04-01T18:42:22.999Z</time></trkpt><trkpt lat="42.42870566845126" lon="-8.070400238739563"><ele>383.33333333333337</ele><time>2026-04-01T18:42:23.999Z</time></trkpt><trkpt lat="42.428677202265035" lon="-8.070296328445238"><ele>383.1666666666667</ele><time>2026-04-01T18:42:24.999Z</time></trkpt><trkpt lat="42.428648105014204" lon="-8.070204145702078"><ele>383.0</ele><time>2026-04-01T18:42:25.999Z</time></trkpt><trkpt lat="42.4286161002455" lon="-8.070119320314149"><ele>383.0</ele><time>2026-04-01T18:42:26.999Z</time></trkpt><trkpt lat="42.428581253388664" lon="-8.070033982178987"><ele>383.0</ele><time>2026-04-01T18:42:27.999Z</time></trkpt><trkpt lat="42.428540283138325" lon="-8.069954987371597"><ele>383.0</ele><time>2026-04-01T18:42:28.999Z</time></trkpt><trkpt lat="42.42849642227922" lon="-8.069877757603704"><ele>383.0</ele><time>2026-04-01T18:42:29.999Z</time></trkpt><trkpt lat="42.428446145083925" lon="-8.069798125676778"><ele>383.0</ele><time>2026-04-01T18:42:30.999Z</time></trkpt><trkpt lat="42.42839636701292" lon="-8.069727850383313"><ele>383.0</ele><time>2026-04-01T18:42:31.999Z</time></trkpt><trkpt lat="42.42834376654123" lon="-8.069665317284269"><ele>383.0</ele><time>2026-04-01T18:42:32.999Z</time></trkpt><trkpt lat="42.4282862427109" lon="-8.069605070781082"><ele>383.83333333333337</ele><time>2026-04-01T18:42:33.999Z</time></trkpt><trkpt lat="42.42822791220617" lon="-8.06955584276524"><ele>384.6666666666667</ele><time>2026-04-01T18:42:34.999Z</time></trkpt><trkpt lat="42.42815832814039" lon="-8.069517188668604"><ele>385.5</ele><time>2026-04-01T18:42:35.999Z</time></trkpt><trkpt lat="42.428080772607636" lon="-8.069474081806218"><ele>386.33333333333337</ele><time>2026-04-01T18:42:36.999Z</time></trkpt><trkpt lat="42.42799212300724" lon="-8.069485887170261"><ele>387.1666666666667</ele><time>2026-04-01T18:42:37.999Z</time></trkpt><trkpt lat="42.4278964658522" lon="-8.069527814053437"><ele>388.0</ele><time>2026-04-01T18:42:38.999Z</time></trkpt><trkpt lat="42.427808807167914" lon="-8.069569686272802"><ele>389.79999999999995</ele><time>2026-04-01T18:42:39.999Z</time></trkpt><trkpt lat="42.427728152206996" lon="-8.069623099092944"><ele>391.6</ele><time>2026-04-01T18:42:40.999Z</time></trkpt><trkpt lat="42.42761616841997" lon="-8.069661152094467"><ele>393.4</ele><time>2026-04-01T18:42:41.999Z</time></trkpt><trkpt lat="42.42750876205276" lon="-8.069707899612256"><ele>395.20000000000005</ele><time>2026-04-01T18:42:42.999Z</time></trkpt><trkpt lat="42.42739791696997" lon="-8.069765032204923"><ele>397.0</ele><time>2026-04-01T18:42:43.999Z</time></trkpt><trkpt lat="42.427281162266745" lon="-8.069816111477987"><ele>397.0</ele><time>2026-04-01T18:42:44.999Z</time></trkpt><trkpt lat="42.427155321317606" lon="-8.069863773943807"><ele>397.0</ele><time>2026-04-01T18:42:45.999Z</time></trkpt><trkpt lat="42.42702612865574" lon="-8.069895276159528"><ele>397.0</ele><time>2026-04-01T18:42:46.999Z</time></trkpt><trkpt lat="42.42689889147943" lon="-8.06992634103051"><ele>397.0</ele><time>2026-04-01T18:42:47.999Z</time></trkpt><trkpt lat="42.42676637262818" lon="-8.069946097934753"><ele>399.25</ele><time>2026-04-01T18:42:48.999Z</time></trkpt><trkpt lat="42.426640216232215" lon="-8.069964576539233"><ele>401.5</ele><time>2026-04-01T18:42:49.999Z</time></trkpt><trkpt lat="42.426506049763994" lon="-8.069983454059873"><ele>403.75</ele><time>2026-04-01T18:42:51Z</time></trkpt><trkpt lat="42.426382829206354" lon="-8.070009234511524"><ele>406.0</ele><time>2026-04-01T18:42:52Z</time></trkpt><trkpt lat="42.42625763621049" lon="-8.070033988012948"><ele>406.25</ele><time>2026-04-01T18:42:53Z</time></trkpt><trkpt lat="42.426134680189094" lon="-8.070060912962399"><ele>406.5</ele><time>2026-04-01T18:42:54Z</time></trkpt><trkpt lat="42.42600810318417" lon="-8.070079218276744"><ele>406.75</ele><time>2026-04-01T18:42:55Z</time></trkpt><trkpt lat="42.42589115402773" lon="-8.070087653398582"><ele>407.0</ele><time>2026-04-01T18:42:56Z</time></trkpt><trkpt lat="42.425788934940655" lon="-8.07010393754718"><ele>407.0</ele><time>2026-04-01T18:42:57Z</time></trkpt><trkpt lat="42.42569763429213" lon="-8.070117257692786"><ele>407.0</ele><time>2026-04-01T18:42:58Z</time></trkpt><trkpt lat="42.425610312023494" lon="-8.070139452696257"><ele>407.0</ele><time>2026-04-01T18:42:59Z</time></trkpt><trkpt lat="42.42550703382726" lon="-8.070155155993385"><ele>407.0</ele><time>2026-04-01T18:43:00Z</time></trkpt><trkpt lat="42.42540023805986" lon="-8.070162061359136"><ele>407.0</ele><time>2026-04-01T18:43:01Z</time></trkpt><trkpt lat="42.42529315611406" lon="-8.070184975134561"><ele>407.6</ele><time>2026-04-01T18:43:02Z</time></trkpt><trkpt lat="42.42518397376083" lon="-8.070195559504194"><ele>408.20000000000005</ele><time>2026-04-01T18:43:03Z</time></trkpt><trkpt lat="42.42507674736825" lon="-8.070217341201134"><ele>408.8</ele><time>2026-04-01T18:43:04Z</time></trkpt><trkpt lat="42.424965349169476" lon="-8.070249963352246"><ele>409.4</ele><time>2026-04-01T18:43:05Z</time></trkpt><trkpt lat="42.42486783472516" lon="-8.070311617045512"><ele>410.0</ele><time>2026-04-01T18:43:06Z</time></trkpt><trkpt lat="42.42477372186341" lon="-8.070398987321296"><ele>410.0</ele><time>2026-04-01T18:43:07Z</time></trkpt><trkpt lat="42.42469155482747" lon="-8.070502385058088"><ele>410.0</ele><time>2026-04-01T18:43:08Z</time></trkpt><trkpt lat="42.424610870243754" lon="-8.070610031162666"><ele>410.0</ele><time>2026-04-01T18:43:09Z</time></trkpt><trkpt lat="42.424527674803514" lon="-8.0707087868676"><ele>410.0</ele><time>2026-04-01T18:43:10Z</time></trkpt><trkpt lat="42.424445279994856" lon="-8.070805873932763"><ele>410.0</ele><time>2026-04-01T18:43:11Z</time></trkpt><trkpt lat="42.42436543697993" lon="-8.070906139044448"><ele>411.0</ele><time>2026-04-01T18:43:12Z</time></trkpt><trkpt lat="42.424282089547106" lon="-8.071010143151792"><ele>412.0</ele><time>2026-04-01T18:43:13Z</time></trkpt><trkpt lat="42.42419988773738" lon="-8.071113359403896"><ele>413.0</ele><time>2026-04-01T18:43:14Z</time></trkpt><trkpt lat="42.424119185570106" lon="-8.071218734478904"><ele>414.0</ele><time>2026-04-01T18:43:15Z</time></trkpt><trkpt lat="42.42404151076464" lon="-8.071325119051856"><ele>415.0</ele><time>2026-04-01T18:43:16Z</time></trkpt><trkpt lat="42.42395707473815" lon="-8.071433239536727"><ele>415.0</ele><time>2026-04-01T18:43:17Z</time></trkpt><trkpt lat="42.42387336119164" lon="-8.07154256472552"><ele>415.0</ele><time>2026-04-01T18:43:18Z</time></trkpt><trkpt lat="42.42379560875464" lon="-8.07164886589404"><ele>415.0</ele><time>2026-04-01T18:43:19Z</time></trkpt><trkpt lat="42.42371581759335" lon="-8.071759360894642"><ele>415.0</ele><time>2026-04-01T18:43:20Z</time></trkpt><trkpt lat="42.423638797899805" lon="-8.071856322836082"><ele>415.0</ele><time>2026-04-01T18:43:21Z</time></trkpt><trkpt lat="42.42356935107384" lon="-8.071953728680912"><ele>414.50000000000006</ele><time>2026-04-01T18:43:22Z</time></trkpt><trkpt lat="42.42350540778264" lon="-8.072038928371379"><ele>414.0</ele><time>2026-04-01T18:43:23Z</time></trkpt><trkpt lat="42.42345554849785" lon="-8.0721049036706"><ele>413.5</ele><time>2026-04-01T18:43:24Z</time></trkpt><trkpt lat="42.42337394832895" lon="-8.072210871969025"><ele>413.0</ele><time>2026-04-01T18:43:26Z</time></trkpt><trkpt lat="42.42332876218343" lon="-8.072274124669224"><ele>412.50000000000006</ele><time>2026-04-01T18:43:30Z</time></trkpt><trkpt lat="42.42325965493138" lon="-8.072328854205292"><ele>412.0</ele><time>2026-04-01T18:43:36Z</time></trkpt><trkpt lat="42.42313803141714" lon="-8.072403119882738"><ele>412.0</ele><time>2026-04-01T18:43:38Z</time></trkpt><trkpt lat="42.423041166750785" lon="-8.072405644817884"><ele>412.0</ele><time>2026-04-01T18:43:39Z</time></trkpt><trkpt lat="42.422952934393976" lon="-8.072427234810252"><ele>412.0</ele><time>2026-04-01T18:43:39.999Z</time></trkpt><trkpt lat="42.42285794698546" lon="-8.072455963292247"><ele>412.0</ele><time>2026-04-01T18:43:40.999Z</time></trkpt><trkpt lat="42.42275307638549" lon="-8.072487393353782"><ele>412.0</ele><time>2026-04-01T18:43:41.999Z</time></trkpt><trkpt lat="42.42265861508294" lon="-8.072510551449975"><ele>412.40000000000003</ele><time>2026-04-01T18:43:42.999Z</time></trkpt><trkpt lat="42.4225720835342" lon="-8.072494974022483"><ele>412.8</ele><time>2026-04-01T18:43:43.999Z</time></trkpt><trkpt lat="42.4224951270912" lon="-8.072521061902691"><ele>413.2</ele><time>2026-04-01T18:43:44.999Z</time></trkpt><trkpt lat="42.42238324181085" lon="-8.072527605200333"><ele>413.6</ele><time>2026-04-01T18:43:46.999Z</time></trkpt><trkpt lat="42.42228525349831" lon="-8.072545146806975"><ele>414.0</ele><time>2026-04-01T18:43:48.999Z</time></trkpt><trkpt lat="42.42221257496303" lon="-8.072579311600798"><ele>414.0</ele><time>2026-04-01T18:43:50.999Z</time></trkpt><trkpt lat="42.42212798024094" lon="-8.072630164304563"><ele>414.0</ele><time>2026-04-01T18:43:53.999Z</time></trkpt><trkpt lat="42.42198743362322" lon="-8.072522685560672"><ele>414.0</ele><time>2026-04-01T18:43:56.999Z</time></trkpt><trkpt lat="42.42192455218898" lon="-8.072470081405065"><ele>414.0</ele><time>2026-04-01T18:43:57.999Z</time></trkpt><trkpt lat="42.42185209942709" lon="-8.072441415071689"><ele>414.0</ele><time>2026-04-01T18:43:58.999Z</time></trkpt><trkpt lat="42.421770386544516" lon="-8.072442375852072"><ele>414.0</ele><time>2026-04-01T18:43:59.999Z</time></trkpt><trkpt lat="42.42168707435634" lon="-8.0724299533223"><ele>414.0</ele><time>2026-04-01T18:44:00.999Z</time></trkpt><trkpt lat="42.42161162648267" lon="-8.072404062272449"><ele>414.0</ele><time>2026-04-01T18:44:01.999Z</time></trkpt><trkpt lat="42.42153122570193" lon="-8.072388588500043"><ele>414.0</ele><time>2026-04-01T18:44:02.999Z</time></trkpt><trkpt lat="42.421456430538456" lon="-8.072418460345304"><ele>414.0</ele><time>2026-04-01T18:44:03.999Z</time></trkpt><trkpt lat="42.421389696137844" lon="-8.072444062107207"><ele>414.0</ele><time>2026-04-01T18:44:04.999Z</time></trkpt><trkpt lat="42.42132695220333" lon="-8.072485284020104"><ele>414.0</ele><time>2026-04-01T18:44:05.999Z</time></trkpt><trkpt lat="42.42126952435642" lon="-8.072541386236415"><ele>414.0</ele><time>2026-04-01T18:44:06.999Z</time></trkpt><trkpt lat="42.42120767369785" lon="-8.072601323019887"><ele>414.0</ele><time>2026-04-01T18:44:07.999Z</time></trkpt><trkpt lat="42.4211351609294" lon="-8.072643660380201"><ele>414.0</ele><time>2026-04-01T18:44:08.999Z</time></trkpt><trkpt lat="42.42107390997822" lon="-8.072701931259918"><ele>414.0</ele><time>2026-04-01T18:44:09.999Z</time></trkpt><trkpt lat="42.42101229636051" lon="-8.072765249021147"><ele>414.0</ele><time>2026-04-01T18:44:10.999Z</time></trkpt><trkpt lat="42.42094767785442" lon="-8.07281479688831"><ele>414.0</ele><time>2026-04-01T18:44:11.999Z</time></trkpt><trkpt lat="42.42088797557906" lon="-8.072875901956083"><ele>414.0</ele><time>2026-04-01T18:44:12.999Z</time></trkpt><trkpt lat="42.42081978208742" lon="-8.072922144680218"><ele>414.0</ele><time>2026-04-01T18:44:13.999Z</time></trkpt><trkpt lat="42.420761053063856" lon="-8.072970422749789"><ele>414.0</ele><time>2026-04-01T18:44:14.999Z</time></trkpt><trkpt lat="42.42070308094203" lon="-8.073014507515625"><ele>414.0</ele><time>2026-04-01T18:44:15.999Z</time></trkpt><trkpt lat="42.420610083617376" lon="-8.073101318719983"><ele>414.0</ele><time>2026-04-01T18:44:17.999Z</time></trkpt><trkpt lat="42.42052259356673" lon="-8.07318872279344"><ele>413.0</ele><time>2026-04-01T18:44:19.999Z</time></trkpt><trkpt lat="42.420418272693205" lon="-8.07325166638409"><ele>412.0</ele><time>2026-04-01T18:44:21.999Z</time></trkpt><trkpt lat="42.42031536266128" lon="-8.073318407570627"><ele>411.0</ele><time>2026-04-01T18:44:23.999Z</time></trkpt><trkpt lat="42.42032221188137" lon="-8.07354553368876"><ele>410.0</ele><time>2026-04-01T18:44:26.999Z</time></trkpt><trkpt lat="42.42038797239118" lon="-8.07367508734551"><ele>410.0</ele><time>2026-04-01T18:44:28.999Z</time></trkpt><trkpt lat="42.42043135045879" lon="-8.073784500579096"><ele>410.0</ele><time>2026-04-01T18:44:30.999Z</time></trkpt><trkpt lat="42.42032958773239" lon="-8.073897544896717"><ele>410.0</ele><time>2026-04-01T18:44:31.999Z</time></trkpt><trkpt lat="42.42026616748706" lon="-8.073969075334146"><ele>410.0</ele><time>2026-04-01T18:44:32.999Z</time></trkpt><trkpt lat="42.42019887956196" lon="-8.074055890714641"><ele>410.0</ele><time>2026-04-01T18:44:33.999Z</time></trkpt><trkpt lat="42.4201286523918" lon="-8.074139419742131"><ele>410.3333333333333</ele><time>2026-04-01T18:44:34.999Z</time></trkpt><trkpt lat="42.42006687556515" lon="-8.074217208214757"><ele>410.66666666666663</ele><time>2026-04-01T18:44:35.999Z</time></trkpt><trkpt lat="42.42000023423786" lon="-8.07428877259943"><ele>411.0</ele><time>2026-04-01T18:44:36.999Z</time></trkpt><trkpt lat="42.41993305919663" lon="-8.07436388414157"><ele>411.33333333333337</ele><time>2026-04-01T18:44:37.999Z</time></trkpt><trkpt lat="42.41986871250977" lon="-8.074443675149631"><ele>411.6666666666667</ele><time>2026-04-01T18:44:38.999Z</time></trkpt><trkpt lat="42.41981840249353" lon="-8.074500078504526"><ele>412.0</ele><time>2026-04-01T18:44:39.999Z</time></trkpt><trkpt lat="42.41975226542148" lon="-8.074575363539383"><ele>412.00000000000006</ele><time>2026-04-01T18:44:40.999Z</time></trkpt><trkpt lat="42.41970404512795" lon="-8.074651649830624"><ele>412.0</ele><time>2026-04-01T18:44:41.999Z</time></trkpt><trkpt lat="42.419626940401436" lon="-8.074776589308051"><ele>412.0</ele><time>2026-04-01T18:44:43.999Z</time></trkpt><trkpt lat="42.419560177585915" lon="-8.074885625552934"><ele>412.0</ele><time>2026-04-01T18:44:45.999Z</time></trkpt><trkpt lat="42.41951560043453" lon="-8.074958215919306"><ele>412.00000000000006</ele><time>2026-04-01T18:44:47.999Z</time></trkpt><trkpt lat="42.41946752453787" lon="-8.075014078589849"><ele>412.0</ele><time>2026-04-01T18:44:51.999Z</time></trkpt><trkpt lat="42.419396707672604" lon="-8.07487203556291"><ele>413.0</ele><time>2026-04-01T18:44:55.999Z</time></trkpt></trkseg></trk></gpx>